<?xml version='1.0' encoding='UTF-8'?><gpx version="1.1" creator="JPX - https://github.com/jenetics/jpx" xmlns="http://www.topografix.com/GPX/1/1"><trk><trkseg><trkpt lat="44.88429844874358" lon="-1.108069398109203"><ele>22.0</ele><time>2026-04-26T12:59:40.001Z</time></trkpt><trkpt lat="44.88452507042272" lon="-1.1080627962125154"><ele>22.0</ele><time>2026-04-26T12:59:42.001Z</time></trkpt><trkpt lat="44.88461845371899" lon="-1.108057203642296"><ele>22.0</ele><time>2026-04-26T12:59:43.001Z</time></trkpt><trkpt lat="44.884714580961756" lon="-1.1080482537779632"><ele>22.0</ele><time>2026-04-26T12:59:44.001Z</time></trkpt><trkpt lat="44.88478093448086" lon="-1.108039707858798"><ele>22.0</ele><time>2026-04-26T12:59:45.001Z</time></trkpt><trkpt lat="44.88484380558268" lon="-1.108200990917639"><ele>22.0</ele><time>2026-04-26T12:59:48.001Z</time></trkpt><trkpt lat="44.884870427157615" lon="-1.108307680919189"><ele>22.0</ele><time>2026-04-26T12:59:49.001Z</time></trkpt><trkpt lat="44.884893715732595" lon="-1.1085420018014829"><ele>22.0</ele><time>2026-04-26T12:59:50Z</time></trkpt><trkpt lat="44.88491884941698" lon="-1.10875745361422"><ele>21.5</ele><time>2026-04-26T12:59:51Z</time></trkpt><trkpt lat="44.88492129252559" lon="-1.1089454571122577"><ele>21.0</ele><time>2026-04-26T12:59:52Z</time></trkpt><trkpt lat="44.88490834210264" lon="-1.1091514169727792"><ele>20.5</ele><time>2026-04-26T12:59:53Z</time></trkpt><trkpt lat="44.88488602230057" lon="-1.1093725723960568"><ele>20.0</ele><time>2026-04-26T12:59:54Z</time></trkpt><trkpt lat="44.88485114617059" lon="-1.1096552362020429"><ele>19.666666666666668</ele><time>2026-04-26T12:59:55Z</time></trkpt><trkpt lat="44.88483213147926" lon="-1.109911161676156"><ele>19.333333333333332</ele><time>2026-04-26T12:59:56Z</time></trkpt><trkpt lat="44.884821173831774" lon="-1.1101467526994804"><ele>19.0</ele><time>2026-04-26T12:59:57Z</time></trkpt><trkpt lat="44.88483218458435" lon="-1.1103978804920578"><ele>19.0</ele><time>2026-04-26T12:59:58Z</time></trkpt><trkpt lat="44.88484369149813" lon="-1.1106520622618101"><ele>19.0</ele><time>2026-04-26T12:59:59Z</time></trkpt><trkpt lat="44.88486384239121" lon="-1.11089336956298"><ele>19.0</ele><time>2026-04-26T13:00:00Z</time></trkpt><trkpt lat="44.88486971137235" lon="-1.1111278386650056"><ele>18.666666666666664</ele><time>2026-04-26T13:00:01Z</time></trkpt><trkpt lat="44.884866958258705" lon="-1.1113471199267946"><ele>18.333333333333332</ele><time>2026-04-26T13:00:02Z</time></trkpt><trkpt lat="44.8848633710781" lon="-1.1116131433139793"><ele>18.0</ele><time>2026-04-26T13:00:03Z</time></trkpt><trkpt lat="44.884864498074954" lon="-1.1119074500210802"><ele>18.0</ele><time>2026-04-26T13:00:04Z</time></trkpt><trkpt lat="44.88487115022906" lon="-1.1122073749538102"><ele>18.0</ele><time>2026-04-26T13:00:05Z</time></trkpt><trkpt lat="44.8848793428762" lon="-1.1124449405772672"><ele>18.0</ele><time>2026-04-26T13:00:06Z</time></trkpt><trkpt lat="44.884890612508386" lon="-1.1126401268543573"><ele>18.0</ele><time>2026-04-26T13:00:07Z</time></trkpt><trkpt lat="44.88490322989309" lon="-1.1128237990732277"><ele>18.0</ele><time>2026-04-26T13:00:08Z</time></trkpt><trkpt lat="44.884913879170796" lon="-1.1129789046170802"><ele>18.0</ele><time>2026-04-26T13:00:09Z</time></trkpt><trkpt lat="44.88494598758393" lon="-1.113172506361247"><ele>18.0</ele><time>2026-04-26T13:00:10Z</time></trkpt><trkpt lat="44.8849825787206" lon="-1.113393608147013"><ele>18.0</ele><time>2026-04-26T13:00:11Z</time></trkpt><trkpt lat="44.8850218699756" lon="-1.1136341863794499"><ele>18.0</ele><time>2026-04-26T13:00:12Z</time></trkpt><trkpt lat="44.885052233653276" lon="-1.1138812717078888"><ele>18.0</ele><time>2026-04-26T13:00:13Z</time></trkpt><trkpt lat="44.88506159221483" lon="-1.1141169742493102"><ele>17.75</ele><time>2026-04-26T13:00:14Z</time></trkpt><trkpt lat="44.88506016368717" lon="-1.1143022778080682"><ele>17.5</ele><time>2026-04-26T13:00:15Z</time></trkpt><trkpt lat="44.885084145639944" lon="-1.114477107302157"><ele>17.25</ele><time>2026-04-26T13:00:16Z</time></trkpt><trkpt lat="44.88510932199878" lon="-1.1146399614360438"><ele>17.0</ele><time>2026-04-26T13:00:16.999Z</time></trkpt><trkpt lat="44.885112861411336" lon="-1.114817879540565"><ele>17.6</ele><time>2026-04-26T13:00:17.999Z</time></trkpt><trkpt lat="44.88512864775936" lon="-1.1150202243436758"><ele>18.2</ele><time>2026-04-26T13:00:18.999Z</time></trkpt><trkpt lat="44.88512875321001" lon="-1.1151776478249993"><ele>18.8</ele><time>2026-04-26T13:00:19.999Z</time></trkpt><trkpt lat="44.885146534341146" lon="-1.115298327242754"><ele>19.4</ele><time>2026-04-26T13:00:21.999Z</time></trkpt><trkpt lat="44.88517702958989" lon="-1.115385867984483"><ele>20.0</ele><time>2026-04-26T13:00:23.999Z</time></trkpt><trkpt lat="44.88520972393145" lon="-1.1155698913600314"><ele>20.666666666666668</ele><time>2026-04-26T13:00:25.999Z</time></trkpt><trkpt lat="44.88522798626185" lon="-1.115758301734183"><ele>21.333333333333332</ele><time>2026-04-26T13:00:26.999Z</time></trkpt><trkpt lat="44.88524999685914" lon="-1.1160098856627065"><ele>22.0</ele><time>2026-04-26T13:00:27.999Z</time></trkpt><trkpt lat="44.88526498137119" lon="-1.1162749594183103"><ele>22.0</ele><time>2026-04-26T13:00:28.999Z</time></trkpt><trkpt lat="44.88528620758116" lon="-1.116568227578682"><ele>22.0</ele><time>2026-04-26T13:00:29.999Z</time></trkpt><trkpt lat="44.885331022072165" lon="-1.1169251802241085"><ele>22.0</ele><time>2026-04-26T13:00:30.999Z</time></trkpt><trkpt lat="44.88538074340779" lon="-1.1172978318797309"><ele>22.0</ele><time>2026-04-26T13:00:31.999Z</time></trkpt><trkpt lat="44.885371914792394" lon="-1.1175163740658902"><ele>22.0</ele><time>2026-04-26T13:00:32.999Z</time></trkpt><trkpt lat="44.885398466497854" lon="-1.1177894426304045"><ele>22.666666666666664</ele><time>2026-04-26T13:00:33.999Z</time></trkpt><trkpt lat="44.885425742626516" lon="-1.1180236701219095"><ele>23.333333333333332</ele><time>2026-04-26T13:00:34.999Z</time></trkpt><trkpt lat="44.88543716406853" lon="-1.1182727801473358"><ele>24.0</ele><time>2026-04-26T13:00:35.999Z</time></trkpt><trkpt lat="44.88545376242853" lon="-1.118537849192343"><ele>24.25</ele><time>2026-04-26T13:00:36.999Z</time></trkpt><trkpt lat="44.88546963290585" lon="-1.118744014330706"><ele>24.5</ele><time>2026-04-26T13:00:37.999Z</time></trkpt><trkpt lat="44.88548345632608" lon="-1.1189192926498701"><ele>24.75</ele><time>2026-04-26T13:00:38.999Z</time></trkpt><trkpt lat="44.88549610364168" lon="-1.1190710295039727"><ele>25.0</ele><time>2026-04-26T13:00:39.999Z</time></trkpt><trkpt lat="44.88550656459725" lon="-1.1191932824634183"><ele>25.0</ele><time>2026-04-26T13:00:40.999Z</time></trkpt><trkpt lat="44.885530762885466" lon="-1.1193308749421607"><ele>25.0</ele><time>2026-04-26T13:00:41.999Z</time></trkpt><trkpt lat="44.88556525144367" lon="-1.1195149806394413"><ele>25.0</ele><time>2026-04-26T13:00:42.999Z</time></trkpt><trkpt lat="44.88563137881199" lon="-1.1197223605426607"><ele>25.0</ele><time>2026-04-26T13:00:43.999Z</time></trkpt><trkpt lat="44.88571349037335" lon="-1.1199970739236627"><ele>24.0</ele><time>2026-04-26T13:00:44.999Z</time></trkpt><trkpt lat="44.88579433206061" lon="-1.120308913318997"><ele>23.0</ele><time>2026-04-26T13:00:45.999Z</time></trkpt><trkpt lat="44.885868591929786" lon="-1.120640038544542"><ele>24.5</ele><time>2026-04-26T13:00:46.999Z</time></trkpt><trkpt lat="44.885950054622235" lon="-1.1209820190850124"><ele>26.0</ele><time>2026-04-26T13:00:47.999Z</time></trkpt><trkpt lat="44.88603004642527" lon="-1.1212728271349337"><ele>25.0</ele><time>2026-04-26T13:00:48.999Z</time></trkpt><trkpt lat="44.8861210164522" lon="-1.121604125034703"><ele>24.0</ele><time>2026-04-26T13:00:49.999Z</time></trkpt><trkpt lat="44.88620381822065" lon="-1.121909842473055"><ele>24.0</ele><time>2026-04-26T13:00:50.999Z</time></trkpt><trkpt lat="44.88627072802021" lon="-1.1221582941206478"><ele>24.0</ele><time>2026-04-26T13:00:51.999Z</time></trkpt><trkpt lat="44.88632633441388" lon="-1.1223998840017015"><ele>24.0</ele><time>2026-04-26T13:00:52.999Z</time></trkpt><trkpt lat="44.886375586308105" lon="-1.1225720602332603"><ele>23.0</ele><time>2026-04-26T13:00:53.999Z</time></trkpt><trkpt lat="44.886416264237845" lon="-1.1226992569511114"><ele>22.0</ele><time>2026-04-26T13:00:54.999Z</time></trkpt><trkpt lat="44.88645187076061" lon="-1.122791599589142"><ele>21.0</ele><time>2026-04-26T13:00:56.999Z</time></trkpt><trkpt lat="44.88639114168849" lon="-1.1228586765091988"><ele>20.0</ele><time>2026-04-26T13:00:59.999Z</time></trkpt><trkpt lat="44.88635617165301" lon="-1.122960898665401"><ele>19.0</ele><time>2026-04-26T13:01:02.998Z</time></trkpt><trkpt lat="44.886377400218656" lon="-1.1230586720868019"><ele>18.0</ele><time>2026-04-26T13:01:05.998Z</time></trkpt><trkpt lat="44.88636490417628" lon="-1.1231656224688815"><ele>17.0</ele><time>2026-04-26T13:01:07.998Z</time></trkpt><trkpt lat="44.88640963609244" lon="-1.1233229732330907"><ele>16.0</ele><time>2026-04-26T13:01:08.998Z</time></trkpt><trkpt lat="44.886422006660005" lon="-1.1234758070398365"><ele>15.0</ele><time>2026-04-26T13:01:09.998Z</time></trkpt><trkpt lat="44.886440883441885" lon="-1.123648224606532"><ele>14.0</ele><time>2026-04-26T13:01:10.998Z</time></trkpt><trkpt lat="44.8864733633518" lon="-1.1238537446328387"><ele>14.333333333333334</ele><time>2026-04-26T13:01:11.998Z</time></trkpt><trkpt lat="44.88651254907409" lon="-1.124095614300224"><ele>14.666666666666668</ele><time>2026-04-26T13:01:12.998Z</time></trkpt><trkpt lat="44.88655003030332" lon="-1.1243923509355158"><ele>15.0</ele><time>2026-04-26T13:01:13.998Z</time></trkpt><trkpt lat="44.88660007336512" lon="-1.1247066141723603"><ele>14.5</ele><time>2026-04-26T13:01:14.998Z</time></trkpt><trkpt lat="44.88665078291537" lon="-1.125061380192631"><ele>14.0</ele><time>2026-04-26T13:01:15.998Z</time></trkpt><trkpt lat="44.88671090423149" lon="-1.1254469912948146"><ele>16.5</ele><time>2026-04-26T13:01:16.998Z</time></trkpt><trkpt lat="44.886772129385484" lon="-1.125857303122483"><ele>19.0</ele><time>2026-04-26T13:01:17.998Z</time></trkpt><trkpt lat="44.88682011048407" lon="-1.1262022273291539"><ele>19.0</ele><time>2026-04-26T13:01:18.998Z</time></trkpt><trkpt lat="44.886856044888766" lon="-1.1265425878458963"><ele>19.0</ele><time>2026-04-26T13:01:19.998Z</time></trkpt><trkpt lat="44.88688831022666" lon="-1.1268537612023173"><ele>19.0</ele><time>2026-04-26T13:01:20.998Z</time></trkpt><trkpt lat="44.88692385279871" lon="-1.127097291162662"><ele>19.0</ele><time>2026-04-26T13:01:21.998Z</time></trkpt><trkpt lat="44.88695824535682" lon="-1.1272821057483702"><ele>19.0</ele><time>2026-04-26T13:01:22.998Z</time></trkpt><trkpt lat="44.8869682482754" lon="-1.127403477664096"><ele>19.0</ele><time>2026-04-26T13:01:23.998Z</time></trkpt><trkpt lat="44.88698591315386" lon="-1.127525006222924"><ele>18.599999999999998</ele><time>2026-04-26T13:01:24.998Z</time></trkpt><trkpt lat="44.88700552449723" lon="-1.1276167733212683"><ele>18.2</ele><time>2026-04-26T13:01:26.998Z</time></trkpt><trkpt lat="44.88704310911024" lon="-1.127847130593145"><ele>17.799999999999997</ele><time>2026-04-26T13:02:48.999Z</time></trkpt><trkpt lat="44.8870624683124" lon="-1.1279573519961448"><ele>17.4</ele><time>2026-04-26T13:02:49.999Z</time></trkpt><trkpt lat="44.88707575986499" lon="-1.128089515086741"><ele>17.0</ele><time>2026-04-26T13:02:50.999Z</time></trkpt><trkpt lat="44.887090629777354" lon="-1.1282632198827889"><ele>17.0</ele><time>2026-04-26T13:02:51.999Z</time></trkpt><trkpt lat="44.88710506225912" lon="-1.1284217984957765"><ele>17.0</ele><time>2026-04-26T13:02:52.999Z</time></trkpt><trkpt lat="44.887125006171985" lon="-1.1285718089470913"><ele>17.0</ele><time>2026-04-26T13:02:53.999Z</time></trkpt><trkpt lat="44.88716388044268" lon="-1.1287330438319185"><ele>17.0</ele><time>2026-04-26T13:02:54.999Z</time></trkpt><trkpt lat="44.887183023994105" lon="-1.128942076243115"><ele>16.333333333333336</ele><time>2026-04-26T13:02:55.999Z</time></trkpt><trkpt lat="44.88721045703802" lon="-1.129160329062708"><ele>15.666666666666668</ele><time>2026-04-26T13:02:56.999Z</time></trkpt><trkpt lat="44.887238026906445" lon="-1.1294113046514238"><ele>15.0</ele><time>2026-04-26T13:02:57.999Z</time></trkpt><trkpt lat="44.88727052162641" lon="-1.129666569651322"><ele>15.0</ele><time>2026-04-26T13:02:58.999Z</time></trkpt><trkpt lat="44.88730989929721" lon="-1.1299363120195802"><ele>15.0</ele><time>2026-04-26T13:02:59.999Z</time></trkpt><trkpt lat="44.88734534334357" lon="-1.1302075616479308"><ele>15.0</ele><time>2026-04-26T13:03:00.999Z</time></trkpt><trkpt lat="44.887381859242105" lon="-1.130474802382663"><ele>15.0</ele><time>2026-04-26T13:03:01.999Z</time></trkpt><trkpt lat="44.88741794510007" lon="-1.1307075539690337"><ele>15.0</ele><time>2026-04-26T13:03:02.998Z</time></trkpt><trkpt lat="44.887450809623175" lon="-1.1309392158125855"><ele>15.0</ele><time>2026-04-26T13:03:03.998Z</time></trkpt><trkpt lat="44.88747779073934" lon="-1.1311736850124787"><ele>14.666666666666668</ele><time>2026-04-26T13:03:04.998Z</time></trkpt><trkpt lat="44.88751423356369" lon="-1.1314045152598091"><ele>14.333333333333334</ele><time>2026-04-26T13:03:05.998Z</time></trkpt><trkpt lat="44.887555808852646" lon="-1.1317007472057914"><ele>14.0</ele><time>2026-04-26T13:03:06.998Z</time></trkpt><trkpt lat="44.88760305160629" lon="-1.1320408285134365"><ele>14.5</ele><time>2026-04-26T13:03:07.998Z</time></trkpt><trkpt lat="44.88765225113684" lon="-1.1324010686040475"><ele>15.0</ele><time>2026-04-26T13:03:08.998Z</time></trkpt><trkpt lat="44.88769240926208" lon="-1.132704247452622"><ele>15.0</ele><time>2026-04-26T13:03:09.998Z</time></trkpt><trkpt lat="44.88773931928401" lon="-1.133026403350296"><ele>15.0</ele><time>2026-04-26T13:03:10.998Z</time></trkpt><trkpt lat="44.88777728154952" lon="-1.133337499732588"><ele>15.333333333333332</ele><time>2026-04-26T13:03:11.998Z</time></trkpt><trkpt lat="44.88781331045752" lon="-1.1335844246979918"><ele>15.666666666666666</ele><time>2026-04-26T13:03:12.998Z</time></trkpt><trkpt lat="44.88784845341933" lon="-1.1338658114625435"><ele>16.0</ele><time>2026-04-26T13:03:13.998Z</time></trkpt><trkpt lat="44.88788056074375" lon="-1.134110001067811"><ele>16.0</ele><time>2026-04-26T13:03:14.998Z</time></trkpt><trkpt lat="44.887914616289564" lon="-1.134357503530198"><ele>16.0</ele><time>2026-04-26T13:03:15.998Z</time></trkpt><trkpt lat="44.887945396138825" lon="-1.1345931997758054"><ele>16.0</ele><time>2026-04-26T13:03:16.998Z</time></trkpt><trkpt lat="44.88797595893395" lon="-1.1347869535592532"><ele>16.0</ele><time>2026-04-26T13:03:17.998Z</time></trkpt><trkpt lat="44.8880019639318" lon="-1.134964653263837"><ele>16.0</ele><time>2026-04-26T13:03:18.998Z</time></trkpt><trkpt lat="44.88801901436017" lon="-1.135123299068202"><ele>16.0</ele><time>2026-04-26T13:03:19.998Z</time></trkpt><trkpt lat="44.88803917467992" lon="-1.135250812342334"><ele>16.0</ele><time>2026-04-26T13:03:20.998Z</time></trkpt><trkpt lat="44.88805774574226" lon="-1.1353665407708693"><ele>16.0</ele><time>2026-04-26T13:03:21.998Z</time></trkpt><trkpt lat="44.888074394425274" lon="-1.1354626981014284"><ele>16.0</ele><time>2026-04-26T13:03:22.998Z</time></trkpt><trkpt lat="44.888086283531685" lon="-1.1356088901463361"><ele>16.0</ele><time>2026-04-26T13:03:24.998Z</time></trkpt><trkpt lat="44.88799024270641" lon="-1.1356436421288727"><ele>16.0</ele><time>2026-04-26T13:03:26.998Z</time></trkpt><trkpt lat="44.88789280933533" lon="-1.1356721481295144"><ele>16.0</ele><time>2026-04-26T13:03:27.998Z</time></trkpt><trkpt lat="44.88778868355893" lon="-1.1357360892351729"><ele>16.0</ele><time>2026-04-26T13:03:28.998Z</time></trkpt><trkpt lat="44.88768610614626" lon="-1.1357963838327216"><ele>16.0</ele><time>2026-04-26T13:03:29.998Z</time></trkpt><trkpt lat="44.88757782124339" lon="-1.1358418579775929"><ele>16.0</ele><time>2026-04-26T13:03:30.998Z</time></trkpt><trkpt lat="44.88741681309775" lon="-1.1359039780560491"><ele>16.0</ele><time>2026-04-26T13:03:31.998Z</time></trkpt><trkpt lat="44.8872354763086" lon="-1.1359801285142825"><ele>16.0</ele><time>2026-04-26T13:03:32.998Z</time></trkpt><trkpt lat="44.88705481706353" lon="-1.136054241661161"><ele>16.0</ele><time>2026-04-26T13:03:33.998Z</time></trkpt><trkpt lat="44.886890817260856" lon="-1.1361465241746271"><ele>16.0</ele><time>2026-04-26T13:03:34.998Z</time></trkpt><trkpt lat="44.88669864554251" lon="-1.1362543597258281"><ele>16.0</ele><time>2026-04-26T13:03:35.998Z</time></trkpt><trkpt lat="44.88652450756305" lon="-1.1363567516963227"><ele>16.0</ele><time>2026-04-26T13:03:36.998Z</time></trkpt><trkpt lat="44.88635902730846" lon="-1.1364552691523766"><ele>16.0</ele><time>2026-04-26T13:03:37.998Z</time></trkpt><trkpt lat="44.88620843721482" lon="-1.1365302545753462"><ele>16.25</ele><time>2026-04-26T13:03:38.998Z</time></trkpt><trkpt lat="44.886080105847" lon="-1.136600926778236"><ele>16.5</ele><time>2026-04-26T13:03:39.998Z</time></trkpt><trkpt lat="44.8859477250271" lon="-1.136691802133797"><ele>16.75</ele><time>2026-04-26T13:03:40.998Z</time></trkpt><trkpt lat="44.885791192968384" lon="-1.1367342491612313"><ele>17.0</ele><time>2026-04-26T13:03:41.998Z</time></trkpt><trkpt lat="44.885615346986135" lon="-1.1367637037857823"><ele>17.0</ele><time>2026-04-26T13:03:42.998Z</time></trkpt><trkpt lat="44.88543838432482" lon="-1.1367820876959147"><ele>17.0</ele><time>2026-04-26T13:03:43.998Z</time></trkpt><trkpt lat="44.88529422333969" lon="-1.1367945047209531"><ele>17.0</ele><time>2026-04-26T13:03:44.998Z</time></trkpt><trkpt lat="44.885136863988045" lon="-1.1368023201423845"><ele>16.666666666666668</ele><time>2026-04-26T13:03:45.998Z</time></trkpt><trkpt lat="44.88497289487654" lon="-1.1367960147322513"><ele>16.333333333333332</ele><time>2026-04-26T13:03:46.998Z</time></trkpt><trkpt lat="44.88480985025321" lon="-1.1367797756363485"><ele>16.0</ele><time>2026-04-26T13:03:47.998Z</time></trkpt><trkpt lat="44.884659381202354" lon="-1.1367434607812226"><ele>16.0</ele><time>2026-04-26T13:03:49Z</time></trkpt><trkpt lat="44.884479348470144" lon="-1.1366778232294843"><ele>16.0</ele><time>2026-04-26T13:03:50Z</time></trkpt><trkpt lat="44.88430844716094" lon="-1.136634117547107"><ele>16.0</ele><time>2026-04-26T13:03:51Z</time></trkpt><trkpt lat="44.884112262146" lon="-1.1365985987739344"><ele>16.333333333333332</ele><time>2026-04-26T13:03:52Z</time></trkpt><trkpt lat="44.88389873871683" lon="-1.1365664714279016"><ele>16.666666666666668</ele><time>2026-04-26T13:03:53Z</time></trkpt><trkpt lat="44.88366905946239" lon="-1.1365280033975236"><ele>17.0</ele><time>2026-04-26T13:03:54Z</time></trkpt><trkpt lat="44.8834914218332" lon="-1.1364933360003235"><ele>16.75</ele><time>2026-04-26T13:03:55Z</time></trkpt><trkpt lat="44.88332974811463" lon="-1.136458818515377"><ele>16.5</ele><time>2026-04-26T13:03:56Z</time></trkpt><trkpt lat="44.88318982895265" lon="-1.1364308493864117"><ele>16.25</ele><time>2026-04-26T13:03:57Z</time></trkpt><trkpt lat="44.883057945621" lon="-1.1364111371370513"><ele>16.0</ele><time>2026-04-26T13:03:58Z</time></trkpt><trkpt lat="44.88293516235528" lon="-1.1363940204410106"><ele>16.0</ele><time>2026-04-26T13:03:59Z</time></trkpt><trkpt lat="44.88277850429011" lon="-1.1364264833878372"><ele>16.0</ele><time>2026-04-26T13:04:00Z</time></trkpt><trkpt lat="44.882630493834434" lon="-1.1364275459380704"><ele>16.0</ele><time>2026-04-26T13:04:01Z</time></trkpt><trkpt lat="44.88246954176571" lon="-1.1364118618372263"><ele>15.333333333333332</ele><time>2026-04-26T13:04:02Z</time></trkpt><trkpt lat="44.882296749225404" lon="-1.1363682089403992"><ele>14.666666666666668</ele><time>2026-04-26T13:04:03Z</time></trkpt><trkpt lat="44.88211863687001" lon="-1.1363015285607325"><ele>14.0</ele><time>2026-04-26T13:04:04Z</time></trkpt><trkpt lat="44.88195110223414" lon="-1.1362276723693296"><ele>14.333333333333334</ele><time>2026-04-26T13:04:05Z</time></trkpt><trkpt lat="44.881759949682156" lon="-1.1361595624897105"><ele>14.666666666666668</ele><time>2026-04-26T13:04:06Z</time></trkpt><trkpt lat="44.881605610852446" lon="-1.1361107888349087"><ele>15.0</ele><time>2026-04-26T13:04:07Z</time></trkpt><trkpt lat="44.88144429335538" lon="-1.136078711206367"><ele>15.0</ele><time>2026-04-26T13:04:08Z</time></trkpt><trkpt lat="44.881233892067456" lon="-1.1360426552384901"><ele>15.0</ele><time>2026-04-26T13:04:09Z</time></trkpt><trkpt lat="44.88104953046848" lon="-1.1360087620184351"><ele>15.0</ele><time>2026-04-26T13:04:10Z</time></trkpt><trkpt lat="44.88088536335981" lon="-1.1359463033671922"><ele>14.666666666666668</ele><time>2026-04-26T13:04:11Z</time></trkpt><trkpt lat="44.88067030754567" lon="-1.1358923690018825"><ele>14.333333333333334</ele><time>2026-04-26T13:04:12Z</time></trkpt><trkpt lat="44.88045540240645" lon="-1.1358510501982138"><ele>14.0</ele><time>2026-04-26T13:04:13Z</time></trkpt><trkpt lat="44.88027906536509" lon="-1.1357993622496507"><ele>14.0</ele><time>2026-04-26T13:04:14Z</time></trkpt><trkpt lat="44.880112907263495" lon="-1.1357696958618482"><ele>14.0</ele><time>2026-04-26T13:04:15Z</time></trkpt><trkpt lat="44.8799270213725" lon="-1.1357357849316325"><ele>14.0</ele><time>2026-04-26T13:04:16Z</time></trkpt><trkpt lat="44.87973139054687" lon="-1.1356986239858469"><ele>14.666666666666668</ele><time>2026-04-26T13:04:16.999Z</time></trkpt><trkpt lat="44.879544589548345" lon="-1.1356606201778925"><ele>15.333333333333332</ele><time>2026-04-26T13:04:17.999Z</time></trkpt><trkpt lat="44.87934969095592" lon="-1.1356291232279805"><ele>16.0</ele><time>2026-04-26T13:04:18.999Z</time></trkpt><trkpt lat="44.879135871843935" lon="-1.1355882986995858"><ele>16.0</ele><time>2026-04-26T13:04:19.999Z</time></trkpt><trkpt lat="44.8789477148135" lon="-1.1355752073102634"><ele>16.0</ele><time>2026-04-26T13:04:20.999Z</time></trkpt><trkpt lat="44.8787411803462" lon="-1.1355556474204276"><ele>16.0</ele><time>2026-04-26T13:04:21.999Z</time></trkpt><trkpt lat="44.8786319517056" lon="-1.135509466271681"><ele>16.0</ele><time>2026-04-26T13:04:22.999Z</time></trkpt><trkpt lat="44.87847299066886" lon="-1.1354737343861174"><ele>16.0</ele><time>2026-04-26T13:04:23.999Z</time></trkpt><trkpt lat="44.87830696387442" lon="-1.1354253168563575"><ele>16.0</ele><time>2026-04-26T13:04:24.999Z</time></trkpt><trkpt lat="44.87814859351732" lon="-1.1354051980951099"><ele>16.0</ele><time>2026-04-26T13:04:25.999Z</time></trkpt><trkpt lat="44.87798208597012" lon="-1.135380144773736"><ele>16.0</ele><time>2026-04-26T13:04:26.999Z</time></trkpt><trkpt lat="44.87783864107006" lon="-1.135348737797199"><ele>16.0</ele><time>2026-04-26T13:04:27.999Z</time></trkpt><trkpt lat="44.8776853815853" lon="-1.1353111775386662"><ele>15.666666666666666</ele><time>2026-04-26T13:04:28.999Z</time></trkpt><trkpt lat="44.877544587536846" lon="-1.1352793307275626"><ele>15.333333333333332</ele><time>2026-04-26T13:04:29.999Z</time></trkpt><trkpt lat="44.877365593578176" lon="-1.1352423103996283"><ele>15.0</ele><time>2026-04-26T13:04:30.999Z</time></trkpt><trkpt lat="44.87718439839282" lon="-1.1352228931069483"><ele>15.0</ele><time>2026-04-26T13:04:31.999Z</time></trkpt><trkpt lat="44.877041219007324" lon="-1.1351967816213215"><ele>15.0</ele><time>2026-04-26T13:04:32.999Z</time></trkpt><trkpt lat="44.876884646189204" lon="-1.1351717167487825"><ele>15.0</ele><time>2026-04-26T13:04:33.999Z</time></trkpt><trkpt lat="44.87671836538025" lon="-1.135140167842818"><ele>15.0</ele><time>2026-04-26T13:04:34.999Z</time></trkpt><trkpt lat="44.87655029012084" lon="-1.1351002652966409"><ele>15.0</ele><time>2026-04-26T13:04:35.999Z</time></trkpt><trkpt lat="44.87637914107796" lon="-1.1350763057166526"><ele>15.0</ele><time>2026-04-26T13:04:36.999Z</time></trkpt><trkpt lat="44.8761984359546" lon="-1.1350655199660782"><ele>15.0</ele><time>2026-04-26T13:04:37.999Z</time></trkpt><trkpt lat="44.87604685578536" lon="-1.1350509195802392"><ele>15.0</ele><time>2026-04-26T13:04:38.999Z</time></trkpt><trkpt lat="44.875879978932346" lon="-1.1350319517482275"><ele>15.0</ele><time>2026-04-26T13:04:39.999Z</time></trkpt><trkpt lat="44.87572056312882" lon="-1.1350247326729543"><ele>15.0</ele><time>2026-04-26T13:04:40.999Z</time></trkpt><trkpt lat="44.87554956982237" lon="-1.1350234379651822"><ele>15.0</ele><time>2026-04-26T13:04:41.999Z</time></trkpt><trkpt lat="44.87542088389243" lon="-1.135007451123838"><ele>15.0</ele><time>2026-04-26T13:04:42.999Z</time></trkpt><trkpt lat="44.875324990007535" lon="-1.1349825992472644"><ele>15.0</ele><time>2026-04-26T13:04:43.999Z</time></trkpt><trkpt lat="44.87526071717227" lon="-1.1349805058624391"><ele>15.0</ele><time>2026-04-26T13:04:44.999Z</time></trkpt><trkpt lat="44.87510679025894" lon="-1.1350399851601916"><ele>15.0</ele><time>2026-04-26T13:04:46.999Z</time></trkpt><trkpt lat="44.87501789466218" lon="-1.1351098857863613"><ele>15.0</ele><time>2026-04-26T13:04:47.999Z</time></trkpt><trkpt lat="44.87489842972009" lon="-1.1351920700887408"><ele>15.0</ele><time>2026-04-26T13:04:48.999Z</time></trkpt><trkpt lat="44.874758177004786" lon="-1.1352680971748177"><ele>15.0</ele><time>2026-04-26T13:04:49.999Z</time></trkpt><trkpt lat="44.87461833054246" lon="-1.1353239013536973"><ele>15.0</ele><time>2026-04-26T13:04:50.999Z</time></trkpt><trkpt lat="44.8745034109807" lon="-1.1353834701206678"><ele>15.0</ele><time>2026-04-26T13:04:51.999Z</time></trkpt><trkpt lat="44.8744080119426" lon="-1.135477773225663"><ele>15.0</ele><time>2026-04-26T13:04:52.999Z</time></trkpt><trkpt lat="44.87431311245507" lon="-1.1355861743565847"><ele>15.25</ele><time>2026-04-26T13:04:53.999Z</time></trkpt><trkpt lat="44.87419122334302" lon="-1.135703211332814"><ele>15.5</ele><time>2026-04-26T13:04:54.999Z</time></trkpt><trkpt lat="44.87407006185585" lon="-1.1357985154519532"><ele>15.75</ele><time>2026-04-26T13:04:55.999Z</time></trkpt><trkpt lat="44.873965952187376" lon="-1.1359085107698272"><ele>16.0</ele><time>2026-04-26T13:04:56.999Z</time></trkpt><trkpt lat="44.87387707969937" lon="-1.1359914152964221"><ele>16.333333333333332</ele><time>2026-04-26T13:04:57.999Z</time></trkpt><trkpt lat="44.87380419318327" lon="-1.1360410864881227"><ele>16.666666666666664</ele><time>2026-04-26T13:04:58.999Z</time></trkpt><trkpt lat="44.87373964787443" lon="-1.136053753357935"><ele>17.0</ele><time>2026-04-26T13:04:59.999Z</time></trkpt><trkpt lat="44.87363014790499" lon="-1.1360411830920398"><ele>17.333333333333332</ele><time>2026-04-26T13:05:01.999Z</time></trkpt><trkpt lat="44.87354007070302" lon="-1.1360402110798768"><ele>17.666666666666668</ele><time>2026-04-26T13:05:58Z</time></trkpt><trkpt lat="44.87346238678536" lon="-1.1361174065940185"><ele>18.0</ele><time>2026-04-26T13:06:00Z</time></trkpt><trkpt lat="44.87343245407584" lon="-1.1362161501918235"><ele>18.0</ele><time>2026-04-26T13:06:01Z</time></trkpt><trkpt lat="44.87340674114498" lon="-1.1363115348476684"><ele>18.0</ele><time>2026-04-26T13:06:02Z</time></trkpt><trkpt lat="44.87335071304648" lon="-1.1363899188284885"><ele>18.0</ele><time>2026-04-26T13:06:03Z</time></trkpt><trkpt lat="44.87327937453818" lon="-1.1364547222004473"><ele>18.0</ele><time>2026-04-26T13:06:04Z</time></trkpt><trkpt lat="44.87317489824647" lon="-1.136538457785994"><ele>18.0</ele><time>2026-04-26T13:06:05Z</time></trkpt><trkpt lat="44.87307839829565" lon="-1.1366352293479367"><ele>17.333333333333332</ele><time>2026-04-26T13:06:06Z</time></trkpt><trkpt lat="44.87296797181986" lon="-1.1367483122277287"><ele>16.666666666666664</ele><time>2026-04-26T13:06:07Z</time></trkpt><trkpt lat="44.872827281275725" lon="-1.136907638301694"><ele>16.0</ele><time>2026-04-26T13:06:08Z</time></trkpt><trkpt lat="44.87270962704278" lon="-1.1370884196738151"><ele>16.0</ele><time>2026-04-26T13:06:09Z</time></trkpt><trkpt lat="44.87258472533327" lon="-1.1372211714089933"><ele>16.0</ele><time>2026-04-26T13:06:10Z</time></trkpt><trkpt lat="44.87242971609987" lon="-1.1373651805210894"><ele>16.0</ele><time>2026-04-26T13:06:11Z</time></trkpt><trkpt lat="44.87226254966361" lon="-1.137528165734724"><ele>16.0</ele><time>2026-04-26T13:06:12Z</time></trkpt><trkpt lat="44.872083195263436" lon="-1.1377127521813648"><ele>16.0</ele><time>2026-04-26T13:06:13Z</time></trkpt><trkpt lat="44.87192988290957" lon="-1.137862880939501"><ele>16.0</ele><time>2026-04-26T13:06:14Z</time></trkpt><trkpt lat="44.87179125251711" lon="-1.1380117218657853"><ele>16.0</ele><time>2026-04-26T13:06:15Z</time></trkpt><trkpt lat="44.87163514546546" lon="-1.1381435973954244"><ele>16.0</ele><time>2026-04-26T13:06:16Z</time></trkpt><trkpt lat="44.8714711099327" lon="-1.138307391243476"><ele>16.0</ele><time>2026-04-26T13:06:17Z</time></trkpt><trkpt lat="44.87129876667068" lon="-1.1384811359064841"><ele>15.333333333333332</ele><time>2026-04-26T13:06:17.999Z</time></trkpt><trkpt lat="44.87112180341537" lon="-1.1386419896993025"><ele>14.666666666666668</ele><time>2026-04-26T13:06:18.999Z</time></trkpt><trkpt lat="44.87095577028989" lon="-1.1387937702215012"><ele>14.0</ele><time>2026-04-26T13:06:19.999Z</time></trkpt><trkpt lat="44.8707892489924" lon="-1.1389639154408229"><ele>14.333333333333334</ele><time>2026-04-26T13:06:20.999Z</time></trkpt><trkpt lat="44.87065706715845" lon="-1.1391155579683612"><ele>14.666666666666668</ele><time>2026-04-26T13:06:21.999Z</time></trkpt><trkpt lat="44.87052162810025" lon="-1.139251857130678"><ele>15.0</ele><time>2026-04-26T13:06:22.999Z</time></trkpt><trkpt lat="44.87039011085905" lon="-1.1393975503238065"><ele>15.0</ele><time>2026-04-26T13:06:23.999Z</time></trkpt><trkpt lat="44.87029813593717" lon="-1.1395478776581107"><ele>15.0</ele><time>2026-04-26T13:06:24.999Z</time></trkpt><trkpt lat="44.8702047601654" lon="-1.1396789832945404"><ele>15.0</ele><time>2026-04-26T13:06:25.999Z</time></trkpt><trkpt lat="44.8701128532867" lon="-1.139745547400313"><ele>15.0</ele><time>2026-04-26T13:06:26.999Z</time></trkpt><trkpt lat="44.86998444562149" lon="-1.1397957492730757"><ele>15.0</ele><time>2026-04-26T13:06:27.999Z</time></trkpt><trkpt lat="44.86984707771514" lon="-1.1398897366928131"><ele>15.0</ele><time>2026-04-26T13:06:28.999Z</time></trkpt><trkpt lat="44.86970761538949" lon="-1.1400699362315614"><ele>15.0</ele><time>2026-04-26T13:06:29.999Z</time></trkpt><trkpt lat="44.869551124098095" lon="-1.1402526987995083"><ele>15.0</ele><time>2026-04-26T13:06:30.999Z</time></trkpt><trkpt lat="44.86940781055975" lon="-1.140395576217549"><ele>15.0</ele><time>2026-04-26T13:06:31.999Z</time></trkpt><trkpt lat="44.869258593583666" lon="-1.140506194245118"><ele>15.0</ele><time>2026-04-26T13:06:32.999Z</time></trkpt><trkpt lat="44.869118153060896" lon="-1.140616371702657"><ele>14.666666666666668</ele><time>2026-04-26T13:06:33.999Z</time></trkpt><trkpt lat="44.86898446934352" lon="-1.140740370517348"><ele>14.333333333333334</ele><time>2026-04-26T13:06:34.999Z</time></trkpt><trkpt lat="44.8688490416906" lon="-1.1408886367338074"><ele>14.0</ele><time>2026-04-26T13:06:35.999Z</time></trkpt><trkpt lat="44.86869118287884" lon="-1.1410775802964235"><ele>14.0</ele><time>2026-04-26T13:06:36.999Z</time></trkpt><trkpt lat="44.868559117298325" lon="-1.1412140039658536"><ele>14.0</ele><time>2026-04-26T13:06:37.999Z</time></trkpt><trkpt lat="44.86842745112217" lon="-1.1413306820569202"><ele>14.0</ele><time>2026-04-26T13:06:38.999Z</time></trkpt><trkpt lat="44.86828623656861" lon="-1.1414695464727929"><ele>14.0</ele><time>2026-04-26T13:06:39.999Z</time></trkpt><trkpt lat="44.868145061518554" lon="-1.1416314681377757"><ele>14.0</ele><time>2026-04-26T13:06:40.999Z</time></trkpt><trkpt lat="44.86801197012557" lon="-1.1417713850846354"><ele>14.0</ele><time>2026-04-26T13:06:41.999Z</time></trkpt><trkpt lat="44.8678869534049" lon="-1.141897236200711"><ele>14.0</ele><time>2026-04-26T13:06:42.999Z</time></trkpt><trkpt lat="44.86776878402245" lon="-1.1420212293959537"><ele>14.0</ele><time>2026-04-26T13:06:43.999Z</time></trkpt><trkpt lat="44.86765212991049" lon="-1.142129442859991"><ele>14.0</ele><time>2026-04-26T13:06:44.999Z</time></trkpt><trkpt lat="44.86752304312146" lon="-1.1422240518436642"><ele>14.0</ele><time>2026-04-26T13:06:45.999Z</time></trkpt><trkpt lat="44.86737696512732" lon="-1.1423557765712347"><ele>14.0</ele><time>2026-04-26T13:06:46.999Z</time></trkpt><trkpt lat="44.86724467497972" lon="-1.1425055756799765"><ele>14.0</ele><time>2026-04-26T13:06:47.999Z</time></trkpt><trkpt lat="44.8671420650585" lon="-1.142621225288355"><ele>14.0</ele><time>2026-04-26T13:06:48.999Z</time></trkpt><trkpt lat="44.86703681694545" lon="-1.1427375884856534"><ele>14.0</ele><time>2026-04-26T13:06:49.999Z</time></trkpt><trkpt lat="44.86691228043437" lon="-1.1428710158817337"><ele>14.0</ele><time>2026-04-26T13:06:50.999Z</time></trkpt><trkpt lat="44.866789078212705" lon="-1.1430102582834967"><ele>14.0</ele><time>2026-04-26T13:06:51.999Z</time></trkpt><trkpt lat="44.86666452598694" lon="-1.143141916021369"><ele>14.0</ele><time>2026-04-26T13:06:52.999Z</time></trkpt><trkpt lat="44.86653957617937" lon="-1.1432480606681774"><ele>14.5</ele><time>2026-04-26T13:06:53.999Z</time></trkpt><trkpt lat="44.866415115472364" lon="-1.1433511341040619"><ele>15.0</ele><time>2026-04-26T13:06:54.999Z</time></trkpt><trkpt lat="44.866311550883715" lon="-1.1434684401594606"><ele>15.5</ele><time>2026-04-26T13:06:55.999Z</time></trkpt><trkpt lat="44.86618278143906" lon="-1.143607304326871"><ele>16.0</ele><time>2026-04-26T13:06:56.999Z</time></trkpt><trkpt lat="44.866071330003514" lon="-1.1437055658463553"><ele>16.0</ele><time>2026-04-26T13:06:57.999Z</time></trkpt><trkpt lat="44.865931730033786" lon="-1.1438272717675817"><ele>16.0</ele><time>2026-04-26T13:06:58.999Z</time></trkpt><trkpt lat="44.86581588496672" lon="-1.1439463298562331"><ele>16.0</ele><time>2026-04-26T13:06:59.999Z</time></trkpt><trkpt lat="44.86568478117656" lon="-1.1440727203284715"><ele>16.0</ele><time>2026-04-26T13:07:00.999Z</time></trkpt><trkpt lat="44.86558134969254" lon="-1.144181675875098"><ele>16.0</ele><time>2026-04-26T13:07:01.999Z</time></trkpt><trkpt lat="44.86549277209424" lon="-1.1443041100733802"><ele>16.0</ele><time>2026-04-26T13:07:02.999Z</time></trkpt><trkpt lat="44.865410373724195" lon="-1.1444304866775834"><ele>16.0</ele><time>2026-04-26T13:07:03.999Z</time></trkpt><trkpt lat="44.865328353106285" lon="-1.144547393545246"><ele>16.0</ele><time>2026-04-26T13:07:04.998Z</time></trkpt><trkpt lat="44.86521786160656" lon="-1.1446650450350642"><ele>16.0</ele><time>2026-04-26T13:07:05.998Z</time></trkpt><trkpt lat="44.865116880732664" lon="-1.1447494588604052"><ele>16.0</ele><time>2026-04-26T13:07:06.998Z</time></trkpt><trkpt lat="44.865028353399396" lon="-1.1447994571089841"><ele>16.0</ele><time>2026-04-26T13:07:07.998Z</time></trkpt><trkpt lat="44.86494257031166" lon="-1.1448383404259057"><ele>16.0</ele><time>2026-04-26T13:07:08.998Z</time></trkpt><trkpt lat="44.86488187731951" lon="-1.1449051754568258"><ele>15.8</ele><time>2026-04-26T13:07:09.998Z</time></trkpt><trkpt lat="44.86480753902533" lon="-1.145011371111049"><ele>15.600000000000001</ele><time>2026-04-26T13:07:10.998Z</time></trkpt><trkpt lat="44.86472344556936" lon="-1.145119583857062"><ele>15.4</ele><time>2026-04-26T13:07:11.998Z</time></trkpt><trkpt lat="44.86465793679406" lon="-1.1452042589361746"><ele>15.2</ele><time>2026-04-26T13:07:12.998Z</time></trkpt><trkpt lat="44.864576679559974" lon="-1.145281668280393"><ele>15.0</ele><time>2026-04-26T13:07:13.998Z</time></trkpt><trkpt lat="44.86450322892349" lon="-1.1453476048945224"><ele>15.0</ele><time>2026-04-26T13:07:14.998Z</time></trkpt><trkpt lat="44.864417536119426" lon="-1.145413182887736"><ele>15.0</ele><time>2026-04-26T13:07:15.998Z</time></trkpt><trkpt lat="44.86432864413534" lon="-1.1454673953090024"><ele>15.0</ele><time>2026-04-26T13:07:16.998Z</time></trkpt><trkpt lat="44.86425527675307" lon="-1.1455161156994698"><ele>15.0</ele><time>2026-04-26T13:07:17.998Z</time></trkpt><trkpt lat="44.86417434102013" lon="-1.1455880088431014"><ele>15.0</ele><time>2026-04-26T13:07:18.998Z</time></trkpt><trkpt lat="44.86409007034672" lon="-1.1456938403377597"><ele>15.25</ele><time>2026-04-26T13:07:19.998Z</time></trkpt><trkpt lat="44.86401124044926" lon="-1.1458054925424568"><ele>15.5</ele><time>2026-04-26T13:07:20.998Z</time></trkpt><trkpt lat="44.86392243682111" lon="-1.1459318514245191"><ele>15.75</ele><time>2026-04-26T13:07:21.998Z</time></trkpt><trkpt lat="44.86383365990706" lon="-1.1460484931389368"><ele>16.0</ele><time>2026-04-26T13:07:22.998Z</time></trkpt><trkpt lat="44.86375766948945" lon="-1.146131310111852"><ele>16.0</ele><time>2026-04-26T13:07:23.998Z</time></trkpt><trkpt lat="44.86366379188729" lon="-1.1462388593684314"><ele>16.0</ele><time>2026-04-26T13:07:24.998Z</time></trkpt><trkpt lat="44.86357485172243" lon="-1.1463507114303886"><ele>16.0</ele><time>2026-04-26T13:07:25.998Z</time></trkpt><trkpt lat="44.863491418671494" lon="-1.1464399835460595"><ele>16.0</ele><time>2026-04-26T13:07:26.998Z</time></trkpt><trkpt lat="44.86339675261604" lon="-1.146506926220085"><ele>15.8</ele><time>2026-04-26T13:07:27.998Z</time></trkpt><trkpt lat="44.8632925013386" lon="-1.146570938485513"><ele>15.600000000000001</ele><time>2026-04-26T13:07:28.998Z</time></trkpt><trkpt lat="44.863220537852904" lon="-1.1466513728223393"><ele>15.4</ele><time>2026-04-26T13:07:29.998Z</time></trkpt><trkpt lat="44.86313501196429" lon="-1.1467482062831467"><ele>15.2</ele><time>2026-04-26T13:07:30.998Z</time></trkpt><trkpt lat="44.86304482195641" lon="-1.1468519604222056"><ele>15.0</ele><time>2026-04-26T13:07:31.998Z</time></trkpt><trkpt lat="44.86295142211123" lon="-1.1469612956983328"><ele>15.0</ele><time>2026-04-26T13:07:32.998Z</time></trkpt><trkpt lat="44.86285528790801" lon="-1.147074598145733"><ele>15.0</ele><time>2026-04-26T13:07:33.998Z</time></trkpt><trkpt lat="44.86274576826057" lon="-1.1471845809505985"><ele>15.0</ele><time>2026-04-26T13:07:34.998Z</time></trkpt><trkpt lat="44.862642129703" lon="-1.1472885827022479"><ele>15.0</ele><time>2026-04-26T13:07:35.998Z</time></trkpt><trkpt lat="44.862531765235424" lon="-1.1474012541618241"><ele>14.333333333333332</ele><time>2026-04-26T13:07:36.998Z</time></trkpt><trkpt lat="44.86241665279197" lon="-1.1475149855216134"><ele>13.666666666666666</ele><time>2026-04-26T13:07:37.998Z</time></trkpt><trkpt lat="44.86228445704144" lon="-1.1476419778581752"><ele>13.0</ele><time>2026-04-26T13:07:38.998Z</time></trkpt><trkpt lat="44.86214004264924" lon="-1.1477857696700695"><ele>13.0</ele><time>2026-04-26T13:07:39.998Z</time></trkpt><trkpt lat="44.861997245708736" lon="-1.147937975087358"><ele>13.0</ele><time>2026-04-26T13:07:40.998Z</time></trkpt><trkpt lat="44.861826819129334" lon="-1.1481163290019936"><ele>13.0</ele><time>2026-04-26T13:07:41.998Z</time></trkpt><trkpt lat="44.86163233424169" lon="-1.1483139895195078"><ele>13.5</ele><time>2026-04-26T13:07:42.998Z</time></trkpt><trkpt lat="44.861422525181254" lon="-1.148528651263224"><ele>14.0</ele><time>2026-04-26T13:07:43.998Z</time></trkpt><trkpt lat="44.861238443283945" lon="-1.1487132306122458"><ele>14.0</ele><time>2026-04-26T13:07:44.998Z</time></trkpt><trkpt lat="44.86108790352599" lon="-1.14886291351009"><ele>14.0</ele><time>2026-04-26T13:07:45.998Z</time></trkpt><trkpt lat="44.860953376058006" lon="-1.1490014008666405"><ele>14.0</ele><time>2026-04-26T13:07:46.998Z</time></trkpt><trkpt lat="44.86083200042256" lon="-1.1491295765739233"><ele>13.75</ele><time>2026-04-26T13:07:47.998Z</time></trkpt><trkpt lat="44.86072011493413" lon="-1.149230732521619"><ele>13.5</ele><time>2026-04-26T13:07:48.998Z</time></trkpt><trkpt lat="44.86059712403519" lon="-1.1493291139764603"><ele>13.25</ele><time>2026-04-26T13:07:49.998Z</time></trkpt><trkpt lat="44.86046927438009" lon="-1.1494689292305784"><ele>13.0</ele><time>2026-04-26T13:07:50.998Z</time></trkpt><trkpt lat="44.86034534554176" lon="-1.1496134971739043"><ele>13.0</ele><time>2026-04-26T13:07:51.997Z</time></trkpt><trkpt lat="44.86024790234736" lon="-1.1497281869503988"><ele>13.0</ele><time>2026-04-26T13:07:52.997Z</time></trkpt><trkpt lat="44.86015753798378" lon="-1.1498235048870569"><ele>13.0</ele><time>2026-04-26T13:07:53.997Z</time></trkpt><trkpt lat="44.86007907544362" lon="-1.149904490466703"><ele>13.0</ele><time>2026-04-26T13:07:54.997Z</time></trkpt><trkpt lat="44.85999623065666" lon="-1.1499941448952353"><ele>13.0</ele><time>2026-04-26T13:07:55.997Z</time></trkpt><trkpt lat="44.85991450456305" lon="-1.150080814622578"><ele>13.2</ele><time>2026-04-26T13:07:56.997Z</time></trkpt><trkpt lat="44.85984926256025" lon="-1.1501480482023994"><ele>13.4</ele><time>2026-04-26T13:07:57.997Z</time></trkpt><trkpt lat="44.85978105257511" lon="-1.1502271404934266"><ele>13.599999999999998</ele><time>2026-04-26T13:07:58.997Z</time></trkpt><trkpt lat="44.85970958404142" lon="-1.1503261841667158"><ele>13.799999999999999</ele><time>2026-04-26T13:07:59.997Z</time></trkpt><trkpt lat="44.85961849483375" lon="-1.1504353824709823"><ele>14.0</ele><time>2026-04-26T13:08:01Z</time></trkpt><trkpt lat="44.859514272161164" lon="-1.1505314854295667"><ele>14.000000000000002</ele><time>2026-04-26T13:08:02Z</time></trkpt><trkpt lat="44.859438838931375" lon="-1.1506029492684553"><ele>14.0</ele><time>2026-04-26T13:08:03Z</time></trkpt><trkpt lat="44.85937527526407" lon="-1.150671700259051"><ele>14.0</ele><time>2026-04-26T13:08:04Z</time></trkpt><trkpt lat="44.8593098279602" lon="-1.1507593404554415"><ele>14.0</ele><time>2026-04-26T13:08:05Z</time></trkpt><trkpt lat="44.859253206833486" lon="-1.1508253910821449"><ele>14.000000000000002</ele><time>2026-04-26T13:08:06Z</time></trkpt><trkpt lat="44.85918401053387" lon="-1.1508326585797732"><ele>14.0</ele><time>2026-04-26T13:08:08Z</time></trkpt><trkpt lat="44.85908907553735" lon="-1.150745928068495"><ele>14.333333333333334</ele><time>2026-04-26T13:08:10Z</time></trkpt><trkpt lat="44.85902146462804" lon="-1.1507308583510918"><ele>14.666666666666668</ele><time>2026-04-26T13:08:12Z</time></trkpt><trkpt lat="44.858936359694574" lon="-1.1507066175751897"><ele>15.0</ele><time>2026-04-26T13:08:15Z</time></trkpt><trkpt lat="44.85890398107331" lon="-1.1506051078872364"><ele>15.333333333333332</ele><time>2026-04-26T13:08:18Z</time></trkpt><trkpt lat="44.85883502338032" lon="-1.1506238458761169"><ele>15.666666666666666</ele><time>2026-04-26T13:08:23.999Z</time></trkpt><trkpt lat="44.85877124645644" lon="-1.1507107364654394"><ele>16.0</ele><time>2026-04-26T13:08:37.999Z</time></trkpt><trkpt lat="44.85866158848245" lon="-1.150842091413432"><ele>15.833333333333332</ele><time>2026-04-26T13:08:39.999Z</time></trkpt><trkpt lat="44.858602217523355" lon="-1.1509291337968017"><ele>15.666666666666666</ele><time>2026-04-26T13:08:40.999Z</time></trkpt><trkpt lat="44.85854194724766" lon="-1.1510022127913504"><ele>15.5</ele><time>2026-04-26T13:08:42.999Z</time></trkpt><trkpt lat="44.858501602282786" lon="-1.1510847531563684"><ele>15.333333333333332</ele><time>2026-04-26T13:08:44.999Z</time></trkpt><trkpt lat="44.85847652969347" lon="-1.151194195195434"><ele>15.166666666666666</ele><time>2026-04-26T13:09:04.999Z</time></trkpt><trkpt lat="44.85840383132355" lon="-1.1512705018773322"><ele>15.0</ele><time>2026-04-26T13:09:06.998Z</time></trkpt><trkpt lat="44.858344038396226" lon="-1.151325674987194"><ele>15.0</ele><time>2026-04-26T13:09:07.998Z</time></trkpt><trkpt lat="44.85826659019176" lon="-1.1513648591377985"><ele>15.0</ele><time>2026-04-26T13:09:08.998Z</time></trkpt><trkpt lat="44.858181941593635" lon="-1.1513837271665845"><ele>15.0</ele><time>2026-04-26T13:09:09.998Z</time></trkpt><trkpt lat="44.858080499176985" lon="-1.15139644860621"><ele>15.0</ele><time>2026-04-26T13:09:10.998Z</time></trkpt><trkpt lat="44.85796648684204" lon="-1.1514076086791674"><ele>15.0</ele><time>2026-04-26T13:09:11.998Z</time></trkpt><trkpt lat="44.85784852050939" lon="-1.1514137221438816"><ele>15.0</ele><time>2026-04-26T13:09:12.998Z</time></trkpt><trkpt lat="44.85772226341903" lon="-1.1514162850973744"><ele>15.0</ele><time>2026-04-26T13:09:13.998Z</time></trkpt><trkpt lat="44.857614614902005" lon="-1.1514147263219514"><ele>15.0</ele><time>2026-04-26T13:09:14.998Z</time></trkpt><trkpt lat="44.857505731707136" lon="-1.1514379603234306"><ele>15.0</ele><time>2026-04-26T13:09:15.998Z</time></trkpt><trkpt lat="44.85739136834555" lon="-1.1514693401353828"><ele>15.0</ele><time>2026-04-26T13:09:16.998Z</time></trkpt><trkpt lat="44.857267485651384" lon="-1.1515057487156197"><ele>15.0</ele><time>2026-04-26T13:09:17.998Z</time></trkpt><trkpt lat="44.85713606564243" lon="-1.151519263774514"><ele>15.0</ele><time>2026-04-26T13:09:18.998Z</time></trkpt><trkpt lat="44.85699720347102" lon="-1.1515442862927596"><ele>15.0</ele><time>2026-04-26T13:09:19.998Z</time></trkpt><trkpt lat="44.856870004382834" lon="-1.151566600237541"><ele>15.0</ele><time>2026-04-26T13:09:20.998Z</time></trkpt><trkpt lat="44.85675865148918" lon="-1.151584507205001"><ele>15.0</ele><time>2026-04-26T13:09:21.998Z</time></trkpt><trkpt lat="44.85665915315111" lon="-1.1515923038296718"><ele>15.0</ele><time>2026-04-26T13:09:22.998Z</time></trkpt><trkpt lat="44.856540600169545" lon="-1.1516144765346965"><ele>15.0</ele><time>2026-04-26T13:09:23.998Z</time></trkpt><trkpt lat="44.856437399792945" lon="-1.151647654780816"><ele>15.0</ele><time>2026-04-26T13:09:24.998Z</time></trkpt><trkpt lat="44.856316924636104" lon="-1.1516763267094927"><ele>15.0</ele><time>2026-04-26T13:09:25.998Z</time></trkpt><trkpt lat="44.85623720902167" lon="-1.1516820116138073"><ele>15.0</ele><time>2026-04-26T13:09:26.998Z</time></trkpt><trkpt lat="44.85612679694966" lon="-1.1517101242691934"><ele>15.0</ele><time>2026-04-26T13:09:27.998Z</time></trkpt><trkpt lat="44.85599669960867" lon="-1.1517464514311637"><ele>15.0</ele><time>2026-04-26T13:09:28.998Z</time></trkpt><trkpt lat="44.85587119938127" lon="-1.151763291919775"><ele>14.75</ele><time>2026-04-26T13:09:29.998Z</time></trkpt><trkpt lat="44.85575909759409" lon="-1.1517651771876327"><ele>14.5</ele><time>2026-04-26T13:09:30.998Z</time></trkpt><trkpt lat="44.85563188596994" lon="-1.151776773719237"><ele>14.25</ele><time>2026-04-26T13:09:31.998Z</time></trkpt><trkpt lat="44.85550888049319" lon="-1.1518180442858086"><ele>14.0</ele><time>2026-04-26T13:09:32.999Z</time></trkpt><trkpt lat="44.85539959014656" lon="-1.1518283581147075"><ele>14.0</ele><time>2026-04-26T13:09:33.999Z</time></trkpt><trkpt lat="44.85528956094441" lon="-1.151848817068822"><ele>13.999999999999998</ele><time>2026-04-26T13:09:34.999Z</time></trkpt><trkpt lat="44.855168712962744" lon="-1.1518807983004988"><ele>13.999999999999998</ele><time>2026-04-26T13:09:35.999Z</time></trkpt><trkpt lat="44.855061046835345" lon="-1.151907643202847"><ele>14.0</ele><time>2026-04-26T13:09:36.999Z</time></trkpt><trkpt lat="44.85496226001564" lon="-1.151900505106868"><ele>14.0</ele><time>2026-04-26T13:09:37.999Z</time></trkpt><trkpt lat="44.854852959101954" lon="-1.1518807295097573"><ele>14.0</ele><time>2026-04-26T13:09:38.999Z</time></trkpt><trkpt lat="44.854752421229975" lon="-1.151895534063234"><ele>13.999999999999998</ele><time>2026-04-26T13:09:39.999Z</time></trkpt><trkpt lat="44.85466402457333" lon="-1.1519497974456794"><ele>13.999999999999998</ele><time>2026-04-26T13:09:40.999Z</time></trkpt><trkpt lat="44.854598190812624" lon="-1.1519810263966892"><ele>14.0</ele><time>2026-04-26T13:09:41.999Z</time></trkpt><trkpt lat="44.85451310384848" lon="-1.1519716633132302"><ele>14.0</ele><time>2026-04-26T13:09:42.999Z</time></trkpt><trkpt lat="44.85440933236861" lon="-1.1519684215846238"><ele>13.75</ele><time>2026-04-26T13:09:43.999Z</time></trkpt><trkpt lat="44.85428681461946" lon="-1.151976970673361"><ele>13.5</ele><time>2026-04-26T13:09:44.999Z</time></trkpt><trkpt lat="44.85417826716908" lon="-1.1520134424457205"><ele>13.25</ele><time>2026-04-26T13:09:45.999Z</time></trkpt><trkpt lat="44.85405069093304" lon="-1.1520381351540854"><ele>13.0</ele><time>2026-04-26T13:09:46.999Z</time></trkpt><trkpt lat="44.8539493598106" lon="-1.1520493318448504"><ele>13.0</ele><time>2026-04-26T13:09:47.999Z</time></trkpt><trkpt lat="44.85386242762311" lon="-1.1520626064975201"><ele>13.0</ele><time>2026-04-26T13:09:48.999Z</time></trkpt><trkpt lat="44.853741224206225" lon="-1.1520745348019923"><ele>13.0</ele><time>2026-04-26T13:09:49.999Z</time></trkpt><trkpt lat="44.85364116944508" lon="-1.1520981686699976"><ele>13.0</ele><time>2026-04-26T13:09:50.999Z</time></trkpt><trkpt lat="44.853547514234805" lon="-1.1521210424378892"><ele>13.0</ele><time>2026-04-26T13:09:51.999Z</time></trkpt><trkpt lat="44.85343488591689" lon="-1.152127899127571"><ele>13.25</ele><time>2026-04-26T13:09:52.998Z</time></trkpt><trkpt lat="44.85330895267756" lon="-1.1521471339100882"><ele>13.5</ele><time>2026-04-26T13:09:53.998Z</time></trkpt><trkpt lat="44.85317661600466" lon="-1.152165389924685"><ele>13.75</ele><time>2026-04-26T13:09:54.998Z</time></trkpt><trkpt lat="44.85305145144403" lon="-1.1522165172670744"><ele>14.0</ele><time>2026-04-26T13:09:55.998Z</time></trkpt><trkpt lat="44.85293686518406" lon="-1.1522342056057542"><ele>14.0</ele><time>2026-04-26T13:09:56.998Z</time></trkpt><trkpt lat="44.8528315575791" lon="-1.1522239689485883"><ele>13.999999999999998</ele><time>2026-04-26T13:09:57.998Z</time></trkpt><trkpt lat="44.85272768350154" lon="-1.1522358104660249"><ele>13.999999999999998</ele><time>2026-04-26T13:09:58.998Z</time></trkpt><trkpt lat="44.85262464037393" lon="-1.1522704729877813"><ele>14.0</ele><time>2026-04-26T13:09:59.998Z</time></trkpt><trkpt lat="44.85251915696269" lon="-1.1522701896308265"><ele>14.0</ele><time>2026-04-26T13:10:00.998Z</time></trkpt><trkpt lat="44.85241441164115" lon="-1.1522653863254144"><ele>14.0</ele><time>2026-04-26T13:10:01.998Z</time></trkpt><trkpt lat="44.85227390548293" lon="-1.1522859668319296"><ele>13.999999999999998</ele><time>2026-04-26T13:10:02.998Z</time></trkpt><trkpt lat="44.852159298906315" lon="-1.1522968328013687"><ele>13.999999999999998</ele><time>2026-04-26T13:10:03.998Z</time></trkpt><trkpt lat="44.85207637604078" lon="-1.1523036232517365"><ele>14.0</ele><time>2026-04-26T13:10:04.998Z</time></trkpt><trkpt lat="44.851978798524044" lon="-1.152344487447964"><ele>14.0</ele><time>2026-04-26T13:10:05.998Z</time></trkpt><trkpt lat="44.851885071419304" lon="-1.1523592668522407"><ele>14.2</ele><time>2026-04-26T13:10:07.001Z</time></trkpt><trkpt lat="44.85177474982173" lon="-1.1523995008239563"><ele>14.399999999999999</ele><time>2026-04-26T13:10:08.001Z</time></trkpt><trkpt lat="44.85166109782435" lon="-1.1524424524363779"><ele>14.6</ele><time>2026-04-26T13:10:09.001Z</time></trkpt><trkpt lat="44.85155505001508" lon="-1.152448542051298"><ele>14.8</ele><time>2026-04-26T13:10:10.001Z</time></trkpt><trkpt lat="44.8514552662245" lon="-1.152439068620393"><ele>15.0</ele><time>2026-04-26T13:10:11.001Z</time></trkpt><trkpt lat="44.85136651065668" lon="-1.1524409798249005"><ele>15.0</ele><time>2026-04-26T13:10:12.001Z</time></trkpt><trkpt lat="44.851254694101364" lon="-1.1524551116374693"><ele>15.0</ele><time>2026-04-26T13:10:13.001Z</time></trkpt><trkpt lat="44.85113533994938" lon="-1.1524805975273822"><ele>15.0</ele><time>2026-04-26T13:10:14.001Z</time></trkpt><trkpt lat="44.85100698822287" lon="-1.1525142484037203"><ele>15.0</ele><time>2026-04-26T13:10:15Z</time></trkpt><trkpt lat="44.850877984102354" lon="-1.152538590043041"><ele>15.0</ele><time>2026-04-26T13:10:16.001Z</time></trkpt><trkpt lat="44.85076262344782" lon="-1.1525418309634976"><ele>15.0</ele><time>2026-04-26T13:10:17.001Z</time></trkpt><trkpt lat="44.85066611363681" lon="-1.1525542578212482"><ele>15.0</ele><time>2026-04-26T13:10:18Z</time></trkpt><trkpt lat="44.85057721081512" lon="-1.1525741408056491"><ele>15.0</ele><time>2026-04-26T13:10:19Z</time></trkpt><trkpt lat="44.85046215762355" lon="-1.152589640983842"><ele>15.0</ele><time>2026-04-26T13:10:20.001Z</time></trkpt><trkpt lat="44.85034265132577" lon="-1.152598285372568"><ele>15.0</ele><time>2026-04-26T13:10:21Z</time></trkpt><trkpt lat="44.8502134747695" lon="-1.1526140336645117"><ele>15.0</ele><time>2026-04-26T13:10:22Z</time></trkpt><trkpt lat="44.85008071792393" lon="-1.152626985451218"><ele>15.0</ele><time>2026-04-26T13:10:23Z</time></trkpt><trkpt lat="44.84996032694338" lon="-1.152641284111726"><ele>15.0</ele><time>2026-04-26T13:10:24Z</time></trkpt><trkpt lat="44.849841500601904" lon="-1.1526528830711478"><ele>15.0</ele><time>2026-04-26T13:10:25Z</time></trkpt><trkpt lat="44.849728021529614" lon="-1.1526927276687842"><ele>15.0</ele><time>2026-04-26T13:10:26Z</time></trkpt><trkpt lat="44.84961751132262" lon="-1.1527340171382223"><ele>15.0</ele><time>2026-04-26T13:10:27Z</time></trkpt><trkpt lat="44.84949885907385" lon="-1.152766143551829"><ele>15.0</ele><time>2026-04-26T13:10:28Z</time></trkpt><trkpt lat="44.84937652247607" lon="-1.1527894870236208"><ele>15.2</ele><time>2026-04-26T13:10:29Z</time></trkpt><trkpt lat="44.84926969430985" lon="-1.152809255866669"><ele>15.4</ele><time>2026-04-26T13:10:30Z</time></trkpt><trkpt lat="44.84919661991568" lon="-1.1528144867698928"><ele>15.600000000000001</ele><time>2026-04-26T13:10:31Z</time></trkpt><trkpt lat="44.849051134483915" lon="-1.1527720031346478"><ele>15.8</ele><time>2026-04-26T13:10:33Z</time></trkpt><trkpt lat="44.84897593610372" lon="-1.1527438800017422"><ele>16.0</ele><time>2026-04-26T13:10:34Z</time></trkpt><trkpt lat="44.84890351991176" lon="-1.1527336123038718"><ele>16.0</ele><time>2026-04-26T13:10:35Z</time></trkpt><trkpt lat="44.848835865539016" lon="-1.1527362942432806"><ele>16.0</ele><time>2026-04-26T13:10:36Z</time></trkpt><trkpt lat="44.8487392544622" lon="-1.152772928054827"><ele>16.0</ele><time>2026-04-26T13:10:38Z</time></trkpt><trkpt lat="44.848667675697044" lon="-1.1527938180310595"><ele>16.0</ele><time>2026-04-26T13:10:41Z</time></trkpt><trkpt lat="44.848517248152675" lon="-1.1528152384893413"><ele>16.0</ele><time>2026-04-26T13:10:43Z</time></trkpt><trkpt lat="44.848411741295486" lon="-1.1528232925979462"><ele>16.8</ele><time>2026-04-26T13:10:44Z</time></trkpt><trkpt lat="44.848329871258606" lon="-1.1528403574421937"><ele>17.6</ele><time>2026-04-26T13:10:45Z</time></trkpt><trkpt lat="44.84826477187122" lon="-1.1528389835759894"><ele>18.4</ele><time>2026-04-26T13:10:46Z</time></trkpt><trkpt lat="44.84814435523069" lon="-1.152841697976688"><ele>19.2</ele><time>2026-04-26T13:10:48Z</time></trkpt><trkpt lat="44.8480630114883" lon="-1.152855988940238"><ele>20.0</ele><time>2026-04-26T13:10:49Z</time></trkpt><trkpt lat="44.84794384014688" lon="-1.1529352880140173"><ele>20.0</ele><time>2026-04-26T13:10:51Z</time></trkpt><trkpt lat="44.84788113218016" lon="-1.15297426819115"><ele>20.0</ele><time>2026-04-26T13:10:52Z</time></trkpt><trkpt lat="44.84781194658255" lon="-1.1530063119751635"><ele>20.0</ele><time>2026-04-26T13:10:53Z</time></trkpt><trkpt lat="44.84774988695068" lon="-1.1530305053144423"><ele>20.0</ele><time>2026-04-26T13:10:54Z</time></trkpt><trkpt lat="44.847668141446334" lon="-1.153067859398008"><ele>20.0</ele><time>2026-04-26T13:10:55Z</time></trkpt><trkpt lat="44.84759559796939" lon="-1.153105528008739"><ele>20.0</ele><time>2026-04-26T13:10:56Z</time></trkpt><trkpt lat="44.84753123045711" lon="-1.1531346158579086"><ele>20.0</ele><time>2026-04-26T13:10:57Z</time></trkpt><trkpt lat="44.84746781542648" lon="-1.153128167682542"><ele>20.0</ele><time>2026-04-26T13:14:42Z</time></trkpt><trkpt lat="44.84747715862289" lon="-1.1530344496205802"><ele>20.0</ele><time>2026-04-26T13:14:44Z</time></trkpt><trkpt lat="44.847575877315776" lon="-1.1530416073369434"><ele>20.0</ele><time>2026-04-26T13:14:46Z</time></trkpt><trkpt lat="44.84767359845574" lon="-1.153104246642156"><ele>20.0</ele><time>2026-04-26T13:14:48Z</time></trkpt><trkpt lat="44.84773415265802" lon="-1.153058860703095"><ele>20.0</ele><time>2026-04-26T13:14:49Z</time></trkpt><trkpt lat="44.84785730472888" lon="-1.1529980054166347"><ele>20.0</ele><time>2026-04-26T13:14:51Z</time></trkpt><trkpt lat="44.84794533307347" lon="-1.1529379195149267"><ele>20.0</ele><time>2026-04-26T13:14:52Z</time></trkpt><trkpt lat="44.84803523359509" lon="-1.1528992958755293"><ele>20.0</ele><time>2026-04-26T13:14:53Z</time></trkpt><trkpt lat="44.84809775256578" lon="-1.1528757612049325"><ele>20.0</ele><time>2026-04-26T13:14:54Z</time></trkpt><trkpt lat="44.84820026483927" lon="-1.1528463498209653"><ele>20.0</ele><time>2026-04-26T13:14:55Z</time></trkpt><trkpt lat="44.84828793904457" lon="-1.152830689157988"><ele>20.0</ele><time>2026-04-26T13:14:56Z</time></trkpt><trkpt lat="44.84840079104415" lon="-1.1528259957198643"><ele>19.2</ele><time>2026-04-26T13:14:57Z</time></trkpt><trkpt lat="44.84854053744678" lon="-1.1528185193623093"><ele>18.4</ele><time>2026-04-26T13:14:58Z</time></trkpt><trkpt lat="44.84862987627147" lon="-1.1528065064188902"><ele>17.6</ele><time>2026-04-26T13:14:59Z</time></trkpt><trkpt lat="44.84871676344326" lon="-1.1527915980719432"><ele>16.8</ele><time>2026-04-26T13:15:00Z</time></trkpt><trkpt lat="44.84881079810859" lon="-1.1527694158382598"><ele>16.0</ele><time>2026-04-26T13:15:01Z</time></trkpt><trkpt lat="44.84888346415612" lon="-1.1527491568214379"><ele>15.999999999999998</ele><time>2026-04-26T13:15:02Z</time></trkpt><trkpt lat="44.84895342119874" lon="-1.1527319980462323"><ele>16.0</ele><time>2026-04-26T13:15:03Z</time></trkpt><trkpt lat="44.84905658354816" lon="-1.152727581661524"><ele>16.0</ele><time>2026-04-26T13:15:04Z</time></trkpt><trkpt lat="44.84912013229323" lon="-1.1526764928058804"><ele>16.0</ele><time>2026-04-26T13:15:06.999Z</time></trkpt><trkpt lat="44.84911486833543" lon="-1.1525834020643462"><ele>15.999999999999998</ele><time>2026-04-26T13:15:08.999Z</time></trkpt><trkpt lat="44.84909087980275" lon="-1.1524479925250306"><ele>16.0</ele><time>2026-04-26T13:15:49.999Z</time></trkpt><trkpt lat="44.84912905582071" lon="-1.1522946143385564"><ele>15.833333333333332</ele><time>2026-04-26T13:15:51.999Z</time></trkpt><trkpt lat="44.849171181154965" lon="-1.1522283942816436"><ele>15.666666666666666</ele><time>2026-04-26T13:15:52.999Z</time></trkpt><trkpt lat="44.849250798733294" lon="-1.1520829432332182"><ele>15.5</ele><time>2026-04-26T13:15:54.998Z</time></trkpt><trkpt lat="44.84930415927246" lon="-1.1519924955270127"><ele>15.333333333333332</ele><time>2026-04-26T13:15:55.998Z</time></trkpt><trkpt lat="44.8493688110925" lon="-1.1518967462025005"><ele>15.166666666666666</ele><time>2026-04-26T13:15:56.998Z</time></trkpt><trkpt lat="44.84941879396205" lon="-1.1518312235744657"><ele>15.0</ele><time>2026-04-26T13:15:57.998Z</time></trkpt><trkpt lat="44.84944219644711" lon="-1.1517257683369413"><ele>15.0</ele><time>2026-04-26T13:15:58.998Z</time></trkpt><trkpt lat="44.849470501233725" lon="-1.1516106452251187"><ele>15.0</ele><time>2026-04-26T13:15:59.998Z</time></trkpt><trkpt lat="44.84951463882741" lon="-1.1515430562361468"><ele>15.0</ele><time>2026-04-26T13:16:00.998Z</time></trkpt><trkpt lat="44.84956965039966" lon="-1.1513957469704899"><ele>15.0</ele><time>2026-04-26T13:16:02.998Z</time></trkpt><trkpt lat="44.84956780778342" lon="-1.151301562158678"><ele>15.0</ele><time>2026-04-26T13:16:03.998Z</time></trkpt><trkpt lat="44.84958893005554" lon="-1.151195744169055"><ele>15.0</ele><time>2026-04-26T13:16:04.998Z</time></trkpt><trkpt lat="44.84961322062087" lon="-1.151100175627208"><ele>15.2</ele><time>2026-04-26T13:16:05.998Z</time></trkpt><trkpt lat="44.84957658197523" lon="-1.1509483204253392"><ele>15.4</ele><time>2026-04-26T13:16:07.998Z</time></trkpt><trkpt lat="44.84953863030081" lon="-1.1508233353380326"><ele>15.600000000000001</ele><time>2026-04-26T13:16:08.998Z</time></trkpt><trkpt lat="44.84951232409151" lon="-1.1506864330573041"><ele>15.8</ele><time>2026-04-26T13:16:09.998Z</time></trkpt><trkpt lat="44.849486362960086" lon="-1.1505311271184298"><ele>16.0</ele><time>2026-04-26T13:16:10.998Z</time></trkpt><trkpt lat="44.84943931690865" lon="-1.1503277845903814"><ele>16.0</ele><time>2026-04-26T13:16:11.998Z</time></trkpt><trkpt lat="44.84939405884391" lon="-1.1501335215809203"><ele>16.0</ele><time>2026-04-26T13:16:12.998Z</time></trkpt><trkpt lat="44.849344045948186" lon="-1.149956250190768"><ele>16.0</ele><time>2026-04-26T13:16:13.998Z</time></trkpt><trkpt lat="44.84932509314984" lon="-1.149770036384768"><ele>16.0</ele><time>2026-04-26T13:16:14.998Z</time></trkpt><trkpt lat="44.84928800121434" lon="-1.149598818344356"><ele>16.6</ele><time>2026-04-26T13:16:15.998Z</time></trkpt><trkpt lat="44.84924892387164" lon="-1.1494621747497784"><ele>17.200000000000003</ele><time>2026-04-26T13:16:16.998Z</time></trkpt><trkpt lat="44.849218608243845" lon="-1.1493211950640536"><ele>17.799999999999997</ele><time>2026-04-26T13:16:17.998Z</time></trkpt><trkpt lat="44.849190662178316" lon="-1.1491576595785935"><ele>18.4</ele><time>2026-04-26T13:16:18.998Z</time></trkpt><trkpt lat="44.84916134280055" lon="-1.1490140659583832"><ele>19.0</ele><time>2026-04-26T13:16:19.998Z</time></trkpt><trkpt lat="44.84913595554126" lon="-1.1488898847737934"><ele>19.2</ele><time>2026-04-26T13:16:20.998Z</time></trkpt><trkpt lat="44.84910713611579" lon="-1.1487613563177217"><ele>19.4</ele><time>2026-04-26T13:16:21.998Z</time></trkpt><trkpt lat="44.84908629953414" lon="-1.1486575106166053"><ele>19.6</ele><time>2026-04-26T13:16:23Z</time></trkpt><trkpt lat="44.8490595505776" lon="-1.148509838648763"><ele>19.8</ele><time>2026-04-26T13:16:24Z</time></trkpt><trkpt lat="44.8490211181631" lon="-1.1483254406804237"><ele>20.0</ele><time>2026-04-26T13:16:25Z</time></trkpt><trkpt lat="44.84897790179914" lon="-1.1481357725715786"><ele>20.5</ele><time>2026-04-26T13:16:26Z</time></trkpt><trkpt lat="44.84894030601771" lon="-1.1479583712871206"><ele>21.0</ele><time>2026-04-26T13:16:27Z</time></trkpt><trkpt lat="44.84889426087805" lon="-1.1477618104381695"><ele>21.5</ele><time>2026-04-26T13:16:28Z</time></trkpt><trkpt lat="44.84885656655091" lon="-1.1475553284821067"><ele>22.0</ele><time>2026-04-26T13:16:29Z</time></trkpt><trkpt lat="44.848815721667364" lon="-1.1473546004765827"><ele>22.5</ele><time>2026-04-26T13:16:30Z</time></trkpt><trkpt lat="44.848768687134246" lon="-1.1471530437605613"><ele>23.0</ele><time>2026-04-26T13:16:31Z</time></trkpt><trkpt lat="44.848749700877484" lon="-1.1469967826863383"><ele>23.5</ele><time>2026-04-26T13:16:32Z</time></trkpt><trkpt lat="44.848728745669035" lon="-1.1468702243783109"><ele>24.0</ele><time>2026-04-26T13:16:33Z</time></trkpt><trkpt lat="44.848707584386965" lon="-1.1467302674440105"><ele>24.0</ele><time>2026-04-26T13:16:34Z</time></trkpt><trkpt lat="44.848677692542296" lon="-1.1465931363152717"><ele>24.0</ele><time>2026-04-26T13:16:35Z</time></trkpt><trkpt lat="44.84865411470821" lon="-1.146480567595861"><ele>24.0</ele><time>2026-04-26T13:16:36Z</time></trkpt><trkpt lat="44.84858591614723" lon="-1.1464182388885669"><ele>24.0</ele><time>2026-04-26T13:16:38Z</time></trkpt><trkpt lat="44.848516784577534" lon="-1.1464273974546537"><ele>24.0</ele><time>2026-04-26T13:16:39Z</time></trkpt><trkpt lat="44.84841675797761" lon="-1.146476889669747"><ele>24.0</ele><time>2026-04-26T13:16:40Z</time></trkpt><trkpt lat="44.848314230776424" lon="-1.1465387646145777"><ele>23.75</ele><time>2026-04-26T13:16:41Z</time></trkpt><trkpt lat="44.84821119582459" lon="-1.146572386079758"><ele>23.5</ele><time>2026-04-26T13:16:42Z</time></trkpt><trkpt lat="44.84807061042841" lon="-1.1466470804841031"><ele>23.25</ele><time>2026-04-26T13:16:43Z</time></trkpt><trkpt lat="44.84790932085441" lon="-1.1467052537074"><ele>23.0</ele><time>2026-04-26T13:16:44Z</time></trkpt><trkpt lat="44.84776287059427" lon="-1.14675531998743"><ele>23.0</ele><time>2026-04-26T13:16:45Z</time></trkpt><trkpt lat="44.84766579702755" lon="-1.146786088317483"><ele>23.0</ele><time>2026-04-26T13:16:46Z</time></trkpt><trkpt lat="44.84755749839763" lon="-1.1468250203652393"><ele>23.0</ele><time>2026-04-26T13:16:47Z</time></trkpt><trkpt lat="44.847441274952494" lon="-1.1468794255548078"><ele>23.0</ele><time>2026-04-26T13:16:48Z</time></trkpt><trkpt lat="44.84733943398014" lon="-1.1469213501056763"><ele>23.0</ele><time>2026-04-26T13:16:49Z</time></trkpt><trkpt lat="44.84725510234766" lon="-1.1469610720523593"><ele>22.799999999999997</ele><time>2026-04-26T13:16:50Z</time></trkpt><trkpt lat="44.84715376369569" lon="-1.1469891674336123"><ele>22.6</ele><time>2026-04-26T13:16:51Z</time></trkpt><trkpt lat="44.84704612206843" lon="-1.1470081810182162"><ele>22.4</ele><time>2026-04-26T13:16:52Z</time></trkpt><trkpt lat="44.84696105405447" lon="-1.1470659324202248"><ele>22.200000000000003</ele><time>2026-04-26T13:16:53Z</time></trkpt><trkpt lat="44.8468823056988" lon="-1.1471072852193867"><ele>22.0</ele><time>2026-04-26T13:16:54Z</time></trkpt><trkpt lat="44.84680150859776" lon="-1.1471360258486922"><ele>21.666666666666664</ele><time>2026-04-26T13:16:55Z</time></trkpt><trkpt lat="44.846719685002" lon="-1.1471564000713907"><ele>21.333333333333332</ele><time>2026-04-26T13:16:56Z</time></trkpt><trkpt lat="44.846623241134296" lon="-1.1471906043483286"><ele>21.0</ele><time>2026-04-26T13:16:57Z</time></trkpt><trkpt lat="44.84655511200442" lon="-1.147220402740263"><ele>20.666666666666668</ele><time>2026-04-26T13:16:58Z</time></trkpt><trkpt lat="44.84648910182982" lon="-1.1472570936579174"><ele>20.333333333333336</ele><time>2026-04-26T13:16:59Z</time></trkpt><trkpt lat="44.846385419368126" lon="-1.1473077222884702"><ele>20.0</ele><time>2026-04-26T13:17:01Z</time></trkpt><trkpt lat="44.84630996285177" lon="-1.1473301010503094"><ele>20.0</ele><time>2026-04-26T13:17:02Z</time></trkpt><trkpt lat="44.84619914521034" lon="-1.1473732031062884"><ele>20.0</ele><time>2026-04-26T13:17:03Z</time></trkpt><trkpt lat="44.846106525796806" lon="-1.1474174738535992"><ele>20.0</ele><time>2026-04-26T13:17:04Z</time></trkpt><trkpt lat="44.846016371853956" lon="-1.14746245854631"><ele>20.0</ele><time>2026-04-26T13:17:05Z</time></trkpt><trkpt lat="44.84592757164189" lon="-1.1475113444579879"><ele>20.0</ele><time>2026-04-26T13:17:06Z</time></trkpt><trkpt lat="44.84585801147397" lon="-1.1475499222291012"><ele>19.25</ele><time>2026-04-26T13:17:07Z</time></trkpt><trkpt lat="44.84577122233169" lon="-1.1475742504313866"><ele>18.5</ele><time>2026-04-26T13:17:08Z</time></trkpt><trkpt lat="44.84564843558723" lon="-1.1476257190132035"><ele>17.75</ele><time>2026-04-26T13:17:09Z</time></trkpt><trkpt lat="44.84551779894919" lon="-1.1476764788097393"><ele>17.0</ele><time>2026-04-26T13:17:10Z</time></trkpt><trkpt lat="44.845381058519095" lon="-1.1477269036072706"><ele>17.0</ele><time>2026-04-26T13:17:11Z</time></trkpt><trkpt lat="44.84523675711503" lon="-1.1477710340713763"><ele>17.0</ele><time>2026-04-26T13:17:12Z</time></trkpt><trkpt lat="44.84511549720507" lon="-1.1478396570405232"><ele>17.0</ele><time>2026-04-26T13:17:12.999Z</time></trkpt><trkpt lat="44.84498220284318" lon="-1.1479025208647053"><ele>17.0</ele><time>2026-04-26T13:17:13.999Z</time></trkpt><trkpt lat="44.84484372658325" lon="-1.1479605616794313"><ele>16.75</ele><time>2026-04-26T13:17:14.999Z</time></trkpt><trkpt lat="44.844689530664645" lon="-1.1480313502902968"><ele>16.5</ele><time>2026-04-26T13:17:15.999Z</time></trkpt><trkpt lat="44.844575499507336" lon="-1.1480824264864382"><ele>16.25</ele><time>2026-04-26T13:17:16.999Z</time></trkpt><trkpt lat="44.84447146008674" lon="-1.1481309753756046"><ele>16.0</ele><time>2026-04-26T13:17:17.999Z</time></trkpt><trkpt lat="44.844379878835404" lon="-1.1481752584964544"><ele>16.166666666666664</ele><time>2026-04-26T13:17:18.999Z</time></trkpt><trkpt lat="44.84430194096451" lon="-1.148227084902543"><ele>16.333333333333332</ele><time>2026-04-26T13:17:19.999Z</time></trkpt><trkpt lat="44.84423448817065" lon="-1.1482718785728356"><ele>16.5</ele><time>2026-04-26T13:17:21.999Z</time></trkpt><trkpt lat="44.84421212643509" lon="-1.1483968694492146"><ele>16.666666666666668</ele><time>2026-04-26T13:17:25.999Z</time></trkpt><trkpt lat="44.84417647481605" lon="-1.1485004695001966"><ele>16.833333333333336</ele><time>2026-04-26T13:17:27.999Z</time></trkpt><trkpt lat="44.84413334875393" lon="-1.1486288063033685"><ele>17.0</ele><time>2026-04-26T13:17:29.999Z</time></trkpt><trkpt lat="44.844091471116506" lon="-1.1487215465626714"><ele>17.0</ele><time>2026-04-26T13:17:31.999Z</time></trkpt><trkpt lat="44.844040832094464" lon="-1.1488757526243183"><ele>17.0</ele><time>2026-04-26T13:17:33.999Z</time></trkpt><trkpt lat="44.8440138670275" lon="-1.148976253114307"><ele>17.0</ele><time>2026-04-26T13:17:35.999Z</time></trkpt><trkpt lat="44.84396819109534" lon="-1.1491231345262403"><ele>17.0</ele><time>2026-04-26T13:17:37.999Z</time></trkpt><trkpt lat="44.84393824679199" lon="-1.1492218397179348"><ele>17.0</ele><time>2026-04-26T13:17:38.999Z</time></trkpt><trkpt lat="44.84390248131118" lon="-1.1493336594058168"><ele>17.4</ele><time>2026-04-26T13:17:39.999Z</time></trkpt><trkpt lat="44.8438641161133" lon="-1.1494704121595882"><ele>17.799999999999997</ele><time>2026-04-26T13:17:40.999Z</time></trkpt><trkpt lat="44.84382216621244" lon="-1.1496032951035995"><ele>18.2</ele><time>2026-04-26T13:17:41.999Z</time></trkpt><trkpt lat="44.84378659755406" lon="-1.1497253111603445"><ele>18.599999999999998</ele><time>2026-04-26T13:17:42.999Z</time></trkpt><trkpt lat="44.84375318828772" lon="-1.1498442397988555"><ele>19.0</ele><time>2026-04-26T13:17:43.999Z</time></trkpt><trkpt lat="44.843715513032826" lon="-1.149969818924644"><ele>19.0</ele><time>2026-04-26T13:17:44.999Z</time></trkpt><trkpt lat="44.84366996302465" lon="-1.1501406828319367"><ele>19.0</ele><time>2026-04-26T13:17:45.999Z</time></trkpt><trkpt lat="44.843641126790736" lon="-1.150279105992511"><ele>19.0</ele><time>2026-04-26T13:17:46.999Z</time></trkpt><trkpt lat="44.84363070267932" lon="-1.150378126009961"><ele>19.0</ele><time>2026-04-26T13:17:47.999Z</time></trkpt><trkpt lat="44.84359051310411" lon="-1.1505813851727296"><ele>19.0</ele><time>2026-04-26T13:17:49.999Z</time></trkpt><trkpt lat="44.843497355172715" lon="-1.150659236152408"><ele>19.0</ele><time>2026-04-26T13:17:51.999Z</time></trkpt><trkpt lat="44.84341283330616" lon="-1.1506764713575701"><ele>19.0</ele><time>2026-04-26T13:17:52.999Z</time></trkpt><trkpt lat="44.84334703981795" lon="-1.1507071322419968"><ele>19.0</ele><time>2026-04-26T13:17:53.999Z</time></trkpt><trkpt lat="44.843285695502566" lon="-1.1507528045290254"><ele>19.0</ele><time>2026-04-26T13:17:54.999Z</time></trkpt><trkpt lat="44.84322197475947" lon="-1.150780161140862"><ele>19.0</ele><time>2026-04-26T13:17:55.999Z</time></trkpt><trkpt lat="44.84315105331124" lon="-1.150789896373539"><ele>17.8</ele><time>2026-04-26T13:17:56.999Z</time></trkpt><trkpt lat="44.8430634339076" lon="-1.1508218942000135"><ele>16.599999999999998</ele><time>2026-04-26T13:17:57.999Z</time></trkpt><trkpt lat="44.84296252785562" lon="-1.150856800027075"><ele>15.4</ele><time>2026-04-26T13:17:58.999Z</time></trkpt><trkpt lat="44.84286214584792" lon="-1.1509047115898003"><ele>14.2</ele><time>2026-04-26T13:17:59.998Z</time></trkpt><trkpt lat="44.8427601072263" lon="-1.1509528612298743"><ele>13.0</ele><time>2026-04-26T13:18:00.998Z</time></trkpt><trkpt lat="44.84264179667598" lon="-1.1509950720327609"><ele>13.0</ele><time>2026-04-26T13:18:01.998Z</time></trkpt><trkpt lat="44.84251514084196" lon="-1.1510336300261126"><ele>13.0</ele><time>2026-04-26T13:18:02.998Z</time></trkpt><trkpt lat="44.842406659045615" lon="-1.1510641019212215"><ele>13.0</ele><time>2026-04-26T13:18:03.998Z</time></trkpt><trkpt lat="44.84232719533693" lon="-1.1510968584468815"><ele>13.0</ele><time>2026-04-26T13:18:04.998Z</time></trkpt><trkpt lat="44.84225318035754" lon="-1.1511259140443373"><ele>13.0</ele><time>2026-04-26T13:18:05.998Z</time></trkpt><trkpt lat="44.842137546623945" lon="-1.1512304243310636"><ele>12.999999999999998</ele><time>2026-04-26T13:18:07.998Z</time></trkpt><trkpt lat="44.84208511509037" lon="-1.1513302180467369"><ele>13.0</ele><time>2026-04-26T13:18:08.998Z</time></trkpt><trkpt lat="44.842027092519906" lon="-1.1514329728772814"><ele>13.0</ele><time>2026-04-26T13:18:09.998Z</time></trkpt><trkpt lat="44.84196077377882" lon="-1.151496169896214"><ele>13.0</ele><time>2026-04-26T13:18:10.998Z</time></trkpt><trkpt lat="44.84189198823306" lon="-1.151522388087683"><ele>12.999999999999998</ele><time>2026-04-26T13:18:11.998Z</time></trkpt><trkpt lat="44.841824546062135" lon="-1.1515229385749473"><ele>13.0</ele><time>2026-04-26T13:18:12.998Z</time></trkpt><trkpt lat="44.84175524792557" lon="-1.1515001513245893"><ele>12.833333333333332</ele><time>2026-04-26T13:18:13.998Z</time></trkpt><trkpt lat="44.84168928666552" lon="-1.1514513315194674"><ele>12.666666666666666</ele><time>2026-04-26T13:18:14.998Z</time></trkpt><trkpt lat="44.841626031905655" lon="-1.1513891324085483"><ele>12.5</ele><time>2026-04-26T13:18:15.998Z</time></trkpt><trkpt lat="44.84156579785066" lon="-1.1513333448378036"><ele>12.333333333333332</ele><time>2026-04-26T13:18:16.998Z</time></trkpt><trkpt lat="44.841507490496504" lon="-1.1512805134795874"><ele>12.166666666666666</ele><time>2026-04-26T13:18:17.998Z</time></trkpt><trkpt lat="44.841455593632624" lon="-1.151226607072973"><ele>12.0</ele><time>2026-04-26T13:18:18.998Z</time></trkpt><trkpt lat="44.84137890412555" lon="-1.1511285096856008"><ele>12.0</ele><time>2026-04-26T13:18:20.998Z</time></trkpt><trkpt lat="44.84130749208284" lon="-1.151131902778725"><ele>12.0</ele><time>2026-04-26T13:18:22.998Z</time></trkpt><trkpt lat="44.84124434853118" lon="-1.1511858624388474"><ele>12.0</ele><time>2026-04-26T13:18:23.998Z</time></trkpt><trkpt lat="44.84115858047156" lon="-1.1513507252404105"><ele>12.0</ele><time>2026-04-26T13:18:25.998Z</time></trkpt><trkpt lat="44.84111022202457" lon="-1.1514626930923215"><ele>12.0</ele><time>2026-04-26T13:18:26.998Z</time></trkpt><trkpt lat="44.84104829544633" lon="-1.151634063090098"><ele>11.8</ele><time>2026-04-26T13:18:27.998Z</time></trkpt><trkpt lat="44.84097780169899" lon="-1.1518116669903284"><ele>11.6</ele><time>2026-04-26T13:18:29Z</time></trkpt><trkpt lat="44.84091880090693" lon="-1.1519458957062003"><ele>11.4</ele><time>2026-04-26T13:18:30Z</time></trkpt><trkpt lat="44.84086766631687" lon="-1.1520640888803908"><ele>11.200000000000001</ele><time>2026-04-26T13:18:31Z</time></trkpt><trkpt lat="44.84082182137221" lon="-1.1521740189900171"><ele>11.0</ele><time>2026-04-26T13:18:32Z</time></trkpt><trkpt lat="44.840774572769284" lon="-1.1523006505384876"><ele>10.8</ele><time>2026-04-26T13:18:33Z</time></trkpt><trkpt lat="44.84072447224801" lon="-1.1524015768852012"><ele>10.600000000000001</ele><time>2026-04-26T13:18:34Z</time></trkpt><trkpt lat="44.840665374273115" lon="-1.1525348617854174"><ele>10.4</ele><time>2026-04-26T13:18:35Z</time></trkpt><trkpt lat="44.84060586104327" lon="-1.1526660450576334"><ele>10.2</ele><time>2026-04-26T13:18:36Z</time></trkpt><trkpt lat="44.84055240794278" lon="-1.152796019186752"><ele>10.0</ele><time>2026-04-26T13:18:37Z</time></trkpt><trkpt lat="44.840493084079306" lon="-1.1529324150340934"><ele>10.0</ele><time>2026-04-26T13:18:38Z</time></trkpt><trkpt lat="44.84043362866826" lon="-1.1530770266086159"><ele>10.0</ele><time>2026-04-26T13:18:39Z</time></trkpt><trkpt lat="44.84038638594858" lon="-1.1531910026041061"><ele>10.0</ele><time>2026-04-26T13:18:40Z</time></trkpt><trkpt lat="44.84033965965539" lon="-1.1533070115399569"><ele>10.0</ele><time>2026-04-26T13:18:41Z</time></trkpt><trkpt lat="44.84029341704354" lon="-1.153422524534711"><ele>10.0</ele><time>2026-04-26T13:18:42Z</time></trkpt><trkpt lat="44.840242946648345" lon="-1.1535375047756662"><ele>11.2</ele><time>2026-04-26T13:18:43Z</time></trkpt><trkpt lat="44.8401903310591" lon="-1.1536578269107596"><ele>12.4</ele><time>2026-04-26T13:18:44Z</time></trkpt><trkpt lat="44.840148688522845" lon="-1.1537568569918746"><ele>13.600000000000001</ele><time>2026-04-26T13:18:45Z</time></trkpt><trkpt lat="44.84010378906274" lon="-1.1538649980694993"><ele>14.8</ele><time>2026-04-26T13:18:46Z</time></trkpt><trkpt lat="44.84005825049953" lon="-1.1539685931037136"><ele>16.0</ele><time>2026-04-26T13:18:47Z</time></trkpt><trkpt lat="44.84001070471331" lon="-1.1540819361505394"><ele>16.400000000000002</ele><time>2026-04-26T13:18:48Z</time></trkpt><trkpt lat="44.839962755081444" lon="-1.1541964485425147"><ele>16.8</ele><time>2026-04-26T13:18:49Z</time></trkpt><trkpt lat="44.83991226838165" lon="-1.154280097660302"><ele>17.200000000000003</ele><time>2026-04-26T13:18:50Z</time></trkpt><trkpt lat="44.83977953234625" lon="-1.1543345034533574"><ele>17.6</ele><time>2026-04-26T13:18:52Z</time></trkpt><trkpt lat="44.83969534880601" lon="-1.1543493786337313"><ele>18.0</ele><time>2026-04-26T13:18:53Z</time></trkpt><trkpt lat="44.83959959222443" lon="-1.1543297210286585"><ele>18.0</ele><time>2026-04-26T13:18:54Z</time></trkpt><trkpt lat="44.83949795717846" lon="-1.1543260574250644"><ele>18.0</ele><time>2026-04-26T13:18:55Z</time></trkpt><trkpt lat="44.839382848246274" lon="-1.1543302531707578"><ele>18.0</ele><time>2026-04-26T13:18:56Z</time></trkpt><trkpt lat="44.83927877331075" lon="-1.1543310279385748"><ele>18.0</ele><time>2026-04-26T13:18:57Z</time></trkpt><trkpt lat="44.83916079517984" lon="-1.154333869048341"><ele>18.0</ele><time>2026-04-26T13:18:58Z</time></trkpt><trkpt lat="44.839068750437235" lon="-1.1543469654220346"><ele>18.0</ele><time>2026-04-26T13:18:59Z</time></trkpt><trkpt lat="44.83899387599811" lon="-1.154371448954809"><ele>18.0</ele><time>2026-04-26T13:19:00Z</time></trkpt><trkpt lat="44.838914904844614" lon="-1.1543850657364874"><ele>18.0</ele><time>2026-04-26T13:19:01Z</time></trkpt><trkpt lat="44.838809175809615" lon="-1.1543987622337955"><ele>18.0</ele><time>2026-04-26T13:19:02Z</time></trkpt><trkpt lat="44.838694351129945" lon="-1.1544111340167642"><ele>18.0</ele><time>2026-04-26T13:19:03Z</time></trkpt><trkpt lat="44.8385448827383" lon="-1.154432458860593"><ele>18.333333333333332</ele><time>2026-04-26T13:19:04Z</time></trkpt><trkpt lat="44.838387326120525" lon="-1.154458698529251"><ele>18.666666666666664</ele><time>2026-04-26T13:19:05Z</time></trkpt><trkpt lat="44.83821875015356" lon="-1.1544893391651698"><ele>19.0</ele><time>2026-04-26T13:19:06Z</time></trkpt><trkpt lat="44.8380503997622" lon="-1.1545035861687776"><ele>19.0</ele><time>2026-04-26T13:19:07Z</time></trkpt><trkpt lat="44.83790529453298" lon="-1.1545287839355296"><ele>19.0</ele><time>2026-04-26T13:19:08Z</time></trkpt><trkpt lat="44.837736711609004" lon="-1.154571676627987"><ele>19.0</ele><time>2026-04-26T13:19:09Z</time></trkpt><trkpt lat="44.837602507428905" lon="-1.1545896686649608"><ele>18.333333333333332</ele><time>2026-04-26T13:19:10Z</time></trkpt><trkpt lat="44.837467242315455" lon="-1.154595883219578"><ele>17.666666666666668</ele><time>2026-04-26T13:19:11Z</time></trkpt><trkpt lat="44.83730204624205" lon="-1.154629016895714"><ele>17.0</ele><time>2026-04-26T13:19:12Z</time></trkpt><trkpt lat="44.83711650758331" lon="-1.1546584235037514"><ele>17.0</ele><time>2026-04-26T13:19:12.999Z</time></trkpt><trkpt lat="44.83696062398673" lon="-1.1546792051218868"><ele>17.0</ele><time>2026-04-26T13:19:13.999Z</time></trkpt><trkpt lat="44.83682685763363" lon="-1.1547008309626543"><ele>17.0</ele><time>2026-04-26T13:19:14.999Z</time></trkpt><trkpt lat="44.83668035204271" lon="-1.154730071931406"><ele>17.0</ele><time>2026-04-26T13:19:15.999Z</time></trkpt><trkpt lat="44.836528614223425" lon="-1.154763860524778"><ele>17.333333333333336</ele><time>2026-04-26T13:19:16.999Z</time></trkpt><trkpt lat="44.83635632442837" lon="-1.154787512918042"><ele>17.666666666666668</ele><time>2026-04-26T13:19:17.999Z</time></trkpt><trkpt lat="44.83616430352585" lon="-1.1548275728890127"><ele>18.0</ele><time>2026-04-26T13:19:18.999Z</time></trkpt><trkpt lat="44.83599901875357" lon="-1.154838350755794"><ele>19.333333333333332</ele><time>2026-04-26T13:19:19.999Z</time></trkpt><trkpt lat="44.835834823452906" lon="-1.1548717979738066"><ele>20.666666666666664</ele><time>2026-04-26T13:19:20.999Z</time></trkpt><trkpt lat="44.8356590269803" lon="-1.1549095365159823"><ele>22.0</ele><time>2026-04-26T13:19:21.999Z</time></trkpt><trkpt lat="44.83553304272967" lon="-1.1549392716173361"><ele>22.0</ele><time>2026-04-26T13:19:22.999Z</time></trkpt><trkpt lat="44.83538466599071" lon="-1.1549632072736085"><ele>22.0</ele><time>2026-04-26T13:19:23.999Z</time></trkpt><trkpt lat="44.835233343701" lon="-1.154980955332775"><ele>22.0</ele><time>2026-04-26T13:19:24.999Z</time></trkpt><trkpt lat="44.835081487128406" lon="-1.1549897263825517"><ele>21.333333333333332</ele><time>2026-04-26T13:19:25.999Z</time></trkpt><trkpt lat="44.834919686103966" lon="-1.1550064581062294"><ele>20.666666666666668</ele><time>2026-04-26T13:19:26.999Z</time></trkpt><trkpt lat="44.83477024101734" lon="-1.1550275167325952"><ele>20.0</ele><time>2026-04-26T13:19:27.999Z</time></trkpt><trkpt lat="44.83463127062171" lon="-1.155053812799555"><ele>20.0</ele><time>2026-04-26T13:19:28.999Z</time></trkpt><trkpt lat="44.83450395280079" lon="-1.1550909526333886"><ele>20.0</ele><time>2026-04-26T13:19:29.999Z</time></trkpt><trkpt lat="44.83435482993597" lon="-1.155125611962132"><ele>20.0</ele><time>2026-04-26T13:19:30.999Z</time></trkpt><trkpt lat="44.83422037820248" lon="-1.1551560605875943"><ele>20.0</ele><time>2026-04-26T13:19:31.999Z</time></trkpt><trkpt lat="44.834076074734426" lon="-1.155154536182444"><ele>19.333333333333336</ele><time>2026-04-26T13:19:32.999Z</time></trkpt><trkpt lat="44.83389713168094" lon="-1.155174723659297"><ele>18.666666666666668</ele><time>2026-04-26T13:19:33.999Z</time></trkpt><trkpt lat="44.83375877161058" lon="-1.155198268548128"><ele>18.0</ele><time>2026-04-26T13:19:34.999Z</time></trkpt><trkpt lat="44.833600112583774" lon="-1.1552265651217415"><ele>18.333333333333332</ele><time>2026-04-26T13:19:35.999Z</time></trkpt><trkpt lat="44.83344639189007" lon="-1.1552389612087597"><ele>18.666666666666664</ele><time>2026-04-26T13:19:36.999Z</time></trkpt><trkpt lat="44.83330708094436" lon="-1.155263445376167"><ele>19.0</ele><time>2026-04-26T13:19:37.999Z</time></trkpt><trkpt lat="44.833147007195" lon="-1.1553007303955511"><ele>19.0</ele><time>2026-04-26T13:19:38.999Z</time></trkpt><trkpt lat="44.832994712207366" lon="-1.15531028995529"><ele>19.0</ele><time>2026-04-26T13:19:39.999Z</time></trkpt><trkpt lat="44.832831350755725" lon="-1.1553430986520214"><ele>19.0</ele><time>2026-04-26T13:19:40.999Z</time></trkpt><trkpt lat="44.832662205229354" lon="-1.155368679363945"><ele>18.0</ele><time>2026-04-26T13:19:41.999Z</time></trkpt><trkpt lat="44.83251473062439" lon="-1.1553871039154904"><ele>17.0</ele><time>2026-04-26T13:19:42.999Z</time></trkpt><trkpt lat="44.83237682503234" lon="-1.1554200577906142"><ele>16.0</ele><time>2026-04-26T13:19:43.999Z</time></trkpt><trkpt lat="44.83222143571594" lon="-1.1554392567697256"><ele>15.0</ele><time>2026-04-26T13:19:44.999Z</time></trkpt><trkpt lat="44.83206116095042" lon="-1.1554746396520723"><ele>15.0</ele><time>2026-04-26T13:19:45.999Z</time></trkpt><trkpt lat="44.83191086330877" lon="-1.155509984831408"><ele>15.0</ele><time>2026-04-26T13:19:46.999Z</time></trkpt><trkpt lat="44.831778837225414" lon="-1.1555197665163481"><ele>15.0</ele><time>2026-04-26T13:19:47.999Z</time></trkpt><trkpt lat="44.83164655308234" lon="-1.1555171061376803"><ele>15.0</ele><time>2026-04-26T13:19:48.999Z</time></trkpt><trkpt lat="44.83154115526276" lon="-1.1555401758073052"><ele>15.75</ele><time>2026-04-26T13:19:49.999Z</time></trkpt><trkpt lat="44.8314106561553" lon="-1.1555604424440769"><ele>16.5</ele><time>2026-04-26T13:19:50.999Z</time></trkpt><trkpt lat="44.831253833195355" lon="-1.1555782672922932"><ele>17.25</ele><time>2026-04-26T13:19:51.999Z</time></trkpt><trkpt lat="44.8311189176183" lon="-1.1555875617854452"><ele>18.0</ele><time>2026-04-26T13:19:52.999Z</time></trkpt><trkpt lat="44.831013855787695" lon="-1.155607865124606"><ele>17.6</ele><time>2026-04-26T13:19:53.999Z</time></trkpt><trkpt lat="44.83090701255397" lon="-1.155641238863958"><ele>17.200000000000003</ele><time>2026-04-26T13:19:54.999Z</time></trkpt><trkpt lat="44.83080007707233" lon="-1.1556698164073156"><ele>16.8</ele><time>2026-04-26T13:19:55.999Z</time></trkpt><trkpt lat="44.83070689594621" lon="-1.155689921981011"><ele>16.400000000000002</ele><time>2026-04-26T13:19:56.999Z</time></trkpt><trkpt lat="44.83065202774906" lon="-1.1556273337044198"><ele>16.0</ele><time>2026-04-26T13:20:01.998Z</time></trkpt><trkpt lat="44.830586274289146" lon="-1.155574557243189"><ele>15.999999999999998</ele><time>2026-04-26T13:20:33.998Z</time></trkpt><trkpt lat="44.83060768061813" lon="-1.155450969103549"><ele>16.0</ele><time>2026-04-26T13:20:36Z</time></trkpt><trkpt lat="44.830586301318604" lon="-1.1553607065074318"><ele>16.0</ele><time>2026-04-26T13:20:37Z</time></trkpt><trkpt lat="44.83055970811762" lon="-1.1552600232744386"><ele>16.0</ele><time>2026-04-26T13:20:38Z</time></trkpt><trkpt lat="44.83055152893943" lon="-1.1551714542915503"><ele>15.999999999999998</ele><time>2026-04-26T13:20:39Z</time></trkpt><trkpt lat="44.83054227155081" lon="-1.1550423456918197"><ele>16.0</ele><time>2026-04-26T13:20:41Z</time></trkpt><trkpt lat="44.830502415553376" lon="-1.1549282866818749"><ele>15.499999999999998</ele><time>2026-04-26T13:20:44Z</time></trkpt><trkpt lat="44.83055773098647" lon="-1.154828578057293"><ele>15.0</ele><time>2026-04-26T13:20:48Z</time></trkpt><trkpt lat="44.83053340770165" lon="-1.1547443788862466"><ele>14.5</ele><time>2026-04-26T13:20:52Z</time></trkpt><trkpt lat="44.83050449641188" lon="-1.1546508657365138"><ele>14.0</ele><time>2026-04-26T13:20:54Z</time></trkpt><trkpt lat="44.83056996253251" lon="-1.15458613109349"><ele>13.499999999999998</ele><time>2026-04-26T13:21:42.999Z</time></trkpt><trkpt lat="44.83064481847436" lon="-1.1545533294510926"><ele>13.0</ele><time>2026-04-26T13:21:44.999Z</time></trkpt><trkpt lat="44.83071174558112" lon="-1.154519228627829"><ele>12.999999999999998</ele><time>2026-04-26T13:21:46.999Z</time></trkpt><trkpt lat="44.8307930741463" lon="-1.1544707346207694"><ele>13.0</ele><time>2026-04-26T13:21:49.999Z</time></trkpt><trkpt lat="44.83086020917838" lon="-1.1544391378697565"><ele>13.0</ele><time>2026-04-26T13:21:52.999Z</time></trkpt><trkpt lat="44.83092358542732" lon="-1.1544481274155816"><ele>13.0</ele><time>2026-04-26T13:21:56.999Z</time></trkpt><trkpt lat="44.83101491233841" lon="-1.1544876472766865"><ele>12.999999999999998</ele><time>2026-04-26T13:21:59.998Z</time></trkpt><trkpt lat="44.83109935759641" lon="-1.154416615248385"><ele>13.0</ele><time>2026-04-26T13:22:01.998Z</time></trkpt><trkpt lat="44.83121486862243" lon="-1.154392808786066"><ele>13.499999999999998</ele><time>2026-04-26T13:22:03.998Z</time></trkpt><trkpt lat="44.83127690390996" lon="-1.154356297114903"><ele>14.0</ele><time>2026-04-26T13:22:05.998Z</time></trkpt><trkpt lat="44.8313461265986" lon="-1.1543595736338654"><ele>14.5</ele><time>2026-04-26T13:22:06.998Z</time></trkpt><trkpt lat="44.83145791238247" lon="-1.154345783145622"><ele>15.0</ele><time>2026-04-26T13:22:08.998Z</time></trkpt><trkpt lat="44.831537651027624" lon="-1.154360029335866"><ele>15.499999999999998</ele><time>2026-04-26T13:22:10.998Z</time></trkpt><trkpt lat="44.831605283017375" lon="-1.1543364475489484"><ele>16.0</ele><time>2026-04-26T13:22:12.998Z</time></trkpt><trkpt lat="44.83171091066194" lon="-1.154338433560488"><ele>15.833333333333332</ele><time>2026-04-26T13:22:14.998Z</time></trkpt><trkpt lat="44.83180697952798" lon="-1.1543133050189371"><ele>15.666666666666666</ele><time>2026-04-26T13:22:16.998Z</time></trkpt><trkpt lat="44.83189386981323" lon="-1.1543267652181883"><ele>15.5</ele><time>2026-04-26T13:22:18.998Z</time></trkpt><trkpt lat="44.83200710816522" lon="-1.1543290017921048"><ele>15.333333333333332</ele><time>2026-04-26T13:22:20.998Z</time></trkpt><trkpt lat="44.832074677232285" lon="-1.1543318833529959"><ele>15.166666666666666</ele><time>2026-04-26T13:22:21.998Z</time></trkpt><trkpt lat="44.83213400347282" lon="-1.1542889590233385"><ele>15.0</ele><time>2026-04-26T13:22:22.998Z</time></trkpt><trkpt lat="44.83222844001532" lon="-1.1542338778117731"><ele>15.0</ele><time>2026-04-26T13:22:24.998Z</time></trkpt><trkpt lat="44.83233934911459" lon="-1.1542254991330383"><ele>15.0</ele><time>2026-04-26T13:22:26.998Z</time></trkpt><trkpt lat="44.832449998872846" lon="-1.1541750206087966"><ele>15.0</ele><time>2026-04-26T13:22:28.998Z</time></trkpt><trkpt lat="44.832530076397326" lon="-1.1541660543177976"><ele>15.0</ele><time>2026-04-26T13:22:30.998Z</time></trkpt><trkpt lat="44.83265950879632" lon="-1.1541466453354772"><ele>15.0</ele><time>2026-04-26T13:22:32.998Z</time></trkpt><trkpt lat="44.83272122555533" lon="-1.1541125938178358"><ele>15.5</ele><time>2026-04-26T13:22:33.998Z</time></trkpt><trkpt lat="44.83286190930702" lon="-1.154086421240848"><ele>16.0</ele><time>2026-04-26T13:22:34.998Z</time></trkpt><trkpt lat="44.83297886348911" lon="-1.1541609841624605"><ele>16.5</ele><time>2026-04-26T13:22:36.998Z</time></trkpt><trkpt lat="44.833095620636676" lon="-1.1541469343858435"><ele>17.0</ele><time>2026-04-26T13:22:38.998Z</time></trkpt><trkpt lat="44.83316106871406" lon="-1.1541001915136595"><ele>17.0</ele><time>2026-04-26T13:22:39.998Z</time></trkpt><trkpt lat="44.833267369882975" lon="-1.1541254210109522"><ele>17.0</ele><time>2026-04-26T13:22:42Z</time></trkpt><trkpt lat="44.83335976581447" lon="-1.154234095758447"><ele>17.0</ele><time>2026-04-26T13:22:44Z</time></trkpt><trkpt lat="44.833445802751584" lon="-1.1542263915631281"><ele>17.0</ele><time>2026-04-26T13:22:46Z</time></trkpt><trkpt lat="44.833499822632845" lon="-1.1541764300729793"><ele>17.0</ele><time>2026-04-26T13:22:47Z</time></trkpt><trkpt lat="44.83359939522786" lon="-1.1541025224650838"><ele>16.8</ele><time>2026-04-26T13:22:49Z</time></trkpt><trkpt lat="44.83368857225396" lon="-1.1541062084414329"><ele>16.6</ele><time>2026-04-26T13:22:50Z</time></trkpt><trkpt lat="44.83377506496902" lon="-1.154112434006037"><ele>16.400000000000002</ele><time>2026-04-26T13:22:51Z</time></trkpt><trkpt lat="44.833881693704065" lon="-1.1540779576450482"><ele>16.2</ele><time>2026-04-26T13:22:53Z</time></trkpt><trkpt lat="44.83396366199965" lon="-1.1541880215647158"><ele>16.0</ele><time>2026-04-26T13:22:55Z</time></trkpt><trkpt lat="44.83407149576713" lon="-1.1541529184440158"><ele>15.999999999999998</ele><time>2026-04-26T13:22:58Z</time></trkpt><trkpt lat="44.83413192531413" lon="-1.1541838960956432"><ele>16.0</ele><time>2026-04-26T13:22:59Z</time></trkpt><trkpt lat="44.834199284669175" lon="-1.1542624087326894"><ele>16.0</ele><time>2026-04-26T13:23:00Z</time></trkpt><trkpt lat="44.83429079256636" lon="-1.1543076105729548"><ele>16.0</ele><time>2026-04-26T13:23:02Z</time></trkpt><trkpt lat="44.834368020565606" lon="-1.154279273143473"><ele>15.999999999999998</ele><time>2026-04-26T13:23:03Z</time></trkpt><trkpt lat="44.83443216874542" lon="-1.1542478293464595"><ele>16.0</ele><time>2026-04-26T13:23:04Z</time></trkpt><trkpt lat="44.83449464684593" lon="-1.1541754267558644"><ele>16.166666666666664</ele><time>2026-04-26T13:23:06Z</time></trkpt><trkpt lat="44.83455339348038" lon="-1.1542222848360404"><ele>16.333333333333332</ele><time>2026-04-26T13:23:09Z</time></trkpt><trkpt lat="44.83463033941047" lon="-1.1542667512956066"><ele>16.5</ele><time>2026-04-26T13:23:11Z</time></trkpt><trkpt lat="44.83475982635238" lon="-1.1542654801179144"><ele>16.666666666666668</ele><time>2026-04-26T13:23:13Z</time></trkpt><trkpt lat="44.83483444117751" lon="-1.1542447937093816"><ele>16.833333333333336</ele><time>2026-04-26T13:23:13.999Z</time></trkpt><trkpt lat="44.83491531667789" lon="-1.1542277636777387"><ele>17.0</ele><time>2026-04-26T13:23:14.999Z</time></trkpt><trkpt lat="44.83500453361697" lon="-1.1542098408074544"><ele>17.0</ele><time>2026-04-26T13:23:15.999Z</time></trkpt><trkpt lat="44.83508235476448" lon="-1.154168814705253"><ele>17.0</ele><time>2026-04-26T13:23:16.999Z</time></trkpt><trkpt lat="44.83514232418903" lon="-1.154124315510702"><ele>17.0</ele><time>2026-04-26T13:23:17.999Z</time></trkpt><trkpt lat="44.83525936701464" lon="-1.154046289968014"><ele>17.0</ele><time>2026-04-26T13:23:19.999Z</time></trkpt><trkpt lat="44.835346081684676" lon="-1.1539710841182351"><ele>17.0</ele><time>2026-04-26T13:23:21.999Z</time></trkpt><trkpt lat="44.83543660882508" lon="-1.153917115740792"><ele>16.5</ele><time>2026-04-26T13:23:23.999Z</time></trkpt><trkpt lat="44.835482996773734" lon="-1.1538074360176462"><ele>16.0</ele><time>2026-04-26T13:23:25.999Z</time></trkpt><trkpt lat="44.83550057215446" lon="-1.1536893635875483"><ele>15.5</ele><time>2026-04-26T13:23:27.999Z</time></trkpt><trkpt lat="44.83552210737076" lon="-1.153592455711323"><ele>15.0</ele><time>2026-04-26T13:23:28.999Z</time></trkpt><trkpt lat="44.835569877422536" lon="-1.1535313556063085"><ele>14.500000000000002</ele><time>2026-04-26T13:23:29.999Z</time></trkpt><trkpt lat="44.835618942434884" lon="-1.1534651317382674"><ele>14.0</ele><time>2026-04-26T13:23:30.999Z</time></trkpt><trkpt lat="44.83567950465107" lon="-1.153365613012097"><ele>14.0</ele><time>2026-04-26T13:23:32.999Z</time></trkpt><trkpt lat="44.83574264616759" lon="-1.1534033840937061"><ele>13.999999999999998</ele><time>2026-04-26T13:23:34.999Z</time></trkpt><trkpt lat="44.83579377534476" lon="-1.1535599472676807"><ele>13.999999999999998</ele><time>2026-04-26T13:23:36.999Z</time></trkpt><trkpt lat="44.83585132426445" lon="-1.1536831266387015"><ele>14.0</ele><time>2026-04-26T13:23:38.999Z</time></trkpt><trkpt lat="44.83594300137002" lon="-1.1536980046070546"><ele>14.0</ele><time>2026-04-26T13:23:40.999Z</time></trkpt><trkpt lat="44.83605698752404" lon="-1.1538053835251136"><ele>14.000000000000002</ele><time>2026-04-26T13:23:42.999Z</time></trkpt><trkpt lat="44.83613201183084" lon="-1.1538558087300632"><ele>14.0</ele><time>2026-04-26T13:23:44.999Z</time></trkpt><trkpt lat="44.83619110618237" lon="-1.1539028714315296"><ele>14.0</ele><time>2026-04-26T13:23:45.999Z</time></trkpt><trkpt lat="44.83625942995141" lon="-1.1538932948000518"><ele>14.0</ele><time>2026-04-26T13:23:50.999Z</time></trkpt><trkpt lat="44.83628428981069" lon="-1.1537934445300657"><ele>14.000000000000002</ele><time>2026-04-26T13:23:52.999Z</time></trkpt><trkpt lat="44.8363597286717" lon="-1.153667368844659"><ele>14.0</ele><time>2026-04-26T13:23:54.999Z</time></trkpt><trkpt lat="44.836419478938126" lon="-1.1535550503759375"><ele>14.0</ele><time>2026-04-26T13:23:56.999Z</time></trkpt><trkpt lat="44.83650703333871" lon="-1.1535204914753845"><ele>14.0</ele><time>2026-04-26T13:23:58.999Z</time></trkpt><trkpt lat="44.836529300611446" lon="-1.1534097992900074"><ele>14.0</ele><time>2026-04-26T13:24:00.998Z</time></trkpt><trkpt lat="44.83655902677771" lon="-1.153324840143307"><ele>14.0</ele><time>2026-04-26T13:24:02.998Z</time></trkpt><trkpt lat="44.83661715940584" lon="-1.1532902807032905"><ele>14.0</ele><time>2026-04-26T13:24:04.998Z</time></trkpt><trkpt lat="44.836685932124475" lon="-1.1533037395639594"><ele>14.0</ele><time>2026-04-26T13:24:06.998Z</time></trkpt><trkpt lat="44.83668405387074" lon="-1.1532084687216113"><ele>14.0</ele><time>2026-04-26T13:24:10.998Z</time></trkpt><trkpt lat="44.836726116916815" lon="-1.1531275644340053"><ele>14.166666666666668</ele><time>2026-04-26T13:24:13.998Z</time></trkpt><trkpt lat="44.836758173923286" lon="-1.1530466367025518"><ele>14.333333333333334</ele><time>2026-04-26T13:24:15.998Z</time></trkpt><trkpt lat="44.8367947847485" lon="-1.152945051331944"><ele>14.5</ele><time>2026-04-26T13:24:17.998Z</time></trkpt><trkpt lat="44.83684370713981" lon="-1.1528418142295815"><ele>14.666666666666668</ele><time>2026-04-26T13:24:19.998Z</time></trkpt><trkpt lat="44.8368818338536" lon="-1.1527346423496687"><ele>14.833333333333334</ele><time>2026-04-26T13:24:21.998Z</time></trkpt><trkpt lat="44.83686574257105" lon="-1.152643900782302"><ele>15.0</ele><time>2026-04-26T13:24:24.998Z</time></trkpt><trkpt lat="44.836854877779885" lon="-1.1525332402869057"><ele>15.0</ele><time>2026-04-26T13:24:27.998Z</time></trkpt><trkpt lat="44.83688792278992" lon="-1.1524432095793056"><ele>15.0</ele><time>2026-04-26T13:24:31.998Z</time></trkpt><trkpt lat="44.83692613351123" lon="-1.1523721318537936"><ele>15.0</ele><time>2026-04-26T13:24:33.998Z</time></trkpt><trkpt lat="44.83697954484783" lon="-1.1523213182548246"><ele>15.0</ele><time>2026-04-26T13:24:35.998Z</time></trkpt><trkpt lat="44.837034170537585" lon="-1.1522575887283302"><ele>15.0</ele><time>2026-04-26T13:24:38.998Z</time></trkpt><trkpt lat="44.83703467411261" lon="-1.1521423427663227"><ele>15.0</ele><time>2026-04-26T13:24:40.998Z</time></trkpt><trkpt lat="44.83709589188508" lon="-1.1521166200652435"><ele>15.0</ele><time>2026-04-26T13:24:42.998Z</time></trkpt><trkpt lat="44.83715749183586" lon="-1.1520385877811476"><ele>14.666666666666666</ele><time>2026-04-26T13:24:44.998Z</time></trkpt><trkpt lat="44.83719983314905" lon="-1.151966798036041"><ele>14.333333333333332</ele><time>2026-04-26T13:24:48Z</time></trkpt><trkpt lat="44.83727056511001" lon="-1.151915040475052"><ele>14.0</ele><time>2026-04-26T13:24:51Z</time></trkpt><trkpt lat="44.837373340343234" lon="-1.1519434912555035"><ele>13.666666666666666</ele><time>2026-04-26T13:24:53Z</time></trkpt><trkpt lat="44.837460575622885" lon="-1.1519656259742221"><ele>13.333333333333332</ele><time>2026-04-26T13:24:55Z</time></trkpt><trkpt lat="44.83753519085823" lon="-1.151941767911944"><ele>13.0</ele><time>2026-04-26T13:24:57Z</time></trkpt><trkpt lat="44.83758577797216" lon="-1.151882786453413"><ele>13.333333333333332</ele><time>2026-04-26T13:25:11Z</time></trkpt><trkpt lat="44.83766684764371" lon="-1.1518517503490018"><ele>13.666666666666666</ele><time>2026-04-26T13:25:13.999Z</time></trkpt><trkpt lat="44.8377243332915" lon="-1.151808790761366"><ele>14.0</ele><time>2026-04-26T13:25:15.999Z</time></trkpt><trkpt lat="44.83781278778331" lon="-1.1517580132108922"><ele>14.333333333333332</ele><time>2026-04-26T13:25:18.999Z</time></trkpt><trkpt lat="44.837877420078456" lon="-1.1517200207087257"><ele>14.666666666666666</ele><time>2026-04-26T13:25:20.999Z</time></trkpt><trkpt lat="44.83794137027762" lon="-1.151667796369332"><ele>15.0</ele><time>2026-04-26T13:25:22.999Z</time></trkpt><trkpt lat="44.837998509094874" lon="-1.1516191261186477"><ele>15.0</ele><time>2026-04-26T13:25:25.999Z</time></trkpt><trkpt lat="44.83805620071113" lon="-1.1515074752090146"><ele>15.0</ele><time>2026-04-26T13:25:27.999Z</time></trkpt><trkpt lat="44.83814417113632" lon="-1.1514564863206105"><ele>15.0</ele><time>2026-04-26T13:25:30.999Z</time></trkpt><trkpt lat="44.83821135233007" lon="-1.1514178460302666"><ele>15.0</ele><time>2026-04-26T13:25:32.999Z</time></trkpt><trkpt lat="44.838278458304465" lon="-1.1513711266852606"><ele>15.0</ele><time>2026-04-26T13:25:34.999Z</time></trkpt><trkpt lat="44.83834282676673" lon="-1.151328863716584"><ele>15.0</ele><time>2026-04-26T13:25:36.999Z</time></trkpt><trkpt lat="44.838444179979035" lon="-1.1512736006754059"><ele>14.5</ele><time>2026-04-26T13:25:39.999Z</time></trkpt><trkpt lat="44.83852395496553" lon="-1.151279878953373"><ele>14.0</ele><time>2026-04-26T13:25:41.999Z</time></trkpt><trkpt lat="44.83857874071379" lon="-1.1511994266442322"><ele>13.5</ele><time>2026-04-26T13:25:43.999Z</time></trkpt><trkpt lat="44.83861551757087" lon="-1.15110074237576"><ele>13.0</ele><time>2026-04-26T13:25:46.999Z</time></trkpt><trkpt lat="44.83868191347326" lon="-1.15107359300421"><ele>12.5</ele><time>2026-04-26T13:25:48.999Z</time></trkpt><trkpt lat="44.8387664715278" lon="-1.1510183387465378"><ele>12.0</ele><time>2026-04-26T13:25:51.999Z</time></trkpt><trkpt lat="44.83881219723052" lon="-1.1509130849595157"><ele>12.0</ele><time>2026-04-26T13:25:54.999Z</time></trkpt><trkpt lat="44.83890649321031" lon="-1.1509025106078323"><ele>12.0</ele><time>2026-04-26T13:25:56.999Z</time></trkpt><trkpt lat="44.8389729942247" lon="-1.1508901534838045"><ele>12.0</ele><time>2026-04-26T13:25:58.999Z</time></trkpt><trkpt lat="44.83905035272837" lon="-1.1509530063135511"><ele>12.0</ele><time>2026-04-26T13:26:01.998Z</time></trkpt><trkpt lat="44.83913410058047" lon="-1.15105055096888"><ele>12.0</ele><time>2026-04-26T13:26:04.998Z</time></trkpt><trkpt lat="44.83916920684623" lon="-1.151141324093158"><ele>12.0</ele><time>2026-04-26T13:26:06.998Z</time></trkpt><trkpt lat="44.839141404109725" lon="-1.151245803091163"><ele>12.0</ele><time>2026-04-26T13:26:08.998Z</time></trkpt><trkpt lat="44.83908378755464" lon="-1.151321304208728"><ele>12.0</ele><time>2026-04-26T13:26:10.998Z</time></trkpt><trkpt lat="44.839070096882686" lon="-1.151428917615009"><ele>12.0</ele><time>2026-04-26T13:26:19.998Z</time></trkpt><trkpt lat="44.83899490605494" lon="-1.1514733850331147"><ele>12.0</ele><time>2026-04-26T13:26:23.998Z</time></trkpt><trkpt lat="44.83892837738441" lon="-1.1515584922170439"><ele>12.0</ele><time>2026-04-26T13:26:25.998Z</time></trkpt><trkpt lat="44.83889676614014" lon="-1.1516670159016278"><ele>12.0</ele><time>2026-04-26T13:26:28.998Z</time></trkpt><trkpt lat="44.838865941647704" lon="-1.1517954147276495"><ele>12.166666666666666</ele><time>2026-04-26T13:26:30.998Z</time></trkpt><trkpt lat="44.83882005227166" lon="-1.1519007449256924"><ele>12.333333333333332</ele><time>2026-04-26T13:26:33.998Z</time></trkpt><trkpt lat="44.838842673248" lon="-1.152023310316161"><ele>12.5</ele><time>2026-04-26T13:26:35.998Z</time></trkpt><trkpt lat="44.83888809698726" lon="-1.1521074002270622"><ele>12.666666666666666</ele><time>2026-04-26T13:26:37.998Z</time></trkpt><trkpt lat="44.838928542440456" lon="-1.1522189976690516"><ele>12.833333333333332</ele><time>2026-04-26T13:26:40.998Z</time></trkpt><trkpt lat="44.8390194628455" lon="-1.1522900386251234"><ele>13.0</ele><time>2026-04-26T13:26:44.998Z</time></trkpt><trkpt lat="44.839106446229955" lon="-1.1523381596737206"><ele>13.166666666666666</ele><time>2026-04-26T13:26:46.998Z</time></trkpt><trkpt lat="44.83915180371368" lon="-1.1524011797658318"><ele>13.333333333333332</ele><time>2026-04-26T13:26:47.997Z</time></trkpt><trkpt lat="44.8392252044982" lon="-1.1524285751065533"><ele>13.5</ele><time>2026-04-26T13:26:49.997Z</time></trkpt><trkpt lat="44.839304500788586" lon="-1.1524566438668875"><ele>13.666666666666668</ele><time>2026-04-26T13:26:52Z</time></trkpt><trkpt lat="44.83938656693926" lon="-1.1524605859473769"><ele>13.833333333333334</ele><time>2026-04-26T13:26:55Z</time></trkpt><trkpt lat="44.839477879905225" lon="-1.1524679821339678"><ele>14.0</ele><time>2026-04-26T13:26:57Z</time></trkpt><trkpt lat="44.83953478279231" lon="-1.15251440328999"><ele>13.6</ele><time>2026-04-26T13:26:59Z</time></trkpt><trkpt lat="44.83959580200818" lon="-1.1525770994898692"><ele>13.2</ele><time>2026-04-26T13:27:01Z</time></trkpt><trkpt lat="44.83969555425779" lon="-1.1525834073592387"><ele>12.799999999999999</ele><time>2026-04-26T13:27:03Z</time></trkpt><trkpt lat="44.83978834901948" lon="-1.1526554422266102"><ele>12.399999999999999</ele><time>2026-04-26T13:27:05Z</time></trkpt><trkpt lat="44.83987794984042" lon="-1.1527409983864159"><ele>12.0</ele><time>2026-04-26T13:27:07Z</time></trkpt><trkpt lat="44.8399566410821" lon="-1.1527845531980139"><ele>12.0</ele><time>2026-04-26T13:27:09Z</time></trkpt><trkpt lat="44.84003621168618" lon="-1.1528283905324048"><ele>12.0</ele><time>2026-04-26T13:27:11Z</time></trkpt><trkpt lat="44.84011576833954" lon="-1.1528715409353245"><ele>12.0</ele><time>2026-04-26T13:27:13Z</time></trkpt><trkpt lat="44.840188532081875" lon="-1.1529262818268509"><ele>12.0</ele><time>2026-04-26T13:27:15.999Z</time></trkpt><trkpt lat="44.84026451428093" lon="-1.1529761551305344"><ele>12.0</ele><time>2026-04-26T13:27:18.999Z</time></trkpt><trkpt lat="44.84032355385563" lon="-1.1530174946479068"><ele>12.0</ele><time>2026-04-26T13:27:21.999Z</time></trkpt><trkpt lat="44.84039250123944" lon="-1.1530438564124046"><ele>11.6</ele><time>2026-04-26T13:27:23.999Z</time></trkpt><trkpt lat="44.84047392365619" lon="-1.152997015206898"><ele>11.2</ele><time>2026-04-26T13:27:25.999Z</time></trkpt><trkpt lat="44.84052083207083" lon="-1.152867822888926"><ele>10.8</ele><time>2026-04-26T13:27:27.999Z</time></trkpt><trkpt lat="44.84056748613113" lon="-1.1527514590734118"><ele>10.4</ele><time>2026-04-26T13:27:29.999Z</time></trkpt><trkpt lat="44.84061605568969" lon="-1.1526065003955186"><ele>10.0</ele><time>2026-04-26T13:27:31.999Z</time></trkpt><trkpt lat="44.84065809150496" lon="-1.1524828380933483"><ele>10.0</ele><time>2026-04-26T13:27:33.999Z</time></trkpt><trkpt lat="44.8406859238028" lon="-1.152402140283561"><ele>10.0</ele><time>2026-04-26T13:27:35.999Z</time></trkpt><trkpt lat="44.84073782718634" lon="-1.152293168421519"><ele>10.0</ele><time>2026-04-26T13:27:40.999Z</time></trkpt><trkpt lat="44.840807480377826" lon="-1.1522022775207563"><ele>10.0</ele><time>2026-04-26T13:27:42.999Z</time></trkpt><trkpt lat="44.84085459686399" lon="-1.152098565562844"><ele>10.0</ele><time>2026-04-26T13:27:43.999Z</time></trkpt><trkpt lat="44.8408990089814" lon="-1.1519966022975274"><ele>10.0</ele><time>2026-04-26T13:27:44.999Z</time></trkpt><trkpt lat="44.84094382602625" lon="-1.1518894150953858"><ele>10.0</ele><time>2026-04-26T13:27:47.999Z</time></trkpt><trkpt lat="44.84097782884361" lon="-1.1518108553201833"><ele>10.0</ele><time>2026-04-26T13:27:49.999Z</time></trkpt><trkpt lat="44.84101706591288" lon="-1.1516983847164324"><ele>10.0</ele><time>2026-04-26T13:27:51.999Z</time></trkpt><trkpt lat="44.84107049038957" lon="-1.151545668482128"><ele>10.0</ele><time>2026-04-26T13:27:53.999Z</time></trkpt><trkpt lat="44.841111220150964" lon="-1.1514456462725695"><ele>10.0</ele><time>2026-04-26T13:27:54.999Z</time></trkpt><trkpt lat="44.84115061102893" lon="-1.1513449170955157"><ele>10.0</ele><time>2026-04-26T13:27:55.999Z</time></trkpt><trkpt lat="44.84119524340158" lon="-1.1512128830253492"><ele>10.4</ele><time>2026-04-26T13:27:56.999Z</time></trkpt><trkpt lat="44.84123178245918" lon="-1.1510753332054269"><ele>10.8</ele><time>2026-04-26T13:27:57.999Z</time></trkpt><trkpt lat="44.841255367429724" lon="-1.1509159141607563"><ele>11.2</ele><time>2026-04-26T13:27:58.999Z</time></trkpt><trkpt lat="44.84126447125987" lon="-1.1507794243967817"><ele>11.6</ele><time>2026-04-26T13:27:59.999Z</time></trkpt><trkpt lat="44.84126551440736" lon="-1.1506612122457636"><ele>12.0</ele><time>2026-04-26T13:28:00.999Z</time></trkpt><trkpt lat="44.84127113121828" lon="-1.1505615280400507"><ele>12.0</ele><time>2026-04-26T13:28:01.999Z</time></trkpt><trkpt lat="44.84127761098325" lon="-1.1504724989326092"><ele>12.0</ele><time>2026-04-26T13:28:02.998Z</time></trkpt><trkpt lat="44.84127853339436" lon="-1.1502955640512778"><ele>12.0</ele><time>2026-04-26T13:28:04.998Z</time></trkpt><trkpt lat="44.841289313408616" lon="-1.150179572355421"><ele>12.0</ele><time>2026-04-26T13:28:05.998Z</time></trkpt><trkpt lat="44.84130316244412" lon="-1.1500522922563492"><ele>12.0</ele><time>2026-04-26T13:28:06.998Z</time></trkpt><trkpt lat="44.8413103193551" lon="-1.1499454086917422"><ele>12.0</ele><time>2026-04-26T13:28:07.998Z</time></trkpt><trkpt lat="44.84131504397067" lon="-1.149851963474836"><ele>12.0</ele><time>2026-04-26T13:28:08.998Z</time></trkpt><trkpt lat="44.84132038507051" lon="-1.1496962533049928"><ele>12.0</ele><time>2026-04-26T13:28:10.998Z</time></trkpt><trkpt lat="44.84125166014576" lon="-1.1496296189392345"><ele>12.0</ele><time>2026-04-26T13:28:13.998Z</time></trkpt><trkpt lat="44.84113362324675" lon="-1.1496276348820722"><ele>12.0</ele><time>2026-04-26T13:28:15.998Z</time></trkpt><trkpt lat="44.84106493007813" lon="-1.1496379387486977"><ele>12.0</ele><time>2026-04-26T13:28:16.998Z</time></trkpt><trkpt lat="44.840981374078794" lon="-1.1496483703621623"><ele>11.8</ele><time>2026-04-26T13:28:17.998Z</time></trkpt><trkpt lat="44.840915501241874" lon="-1.1496642240468407"><ele>11.6</ele><time>2026-04-26T13:28:18.998Z</time></trkpt><trkpt lat="44.840793251693945" lon="-1.1496809834075103"><ele>11.4</ele><time>2026-04-26T13:28:20.998Z</time></trkpt><trkpt lat="44.84071233532929" lon="-1.1497044984961582"><ele>11.200000000000001</ele><time>2026-04-26T13:28:21.998Z</time></trkpt><trkpt lat="44.84060104792352" lon="-1.1497249694558436"><ele>11.0</ele><time>2026-04-26T13:28:23.998Z</time></trkpt><trkpt lat="44.840521067579175" lon="-1.1497279038632258"><ele>11.0</ele><time>2026-04-26T13:28:25.998Z</time></trkpt><trkpt lat="44.840403689492284" lon="-1.149713316534991"><ele>11.0</ele><time>2026-04-26T13:28:27.998Z</time></trkpt><trkpt lat="44.84034048719206" lon="-1.1496985775145683"><ele>11.0</ele><time>2026-04-26T13:28:28.998Z</time></trkpt><trkpt lat="44.84022819639035" lon="-1.149705326911432"><ele>11.0</ele><time>2026-04-26T13:28:30.998Z</time></trkpt><trkpt lat="44.84010518606942" lon="-1.1497553300701706"><ele>11.0</ele><time>2026-04-26T13:28:32.998Z</time></trkpt><trkpt lat="44.84002877806546" lon="-1.1497751220909724"><ele>11.0</ele><time>2026-04-26T13:28:33.998Z</time></trkpt><trkpt lat="44.83995627419552" lon="-1.1497801415644828"><ele>11.0</ele><time>2026-04-26T13:28:34.998Z</time></trkpt><trkpt lat="44.83980658571914" lon="-1.149792834640573"><ele>11.0</ele><time>2026-04-26T13:28:36.998Z</time></trkpt><trkpt lat="44.83973068575158" lon="-1.1498089525493094"><ele>11.0</ele><time>2026-04-26T13:28:37.998Z</time></trkpt><trkpt lat="44.83964718623758" lon="-1.1498300456397468"><ele>11.0</ele><time>2026-04-26T13:28:38.998Z</time></trkpt><trkpt lat="44.83956162879767" lon="-1.1498523604974187"><ele>11.0</ele><time>2026-04-26T13:28:39.998Z</time></trkpt><trkpt lat="44.839489975254736" lon="-1.1498498926021856"><ele>11.0</ele><time>2026-04-26T13:28:41.998Z</time></trkpt><trkpt lat="44.83926691727657" lon="-1.149887995476261"><ele>11.0</ele><time>2026-04-26T13:28:43.998Z</time></trkpt><trkpt lat="44.83918485141414" lon="-1.149901254415051"><ele>11.0</ele><time>2026-04-26T13:28:44.998Z</time></trkpt><trkpt lat="44.83910389054884" lon="-1.1499255686440726"><ele>11.166666666666666</ele><time>2026-04-26T13:28:45.998Z</time></trkpt><trkpt lat="44.83901496569817" lon="-1.149947542451879"><ele>11.333333333333332</ele><time>2026-04-26T13:28:46.998Z</time></trkpt><trkpt lat="44.83891779461373" lon="-1.1499677657938834"><ele>11.5</ele><time>2026-04-26T13:28:47.998Z</time></trkpt><trkpt lat="44.83883763864274" lon="-1.1499892236437945"><ele>11.666666666666666</ele><time>2026-04-26T13:28:48.998Z</time></trkpt><trkpt lat="44.838742749347134" lon="-1.1500097123883861"><ele>11.833333333333334</ele><time>2026-04-26T13:28:49.997Z</time></trkpt><trkpt lat="44.83866238169362" lon="-1.1500221167242821"><ele>12.0</ele><time>2026-04-26T13:28:50.997Z</time></trkpt><trkpt lat="44.83857365275497" lon="-1.1500407728864712"><ele>12.0</ele><time>2026-04-26T13:28:51.997Z</time></trkpt><trkpt lat="44.838498206103985" lon="-1.1500565127830995"><ele>12.0</ele><time>2026-04-26T13:28:52.997Z</time></trkpt><trkpt lat="44.83841983771809" lon="-1.150063355470991"><ele>12.0</ele><time>2026-04-26T13:28:53.997Z</time></trkpt><trkpt lat="44.838340063199496" lon="-1.1500468215119717"><ele>12.0</ele><time>2026-04-26T13:28:54.997Z</time></trkpt><trkpt lat="44.83825625212669" lon="-1.15004447254613"><ele>12.0</ele><time>2026-04-26T13:28:55.997Z</time></trkpt><trkpt lat="44.838171951722906" lon="-1.150055594451746"><ele>12.0</ele><time>2026-04-26T13:28:56.997Z</time></trkpt><trkpt lat="44.83810796528153" lon="-1.1500654354257431"><ele>12.399999999999999</ele><time>2026-04-26T13:28:58Z</time></trkpt><trkpt lat="44.837989359694355" lon="-1.150093064193463"><ele>12.799999999999999</ele><time>2026-04-26T13:29:00Z</time></trkpt><trkpt lat="44.83792679017769" lon="-1.1501463429827106"><ele>13.2</ele><time>2026-04-26T13:29:02Z</time></trkpt><trkpt lat="44.83788873941761" lon="-1.1502653482522123"><ele>13.6</ele><time>2026-04-26T13:29:04Z</time></trkpt><trkpt lat="44.83789084860691" lon="-1.150413877162896"><ele>14.0</ele><time>2026-04-26T13:29:06Z</time></trkpt><trkpt lat="44.8379237317486" lon="-1.1505591071183148"><ele>14.2</ele><time>2026-04-26T13:29:08Z</time></trkpt><trkpt lat="44.83791411935196" lon="-1.150737015490945"><ele>14.399999999999999</ele><time>2026-04-26T13:29:09.999Z</time></trkpt><trkpt lat="44.83789313507094" lon="-1.1508449589292047"><ele>14.6</ele><time>2026-04-26T13:29:11Z</time></trkpt><trkpt lat="44.837855339285106" lon="-1.1509612883155462"><ele>14.8</ele><time>2026-04-26T13:29:12.999Z</time></trkpt><trkpt lat="44.837864295308236" lon="-1.1510492870933693"><ele>15.0</ele><time>2026-04-26T13:29:15.999Z</time></trkpt><trkpt lat="44.83775537386464" lon="-1.1509952344687504"><ele>14.8</ele><time>2026-04-26T13:29:47.999Z</time></trkpt><trkpt lat="44.83762360173285" lon="-1.15107612496608"><ele>14.6</ele><time>2026-04-26T13:29:49.999Z</time></trkpt><trkpt lat="44.83750974305274" lon="-1.15107728871339"><ele>14.399999999999999</ele><time>2026-04-26T13:29:51.999Z</time></trkpt><trkpt lat="44.83742570552724" lon="-1.1511337703322975"><ele>14.2</ele><time>2026-04-26T13:29:54.999Z</time></trkpt><trkpt lat="44.83735834523878" lon="-1.1511942296767017"><ele>14.0</ele><time>2026-04-26T13:29:58.999Z</time></trkpt><trkpt lat="44.837304823051454" lon="-1.151274135655861"><ele>14.0</ele><time>2026-04-26T13:30:00.999Z</time></trkpt><trkpt lat="44.83720621057904" lon="-1.1513656886789905"><ele>13.999999999999998</ele><time>2026-04-26T13:30:03.998Z</time></trkpt><trkpt lat="44.83714349128189" lon="-1.1514232989813014"><ele>13.999999999999998</ele><time>2026-04-26T13:30:04.998Z</time></trkpt><trkpt lat="44.83709253835847" lon="-1.1514966737784498"><ele>14.0</ele><time>2026-04-26T13:30:05.998Z</time></trkpt><trkpt lat="44.83701652222409" lon="-1.15163521414685"><ele>14.0</ele><time>2026-04-26T13:30:07.998Z</time></trkpt><trkpt lat="44.83696229716667" lon="-1.1517185830078673"><ele>14.0</ele><time>2026-04-26T13:30:08.998Z</time></trkpt><trkpt lat="44.836880864310345" lon="-1.1518415770534953"><ele>14.0</ele><time>2026-04-26T13:30:10.998Z</time></trkpt><trkpt lat="44.836825798089585" lon="-1.1519350422742634"><ele>14.0</ele><time>2026-04-26T13:30:11.998Z</time></trkpt><trkpt lat="44.836764774769655" lon="-1.1521092296662248"><ele>14.0</ele><time>2026-04-26T13:30:13.998Z</time></trkpt><trkpt lat="44.8367067160381" lon="-1.1522508430456853"><ele>13.6</ele><time>2026-04-26T13:30:14.998Z</time></trkpt><trkpt lat="44.836654169187405" lon="-1.152388552959529"><ele>13.2</ele><time>2026-04-26T13:30:15.998Z</time></trkpt><trkpt lat="44.836586746877316" lon="-1.1525220804750844"><ele>12.799999999999999</ele><time>2026-04-26T13:30:16.998Z</time></trkpt><trkpt lat="44.836528474750736" lon="-1.1526371433737397"><ele>12.399999999999999</ele><time>2026-04-26T13:30:17.998Z</time></trkpt><trkpt lat="44.83647021508158" lon="-1.1527220189564182"><ele>12.0</ele><time>2026-04-26T13:30:18.998Z</time></trkpt><trkpt lat="44.836436244130965" lon="-1.1528005637123628"><ele>12.0</ele><time>2026-04-26T13:30:19.998Z</time></trkpt><trkpt lat="44.83647737021345" lon="-1.1528973647170202"><ele>12.0</ele><time>2026-04-26T13:30:23.998Z</time></trkpt><trkpt lat="44.836420041496645" lon="-1.1529650606348076"><ele>12.0</ele><time>2026-04-26T13:30:24.998Z</time></trkpt><trkpt lat="44.83639247019151" lon="-1.15305619169032"><ele>12.0</ele><time>2026-04-26T13:30:26.998Z</time></trkpt><trkpt lat="44.83630951076624" lon="-1.1530913953326154"><ele>12.0</ele><time>2026-04-26T13:30:28.998Z</time></trkpt><trkpt lat="44.8362515943717" lon="-1.1531777375525187"><ele>12.0</ele><time>2026-04-26T13:30:29.998Z</time></trkpt><trkpt lat="44.83621192600498" lon="-1.1532507945083657"><ele>12.0</ele><time>2026-04-26T13:30:30.998Z</time></trkpt><trkpt lat="44.83616318103087" lon="-1.1533174619299758"><ele>12.0</ele><time>2026-04-26T13:30:32.998Z</time></trkpt><trkpt lat="44.83607554112257" lon="-1.1532461311703743"><ele>12.0</ele><time>2026-04-26T13:30:34.998Z</time></trkpt><trkpt lat="44.83600697116175" lon="-1.1531757625007382"><ele>12.0</ele><time>2026-04-26T13:30:37.998Z</time></trkpt><trkpt lat="44.83598158907088" lon="-1.1530918198368132"><ele>12.0</ele><time>2026-04-26T13:30:38.998Z</time></trkpt><trkpt lat="44.836010895139935" lon="-1.1529435914823"><ele>12.0</ele><time>2026-04-26T13:30:40.998Z</time></trkpt><trkpt lat="44.83595951143272" lon="-1.152862403702904"><ele>12.0</ele><time>2026-04-26T13:31:09.999Z</time></trkpt><trkpt lat="44.83602462572754" lon="-1.1527505459317273"><ele>12.0</ele><time>2026-04-26T13:49:51.998Z</time></trkpt><trkpt lat="44.8361161987201" lon="-1.152769543566398"><ele>12.0</ele><time>2026-04-26T13:50:25.999Z</time></trkpt><trkpt lat="44.836152006642436" lon="-1.1526674669466919"><ele>12.0</ele><time>2026-04-26T13:50:28.999Z</time></trkpt><trkpt lat="44.83617533390859" lon="-1.1525690015289842"><ele>12.0</ele><time>2026-04-26T13:50:29.999Z</time></trkpt><trkpt lat="44.83623039766543" lon="-1.1524500321168576"><ele>12.333333333333334</ele><time>2026-04-26T13:50:31.999Z</time></trkpt><trkpt lat="44.836213296167664" lon="-1.152341102416384"><ele>12.666666666666668</ele><time>2026-04-26T13:51:04.998Z</time></trkpt><trkpt lat="44.83618569371321" lon="-1.1522120854170763"><ele>13.0</ele><time>2026-04-26T13:51:06.998Z</time></trkpt><trkpt lat="44.83612560777028" lon="-1.1521349975843016"><ele>13.333333333333334</ele><time>2026-04-26T13:51:08.998Z</time></trkpt><trkpt lat="44.836061009475245" lon="-1.152090832430726"><ele>13.666666666666668</ele><time>2026-04-26T13:51:10.998Z</time></trkpt><trkpt lat="44.835990777270226" lon="-1.1520673962390666"><ele>14.0</ele><time>2026-04-26T13:51:25.998Z</time></trkpt><trkpt lat="44.83589625723745" lon="-1.1521043876094685"><ele>14.399999999999999</ele><time>2026-04-26T13:51:28.998Z</time></trkpt><trkpt lat="44.83581038528087" lon="-1.1520971960260566"><ele>14.799999999999999</ele><time>2026-04-26T13:51:31.998Z</time></trkpt><trkpt lat="44.835734516595636" lon="-1.1521596871990532"><ele>15.200000000000001</ele><time>2026-04-26T13:51:43.998Z</time></trkpt><trkpt lat="44.83568796256553" lon="-1.1522861103823594"><ele>15.600000000000001</ele><time>2026-04-26T13:51:45.998Z</time></trkpt><trkpt lat="44.83564415423333" lon="-1.1524312428171406"><ele>16.0</ele><time>2026-04-26T13:51:47.998Z</time></trkpt><trkpt lat="44.83555376688137" lon="-1.1525871938163001"><ele>15.333333333333332</ele><time>2026-04-26T13:51:49.998Z</time></trkpt><trkpt lat="44.83549603391965" lon="-1.152685457543672"><ele>14.666666666666666</ele><time>2026-04-26T13:51:51.997Z</time></trkpt><trkpt lat="44.83540277994449" lon="-1.152783576920201"><ele>14.0</ele><time>2026-04-26T13:51:53.997Z</time></trkpt><trkpt lat="44.83534488811165" lon="-1.1528324768472211"><ele>13.333333333333332</ele><time>2026-04-26T13:51:54.997Z</time></trkpt><trkpt lat="44.83529335968309" lon="-1.1529108902702379"><ele>12.666666666666666</ele><time>2026-04-26T13:51:55.997Z</time></trkpt><trkpt lat="44.8352466251069" lon="-1.1529966446547766"><ele>12.0</ele><time>2026-04-26T13:51:56.997Z</time></trkpt><trkpt lat="44.835187450459266" lon="-1.153097355797435"><ele>12.166666666666666</ele><time>2026-04-26T13:51:57.997Z</time></trkpt><trkpt lat="44.83512353569069" lon="-1.1531820915760234"><ele>12.333333333333332</ele><time>2026-04-26T13:51:58.997Z</time></trkpt><trkpt lat="44.83506756172641" lon="-1.1532476639316083"><ele>12.5</ele><time>2026-04-26T13:51:59.997Z</time></trkpt><trkpt lat="44.83500336340087" lon="-1.153299762208724"><ele>12.666666666666666</ele><time>2026-04-26T13:52:00.999Z</time></trkpt><trkpt lat="44.83491627973331" lon="-1.1533617393715963"><ele>12.833333333333332</ele><time>2026-04-26T13:52:01.999Z</time></trkpt><trkpt lat="44.83482744596602" lon="-1.1534206878999804"><ele>13.0</ele><time>2026-04-26T13:52:03.999Z</time></trkpt><trkpt lat="44.8347098666024" lon="-1.1533796309444508"><ele>12.999999999999998</ele><time>2026-04-26T13:52:05.999Z</time></trkpt><trkpt lat="44.8346528802637" lon="-1.1533285011880836"><ele>13.0</ele><time>2026-04-26T13:52:06.999Z</time></trkpt><trkpt lat="44.8345805679514" lon="-1.153256992223033"><ele>13.0</ele><time>2026-04-26T13:52:07.999Z</time></trkpt><trkpt lat="44.83451712162029" lon="-1.1532136660634655"><ele>13.0</ele><time>2026-04-26T13:52:08.999Z</time></trkpt><trkpt lat="44.83445291424387" lon="-1.1532107066282515"><ele>12.999999999999998</ele><time>2026-04-26T13:52:09.999Z</time></trkpt><trkpt lat="44.83436665637704" lon="-1.1532240938881981"><ele>13.0</ele><time>2026-04-26T13:52:10.999Z</time></trkpt><trkpt lat="44.83427728394674" lon="-1.1531952392921971"><ele>13.2</ele><time>2026-04-26T13:52:11.999Z</time></trkpt><trkpt lat="44.834186261148965" lon="-1.1532132727278426"><ele>13.4</ele><time>2026-04-26T13:52:13.999Z</time></trkpt><trkpt lat="44.83412966958168" lon="-1.153261877706788"><ele>13.599999999999998</ele><time>2026-04-26T13:52:14.999Z</time></trkpt><trkpt lat="44.834025167754476" lon="-1.1533575950318133"><ele>13.799999999999999</ele><time>2026-04-26T13:52:16.999Z</time></trkpt><trkpt lat="44.83392021171123" lon="-1.1533491478435995"><ele>14.0</ele><time>2026-04-26T13:52:18.999Z</time></trkpt><trkpt lat="44.83384212458708" lon="-1.153312772777006"><ele>14.0</ele><time>2026-04-26T13:52:20.999Z</time></trkpt><trkpt lat="44.83371081649561" lon="-1.1532323333388126"><ele>13.999999999999998</ele><time>2026-04-26T13:52:22.999Z</time></trkpt><trkpt lat="44.8336182442702" lon="-1.1532120934693433"><ele>13.999999999999998</ele><time>2026-04-26T13:52:23.999Z</time></trkpt><trkpt lat="44.83351911720156" lon="-1.153218859067151"><ele>14.0</ele><time>2026-04-26T13:52:24.999Z</time></trkpt><trkpt lat="44.83343429730988" lon="-1.153231151641702"><ele>14.0</ele><time>2026-04-26T13:52:25.999Z</time></trkpt><trkpt lat="44.833315878993986" lon="-1.1531881092810055"><ele>14.6</ele><time>2026-04-26T13:52:27.999Z</time></trkpt><trkpt lat="44.83324326258321" lon="-1.153145916714398"><ele>15.2</ele><time>2026-04-26T13:52:28.999Z</time></trkpt><trkpt lat="44.833131781823106" lon="-1.1531108846373745"><ele>15.799999999999999</ele><time>2026-04-26T13:52:30.999Z</time></trkpt><trkpt lat="44.8330382477351" lon="-1.1530512933024517"><ele>16.4</ele><time>2026-04-26T13:52:32.999Z</time></trkpt><trkpt lat="44.83296243145778" lon="-1.1531070416213787"><ele>17.0</ele><time>2026-04-26T13:52:35.999Z</time></trkpt><trkpt lat="44.83288512905305" lon="-1.153117553171926"><ele>17.0</ele><time>2026-04-26T13:52:37.999Z</time></trkpt><trkpt lat="44.832815907245944" lon="-1.153118891866902"><ele>17.0</ele><time>2026-04-26T13:52:39.999Z</time></trkpt><trkpt lat="44.83271833342877" lon="-1.1531501664193324"><ele>17.0</ele><time>2026-04-26T13:52:42.999Z</time></trkpt><trkpt lat="44.832649340066325" lon="-1.1531908792258303"><ele>17.0</ele><time>2026-04-26T13:52:45.999Z</time></trkpt><trkpt lat="44.832573243137745" lon="-1.1532501258119539"><ele>17.0</ele><time>2026-04-26T13:52:55.999Z</time></trkpt><trkpt lat="44.83251049688754" lon="-1.1533022731197842"><ele>17.0</ele><time>2026-04-26T13:52:56.999Z</time></trkpt><trkpt lat="44.83244804267148" lon="-1.1533537983914546"><ele>16.5</ele><time>2026-04-26T13:52:57.999Z</time></trkpt><trkpt lat="44.83236733539264" lon="-1.1533854794841956"><ele>16.0</ele><time>2026-04-26T13:52:59.999Z</time></trkpt><trkpt lat="44.832302030491405" lon="-1.1534140249301292"><ele>15.5</ele><time>2026-04-26T13:53:00.999Z</time></trkpt><trkpt lat="44.8322147713584" lon="-1.1534185337433103"><ele>15.0</ele><time>2026-04-26T13:53:01.999Z</time></trkpt><trkpt lat="44.83210788100755" lon="-1.153437571344119"><ele>14.500000000000002</ele><time>2026-04-26T13:53:02.999Z</time></trkpt><trkpt lat="44.83201898840389" lon="-1.153435891670131"><ele>14.0</ele><time>2026-04-26T13:53:03.999Z</time></trkpt><trkpt lat="44.83194765508229" lon="-1.1534133737356722"><ele>14.0</ele><time>2026-04-26T13:53:04.999Z</time></trkpt><trkpt lat="44.83181943824784" lon="-1.153472150182727"><ele>13.999999999999998</ele><time>2026-04-26T13:53:06.999Z</time></trkpt><trkpt lat="44.83172797099899" lon="-1.1535182019690118"><ele>13.999999999999998</ele><time>2026-04-26T13:53:07.999Z</time></trkpt><trkpt lat="44.831645473790225" lon="-1.1535522321422111"><ele>14.0</ele><time>2026-04-26T13:53:08.999Z</time></trkpt><trkpt lat="44.831591360739104" lon="-1.1536050866265979"><ele>14.0</ele><time>2026-04-26T13:53:09.999Z</time></trkpt><trkpt lat="44.831540474620034" lon="-1.1536662077615218"><ele>14.0</ele><time>2026-04-26T13:53:10.999Z</time></trkpt><trkpt lat="44.83143527830464" lon="-1.1536467278939628"><ele>13.999999999999998</ele><time>2026-04-26T13:53:12.999Z</time></trkpt><trkpt lat="44.83135617149893" lon="-1.1535694727687338"><ele>13.999999999999998</ele><time>2026-04-26T13:53:13.998Z</time></trkpt><trkpt lat="44.831297749607344" lon="-1.1535283392416438"><ele>14.0</ele><time>2026-04-26T13:53:14.998Z</time></trkpt><trkpt lat="44.83116232999907" lon="-1.1535373215217457"><ele>14.0</ele><time>2026-04-26T13:53:16.998Z</time></trkpt><trkpt lat="44.831069865570576" lon="-1.153562940464052"><ele>14.000000000000002</ele><time>2026-04-26T13:53:17.998Z</time></trkpt><trkpt lat="44.83099899523907" lon="-1.1535625004323284"><ele>14.0</ele><time>2026-04-26T13:53:18.998Z</time></trkpt><trkpt lat="44.83092941914125" lon="-1.1535927031871978"><ele>14.0</ele><time>2026-04-26T13:53:19.998Z</time></trkpt><trkpt lat="44.830847123798584" lon="-1.1536172885764682"><ele>14.0</ele><time>2026-04-26T13:53:20.998Z</time></trkpt><trkpt lat="44.83076164362362" lon="-1.1536333590504013"><ele>14.000000000000002</ele><time>2026-04-26T13:53:21.998Z</time></trkpt><trkpt lat="44.83068695046167" lon="-1.1536624138798515"><ele>14.0</ele><time>2026-04-26T13:53:22.998Z</time></trkpt><trkpt lat="44.8306074564717" lon="-1.1537502140729587"><ele>13.799999999999999</ele><time>2026-04-26T13:53:24.998Z</time></trkpt><trkpt lat="44.8305487788068" lon="-1.1538859989347527"><ele>13.599999999999998</ele><time>2026-04-26T13:53:26.998Z</time></trkpt><trkpt lat="44.83047264314958" lon="-1.1538818551198236"><ele>13.4</ele><time>2026-04-26T13:53:29.998Z</time></trkpt><trkpt lat="44.83040969894348" lon="-1.1538870158093322"><ele>13.2</ele><time>2026-04-26T13:53:35.998Z</time></trkpt><trkpt lat="44.830281389863785" lon="-1.153880039560657"><ele>13.0</ele><time>2026-04-26T13:53:37.998Z</time></trkpt><trkpt lat="44.830203744520105" lon="-1.153890143361894"><ele>13.4</ele><time>2026-04-26T13:53:38.998Z</time></trkpt><trkpt lat="44.83013361443061" lon="-1.153914322505201"><ele>13.8</ele><time>2026-04-26T13:53:39.998Z</time></trkpt><trkpt lat="44.830056290847565" lon="-1.153950445109423"><ele>14.2</ele><time>2026-04-26T13:53:40.998Z</time></trkpt><trkpt lat="44.8299522991845" lon="-1.1540040599687635"><ele>14.6</ele><time>2026-04-26T13:53:42.998Z</time></trkpt><trkpt lat="44.829850713040116" lon="-1.1539862995281516"><ele>15.0</ele><time>2026-04-26T13:53:44.998Z</time></trkpt><trkpt lat="44.8297887561776" lon="-1.1538992194793993"><ele>15.0</ele><time>2026-04-26T13:53:45.998Z</time></trkpt><trkpt lat="44.82969151238812" lon="-1.153830496563285"><ele>15.0</ele><time>2026-04-26T13:53:46.998Z</time></trkpt><trkpt lat="44.82960527767369" lon="-1.1537789190415244"><ele>15.0</ele><time>2026-04-26T13:53:47.998Z</time></trkpt><trkpt lat="44.829538786619985" lon="-1.1537416911314093"><ele>15.0</ele><time>2026-04-26T13:53:48.998Z</time></trkpt><trkpt lat="44.82946277723023" lon="-1.1536861418475322"><ele>15.0</ele><time>2026-04-26T13:53:51.998Z</time></trkpt><trkpt lat="44.829398740161004" lon="-1.1536407599219725"><ele>15.0</ele><time>2026-04-26T13:53:53.998Z</time></trkpt><trkpt lat="44.82933903930645" lon="-1.1537159913306145"><ele>15.666666666666666</ele><time>2026-04-26T13:53:56.998Z</time></trkpt><trkpt lat="44.82923951376947" lon="-1.1536815111395518"><ele>16.333333333333332</ele><time>2026-04-26T13:53:59.998Z</time></trkpt><trkpt lat="44.8291713306366" lon="-1.1536919414919435"><ele>17.0</ele><time>2026-04-26T13:54:02.998Z</time></trkpt><trkpt lat="44.829115014292675" lon="-1.153766206142627"><ele>17.666666666666664</ele><time>2026-04-26T13:54:04.998Z</time></trkpt><trkpt lat="44.82904081561229" lon="-1.153843385020428"><ele>18.333333333333332</ele><time>2026-04-26T13:54:07Z</time></trkpt><trkpt lat="44.828957565923254" lon="-1.1539140864416269"><ele>19.0</ele><time>2026-04-26T13:54:10Z</time></trkpt><trkpt lat="44.828876023961456" lon="-1.153950282565172"><ele>19.0</ele><time>2026-04-26T13:54:12Z</time></trkpt><trkpt lat="44.82876413420594" lon="-1.1539175815057514"><ele>19.0</ele><time>2026-04-26T13:54:14Z</time></trkpt><trkpt lat="44.82869554152722" lon="-1.1539000380824767"><ele>19.0</ele><time>2026-04-26T13:54:16Z</time></trkpt><trkpt lat="44.82866526921256" lon="-1.1538142572604737"><ele>19.0</ele><time>2026-04-26T13:54:18Z</time></trkpt><trkpt lat="44.82860139159101" lon="-1.1538261479559406"><ele>19.0</ele><time>2026-04-26T13:54:20Z</time></trkpt><trkpt lat="44.82854158891357" lon="-1.1537629966125338"><ele>19.0</ele><time>2026-04-26T13:54:23Z</time></trkpt><trkpt lat="44.82845243912283" lon="-1.153678634153293"><ele>18.8</ele><time>2026-04-26T13:54:25Z</time></trkpt><trkpt lat="44.82837973525981" lon="-1.1536111106304414"><ele>18.599999999999998</ele><time>2026-04-26T13:54:27Z</time></trkpt><trkpt lat="44.828318962707534" lon="-1.1535439397339384"><ele>18.4</ele><time>2026-04-26T13:54:28.999Z</time></trkpt><trkpt lat="44.82823870801541" lon="-1.1534869842833229"><ele>18.2</ele><time>2026-04-26T13:54:31.999Z</time></trkpt><trkpt lat="44.828163400945435" lon="-1.1534816005189135"><ele>18.0</ele><time>2026-04-26T13:54:33.999Z</time></trkpt><trkpt lat="44.82804320117178" lon="-1.153472840321234"><ele>18.0</ele><time>2026-04-26T13:54:35.999Z</time></trkpt><trkpt lat="44.82797831558947" lon="-1.1534127981776352"><ele>18.0</ele><time>2026-04-26T13:54:37.999Z</time></trkpt><trkpt lat="44.82790149006015" lon="-1.1533963088124266"><ele>18.0</ele><time>2026-04-26T13:54:40.999Z</time></trkpt><trkpt lat="44.82780953873804" lon="-1.1534381364205972"><ele>18.0</ele><time>2026-04-26T13:54:42.999Z</time></trkpt><trkpt lat="44.82773681432282" lon="-1.1535121137382964"><ele>18.0</ele><time>2026-04-26T13:54:44.999Z</time></trkpt><trkpt lat="44.82765144628259" lon="-1.1535165196565969"><ele>18.0</ele><time>2026-04-26T13:54:46.999Z</time></trkpt><trkpt lat="44.82754664630587" lon="-1.1535257533004002"><ele>17.833333333333332</ele><time>2026-04-26T13:54:48.999Z</time></trkpt><trkpt lat="44.82743789452847" lon="-1.1535087192936586"><ele>17.666666666666668</ele><time>2026-04-26T13:54:50.999Z</time></trkpt><trkpt lat="44.82736394079777" lon="-1.1535288515673727"><ele>17.5</ele><time>2026-04-26T13:54:51.999Z</time></trkpt><trkpt lat="44.82729697451905" lon="-1.153554476260192"><ele>17.333333333333336</ele><time>2026-04-26T13:54:52.999Z</time></trkpt><trkpt lat="44.827190961778165" lon="-1.1535988257766525"><ele>17.166666666666668</ele><time>2026-04-26T13:54:54.999Z</time></trkpt><trkpt lat="44.82713053520181" lon="-1.1536307562707435"><ele>17.0</ele><time>2026-04-26T13:54:55.999Z</time></trkpt><trkpt lat="44.82705634879781" lon="-1.1537087579913792"><ele>17.0</ele><time>2026-04-26T13:54:57.999Z</time></trkpt><trkpt lat="44.8269588468287" lon="-1.1537512519820308"><ele>17.0</ele><time>2026-04-26T13:54:59.999Z</time></trkpt><trkpt lat="44.82689193214977" lon="-1.1537761586887012"><ele>17.0</ele><time>2026-04-26T13:55:01.999Z</time></trkpt><trkpt lat="44.826842941982555" lon="-1.1538814479469652"><ele>17.0</ele><time>2026-04-26T13:55:03.999Z</time></trkpt><trkpt lat="44.826797448067765" lon="-1.1539808615284814"><ele>17.0</ele><time>2026-04-26T13:55:05.999Z</time></trkpt><trkpt lat="44.826726614420615" lon="-1.1540005298332918"><ele>17.0</ele><time>2026-04-26T13:55:07.999Z</time></trkpt><trkpt lat="44.8266743355366" lon="-1.1541080889642628"><ele>17.0</ele><time>2026-04-26T13:55:10.999Z</time></trkpt><trkpt lat="44.82661359542457" lon="-1.1541797284507864"><ele>17.0</ele><time>2026-04-26T13:55:12.999Z</time></trkpt><trkpt lat="44.826619855769515" lon="-1.1543086452668823"><ele>17.0</ele><time>2026-04-26T13:55:35.998Z</time></trkpt><trkpt lat="44.826609836914194" lon="-1.154423673161313"><ele>17.0</ele><time>2026-04-26T13:55:37.998Z</time></trkpt><trkpt lat="44.8265605136527" lon="-1.1545044779212823"><ele>17.0</ele><time>2026-04-26T13:55:39.998Z</time></trkpt><trkpt lat="44.82650566892974" lon="-1.1545770680795022"><ele>17.0</ele><time>2026-04-26T13:55:41.998Z</time></trkpt><trkpt lat="44.8264573838692" lon="-1.1546585840944323"><ele>17.0</ele><time>2026-04-26T13:55:43.998Z</time></trkpt><trkpt lat="44.82644718391583" lon="-1.1547509760151817"><ele>17.0</ele><time>2026-04-26T13:55:46.998Z</time></trkpt><trkpt lat="44.826387080763254" lon="-1.1548542464739857"><ele>17.0</ele><time>2026-04-26T13:55:49.998Z</time></trkpt><trkpt lat="44.82631704197475" lon="-1.1548745178852224"><ele>17.0</ele><time>2026-04-26T13:56:04.998Z</time></trkpt><trkpt lat="44.82623906964225" lon="-1.154868245505603"><ele>17.0</ele><time>2026-04-26T13:56:06.998Z</time></trkpt><trkpt lat="44.8261571318872" lon="-1.154814781313445"><ele>17.0</ele><time>2026-04-26T13:56:08.998Z</time></trkpt><trkpt lat="44.82607599165452" lon="-1.154863091114249"><ele>16.166666666666668</ele><time>2026-04-26T13:56:10.998Z</time></trkpt><trkpt lat="44.826006868108365" lon="-1.1549145723959866"><ele>15.333333333333334</ele><time>2026-04-26T13:56:13Z</time></trkpt><trkpt lat="44.825940269124025" lon="-1.1549494086694991"><ele>14.5</ele><time>2026-04-26T13:56:15Z</time></trkpt><trkpt lat="44.82586493348214" lon="-1.1549552781614443"><ele>13.666666666666668</ele><time>2026-04-26T13:56:17Z</time></trkpt><trkpt lat="44.82579516213404" lon="-1.1549877794762597"><ele>12.833333333333334</ele><time>2026-04-26T13:56:18.001Z</time></trkpt><trkpt lat="44.82570602671145" lon="-1.1550152414504964"><ele>12.0</ele><time>2026-04-26T13:56:20.001Z</time></trkpt><trkpt lat="44.8256418652894" lon="-1.1549433511810125"><ele>12.0</ele><time>2026-04-26T13:56:22.001Z</time></trkpt><trkpt lat="44.825548282581096" lon="-1.154936284640803"><ele>12.0</ele><time>2026-04-26T13:56:25.001Z</time></trkpt><trkpt lat="44.82546125531444" lon="-1.1549596813375624"><ele>12.0</ele><time>2026-04-26T13:56:27.001Z</time></trkpt><trkpt lat="44.82536201797924" lon="-1.1549354082486252"><ele>12.0</ele><time>2026-04-26T13:56:30.001Z</time></trkpt><trkpt lat="44.82523470665156" lon="-1.154969114134601"><ele>12.0</ele><time>2026-04-26T13:56:33.001Z</time></trkpt><trkpt lat="44.82517558708122" lon="-1.1550296754932872"><ele>12.333333333333334</ele><time>2026-04-26T13:56:35.001Z</time></trkpt><trkpt lat="44.82511769250529" lon="-1.1551390106785948"><ele>12.666666666666668</ele><time>2026-04-26T13:56:38Z</time></trkpt><trkpt lat="44.825047749726366" lon="-1.1551639043142707"><ele>13.0</ele><time>2026-04-26T13:56:41Z</time></trkpt><trkpt lat="44.82498077385252" lon="-1.1552422662497897"><ele>13.333333333333334</ele><time>2026-04-26T13:56:45Z</time></trkpt><trkpt lat="44.82486898082314" lon="-1.1552633881373906"><ele>13.666666666666668</ele><time>2026-04-26T13:56:48Z</time></trkpt><trkpt lat="44.82480432806357" lon="-1.155201431632777"><ele>14.0</ele><time>2026-04-26T13:56:51Z</time></trkpt><trkpt lat="44.82473492325649" lon="-1.155162332902948"><ele>14.0</ele><time>2026-04-26T13:56:59Z</time></trkpt><trkpt lat="44.8246758167553" lon="-1.1551267955328763"><ele>14.0</ele><time>2026-04-26T13:57:05Z</time></trkpt><trkpt lat="44.82460095755829" lon="-1.1551093194163684"><ele>14.0</ele><time>2026-04-26T13:57:16Z</time></trkpt><trkpt lat="44.824546197357385" lon="-1.1551568707966677"><ele>14.0</ele><time>2026-04-26T13:57:18Z</time></trkpt><trkpt lat="44.82446956042776" lon="-1.155202919532556"><ele>14.0</ele><time>2026-04-26T13:57:21Z</time></trkpt><trkpt lat="44.824387402286064" lon="-1.155154699137384"><ele>14.0</ele><time>2026-04-26T13:57:24Z</time></trkpt><trkpt lat="44.82431738917568" lon="-1.1551506878796576"><ele>14.0</ele><time>2026-04-26T13:57:25.999Z</time></trkpt><trkpt lat="44.82422984993713" lon="-1.15515271585588"><ele>14.000000000000002</ele><time>2026-04-26T13:57:27.999Z</time></trkpt><trkpt lat="44.824173635274974" lon="-1.1551069174418649"><ele>14.0</ele><time>2026-04-26T13:57:29.999Z</time></trkpt><trkpt lat="44.82409951410896" lon="-1.1551012184333085"><ele>14.0</ele><time>2026-04-26T13:57:31.999Z</time></trkpt><trkpt lat="44.82402127029568" lon="-1.1550801059242992"><ele>14.0</ele><time>2026-04-26T13:57:33.999Z</time></trkpt><trkpt lat="44.82392269642286" lon="-1.1550884419533949"><ele>14.000000000000002</ele><time>2026-04-26T13:57:35.999Z</time></trkpt><trkpt lat="44.82385356186382" lon="-1.1550680950408672"><ele>14.0</ele><time>2026-04-26T13:57:37.999Z</time></trkpt><trkpt lat="44.82377129705312" lon="-1.1550737238846935"><ele>14.0</ele><time>2026-04-26T13:57:39.999Z</time></trkpt><trkpt lat="44.823680764203104" lon="-1.1551044141235483"><ele>14.0</ele><time>2026-04-26T13:57:41.999Z</time></trkpt><trkpt lat="44.823577638725105" lon="-1.155226679552819"><ele>14.0</ele><time>2026-04-26T13:57:44.999Z</time></trkpt><trkpt lat="44.82350130408894" lon="-1.1553094694251114"><ele>14.0</ele><time>2026-04-26T13:57:46.999Z</time></trkpt><trkpt lat="44.82337491599674" lon="-1.1553098733641245"><ele>14.000000000000002</ele><time>2026-04-26T13:57:49.999Z</time></trkpt><trkpt lat="44.823288297416404" lon="-1.1553280421064278"><ele>14.0</ele><time>2026-04-26T13:57:51.999Z</time></trkpt><trkpt lat="44.82321459142843" lon="-1.15530938213727"><ele>14.0</ele><time>2026-04-26T13:57:53.999Z</time></trkpt><trkpt lat="44.823154980694795" lon="-1.1553380718051625"><ele>14.0</ele><time>2026-04-26T13:57:56.999Z</time></trkpt><trkpt lat="44.823075665720765" lon="-1.155285719511135"><ele>14.000000000000002</ele><time>2026-04-26T13:57:59.999Z</time></trkpt><trkpt lat="44.822998083775936" lon="-1.1553058016800823"><ele>14.0</ele><time>2026-04-26T13:58:01.999Z</time></trkpt><trkpt lat="44.82291993151012" lon="-1.155361969537744"><ele>14.000000000000002</ele><time>2026-04-26T13:58:03.999Z</time></trkpt><trkpt lat="44.822857772711515" lon="-1.1553458260626828"><ele>14.0</ele><time>2026-04-26T13:58:05.999Z</time></trkpt><trkpt lat="44.82279180768803" lon="-1.1553231597409477"><ele>14.0</ele><time>2026-04-26T13:58:06.999Z</time></trkpt><trkpt lat="44.82267794736137" lon="-1.1553226932027274"><ele>14.0</ele><time>2026-04-26T13:58:08.999Z</time></trkpt><trkpt lat="44.82261552238002" lon="-1.1553434711510215"><ele>14.000000000000002</ele><time>2026-04-26T13:58:09.999Z</time></trkpt><trkpt lat="44.82252059189251" lon="-1.155377681184225"><ele>14.0</ele><time>2026-04-26T13:58:11.999Z</time></trkpt><trkpt lat="44.82246879383695" lon="-1.1554362508199036"><ele>14.166666666666668</ele><time>2026-04-26T13:58:14.999Z</time></trkpt><trkpt lat="44.82238754394671" lon="-1.1554169579603832"><ele>14.333333333333334</ele><time>2026-04-26T13:58:16.999Z</time></trkpt><trkpt lat="44.8223035399614" lon="-1.1553468355805996"><ele>14.5</ele><time>2026-04-26T13:58:20.001Z</time></trkpt><trkpt lat="44.822233666222964" lon="-1.1552789914414268"><ele>14.666666666666668</ele><time>2026-04-26T13:58:22.001Z</time></trkpt><trkpt lat="44.822156200724045" lon="-1.1552587468112439"><ele>14.833333333333334</ele><time>2026-04-26T13:58:25.001Z</time></trkpt><trkpt lat="44.82213016007058" lon="-1.155168304580503"><ele>15.0</ele><time>2026-04-26T13:58:27.001Z</time></trkpt><trkpt lat="44.82205069655036" lon="-1.155138030105772"><ele>15.0</ele><time>2026-04-26T13:58:30.001Z</time></trkpt><trkpt lat="44.82194712561171" lon="-1.155145103174654"><ele>15.0</ele><time>2026-04-26T13:58:32.001Z</time></trkpt><trkpt lat="44.82184873218207" lon="-1.1551921159799419"><ele>15.0</ele><time>2026-04-26T13:58:34.001Z</time></trkpt><trkpt lat="44.82177838623973" lon="-1.1552229590965206"><ele>15.0</ele><time>2026-04-26T13:58:36.001Z</time></trkpt><trkpt lat="44.82172109191893" lon="-1.1553002296210444"><ele>15.0</ele><time>2026-04-26T13:58:38.001Z</time></trkpt><trkpt lat="44.82166768571719" lon="-1.155388107192912"><ele>15.0</ele><time>2026-04-26T13:58:40Z</time></trkpt><trkpt lat="44.821627415841576" lon="-1.1554811533004712"><ele>15.0</ele><time>2026-04-26T13:58:42Z</time></trkpt><trkpt lat="44.82157092114084" lon="-1.155536992371561"><ele>15.0</ele><time>2026-04-26T13:58:45Z</time></trkpt><trkpt lat="44.82153010473684" lon="-1.1556359073752207"><ele>15.0</ele><time>2026-04-26T13:58:51Z</time></trkpt><trkpt lat="44.82152038587232" lon="-1.1557283474025142"><ele>15.0</ele><time>2026-04-26T13:58:54Z</time></trkpt><trkpt lat="44.821475479918114" lon="-1.1558241912202236"><ele>15.0</ele><time>2026-04-26T13:58:56Z</time></trkpt><trkpt lat="44.82141546925007" lon="-1.155869318932469"><ele>15.0</ele><time>2026-04-26T13:58:59Z</time></trkpt><trkpt lat="44.82136913753866" lon="-1.1559557544179142"><ele>15.0</ele><time>2026-04-26T13:59:02Z</time></trkpt><trkpt lat="44.82129993403967" lon="-1.1560076915573987"><ele>14.333333333333334</ele><time>2026-04-26T13:59:06Z</time></trkpt><trkpt lat="44.82123744170529" lon="-1.1560957381079786"><ele>13.666666666666666</ele><time>2026-04-26T13:59:09Z</time></trkpt><trkpt lat="44.82119878435025" lon="-1.1561808750534668"><ele>13.0</ele><time>2026-04-26T13:59:11Z</time></trkpt><trkpt lat="44.82111363995362" lon="-1.1562256666340884"><ele>12.333333333333332</ele><time>2026-04-26T13:59:14Z</time></trkpt><trkpt lat="44.82106143477518" lon="-1.1562860960295913"><ele>11.666666666666666</ele><time>2026-04-26T14:03:01Z</time></trkpt><trkpt lat="44.821002214709125" lon="-1.1563366830979576"><ele>11.0</ele><time>2026-04-26T14:03:03Z</time></trkpt><trkpt lat="44.82093642077994" lon="-1.1564187093797016"><ele>10.833333333333332</ele><time>2026-04-26T14:03:07Z</time></trkpt><trkpt lat="44.82098917375643" lon="-1.156317687175436"><ele>10.666666666666666</ele><time>2026-04-26T14:03:22Z</time></trkpt><trkpt lat="44.82106073247622" lon="-1.156271383456943"><ele>10.5</ele><time>2026-04-26T14:03:26.999Z</time></trkpt><trkpt lat="44.821154084797556" lon="-1.156197092899819"><ele>10.333333333333334</ele><time>2026-04-26T14:04:33.998Z</time></trkpt><trkpt lat="44.82123220805525" lon="-1.1561352368445619"><ele>10.166666666666668</ele><time>2026-04-26T14:04:37Z</time></trkpt><trkpt lat="44.821279147206575" lon="-1.1560396074290362"><ele>10.0</ele><time>2026-04-26T14:04:39Z</time></trkpt><trkpt lat="44.821355045550874" lon="-1.1559775728121553"><ele>10.0</ele><time>2026-04-26T14:04:43Z</time></trkpt><trkpt lat="44.821402620609604" lon="-1.1558974075384023"><ele>10.0</ele><time>2026-04-26T14:04:46Z</time></trkpt><trkpt lat="44.82146408012593" lon="-1.1558446624764542"><ele>10.0</ele><time>2026-04-26T14:04:48Z</time></trkpt><trkpt lat="44.82150839965299" lon="-1.1557676605042793"><ele>10.0</ele><time>2026-04-26T14:05:24Z</time></trkpt><trkpt lat="44.82155269386377" lon="-1.1556456444837766"><ele>10.0</ele><time>2026-04-26T14:05:26Z</time></trkpt><trkpt lat="44.82156916360927" lon="-1.1555340339314697"><ele>10.0</ele><time>2026-04-26T14:05:30.999Z</time></trkpt><trkpt lat="44.82162974795452" lon="-1.1554800950981639"><ele>11.0</ele><time>2026-04-26T14:05:33.999Z</time></trkpt><trkpt lat="44.821674960187266" lon="-1.155372729932836"><ele>12.0</ele><time>2026-04-26T14:05:35.999Z</time></trkpt><trkpt lat="44.821729634941185" lon="-1.1552672442531564"><ele>13.0</ele><time>2026-04-26T14:05:37.999Z</time></trkpt><trkpt lat="44.82179604275389" lon="-1.1551871552696282"><ele>14.0</ele><time>2026-04-26T14:05:39.999Z</time></trkpt><trkpt lat="44.82188189218901" lon="-1.1551677244047829"><ele>15.0</ele><time>2026-04-26T14:05:42.999Z</time></trkpt><trkpt lat="44.82198926063798" lon="-1.1551158705825844"><ele>15.0</ele><time>2026-04-26T14:05:44.999Z</time></trkpt><trkpt lat="44.82206449700297" lon="-1.1551251554842072"><ele>15.0</ele><time>2026-04-26T14:05:46.999Z</time></trkpt><trkpt lat="44.82210851567528" lon="-1.155193134776564"><ele>15.0</ele><time>2026-04-26T14:05:50.999Z</time></trkpt><trkpt lat="44.822155382180895" lon="-1.1553035770726092"><ele>15.0</ele><time>2026-04-26T14:05:54.999Z</time></trkpt><trkpt lat="44.8222396342326" lon="-1.1553014746387487"><ele>15.0</ele><time>2026-04-26T14:05:57.999Z</time></trkpt><trkpt lat="44.82230336135082" lon="-1.1553867977024157"><ele>15.0</ele><time>2026-04-26T14:06:00.999Z</time></trkpt><trkpt lat="44.82238212022442" lon="-1.1554235429670952"><ele>15.0</ele><time>2026-04-26T14:06:03.999Z</time></trkpt><trkpt lat="44.822454317106306" lon="-1.1554188661720328"><ele>15.0</ele><time>2026-04-26T14:06:06.999Z</time></trkpt><trkpt lat="44.82251520796202" lon="-1.1553479571442566"><ele>15.0</ele><time>2026-04-26T14:06:08.999Z</time></trkpt><trkpt lat="44.822612734081154" lon="-1.1553183350036633"><ele>15.0</ele><time>2026-04-26T14:06:10.999Z</time></trkpt><trkpt lat="44.822695617001486" lon="-1.1553172239747185"><ele>15.0</ele><time>2026-04-26T14:06:12.999Z</time></trkpt><trkpt lat="44.82277144747193" lon="-1.155319505749844"><ele>15.0</ele><time>2026-04-26T14:06:14.998Z</time></trkpt><trkpt lat="44.822849657173684" lon="-1.1553447040919989"><ele>14.833333333333334</ele><time>2026-04-26T14:06:17.998Z</time></trkpt><trkpt lat="44.82292152957675" lon="-1.1553544823633808"><ele>14.666666666666668</ele><time>2026-04-26T14:06:20.998Z</time></trkpt><trkpt lat="44.822989014020635" lon="-1.1553156594014042"><ele>14.5</ele><time>2026-04-26T14:06:22.998Z</time></trkpt><trkpt lat="44.8230862639507" lon="-1.1552903912147718"><ele>14.333333333333334</ele><time>2026-04-26T14:06:24.998Z</time></trkpt><trkpt lat="44.82314510203258" lon="-1.1553335928024309"><ele>14.166666666666668</ele><time>2026-04-26T14:06:26.998Z</time></trkpt><trkpt lat="44.823205610752176" lon="-1.1552842727030708"><ele>14.0</ele><time>2026-04-26T14:06:29.998Z</time></trkpt><trkpt lat="44.82327679406773" lon="-1.1553321454984664"><ele>14.000000000000002</ele><time>2026-04-26T14:06:31.998Z</time></trkpt><trkpt lat="44.823344064393574" lon="-1.15531914991289"><ele>14.0</ele><time>2026-04-26T14:06:33.998Z</time></trkpt><trkpt lat="44.82341171092586" lon="-1.1552978210108884"><ele>14.0</ele><time>2026-04-26T14:06:35.998Z</time></trkpt><trkpt lat="44.82348930883671" lon="-1.1553032772245775"><ele>14.0</ele><time>2026-04-26T14:06:37.998Z</time></trkpt><trkpt lat="44.82355761244771" lon="-1.1552528730199565"><ele>14.000000000000002</ele><time>2026-04-26T14:06:41Z</time></trkpt><trkpt lat="44.82362016256598" lon="-1.1551786759162088"><ele>14.0</ele><time>2026-04-26T14:06:43Z</time></trkpt><trkpt lat="44.82370045367524" lon="-1.1550990149541749"><ele>14.000000000000002</ele><time>2026-04-26T14:06:45Z</time></trkpt><trkpt lat="44.823779667809106" lon="-1.15508181628246"><ele>14.0</ele><time>2026-04-26T14:06:47Z</time></trkpt><trkpt lat="44.823872797258055" lon="-1.1550727854275582"><ele>14.0</ele><time>2026-04-26T14:06:50Z</time></trkpt><trkpt lat="44.823959559777066" lon="-1.1550868501039344"><ele>14.0</ele><time>2026-04-26T14:06:52Z</time></trkpt><trkpt lat="44.824025916675076" lon="-1.1550868747915997"><ele>14.000000000000002</ele><time>2026-04-26T14:06:54Z</time></trkpt><trkpt lat="44.824104636614685" lon="-1.1551216766072034"><ele>14.0</ele><time>2026-04-26T14:06:57Z</time></trkpt><trkpt lat="44.8241790497581" lon="-1.1551106655354662"><ele>14.0</ele><time>2026-04-26T14:06:59Z</time></trkpt><trkpt lat="44.82425209435681" lon="-1.1551619005716658"><ele>14.0</ele><time>2026-04-26T14:07:03Z</time></trkpt><trkpt lat="44.8243326316884" lon="-1.1551604613623827"><ele>14.0</ele><time>2026-04-26T14:07:05Z</time></trkpt><trkpt lat="44.82439624444983" lon="-1.1551834276943147"><ele>14.0</ele><time>2026-04-26T14:07:07Z</time></trkpt><trkpt lat="44.8244630261078" lon="-1.1552053278680567"><ele>14.0</ele><time>2026-04-26T14:07:10Z</time></trkpt><trkpt lat="44.82452218684496" lon="-1.1551527668769168"><ele>14.0</ele><time>2026-04-26T14:07:12Z</time></trkpt><trkpt lat="44.824594889164565" lon="-1.1551234325283126"><ele>14.0</ele><time>2026-04-26T14:07:16Z</time></trkpt><trkpt lat="44.82468337396051" lon="-1.155173994225972"><ele>14.0</ele><time>2026-04-26T14:07:19Z</time></trkpt><trkpt lat="44.82475420132498" lon="-1.1552027282996284"><ele>14.0</ele><time>2026-04-26T14:07:21Z</time></trkpt><trkpt lat="44.824782839360225" lon="-1.1552880329688375"><ele>14.0</ele><time>2026-04-26T14:07:22.999Z</time></trkpt><trkpt lat="44.82486399516966" lon="-1.1552811607166837"><ele>14.0</ele><time>2026-04-26T14:07:25.999Z</time></trkpt><trkpt lat="44.82495017434349" lon="-1.1552562314555166"><ele>14.0</ele><time>2026-04-26T14:07:31.999Z</time></trkpt><trkpt lat="44.82500402407946" lon="-1.1551985412741002"><ele>14.0</ele><time>2026-04-26T14:07:33.999Z</time></trkpt><trkpt lat="44.82506598388126" lon="-1.1551524047324053"><ele>14.0</ele><time>2026-04-26T14:07:36.999Z</time></trkpt><trkpt lat="44.82512614157865" lon="-1.1550578170753407"><ele>13.666666666666668</ele><time>2026-04-26T14:07:39.999Z</time></trkpt><trkpt lat="44.82520352076335" lon="-1.1549843818022398"><ele>13.333333333333334</ele><time>2026-04-26T14:07:42.999Z</time></trkpt><trkpt lat="44.825270544622285" lon="-1.1549715548866955"><ele>13.0</ele><time>2026-04-26T14:07:44.999Z</time></trkpt><trkpt lat="44.825341713026624" lon="-1.154968111652861"><ele>12.666666666666668</ele><time>2026-04-26T14:07:47.999Z</time></trkpt><trkpt lat="44.825405908811256" lon="-1.1549769600786828"><ele>12.333333333333334</ele><time>2026-04-26T14:07:49.999Z</time></trkpt><trkpt lat="44.82548145419036" lon="-1.1549770340535463"><ele>12.0</ele><time>2026-04-26T14:07:52.999Z</time></trkpt><trkpt lat="44.82557213387558" lon="-1.1549608083566798"><ele>12.0</ele><time>2026-04-26T14:07:55.999Z</time></trkpt><trkpt lat="44.82564518534007" lon="-1.1549924966531997"><ele>12.0</ele><time>2026-04-26T14:07:58.999Z</time></trkpt><trkpt lat="44.82572679093026" lon="-1.1550237034118114"><ele>12.0</ele><time>2026-04-26T14:08:01.999Z</time></trkpt><trkpt lat="44.82579427744445" lon="-1.1549899865832147"><ele>12.0</ele><time>2026-04-26T14:08:03.999Z</time></trkpt><trkpt lat="44.825883639901456" lon="-1.154969479584078"><ele>12.0</ele><time>2026-04-26T14:08:06.999Z</time></trkpt><trkpt lat="44.825966265872864" lon="-1.154944720630448"><ele>12.0</ele><time>2026-04-26T14:08:09.999Z</time></trkpt><trkpt lat="44.82602364559835" lon="-1.1548830593097503"><ele>12.0</ele><time>2026-04-26T14:08:11.998Z</time></trkpt><trkpt lat="44.82608438841944" lon="-1.1548578994172745"><ele>12.0</ele><time>2026-04-26T14:08:13.998Z</time></trkpt><trkpt lat="44.82618709205365" lon="-1.1548383693317403"><ele>12.0</ele><time>2026-04-26T14:08:16.998Z</time></trkpt><trkpt lat="44.826247286646414" lon="-1.1548787464853723"><ele>12.0</ele><time>2026-04-26T14:08:18.998Z</time></trkpt><trkpt lat="44.82632693513359" lon="-1.1548750489934514"><ele>12.0</ele><time>2026-04-26T14:08:21.998Z</time></trkpt><trkpt lat="44.826392219904406" lon="-1.1548328789996836"><ele>12.0</ele><time>2026-04-26T14:08:24.998Z</time></trkpt><trkpt lat="44.82643291995295" lon="-1.15473199926888"><ele>12.833333333333334</ele><time>2026-04-26T14:08:26.998Z</time></trkpt><trkpt lat="44.82648297787293" lon="-1.1546241504784127"><ele>13.666666666666668</ele><time>2026-04-26T14:08:30.998Z</time></trkpt><trkpt lat="44.826518787591496" lon="-1.1545507356849076"><ele>14.5</ele><time>2026-04-26T14:08:34.998Z</time></trkpt><trkpt lat="44.82657320582155" lon="-1.1544800311077565"><ele>15.333333333333334</ele><time>2026-04-26T14:08:47Z</time></trkpt><trkpt lat="44.82662267846279" lon="-1.1543900286917281"><ele>16.166666666666668</ele><time>2026-04-26T14:08:49Z</time></trkpt><trkpt lat="44.82661894924041" lon="-1.1542582745530556"><ele>17.0</ele><time>2026-04-26T14:08:51Z</time></trkpt><trkpt lat="44.826622600971284" lon="-1.154161691633146"><ele>17.0</ele><time>2026-04-26T14:08:53Z</time></trkpt><trkpt lat="44.82669786072757" lon="-1.1540912289810237"><ele>17.0</ele><time>2026-04-26T14:08:55Z</time></trkpt><trkpt lat="44.826750549696214" lon="-1.1539895255926813"><ele>17.0</ele><time>2026-04-26T14:08:58Z</time></trkpt><trkpt lat="44.82681701446975" lon="-1.1539382590736436"><ele>17.0</ele><time>2026-04-26T14:09:01Z</time></trkpt><trkpt lat="44.82686341815305" lon="-1.1538265863491037"><ele>17.0</ele><time>2026-04-26T14:09:03Z</time></trkpt><trkpt lat="44.826905470678405" lon="-1.1537550326748565"><ele>17.0</ele><time>2026-04-26T14:09:04Z</time></trkpt><trkpt lat="44.827040831113486" lon="-1.1537432619864372"><ele>17.0</ele><time>2026-04-26T14:09:07Z</time></trkpt><trkpt lat="44.82709645927372" lon="-1.1536948135332206"><ele>17.0</ele><time>2026-04-26T14:09:08Z</time></trkpt><trkpt lat="44.827144158752816" lon="-1.153618778092995"><ele>17.0</ele><time>2026-04-26T14:09:09Z</time></trkpt><trkpt lat="44.82720004061564" lon="-1.1535777149531614"><ele>17.0</ele><time>2026-04-26T14:09:10Z</time></trkpt><trkpt lat="44.82727273716975" lon="-1.1535558496103802"><ele>17.0</ele><time>2026-04-26T14:09:11Z</time></trkpt><trkpt lat="44.827398428031344" lon="-1.1535352284954241"><ele>17.0</ele><time>2026-04-26T14:09:13Z</time></trkpt><trkpt lat="44.827487179240315" lon="-1.1535148326522453"><ele>17.0</ele><time>2026-04-26T14:09:14Z</time></trkpt><trkpt lat="44.827561811501894" lon="-1.1535155557845194"><ele>17.0</ele><time>2026-04-26T14:09:15Z</time></trkpt><trkpt lat="44.827627688628944" lon="-1.1535332147183706"><ele>17.0</ele><time>2026-04-26T14:09:17Z</time></trkpt><trkpt lat="44.82771668954439" lon="-1.1535091850143608"><ele>17.0</ele><time>2026-04-26T14:09:19Z</time></trkpt><trkpt lat="44.82779276467357" lon="-1.1534651686249346"><ele>17.0</ele><time>2026-04-26T14:09:21Z</time></trkpt><trkpt lat="44.82785806416206" lon="-1.1533920927136514"><ele>17.0</ele><time>2026-04-26T14:09:22.999Z</time></trkpt><trkpt lat="44.82796749880772" lon="-1.1533930949965154"><ele>17.166666666666668</ele><time>2026-04-26T14:09:24.999Z</time></trkpt><trkpt lat="44.8280296758643" lon="-1.1534877201226954"><ele>17.333333333333336</ele><time>2026-04-26T14:09:27.999Z</time></trkpt><trkpt lat="44.82810057950859" lon="-1.1534854336491696"><ele>17.5</ele><time>2026-04-26T14:09:29.999Z</time></trkpt><trkpt lat="44.82819012859925" lon="-1.1534835617131016"><ele>17.666666666666668</ele><time>2026-04-26T14:09:31.999Z</time></trkpt><trkpt lat="44.82826466837222" lon="-1.1535567490903456"><ele>17.833333333333332</ele><time>2026-04-26T14:09:34.999Z</time></trkpt><trkpt lat="44.82832665390191" lon="-1.1535728878261644"><ele>18.0</ele><time>2026-04-26T14:09:36.999Z</time></trkpt><trkpt lat="44.82838900794545" lon="-1.1536631345607125"><ele>18.0</ele><time>2026-04-26T14:09:38.999Z</time></trkpt><trkpt lat="44.82846419227265" lon="-1.153718774632636"><ele>18.0</ele><time>2026-04-26T14:09:40.999Z</time></trkpt><trkpt lat="44.828531394529726" lon="-1.1537875098601647"><ele>18.0</ele><time>2026-04-26T14:09:42.999Z</time></trkpt><trkpt lat="44.82858635920095" lon="-1.153838289256064"><ele>18.0</ele><time>2026-04-26T14:09:45.999Z</time></trkpt><trkpt lat="44.82867381645007" lon="-1.153860589470387"><ele>18.0</ele><time>2026-04-26T14:09:47.999Z</time></trkpt><trkpt lat="44.82871783869923" lon="-1.153960891856896"><ele>18.0</ele><time>2026-04-26T14:09:50.999Z</time></trkpt><trkpt lat="44.828781900245986" lon="-1.1539591106709086"><ele>18.166666666666668</ele><time>2026-04-26T14:09:52.999Z</time></trkpt><trkpt lat="44.82885624194857" lon="-1.1539774479651346"><ele>18.333333333333332</ele><time>2026-04-26T14:09:54.999Z</time></trkpt><trkpt lat="44.82893039655802" lon="-1.1539724786429624"><ele>18.5</ele><time>2026-04-26T14:09:56.999Z</time></trkpt><trkpt lat="44.82899688014658" lon="-1.1539016782412863"><ele>18.666666666666664</ele><time>2026-04-26T14:09:59.999Z</time></trkpt><trkpt lat="44.82904657103674" lon="-1.1538409434204475"><ele>18.833333333333332</ele><time>2026-04-26T14:10:01.999Z</time></trkpt><trkpt lat="44.829112441900136" lon="-1.1537784187570752"><ele>19.0</ele><time>2026-04-26T14:10:04.999Z</time></trkpt><trkpt lat="44.829169670465475" lon="-1.1536962595986504"><ele>19.0</ele><time>2026-04-26T14:10:07.999Z</time></trkpt><trkpt lat="44.82922942009519" lon="-1.1537318102828007"><ele>19.0</ele><time>2026-04-26T14:10:09.999Z</time></trkpt><trkpt lat="44.82931365147885" lon="-1.1537319604056573"><ele>19.0</ele><time>2026-04-26T14:10:12.998Z</time></trkpt><trkpt lat="44.82936824715303" lon="-1.153659170962271"><ele>19.0</ele><time>2026-04-26T14:10:15.998Z</time></trkpt><trkpt lat="44.82944212774001" lon="-1.153676492063581"><ele>19.0</ele><time>2026-04-26T14:10:24.998Z</time></trkpt><trkpt lat="44.82953967682956" lon="-1.1537622043084699"><ele>19.0</ele><time>2026-04-26T14:10:27.998Z</time></trkpt><trkpt lat="44.829605661454714" lon="-1.1538059323178596"><ele>18.333333333333332</ele><time>2026-04-26T14:10:28.998Z</time></trkpt><trkpt lat="44.82968903124174" lon="-1.1538648629052277"><ele>17.666666666666664</ele><time>2026-04-26T14:10:29.998Z</time></trkpt><trkpt lat="44.82976196756595" lon="-1.153918741511906"><ele>17.0</ele><time>2026-04-26T14:10:30.998Z</time></trkpt><trkpt lat="44.829850243438585" lon="-1.1539789450009144"><ele>16.333333333333332</ele><time>2026-04-26T14:10:31.998Z</time></trkpt><trkpt lat="44.829917845648396" lon="-1.1540309161671658"><ele>15.666666666666666</ele><time>2026-04-26T14:10:32.998Z</time></trkpt><trkpt lat="44.82998884089258" lon="-1.1540151725404266"><ele>15.0</ele><time>2026-04-26T14:10:34.998Z</time></trkpt><trkpt lat="44.83005930573899" lon="-1.153989811487367"><ele>15.0</ele><time>2026-04-26T14:10:35.998Z</time></trkpt><trkpt lat="44.83012520916304" lon="-1.1539465679859777"><ele>15.0</ele><time>2026-04-26T14:10:36.998Z</time></trkpt><trkpt lat="44.830197349924205" lon="-1.1539080239307562"><ele>15.0</ele><time>2026-04-26T14:10:38.998Z</time></trkpt><trkpt lat="44.83029456296528" lon="-1.1537836450931318"><ele>15.0</ele><time>2026-04-26T14:10:40.998Z</time></trkpt><trkpt lat="44.830330979794546" lon="-1.1537041441149074"><ele>15.0</ele><time>2026-04-26T14:10:41.998Z</time></trkpt><trkpt lat="44.83039855936498" lon="-1.1535629167072936"><ele>15.166666666666666</ele><time>2026-04-26T14:10:43.998Z</time></trkpt><trkpt lat="44.8304758511426" lon="-1.1534651684635369"><ele>15.333333333333332</ele><time>2026-04-26T14:10:44.998Z</time></trkpt><trkpt lat="44.8305176575686" lon="-1.153388106414772"><ele>15.5</ele><time>2026-04-26T14:10:45.998Z</time></trkpt><trkpt lat="44.83054869257297" lon="-1.1532802852978177"><ele>15.666666666666666</ele><time>2026-04-26T14:10:46.998Z</time></trkpt><trkpt lat="44.83054961661927" lon="-1.153169624421922"><ele>15.833333333333332</ele><time>2026-04-26T14:10:47.998Z</time></trkpt><trkpt lat="44.83053393411855" lon="-1.153049241331998"><ele>16.0</ele><time>2026-04-26T14:10:48.998Z</time></trkpt><trkpt lat="44.83048255059189" lon="-1.152911923646713"><ele>16.0</ele><time>2026-04-26T14:10:49.998Z</time></trkpt><trkpt lat="44.83042338932537" lon="-1.15278042582031"><ele>16.0</ele><time>2026-04-26T14:10:50.998Z</time></trkpt><trkpt lat="44.830382218872195" lon="-1.1526572958146466"><ele>16.0</ele><time>2026-04-26T14:10:51.998Z</time></trkpt><trkpt lat="44.83037807260611" lon="-1.1524795050269794"><ele>16.0</ele><time>2026-04-26T14:10:53Z</time></trkpt><trkpt lat="44.83039068167883" lon="-1.152313744753581"><ele>15.833333333333332</ele><time>2026-04-26T14:10:54Z</time></trkpt><trkpt lat="44.83040249313244" lon="-1.15220601226839"><ele>15.666666666666666</ele><time>2026-04-26T14:10:55Z</time></trkpt><trkpt lat="44.83036869016535" lon="-1.1520979799721862"><ele>15.5</ele><time>2026-04-26T14:10:56Z</time></trkpt><trkpt lat="44.83031602023055" lon="-1.152003987705972"><ele>15.333333333333332</ele><time>2026-04-26T14:10:57Z</time></trkpt><trkpt lat="44.830253808587265" lon="-1.1519134970116667"><ele>15.166666666666666</ele><time>2026-04-26T14:10:58Z</time></trkpt><trkpt lat="44.830232949251815" lon="-1.1518251169089702"><ele>15.0</ele><time>2026-04-26T14:10:59Z</time></trkpt><trkpt lat="44.83024898908783" lon="-1.1517043549815322"><ele>15.0</ele><time>2026-04-26T14:11:00Z</time></trkpt><trkpt lat="44.83029856027157" lon="-1.1515310936129066"><ele>15.0</ele><time>2026-04-26T14:11:01Z</time></trkpt><trkpt lat="44.83036593819827" lon="-1.1513698004073492"><ele>15.0</ele><time>2026-04-26T14:11:02Z</time></trkpt><trkpt lat="44.8304083612408" lon="-1.151249547780893"><ele>15.0</ele><time>2026-04-26T14:11:03Z</time></trkpt><trkpt lat="44.830436993053816" lon="-1.1511425073984032"><ele>15.0</ele><time>2026-04-26T14:11:04Z</time></trkpt><trkpt lat="44.83046122271048" lon="-1.1510148607198758"><ele>15.0</ele><time>2026-04-26T14:11:05Z</time></trkpt><trkpt lat="44.830470311551935" lon="-1.1508578825623077"><ele>15.0</ele><time>2026-04-26T14:11:06Z</time></trkpt><trkpt lat="44.83048448283174" lon="-1.150764783478263"><ele>15.0</ele><time>2026-04-26T14:11:07Z</time></trkpt><trkpt lat="44.830519793788824" lon="-1.150654353565766"><ele>15.0</ele><time>2026-04-26T14:11:08Z</time></trkpt><trkpt lat="44.83056301848972" lon="-1.1505789268733118"><ele>15.0</ele><time>2026-04-26T14:11:09Z</time></trkpt><trkpt lat="44.83064051412215" lon="-1.1505230305767025"><ele>15.0</ele><time>2026-04-26T14:11:10Z</time></trkpt><trkpt lat="44.83071102118884" lon="-1.150447801373604"><ele>14.8</ele><time>2026-04-26T14:11:11Z</time></trkpt><trkpt lat="44.83079292918126" lon="-1.1503473573241392"><ele>14.6</ele><time>2026-04-26T14:11:12Z</time></trkpt><trkpt lat="44.8308593940685" lon="-1.15027165200419"><ele>14.399999999999999</ele><time>2026-04-26T14:11:13Z</time></trkpt><trkpt lat="44.830933232987306" lon="-1.1501725126740485"><ele>14.2</ele><time>2026-04-26T14:11:14Z</time></trkpt><trkpt lat="44.83085393176397" lon="-1.150084793567708"><ele>14.0</ele><time>2026-04-26T14:12:23.998Z</time></trkpt><trkpt lat="44.83085616711442" lon="-1.149984328427219"><ele>14.2</ele><time>2026-04-26T14:12:24.998Z</time></trkpt><trkpt lat="44.83085756186342" lon="-1.1498458583406064"><ele>14.399999999999999</ele><time>2026-04-26T14:12:25.998Z</time></trkpt><trkpt lat="44.830855711503204" lon="-1.149675466123185"><ele>14.6</ele><time>2026-04-26T14:12:26.998Z</time></trkpt><trkpt lat="44.830851595618554" lon="-1.1495339976032446"><ele>14.8</ele><time>2026-04-26T14:12:27.998Z</time></trkpt><trkpt lat="44.83084376819581" lon="-1.1494051291191805"><ele>15.0</ele><time>2026-04-26T14:12:28.998Z</time></trkpt><trkpt lat="44.83083025860696" lon="-1.1492993237631552"><ele>15.0</ele><time>2026-04-26T14:12:29.998Z</time></trkpt><trkpt lat="44.83081249842178" lon="-1.1492032197022974"><ele>15.0</ele><time>2026-04-26T14:12:30.998Z</time></trkpt><trkpt lat="44.8307693929451" lon="-1.1490629346689392"><ele>15.0</ele><time>2026-04-26T14:12:31.998Z</time></trkpt><trkpt lat="44.83074129071635" lon="-1.1489497604849606"><ele>15.0</ele><time>2026-04-26T14:12:32.998Z</time></trkpt><trkpt lat="44.830700575715376" lon="-1.1488404328850579"><ele>15.0</ele><time>2026-04-26T14:12:33.998Z</time></trkpt><trkpt lat="44.830644312205415" lon="-1.1487053535083311"><ele>15.0</ele><time>2026-04-26T14:12:34.998Z</time></trkpt><trkpt lat="44.830623085566856" lon="-1.1485994016971752"><ele>15.0</ele><time>2026-04-26T14:12:35.998Z</time></trkpt><trkpt lat="44.83061591049573" lon="-1.1484838814195306"><ele>15.0</ele><time>2026-04-26T14:12:36.998Z</time></trkpt><trkpt lat="44.83061788187696" lon="-1.1483659098755556"><ele>15.0</ele><time>2026-04-26T14:12:37.998Z</time></trkpt><trkpt lat="44.830614986322956" lon="-1.1482431178041237"><ele>15.0</ele><time>2026-04-26T14:12:38.998Z</time></trkpt><trkpt lat="44.83060954243774" lon="-1.1481487870562197"><ele>15.0</ele><time>2026-04-26T14:12:40.998Z</time></trkpt><trkpt lat="44.83063220853479" lon="-1.1480594811086464"><ele>15.0</ele><time>2026-04-26T14:12:42.998Z</time></trkpt><trkpt lat="44.830686249659465" lon="-1.1479627904621377"><ele>15.0</ele><time>2026-04-26T14:12:44.998Z</time></trkpt><trkpt lat="44.83068944651448" lon="-1.1478633495527386"><ele>15.0</ele><time>2026-04-26T14:12:45.998Z</time></trkpt><trkpt lat="44.83071861507458" lon="-1.1477357822686747"><ele>15.0</ele><time>2026-04-26T14:12:46.998Z</time></trkpt><trkpt lat="44.83074515037473" lon="-1.1476332977595458"><ele>15.0</ele><time>2026-04-26T14:12:47.998Z</time></trkpt><trkpt lat="44.830762014527096" lon="-1.1474885001478285"><ele>15.0</ele><time>2026-04-26T14:12:48.998Z</time></trkpt><trkpt lat="44.83077392587818" lon="-1.1473335806525122"><ele>15.0</ele><time>2026-04-26T14:12:49.998Z</time></trkpt><trkpt lat="44.83078906903689" lon="-1.1472086200671396"><ele>15.0</ele><time>2026-04-26T14:12:50.998Z</time></trkpt><trkpt lat="44.83082932828092" lon="-1.1470953563303607"><ele>15.0</ele><time>2026-04-26T14:12:51.998Z</time></trkpt><trkpt lat="44.83087081964324" lon="-1.1469802734273598"><ele>15.0</ele><time>2026-04-26T14:12:52.998Z</time></trkpt><trkpt lat="44.830964689868225" lon="-1.146872760846602"><ele>15.0</ele><time>2026-04-26T14:12:54.998Z</time></trkpt><trkpt lat="44.83101836432806" lon="-1.1468068805202398"><ele>15.166666666666666</ele><time>2026-04-26T14:12:55.998Z</time></trkpt><trkpt lat="44.83107115897293" lon="-1.1467498864205992"><ele>15.333333333333332</ele><time>2026-04-26T14:12:56.998Z</time></trkpt><trkpt lat="44.83112874379382" lon="-1.146696035676912"><ele>15.5</ele><time>2026-04-26T14:12:57.998Z</time></trkpt><trkpt lat="44.83123972247045" lon="-1.1466290438778255"><ele>15.666666666666666</ele><time>2026-04-26T14:13:00Z</time></trkpt><trkpt lat="44.83129882534028" lon="-1.1465778996246105"><ele>15.833333333333332</ele><time>2026-04-26T14:13:01Z</time></trkpt><trkpt lat="44.83136438978781" lon="-1.146494028483613"><ele>16.0</ele><time>2026-04-26T14:13:02Z</time></trkpt><trkpt lat="44.83142548026278" lon="-1.1464147020065918"><ele>15.999999999999998</ele><time>2026-04-26T14:13:03Z</time></trkpt><trkpt lat="44.83148328411874" lon="-1.1463424391489145"><ele>16.0</ele><time>2026-04-26T14:13:04Z</time></trkpt><trkpt lat="44.8315339259219" lon="-1.1462695404012788"><ele>16.0</ele><time>2026-04-26T14:13:05Z</time></trkpt><trkpt lat="44.83159324667325" lon="-1.1461993438696962"><ele>16.0</ele><time>2026-04-26T14:13:06Z</time></trkpt><trkpt lat="44.831660202361995" lon="-1.1461253351040612"><ele>15.999999999999998</ele><time>2026-04-26T14:13:07Z</time></trkpt><trkpt lat="44.831731488230425" lon="-1.146038461744845"><ele>16.0</ele><time>2026-04-26T14:13:08Z</time></trkpt><trkpt lat="44.83177667723914" lon="-1.1459732002139016"><ele>15.833333333333332</ele><time>2026-04-26T14:13:09Z</time></trkpt><trkpt lat="44.831826281072715" lon="-1.1458911668226508"><ele>15.666666666666666</ele><time>2026-04-26T14:13:10Z</time></trkpt><trkpt lat="44.8319027299795" lon="-1.1457578325441726"><ele>15.5</ele><time>2026-04-26T14:13:12Z</time></trkpt><trkpt lat="44.831945548916345" lon="-1.1456917814478613"><ele>15.333333333333332</ele><time>2026-04-26T14:13:13Z</time></trkpt><trkpt lat="44.83200969730724" lon="-1.1456132288369898"><ele>15.166666666666666</ele><time>2026-04-26T14:13:14Z</time></trkpt><trkpt lat="44.832074885613814" lon="-1.1455463987992391"><ele>15.0</ele><time>2026-04-26T14:13:15Z</time></trkpt><trkpt lat="44.83213364053769" lon="-1.1454880037558912"><ele>15.0</ele><time>2026-04-26T14:13:16Z</time></trkpt><trkpt lat="44.832180962291986" lon="-1.1454224228355299"><ele>15.0</ele><time>2026-04-26T14:13:17Z</time></trkpt><trkpt lat="44.83221522916439" lon="-1.1453450014179445"><ele>15.0</ele><time>2026-04-26T14:13:18Z</time></trkpt><trkpt lat="44.832222797481805" lon="-1.145217791902349"><ele>15.0</ele><time>2026-04-26T14:13:20Z</time></trkpt><trkpt lat="44.83222662923115" lon="-1.145122768509585"><ele>15.0</ele><time>2026-04-26T14:13:22Z</time></trkpt><trkpt lat="44.83222371864606" lon="-1.1449820783741593"><ele>15.0</ele><time>2026-04-26T14:13:24Z</time></trkpt><trkpt lat="44.83222951542541" lon="-1.1448827034150952"><ele>14.833333333333334</ele><time>2026-04-26T14:13:25.999Z</time></trkpt><trkpt lat="44.83224278344613" lon="-1.1447378604340905"><ele>14.666666666666668</ele><time>2026-04-26T14:13:27.999Z</time></trkpt><trkpt lat="44.83225867404356" lon="-1.1446493254380532"><ele>14.5</ele><time>2026-04-26T14:13:28.999Z</time></trkpt><trkpt lat="44.83227994466145" lon="-1.1445405302435951"><ele>14.333333333333334</ele><time>2026-04-26T14:13:29.999Z</time></trkpt><trkpt lat="44.832309336970184" lon="-1.1444156105291576"><ele>14.166666666666668</ele><time>2026-04-26T14:13:30.999Z</time></trkpt><trkpt lat="44.83234658018139" lon="-1.14432725587746"><ele>14.0</ele><time>2026-04-26T14:13:31.999Z</time></trkpt><trkpt lat="44.83238196410475" lon="-1.1442429096841518"><ele>14.000000000000002</ele><time>2026-04-26T14:13:32.999Z</time></trkpt><trkpt lat="44.8324454341966" lon="-1.144115137841643"><ele>14.0</ele><time>2026-04-26T14:13:34.999Z</time></trkpt><trkpt lat="44.83246529086016" lon="-1.14401502404609"><ele>14.0</ele><time>2026-04-26T14:13:36.999Z</time></trkpt><trkpt lat="44.83242732348501" lon="-1.1439406737799789"><ele>14.0</ele><time>2026-04-26T14:13:38.999Z</time></trkpt><trkpt lat="44.83234683960203" lon="-1.1438992589244596"><ele>14.000000000000002</ele><time>2026-04-26T14:13:40.999Z</time></trkpt><trkpt lat="44.83228030586102" lon="-1.1439062841946448"><ele>14.0</ele><time>2026-04-26T14:13:41.999Z</time></trkpt><trkpt lat="44.832196556812896" lon="-1.1439295529105007"><ele>14.399999999999999</ele><time>2026-04-26T14:13:42.999Z</time></trkpt><trkpt lat="44.83207645834524" lon="-1.1439644636332829"><ele>14.799999999999999</ele><time>2026-04-26T14:13:43.999Z</time></trkpt><trkpt lat="44.83197382595317" lon="-1.1439791005592996"><ele>15.200000000000001</ele><time>2026-04-26T14:13:44.999Z</time></trkpt><trkpt lat="44.83186971825765" lon="-1.1439963879994448"><ele>15.600000000000001</ele><time>2026-04-26T14:13:45.999Z</time></trkpt><trkpt lat="44.83176002375659" lon="-1.1440125810855588"><ele>16.0</ele><time>2026-04-26T14:13:46.999Z</time></trkpt><trkpt lat="44.831660484057835" lon="-1.144027729371174"><ele>16.25</ele><time>2026-04-26T14:13:47.999Z</time></trkpt><trkpt lat="44.83157584137283" lon="-1.1440274292522288"><ele>16.5</ele><time>2026-04-26T14:13:48.999Z</time></trkpt><trkpt lat="44.83139839893896" lon="-1.1440577984711542"><ele>16.75</ele><time>2026-04-26T14:13:49.999Z</time></trkpt><trkpt lat="44.83127775706709" lon="-1.1440802404377117"><ele>17.0</ele><time>2026-04-26T14:13:50.999Z</time></trkpt><trkpt lat="44.83114378962842" lon="-1.1440997732781208"><ele>16.4</ele><time>2026-04-26T14:13:51.999Z</time></trkpt><trkpt lat="44.83104532030841" lon="-1.144117678568385"><ele>15.799999999999999</ele><time>2026-04-26T14:13:52.999Z</time></trkpt><trkpt lat="44.83094272796458" lon="-1.144130258952326"><ele>15.2</ele><time>2026-04-26T14:13:53.999Z</time></trkpt><trkpt lat="44.830851441607884" lon="-1.1441398407855636"><ele>14.6</ele><time>2026-04-26T14:13:54.999Z</time></trkpt><trkpt lat="44.83074153586713" lon="-1.1441502603077216"><ele>14.0</ele><time>2026-04-26T14:13:55.999Z</time></trkpt><trkpt lat="44.830641603618986" lon="-1.1441811522957828"><ele>13.799999999999999</ele><time>2026-04-26T14:13:56.999Z</time></trkpt><trkpt lat="44.83054890267435" lon="-1.144223941692016"><ele>13.599999999999998</ele><time>2026-04-26T14:13:57.999Z</time></trkpt><trkpt lat="44.83046785655011" lon="-1.1442939523487832"><ele>13.4</ele><time>2026-04-26T14:13:58.999Z</time></trkpt><trkpt lat="44.83037169032526" lon="-1.1443755110855192"><ele>13.2</ele><time>2026-04-26T14:13:59.999Z</time></trkpt><trkpt lat="44.83027522815641" lon="-1.1444354275344752"><ele>13.0</ele><time>2026-04-26T14:14:00.999Z</time></trkpt><trkpt lat="44.830188215845624" lon="-1.144442559278498"><ele>13.600000000000001</ele><time>2026-04-26T14:14:01.999Z</time></trkpt><trkpt lat="44.830083076008805" lon="-1.144436699988384"><ele>14.200000000000001</ele><time>2026-04-26T14:14:02.999Z</time></trkpt><trkpt lat="44.829981620907866" lon="-1.144430876138796"><ele>14.8</ele><time>2026-04-26T14:14:03.999Z</time></trkpt><trkpt lat="44.8299157110848" lon="-1.1444409715490287"><ele>15.4</ele><time>2026-04-26T14:14:04.999Z</time></trkpt><trkpt lat="44.82981368846338" lon="-1.1443811774750092"><ele>16.0</ele><time>2026-04-26T14:14:06.999Z</time></trkpt><trkpt lat="44.82978005337966" lon="-1.1442012975301246"><ele>16.0</ele><time>2026-04-26T14:14:08.999Z</time></trkpt><trkpt lat="44.82978884388222" lon="-1.1440702042558473"><ele>16.0</ele><time>2026-04-26T14:14:09.999Z</time></trkpt><trkpt lat="44.82977563097167" lon="-1.1439216890057533"><ele>16.0</ele><time>2026-04-26T14:14:10.999Z</time></trkpt><trkpt lat="44.82974929897781" lon="-1.143768479521835"><ele>16.0</ele><time>2026-04-26T14:14:11.999Z</time></trkpt><trkpt lat="44.82974039212838" lon="-1.143637703577765"><ele>16.0</ele><time>2026-04-26T14:14:12.999Z</time></trkpt><trkpt lat="44.82970690534067" lon="-1.1434177116902418"><ele>15.999999999999998</ele><time>2026-04-26T14:14:13.998Z</time></trkpt><trkpt lat="44.82969766991503" lon="-1.1432912967168138"><ele>16.0</ele><time>2026-04-26T14:14:14.998Z</time></trkpt><trkpt lat="44.829664731939666" lon="-1.1431962221278513"><ele>16.0</ele><time>2026-04-26T14:14:15.998Z</time></trkpt><trkpt lat="44.829609871840525" lon="-1.143123326466217"><ele>16.0</ele><time>2026-04-26T14:14:16.998Z</time></trkpt><trkpt lat="44.82952809086008" lon="-1.1430684174718477"><ele>15.999999999999998</ele><time>2026-04-26T14:14:17.998Z</time></trkpt><trkpt lat="44.82941877619552" lon="-1.1430335077225724"><ele>16.0</ele><time>2026-04-26T14:14:18.998Z</time></trkpt><trkpt lat="44.82929999415978" lon="-1.1430240646209915"><ele>16.400000000000002</ele><time>2026-04-26T14:14:19.998Z</time></trkpt><trkpt lat="44.8291923076935" lon="-1.1430270357247725"><ele>16.8</ele><time>2026-04-26T14:14:20.998Z</time></trkpt><trkpt lat="44.829113777794404" lon="-1.1429940487298724"><ele>17.200000000000003</ele><time>2026-04-26T14:14:21.998Z</time></trkpt><trkpt lat="44.82902270386745" lon="-1.1429284341616106"><ele>17.6</ele><time>2026-04-26T14:14:22.998Z</time></trkpt><trkpt lat="44.82892899939592" lon="-1.142883568253914"><ele>18.0</ele><time>2026-04-26T14:14:24.998Z</time></trkpt><trkpt lat="44.828802262962164" lon="-1.1429065710627173"><ele>18.0</ele><time>2026-04-26T14:14:26.998Z</time></trkpt><trkpt lat="44.82873950549309" lon="-1.1429535890989204"><ele>18.0</ele><time>2026-04-26T14:14:27.998Z</time></trkpt><trkpt lat="44.828690394759235" lon="-1.1430742782880132"><ele>18.0</ele><time>2026-04-26T14:14:29.998Z</time></trkpt><trkpt lat="44.828583698827416" lon="-1.1432583904120885"><ele>18.0</ele><time>2026-04-26T14:14:55.998Z</time></trkpt><trkpt lat="44.828526615208474" lon="-1.1433915893201014"><ele>18.0</ele><time>2026-04-26T14:14:56.998Z</time></trkpt><trkpt lat="44.82848208051724" lon="-1.1435274185436939"><ele>18.0</ele><time>2026-04-26T14:14:57.998Z</time></trkpt><trkpt lat="44.82845156390604" lon="-1.1436660023414869"><ele>18.0</ele><time>2026-04-26T14:14:58.998Z</time></trkpt><trkpt lat="44.82843170469693" lon="-1.1438270309711573"><ele>18.0</ele><time>2026-04-26T14:14:59.998Z</time></trkpt><trkpt lat="44.82840517044068" lon="-1.1439799802193684"><ele>18.0</ele><time>2026-04-26T14:15:00.998Z</time></trkpt><trkpt lat="44.828348754979885" lon="-1.144119618864796"><ele>18.0</ele><time>2026-04-26T14:15:01.998Z</time></trkpt><trkpt lat="44.82829500274855" lon="-1.1442576467828711"><ele>18.0</ele><time>2026-04-26T14:15:02.997Z</time></trkpt><trkpt lat="44.828257937129266" lon="-1.144386558323418"><ele>18.0</ele><time>2026-04-26T14:15:04Z</time></trkpt><trkpt lat="44.8282361719644" lon="-1.1445030646365781"><ele>18.0</ele><time>2026-04-26T14:15:05Z</time></trkpt><trkpt lat="44.82821276520623" lon="-1.14460411524589"><ele>18.0</ele><time>2026-04-26T14:15:06Z</time></trkpt><trkpt lat="44.82814906439731" lon="-1.1446938136236242"><ele>18.0</ele><time>2026-04-26T14:15:07Z</time></trkpt><trkpt lat="44.828085626492225" lon="-1.144751129065844"><ele>18.0</ele><time>2026-04-26T14:15:08Z</time></trkpt><trkpt lat="44.82802053583091" lon="-1.1447744989638182"><ele>18.0</ele><time>2026-04-26T14:15:09Z</time></trkpt><trkpt lat="44.82792305056225" lon="-1.1447561293529203"><ele>18.0</ele><time>2026-04-26T14:15:10Z</time></trkpt><trkpt lat="44.82779105807598" lon="-1.1446984038073675"><ele>18.0</ele><time>2026-04-26T14:15:11Z</time></trkpt><trkpt lat="44.827680822593635" lon="-1.1446910385075808"><ele>18.0</ele><time>2026-04-26T14:15:12Z</time></trkpt><trkpt lat="44.827577221367136" lon="-1.1447193710864487"><ele>17.4</ele><time>2026-04-26T14:15:13Z</time></trkpt><trkpt lat="44.82747910153572" lon="-1.144716136096372"><ele>16.8</ele><time>2026-04-26T14:15:14Z</time></trkpt><trkpt lat="44.82737399900372" lon="-1.1446850857281927"><ele>16.2</ele><time>2026-04-26T14:15:15Z</time></trkpt><trkpt lat="44.8272862074116" lon="-1.144664061326374"><ele>15.6</ele><time>2026-04-26T14:15:16Z</time></trkpt><trkpt lat="44.827135759363806" lon="-1.1446882044360076"><ele>15.0</ele><time>2026-04-26T14:15:18Z</time></trkpt><trkpt lat="44.82704474632638" lon="-1.1447071479777426"><ele>15.0</ele><time>2026-04-26T14:15:19Z</time></trkpt><trkpt lat="44.82698116004001" lon="-1.1447316208656069"><ele>15.0</ele><time>2026-04-26T14:15:21Z</time></trkpt><trkpt lat="44.82693567414695" lon="-1.1446544701484334"><ele>15.0</ele><time>2026-04-26T14:15:22Z</time></trkpt><trkpt lat="44.82686969806563" lon="-1.1446057292490737"><ele>15.0</ele><time>2026-04-26T14:15:23Z</time></trkpt><trkpt lat="44.82679173976225" lon="-1.144514228384437"><ele>15.0</ele><time>2026-04-26T14:15:25Z</time></trkpt><trkpt lat="44.82670795026848" lon="-1.1444516579730337"><ele>15.0</ele><time>2026-04-26T14:15:26.999Z</time></trkpt><trkpt lat="44.82659988226383" lon="-1.144381616959052"><ele>14.8</ele><time>2026-04-26T14:15:28.999Z</time></trkpt><trkpt lat="44.82648170146141" lon="-1.1442579969916686"><ele>14.6</ele><time>2026-04-26T14:15:30.999Z</time></trkpt><trkpt lat="44.82639850717744" lon="-1.1441842342494768"><ele>14.399999999999999</ele><time>2026-04-26T14:15:31.999Z</time></trkpt><trkpt lat="44.826315827399284" lon="-1.1441094927968258"><ele>14.2</ele><time>2026-04-26T14:15:32.999Z</time></trkpt><trkpt lat="44.82622599223852" lon="-1.1440331699712287"><ele>14.0</ele><time>2026-04-26T14:15:33.999Z</time></trkpt><trkpt lat="44.82615614691149" lon="-1.1439690137827578"><ele>14.0</ele><time>2026-04-26T14:15:34.999Z</time></trkpt><trkpt lat="44.82607246291735" lon="-1.1438925642190487"><ele>13.999999999999998</ele><time>2026-04-26T14:15:35.999Z</time></trkpt><trkpt lat="44.825962937610086" lon="-1.1438070000454374"><ele>13.999999999999998</ele><time>2026-04-26T14:15:36.999Z</time></trkpt><trkpt lat="44.8258739017574" lon="-1.143724277734202"><ele>14.0</ele><time>2026-04-26T14:15:37.999Z</time></trkpt><trkpt lat="44.825809077003534" lon="-1.1436541551099908"><ele>14.0</ele><time>2026-04-26T14:15:38.999Z</time></trkpt><trkpt lat="44.825729786148564" lon="-1.143579542592396"><ele>14.0</ele><time>2026-04-26T14:15:39.999Z</time></trkpt><trkpt lat="44.82563685554312" lon="-1.1435058501441586"><ele>13.999999999999998</ele><time>2026-04-26T14:15:40.999Z</time></trkpt><trkpt lat="44.82555097357072" lon="-1.1434318070191478"><ele>13.999999999999998</ele><time>2026-04-26T14:15:41.999Z</time></trkpt><trkpt lat="44.82544466784912" lon="-1.1433497767572423"><ele>14.0</ele><time>2026-04-26T14:15:42.999Z</time></trkpt><trkpt lat="44.825354816079894" lon="-1.1432657084138658"><ele>14.0</ele><time>2026-04-26T14:15:43.999Z</time></trkpt><trkpt lat="44.82526741329271" lon="-1.1431904554730636"><ele>14.0</ele><time>2026-04-26T14:15:44.999Z</time></trkpt><trkpt lat="44.82517476252472" lon="-1.1431079209512773"><ele>13.999999999999998</ele><time>2026-04-26T14:15:45.999Z</time></trkpt><trkpt lat="44.82510437318966" lon="-1.1430281856242144"><ele>13.999999999999998</ele><time>2026-04-26T14:15:46.999Z</time></trkpt><trkpt lat="44.825025111426285" lon="-1.1429542980397904"><ele>14.0</ele><time>2026-04-26T14:15:47.999Z</time></trkpt><trkpt lat="44.82494613888178" lon="-1.1428856365988445"><ele>14.0</ele><time>2026-04-26T14:15:48.999Z</time></trkpt><trkpt lat="44.82486240514575" lon="-1.1427981912925984"><ele>14.0</ele><time>2026-04-26T14:15:49.999Z</time></trkpt><trkpt lat="44.82475375252155" lon="-1.1427125832795837"><ele>14.0</ele><time>2026-04-26T14:15:50.999Z</time></trkpt><trkpt lat="44.82464164651545" lon="-1.1426284616819287"><ele>14.0</ele><time>2026-04-26T14:15:51.999Z</time></trkpt><trkpt lat="44.82454892503901" lon="-1.1425497889840075"><ele>14.0</ele><time>2026-04-26T14:15:52.999Z</time></trkpt><trkpt lat="44.82445232451725" lon="-1.142456243659334"><ele>14.5</ele><time>2026-04-26T14:15:53.999Z</time></trkpt><trkpt lat="44.82434445988122" lon="-1.142340205576242"><ele>15.0</ele><time>2026-04-26T14:15:54.999Z</time></trkpt><trkpt lat="44.82424629351381" lon="-1.142247380515956"><ele>15.5</ele><time>2026-04-26T14:15:55.999Z</time></trkpt><trkpt lat="44.824149271792926" lon="-1.1421533129131392"><ele>16.0</ele><time>2026-04-26T14:15:56.999Z</time></trkpt><trkpt lat="44.824086076479816" lon="-1.1420774039174533"><ele>16.0</ele><time>2026-04-26T14:15:57.999Z</time></trkpt><trkpt lat="44.82401285220483" lon="-1.1420048027524576"><ele>16.0</ele><time>2026-04-26T14:15:58.999Z</time></trkpt><trkpt lat="44.82392860495551" lon="-1.1419294270699116"><ele>16.0</ele><time>2026-04-26T14:15:59.999Z</time></trkpt><trkpt lat="44.82383378077183" lon="-1.1418368362703166"><ele>16.0</ele><time>2026-04-26T14:16:00.999Z</time></trkpt><trkpt lat="44.823742689701504" lon="-1.141761455436225"><ele>16.0</ele><time>2026-04-26T14:16:01.999Z</time></trkpt><trkpt lat="44.82361383425026" lon="-1.1416563548364398"><ele>15.666666666666666</ele><time>2026-04-26T14:16:02.999Z</time></trkpt><trkpt lat="44.823476516405805" lon="-1.1415198508653799"><ele>15.333333333333332</ele><time>2026-04-26T14:16:03.999Z</time></trkpt><trkpt lat="44.82334301496327" lon="-1.141398423290146"><ele>15.0</ele><time>2026-04-26T14:16:04.999Z</time></trkpt><trkpt lat="44.82324174228098" lon="-1.141300168369058"><ele>15.0</ele><time>2026-04-26T14:16:05.999Z</time></trkpt><trkpt lat="44.82312384341806" lon="-1.1411931096096513"><ele>15.0</ele><time>2026-04-26T14:16:06.999Z</time></trkpt><trkpt lat="44.82300676154698" lon="-1.1410888675241868"><ele>15.0</ele><time>2026-04-26T14:16:07.999Z</time></trkpt><trkpt lat="44.82293718896405" lon="-1.1410370589984207"><ele>15.0</ele><time>2026-04-26T14:16:08.999Z</time></trkpt><trkpt lat="44.8228656749993" lon="-1.141015090021301"><ele>15.0</ele><time>2026-04-26T14:16:10.999Z</time></trkpt><trkpt lat="44.82287885760125" lon="-1.141121305510996"><ele>15.0</ele><time>2026-04-26T14:16:13.998Z</time></trkpt><trkpt lat="44.822857880235425" lon="-1.1412382672357797"><ele>15.0</ele><time>2026-04-26T14:16:15.998Z</time></trkpt><trkpt lat="44.82283000071938" lon="-1.1413568218625587"><ele>15.0</ele><time>2026-04-26T14:16:17.998Z</time></trkpt><trkpt lat="44.82281649271158" lon="-1.1414438248999754"><ele>15.0</ele><time>2026-04-26T14:16:18.998Z</time></trkpt><trkpt lat="44.82278816342822" lon="-1.1416300347754142"><ele>15.0</ele><time>2026-04-26T14:16:20.998Z</time></trkpt><trkpt lat="44.82277770095133" lon="-1.141781846191047"><ele>14.666666666666666</ele><time>2026-04-26T14:16:21.998Z</time></trkpt><trkpt lat="44.82277037575478" lon="-1.141918420858258"><ele>14.333333333333332</ele><time>2026-04-26T14:16:22.998Z</time></trkpt><trkpt lat="44.82276725442103" lon="-1.1420450812181109"><ele>14.0</ele><time>2026-04-26T14:16:23.998Z</time></trkpt><trkpt lat="44.82276149892292" lon="-1.1421788450851413"><ele>13.666666666666666</ele><time>2026-04-26T14:16:24.998Z</time></trkpt><trkpt lat="44.822756609789835" lon="-1.142269307131425"><ele>13.333333333333332</ele><time>2026-04-26T14:16:25.998Z</time></trkpt><trkpt lat="44.822749017677495" lon="-1.1423700422616287"><ele>13.0</ele><time>2026-04-26T14:16:26.998Z</time></trkpt><trkpt lat="44.82273809308163" lon="-1.142493121923617"><ele>13.0</ele><time>2026-04-26T14:16:27.998Z</time></trkpt><trkpt lat="44.82272588620225" lon="-1.142627003706495"><ele>13.0</ele><time>2026-04-26T14:16:28.998Z</time></trkpt><trkpt lat="44.822717715877594" lon="-1.1427607114722291"><ele>13.0</ele><time>2026-04-26T14:16:29.998Z</time></trkpt><trkpt lat="44.82271061755738" lon="-1.1428869095551621"><ele>13.0</ele><time>2026-04-26T14:16:30.998Z</time></trkpt><trkpt lat="44.82269997862308" lon="-1.1429979919097284"><ele>13.0</ele><time>2026-04-26T14:16:31.998Z</time></trkpt><trkpt lat="44.82269208353994" lon="-1.143125966633368"><ele>12.833333333333332</ele><time>2026-04-26T14:16:32.998Z</time></trkpt><trkpt lat="44.82268305509347" lon="-1.1432353096262589"><ele>12.666666666666666</ele><time>2026-04-26T14:16:33.998Z</time></trkpt><trkpt lat="44.82267442532197" lon="-1.143338210701884"><ele>12.5</ele><time>2026-04-26T14:16:34.998Z</time></trkpt><trkpt lat="44.82266037357159" lon="-1.143429941400052"><ele>12.333333333333332</ele><time>2026-04-26T14:16:35.998Z</time></trkpt><trkpt lat="44.822648739035195" lon="-1.1435365761058023"><ele>12.166666666666666</ele><time>2026-04-26T14:16:36.998Z</time></trkpt><trkpt lat="44.8226417677736" lon="-1.1436622717227662"><ele>12.0</ele><time>2026-04-26T14:16:37.998Z</time></trkpt><trkpt lat="44.8226255336481" lon="-1.143797548107296"><ele>12.0</ele><time>2026-04-26T14:16:38.998Z</time></trkpt><trkpt lat="44.82261181621705" lon="-1.1439764494613853"><ele>12.0</ele><time>2026-04-26T14:16:39.998Z</time></trkpt><trkpt lat="44.82259752264141" lon="-1.144188722975953"><ele>12.0</ele><time>2026-04-26T14:16:40.998Z</time></trkpt><trkpt lat="44.822579937223146" lon="-1.1444286793531984"><ele>12.333333333333332</ele><time>2026-04-26T14:16:41.998Z</time></trkpt><trkpt lat="44.82255529121812" lon="-1.1446858312965307"><ele>12.666666666666666</ele><time>2026-04-26T14:16:42.998Z</time></trkpt><trkpt lat="44.82253826761684" lon="-1.1448954475431175"><ele>13.0</ele><time>2026-04-26T14:16:43.998Z</time></trkpt><trkpt lat="44.82252565534918" lon="-1.1451210329521484"><ele>12.600000000000001</ele><time>2026-04-26T14:16:44.998Z</time></trkpt><trkpt lat="44.82251866865131" lon="-1.1453070161979837"><ele>12.200000000000001</ele><time>2026-04-26T14:16:45.998Z</time></trkpt><trkpt lat="44.8225107522739" lon="-1.1454564596371035"><ele>11.8</ele><time>2026-04-26T14:16:46.998Z</time></trkpt><trkpt lat="44.822496571101865" lon="-1.1455905710973011"><ele>11.4</ele><time>2026-04-26T14:16:47.998Z</time></trkpt><trkpt lat="44.822480007768526" lon="-1.1457479085540985"><ele>11.0</ele><time>2026-04-26T14:16:48.998Z</time></trkpt><trkpt lat="44.822459443311786" lon="-1.1459157861532705"><ele>11.0</ele><time>2026-04-26T14:16:49.998Z</time></trkpt><trkpt lat="44.82243956960416" lon="-1.1461072157855208"><ele>11.0</ele><time>2026-04-26T14:16:50.998Z</time></trkpt><trkpt lat="44.822422324875305" lon="-1.1463041038243138"><ele>11.0</ele><time>2026-04-26T14:16:51.998Z</time></trkpt><trkpt lat="44.82240518169319" lon="-1.1465056287313453"><ele>11.0</ele><time>2026-04-26T14:16:52.998Z</time></trkpt><trkpt lat="44.82239676370904" lon="-1.146725553285408"><ele>11.0</ele><time>2026-04-26T14:16:53.998Z</time></trkpt><trkpt lat="44.82239003846532" lon="-1.146917457038189"><ele>11.0</ele><time>2026-04-26T14:16:54.998Z</time></trkpt><trkpt lat="44.822364701792594" lon="-1.1470965223527192"><ele>11.0</ele><time>2026-04-26T14:16:55.998Z</time></trkpt><trkpt lat="44.82235384053149" lon="-1.1472769242667087"><ele>11.0</ele><time>2026-04-26T14:16:56.998Z</time></trkpt><trkpt lat="44.822345329073244" lon="-1.1474516540402975"><ele>11.0</ele><time>2026-04-26T14:16:57.998Z</time></trkpt><trkpt lat="44.82233722977249" lon="-1.1476299934783545"><ele>11.0</ele><time>2026-04-26T14:16:58.998Z</time></trkpt><trkpt lat="44.82233122014475" lon="-1.1477741286599525"><ele>11.0</ele><time>2026-04-26T14:16:59.998Z</time></trkpt><trkpt lat="44.82232635271587" lon="-1.147903659137537"><ele>11.0</ele><time>2026-04-26T14:17:00.998Z</time></trkpt><trkpt lat="44.822302579981525" lon="-1.148016990880482"><ele>11.0</ele><time>2026-04-26T14:17:01.998Z</time></trkpt><trkpt lat="44.822289933335036" lon="-1.1481531079576832"><ele>11.0</ele><time>2026-04-26T14:17:02.997Z</time></trkpt><trkpt lat="44.822283710584536" lon="-1.148317960633374"><ele>11.0</ele><time>2026-04-26T14:17:03.997Z</time></trkpt><trkpt lat="44.822277859371866" lon="-1.1484220793928666"><ele>11.0</ele><time>2026-04-26T14:17:04.997Z</time></trkpt><trkpt lat="44.82226787917334" lon="-1.1485930504253172"><ele>11.0</ele><time>2026-04-26T14:17:06.997Z</time></trkpt><trkpt lat="44.822204517168466" lon="-1.1486664070252361"><ele>11.0</ele><time>2026-04-26T14:17:08.997Z</time></trkpt><trkpt lat="44.82214150527229" lon="-1.14868572228423"><ele>11.0</ele><time>2026-04-26T14:17:10Z</time></trkpt><trkpt lat="44.82203952676009" lon="-1.148708371398534"><ele>11.0</ele><time>2026-04-26T14:17:11Z</time></trkpt><trkpt lat="44.82191212861332" lon="-1.148727263632633"><ele>11.0</ele><time>2026-04-26T14:17:12Z</time></trkpt><trkpt lat="44.821787076295976" lon="-1.148744253187999"><ele>11.0</ele><time>2026-04-26T14:17:13Z</time></trkpt><trkpt lat="44.82171532540801" lon="-1.1487578006126062"><ele>11.0</ele><time>2026-04-26T14:17:14Z</time></trkpt><trkpt lat="44.821632418364786" lon="-1.1487731272940715"><ele>11.0</ele><time>2026-04-26T14:17:15Z</time></trkpt><trkpt lat="44.82155617273085" lon="-1.148765646786337"><ele>11.0</ele><time>2026-04-26T14:17:16Z</time></trkpt><trkpt lat="44.82147569519501" lon="-1.1487750855590477"><ele>11.0</ele><time>2026-04-26T14:17:17Z</time></trkpt><trkpt lat="44.82139958126289" lon="-1.1488077786982627"><ele>11.0</ele><time>2026-04-26T14:17:18Z</time></trkpt><trkpt lat="44.821326373328915" lon="-1.148881330933361"><ele>11.0</ele><time>2026-04-26T14:17:19Z</time></trkpt><trkpt lat="44.821244597302986" lon="-1.1489402146716499"><ele>11.0</ele><time>2026-04-26T14:17:20Z</time></trkpt><trkpt lat="44.82114986887657" lon="-1.1489287218015158"><ele>11.0</ele><time>2026-04-26T14:17:21Z</time></trkpt><trkpt lat="44.82103635792867" lon="-1.1489343369661333"><ele>11.0</ele><time>2026-04-26T14:17:22Z</time></trkpt><trkpt lat="44.82094301025538" lon="-1.1489298368598557"><ele>11.0</ele><time>2026-04-26T14:17:23Z</time></trkpt><trkpt lat="44.8208596279293" lon="-1.1489575546418969"><ele>11.0</ele><time>2026-04-26T14:17:24Z</time></trkpt><trkpt lat="44.820753715442144" lon="-1.1490096457776917"><ele>11.0</ele><time>2026-04-26T14:17:25Z</time></trkpt><trkpt lat="44.820655403836746" lon="-1.1490565554178889"><ele>11.4</ele><time>2026-04-26T14:17:26Z</time></trkpt><trkpt lat="44.82056918491984" lon="-1.1491448172579792"><ele>11.8</ele><time>2026-04-26T14:17:27Z</time></trkpt><trkpt lat="44.820478088954474" lon="-1.1492320645251204"><ele>12.200000000000001</ele><time>2026-04-26T14:17:28Z</time></trkpt><trkpt lat="44.820399499432376" lon="-1.1492864763178632"><ele>12.600000000000001</ele><time>2026-04-26T14:17:28.999Z</time></trkpt><trkpt lat="44.820313363923724" lon="-1.1493035244102288"><ele>13.0</ele><time>2026-04-26T14:17:29.999Z</time></trkpt><trkpt lat="44.82020579937431" lon="-1.1493096294964344"><ele>14.0</ele><time>2026-04-26T14:17:30.999Z</time></trkpt><trkpt lat="44.82008046423956" lon="-1.1493142309795703"><ele>15.0</ele><time>2026-04-26T14:17:31.999Z</time></trkpt><trkpt lat="44.81996926850745" lon="-1.1493086705790667"><ele>16.0</ele><time>2026-04-26T14:17:32.999Z</time></trkpt><trkpt lat="44.81987093324471" lon="-1.1492922196700055"><ele>17.0</ele><time>2026-04-26T14:17:34.999Z</time></trkpt><trkpt lat="44.81975455819798" lon="-1.1493122491724768"><ele>17.0</ele><time>2026-04-26T14:17:35.999Z</time></trkpt><trkpt lat="44.819702142497164" lon="-1.1493729924904832"><ele>17.0</ele><time>2026-04-26T14:17:38.999Z</time></trkpt><trkpt lat="44.8196332253637" lon="-1.149434328546144"><ele>17.0</ele><time>2026-04-26T14:17:40.999Z</time></trkpt><trkpt lat="44.819536672374" lon="-1.1494579815183685"><ele>17.0</ele><time>2026-04-26T14:17:42.999Z</time></trkpt><trkpt lat="44.81947446906831" lon="-1.149474100189601"><ele>17.0</ele><time>2026-04-26T14:17:54.999Z</time></trkpt><trkpt lat="44.81940985262478" lon="-1.1494808235318803"><ele>17.0</ele><time>2026-04-26T14:17:55.999Z</time></trkpt><trkpt lat="44.81932601633266" lon="-1.1494884097843618"><ele>17.0</ele><time>2026-04-26T14:17:56.999Z</time></trkpt><trkpt lat="44.81926068611652" lon="-1.1495216689543195"><ele>17.0</ele><time>2026-04-26T14:17:57.999Z</time></trkpt><trkpt lat="44.81919492772793" lon="-1.1495709253542767"><ele>17.0</ele><time>2026-04-26T14:17:58.999Z</time></trkpt><trkpt lat="44.81913316153417" lon="-1.1496650188470925"><ele>17.0</ele><time>2026-04-26T14:17:59.999Z</time></trkpt><trkpt lat="44.8190659783732" lon="-1.1497828097231828"><ele>17.0</ele><time>2026-04-26T14:18:00.999Z</time></trkpt><trkpt lat="44.8189943145245" lon="-1.149898363006497"><ele>17.0</ele><time>2026-04-26T14:18:01.999Z</time></trkpt><trkpt lat="44.81891156327172" lon="-1.1500022921568145"><ele>17.0</ele><time>2026-04-26T14:18:02.999Z</time></trkpt><trkpt lat="44.81885204740832" lon="-1.1501247129169778"><ele>17.0</ele><time>2026-04-26T14:18:03.999Z</time></trkpt><trkpt lat="44.8188432108049" lon="-1.1502710160152574"><ele>17.0</ele><time>2026-04-26T14:18:05.999Z</time></trkpt><trkpt lat="44.818849078874486" lon="-1.1504635208930025"><ele>17.0</ele><time>2026-04-26T14:18:06.999Z</time></trkpt><trkpt lat="44.81886820587768" lon="-1.1506557062296374"><ele>17.0</ele><time>2026-04-26T14:18:07.999Z</time></trkpt><trkpt lat="44.818868472927974" lon="-1.1508763907896626"><ele>17.0</ele><time>2026-04-26T14:18:08.999Z</time></trkpt><trkpt lat="44.81888273042993" lon="-1.15106391055596"><ele>17.0</ele><time>2026-04-26T14:18:09.999Z</time></trkpt><trkpt lat="44.81889723708615" lon="-1.151268604589074"><ele>17.2</ele><time>2026-04-26T14:18:10.999Z</time></trkpt><trkpt lat="44.818910783250686" lon="-1.151435999931727"><ele>17.4</ele><time>2026-04-26T14:18:11.999Z</time></trkpt><trkpt lat="44.81892419140486" lon="-1.1515947256811252"><ele>17.6</ele><time>2026-04-26T14:18:12.999Z</time></trkpt><trkpt lat="44.81893577350846" lon="-1.1517233038844163"><ele>17.8</ele><time>2026-04-26T14:18:13.999Z</time></trkpt><trkpt lat="44.81893970967674" lon="-1.15181908891291"><ele>18.0</ele><time>2026-04-26T14:18:14.999Z</time></trkpt><trkpt lat="44.81891757600399" lon="-1.1519085181241715"><ele>17.25</ele><time>2026-04-26T14:18:16.998Z</time></trkpt><trkpt lat="44.81874904560541" lon="-1.151913524675686"><ele>16.5</ele><time>2026-04-26T14:18:18.998Z</time></trkpt><trkpt lat="44.81863690718821" lon="-1.1518880175047512"><ele>15.75</ele><time>2026-04-26T14:18:19.998Z</time></trkpt><trkpt lat="44.818511457000206" lon="-1.151874928696657"><ele>15.0</ele><time>2026-04-26T14:18:20.998Z</time></trkpt><trkpt lat="44.81839049422435" lon="-1.1518541546797434"><ele>13.8</ele><time>2026-04-26T14:18:21.998Z</time></trkpt><trkpt lat="44.81828493383633" lon="-1.1518449679406368"><ele>12.6</ele><time>2026-04-26T14:18:22.998Z</time></trkpt><trkpt lat="44.81818589058881" lon="-1.1518619364801694"><ele>11.4</ele><time>2026-04-26T14:18:23.998Z</time></trkpt><trkpt lat="44.818093593466315" lon="-1.1518553158892737"><ele>10.2</ele><time>2026-04-26T14:18:24.998Z</time></trkpt><trkpt lat="44.818013188367544" lon="-1.1518564071881965"><ele>9.0</ele><time>2026-04-26T14:18:25.998Z</time></trkpt><trkpt lat="44.81791703456438" lon="-1.151864836896594"><ele>9.0</ele><time>2026-04-26T14:18:26.998Z</time></trkpt><trkpt lat="44.817830561978916" lon="-1.1519114077795867"><ele>9.0</ele><time>2026-04-26T14:18:27.998Z</time></trkpt><trkpt lat="44.81776837783813" lon="-1.1519601118504739"><ele>9.0</ele><time>2026-04-26T14:18:28.998Z</time></trkpt><trkpt lat="44.817665689043075" lon="-1.1519970757400333"><ele>9.0</ele><time>2026-04-26T14:18:30.998Z</time></trkpt><trkpt lat="44.81758782070308" lon="-1.151989114853434"><ele>9.0</ele><time>2026-04-26T14:18:32.998Z</time></trkpt><trkpt lat="44.81750575451292" lon="-1.1519535164931085"><ele>9.0</ele><time>2026-04-26T14:18:35.998Z</time></trkpt><trkpt lat="44.817435302358994" lon="-1.1518960940118692"><ele>9.0</ele><time>2026-04-26T14:18:37.998Z</time></trkpt><trkpt lat="44.81738085271987" lon="-1.151829527175117"><ele>9.0</ele><time>2026-04-26T14:18:38.998Z</time></trkpt><trkpt lat="44.81732058108556" lon="-1.1517582261644808"><ele>9.0</ele><time>2026-04-26T14:18:39.998Z</time></trkpt><trkpt lat="44.817210673587496" lon="-1.1516650165531839"><ele>9.0</ele><time>2026-04-26T14:18:41.998Z</time></trkpt><trkpt lat="44.81712961618996" lon="-1.1516100223033339"><ele>9.0</ele><time>2026-04-26T14:18:42.998Z</time></trkpt><trkpt lat="44.8170253367075" lon="-1.151582481708481"><ele>9.0</ele><time>2026-04-26T14:18:43.998Z</time></trkpt><trkpt lat="44.81691284672267" lon="-1.1515916215149664"><ele>9.0</ele><time>2026-04-26T14:18:44.998Z</time></trkpt><trkpt lat="44.81680665625073" lon="-1.1516300878688204"><ele>9.0</ele><time>2026-04-26T14:18:45.998Z</time></trkpt><trkpt lat="44.81671555323356" lon="-1.1516468386229386"><ele>9.0</ele><time>2026-04-26T14:18:46.998Z</time></trkpt><trkpt lat="44.81661597869108" lon="-1.1516723959258695"><ele>9.0</ele><time>2026-04-26T14:18:47.998Z</time></trkpt><trkpt lat="44.81651588458235" lon="-1.1517225508784545"><ele>9.25</ele><time>2026-04-26T14:18:48.998Z</time></trkpt><trkpt lat="44.81642314539009" lon="-1.1517524571889242"><ele>9.5</ele><time>2026-04-26T14:18:49.998Z</time></trkpt><trkpt lat="44.81628259308902" lon="-1.151797314582394"><ele>9.75</ele><time>2026-04-26T14:18:50.998Z</time></trkpt><trkpt lat="44.81615675757905" lon="-1.151853020285007"><ele>10.0</ele><time>2026-04-26T14:18:51.998Z</time></trkpt><trkpt lat="44.816037829166575" lon="-1.1519071461319081"><ele>10.6</ele><time>2026-04-26T14:18:52.998Z</time></trkpt><trkpt lat="44.815936246534584" lon="-1.1519568855990088"><ele>11.2</ele><time>2026-04-26T14:18:53.998Z</time></trkpt><trkpt lat="44.8158399990118" lon="-1.1519884811515901"><ele>11.8</ele><time>2026-04-26T14:18:54.998Z</time></trkpt><trkpt lat="44.81577290121588" lon="-1.1519937340513797"><ele>12.4</ele><time>2026-04-26T14:18:55.998Z</time></trkpt><trkpt lat="44.81569732712774" lon="-1.1520095519521316"><ele>13.0</ele><time>2026-04-26T14:18:57.998Z</time></trkpt><trkpt lat="44.81568288172066" lon="-1.152153030293365"><ele>13.0</ele><time>2026-04-26T14:18:59.998Z</time></trkpt><trkpt lat="44.81572221942415" lon="-1.1523443190771585"><ele>13.0</ele><time>2026-04-26T14:19:01.998Z</time></trkpt><trkpt lat="44.815728029700615" lon="-1.1524758180946642"><ele>13.0</ele><time>2026-04-26T14:19:02.998Z</time></trkpt><trkpt lat="44.815742162235765" lon="-1.1526679716720207"><ele>13.0</ele><time>2026-04-26T14:19:03.998Z</time></trkpt><trkpt lat="44.81575169918465" lon="-1.1528351045628367"><ele>13.166666666666666</ele><time>2026-04-26T14:19:04.998Z</time></trkpt><trkpt lat="44.81575778760625" lon="-1.152939966158635"><ele>13.333333333333332</ele><time>2026-04-26T14:19:05.997Z</time></trkpt><trkpt lat="44.815742025141155" lon="-1.153036824812469"><ele>13.5</ele><time>2026-04-26T14:19:07.997Z</time></trkpt><trkpt lat="44.81567014073602" lon="-1.1530415070543287"><ele>13.666666666666668</ele><time>2026-04-26T14:19:09.997Z</time></trkpt><trkpt lat="44.815594486825525" lon="-1.1529829737566297"><ele>13.833333333333334</ele><time>2026-04-26T14:19:10.997Z</time></trkpt><trkpt lat="44.8155140978333" lon="-1.1528963108185943"><ele>14.0</ele><time>2026-04-26T14:19:11.997Z</time></trkpt><trkpt lat="44.81542431253421" lon="-1.1528233977611888"><ele>14.000000000000002</ele><time>2026-04-26T14:19:12.997Z</time></trkpt><trkpt lat="44.81534607708766" lon="-1.152777678027736"><ele>14.0</ele><time>2026-04-26T14:19:13.997Z</time></trkpt><trkpt lat="44.815293012067784" lon="-1.1527204661806678"><ele>14.0</ele><time>2026-04-26T14:19:15Z</time></trkpt><trkpt lat="44.81521168206999" lon="-1.1525844769593279"><ele>14.0</ele><time>2026-04-26T14:19:17Z</time></trkpt><trkpt lat="44.81515054662275" lon="-1.1525235072463105"><ele>14.000000000000002</ele><time>2026-04-26T14:19:18Z</time></trkpt><trkpt lat="44.815085858722654" lon="-1.152453478313541"><ele>14.0</ele><time>2026-04-26T14:19:19Z</time></trkpt><trkpt lat="44.81499755052979" lon="-1.1524001215730146"><ele>13.75</ele><time>2026-04-26T14:19:20Z</time></trkpt><trkpt lat="44.81489833334333" lon="-1.1524018667451157"><ele>13.5</ele><time>2026-04-26T14:19:21Z</time></trkpt><trkpt lat="44.814788612539466" lon="-1.1524097001762454"><ele>13.25</ele><time>2026-04-26T14:19:22Z</time></trkpt><trkpt lat="44.814641729967676" lon="-1.1524388105580978"><ele>13.0</ele><time>2026-04-26T14:19:23Z</time></trkpt><trkpt lat="44.814518547373936" lon="-1.1524386558559916"><ele>13.0</ele><time>2026-04-26T14:19:24Z</time></trkpt><trkpt lat="44.814411217575646" lon="-1.152390210162139"><ele>13.0</ele><time>2026-04-26T14:19:25Z</time></trkpt><trkpt lat="44.814335283435526" lon="-1.1523357106407848"><ele>13.0</ele><time>2026-04-26T14:19:26Z</time></trkpt><trkpt lat="44.814274862997756" lon="-1.1522887099070833"><ele>13.0</ele><time>2026-04-26T14:19:27Z</time></trkpt><trkpt lat="44.81422855205655" lon="-1.1522154610798934"><ele>13.0</ele><time>2026-04-26T14:19:29Z</time></trkpt><trkpt lat="44.81411302515628" lon="-1.1521332636726125"><ele>12.75</ele><time>2026-04-26T14:19:30.999Z</time></trkpt><trkpt lat="44.81398734228683" lon="-1.152092923306865"><ele>12.5</ele><time>2026-04-26T14:19:31.999Z</time></trkpt><trkpt lat="44.81385740404134" lon="-1.1520397584874351"><ele>12.25</ele><time>2026-04-26T14:19:32.999Z</time></trkpt><trkpt lat="44.81373729295609" lon="-1.1519616862250994"><ele>12.0</ele><time>2026-04-26T14:19:33.999Z</time></trkpt><trkpt lat="44.813582046020414" lon="-1.1519119126307173"><ele>11.8</ele><time>2026-04-26T14:19:34.999Z</time></trkpt><trkpt lat="44.81344593470384" lon="-1.1518936539528908"><ele>11.6</ele><time>2026-04-26T14:19:35.999Z</time></trkpt><trkpt lat="44.81333520473886" lon="-1.1518683136446444"><ele>11.4</ele><time>2026-04-26T14:19:36.999Z</time></trkpt><trkpt lat="44.813244910433305" lon="-1.1518410782305917"><ele>11.200000000000001</ele><time>2026-04-26T14:19:37.999Z</time></trkpt><trkpt lat="44.81318309921973" lon="-1.1518014425918506"><ele>11.0</ele><time>2026-04-26T14:19:38.999Z</time></trkpt><trkpt lat="44.81313242311539" lon="-1.151734648503554"><ele>11.0</ele><time>2026-04-26T14:19:39.999Z</time></trkpt><trkpt lat="44.81306876609062" lon="-1.1516993818368297"><ele>11.0</ele><time>2026-04-26T14:19:41.999Z</time></trkpt><trkpt lat="44.81301406168027" lon="-1.151855560792989"><ele>11.0</ele><time>2026-04-26T14:19:44Z</time></trkpt><trkpt lat="44.8129480483809" lon="-1.1519821280903795"><ele>11.0</ele><time>2026-04-26T14:19:46Z</time></trkpt><trkpt lat="44.812853262238654" lon="-1.1520137696780706"><ele>11.0</ele><time>2026-04-26T14:19:47Z</time></trkpt><trkpt lat="44.81277456830583" lon="-1.1520543658778393"><ele>11.0</ele><time>2026-04-26T14:19:48Z</time></trkpt><trkpt lat="44.812661717876" lon="-1.1521306313348743"><ele>11.0</ele><time>2026-04-26T14:19:50Z</time></trkpt><trkpt lat="44.81261753781875" lon="-1.15221596463081"><ele>11.0</ele><time>2026-04-26T14:19:52Z</time></trkpt><trkpt lat="44.81268085126141" lon="-1.152318450311046"><ele>11.0</ele><time>2026-04-26T14:19:53Z</time></trkpt><trkpt lat="44.81273136572222" lon="-1.1523809657242003"><ele>11.0</ele><time>2026-04-26T14:19:54Z</time></trkpt><trkpt lat="44.812713910576555" lon="-1.152485440609452"><ele>11.0</ele><time>2026-04-26T14:19:56Z</time></trkpt><trkpt lat="44.81265655166279" lon="-1.1525414148873792"><ele>10.666666666666666</ele><time>2026-04-26T14:19:57Z</time></trkpt><trkpt lat="44.81256067871594" lon="-1.1525937741283159"><ele>10.333333333333332</ele><time>2026-04-26T14:19:58Z</time></trkpt><trkpt lat="44.812478389512464" lon="-1.1526242953942616"><ele>10.0</ele><time>2026-04-26T14:19:59Z</time></trkpt><trkpt lat="44.812419737539685" lon="-1.1527685089254516"><ele>9.666666666666666</ele><time>2026-04-26T14:20:01Z</time></trkpt><trkpt lat="44.81237880836645" lon="-1.1528434497185933"><ele>9.333333333333334</ele><time>2026-04-26T14:20:02Z</time></trkpt><trkpt lat="44.8123532588184" lon="-1.1529448269706648"><ele>9.0</ele><time>2026-04-26T14:20:04Z</time></trkpt><trkpt lat="44.812467903758645" lon="-1.1529585714055994"><ele>9.0</ele><time>2026-04-26T14:20:06Z</time></trkpt><trkpt lat="44.812522928379025" lon="-1.1528999883682707"><ele>9.0</ele><time>2026-04-26T14:20:07Z</time></trkpt><trkpt lat="44.812578366119155" lon="-1.1528355413483615"><ele>9.0</ele><time>2026-04-26T14:20:08Z</time></trkpt><trkpt lat="44.81265473336169" lon="-1.1528541559846712"><ele>9.0</ele><time>2026-04-26T14:20:10Z</time></trkpt><trkpt lat="44.812687616770106" lon="-1.152953348145861"><ele>9.0</ele><time>2026-04-26T14:20:12Z</time></trkpt><trkpt lat="44.81269388340061" lon="-1.153126567822407"><ele>9.0</ele><time>2026-04-26T14:20:14Z</time></trkpt><trkpt lat="44.812701793404784" lon="-1.153235860351084"><ele>9.0</ele><time>2026-04-26T14:20:15Z</time></trkpt><trkpt lat="44.81270789618925" lon="-1.1533279213607108"><ele>9.0</ele><time>2026-04-26T14:20:16Z</time></trkpt><trkpt lat="44.81272553691852" lon="-1.1534576769445286"><ele>9.0</ele><time>2026-04-26T14:20:18Z</time></trkpt><trkpt lat="44.81269992242298" lon="-1.1535638688543361"><ele>9.0</ele><time>2026-04-26T14:20:20.999Z</time></trkpt><trkpt lat="44.812648241183496" lon="-1.1537161364065527"><ele>9.0</ele><time>2026-04-26T14:20:41.999Z</time></trkpt><trkpt lat="44.8126520078043" lon="-1.1538427085236789"><ele>9.0</ele><time>2026-04-26T14:20:43.999Z</time></trkpt><trkpt lat="44.81274543888393" lon="-1.153869019516079"><ele>9.0</ele><time>2026-04-26T14:20:45.999Z</time></trkpt><trkpt lat="44.81276585267612" lon="-1.1537337046052425"><ele>9.0</ele><time>2026-04-26T14:20:47.999Z</time></trkpt><trkpt lat="44.812745436842256" lon="-1.1536006255952322"><ele>9.0</ele><time>2026-04-26T14:20:49.999Z</time></trkpt><trkpt lat="44.812677647271" lon="-1.153607256208385"><ele>9.0</ele><time>2026-04-26T14:20:51.999Z</time></trkpt><trkpt lat="44.81264218737977" lon="-1.1537076094245693"><ele>9.0</ele><time>2026-04-26T14:20:53.999Z</time></trkpt><trkpt lat="44.81264652326015" lon="-1.1538146958999667"><ele>9.0</ele><time>2026-04-26T14:20:55.999Z</time></trkpt><trkpt lat="44.8127412167806" lon="-1.1538829944925215"><ele>9.0</ele><time>2026-04-26T14:20:57.999Z</time></trkpt><trkpt lat="44.812808302260876" lon="-1.1539552646752917"><ele>9.0</ele><time>2026-04-26T14:20:58.999Z</time></trkpt><trkpt lat="44.81292907616558" lon="-1.1540158335808595"><ele>9.0</ele><time>2026-04-26T14:20:59.999Z</time></trkpt><trkpt lat="44.813009312639466" lon="-1.154086412821829"><ele>9.0</ele><time>2026-04-26T14:21:00.999Z</time></trkpt><trkpt lat="44.81308499582013" lon="-1.1541244568168953"><ele>9.0</ele><time>2026-04-26T14:21:02.999Z</time></trkpt><trkpt lat="44.813166027295004" lon="-1.154128427208648"><ele>9.0</ele><time>2026-04-26T14:21:04.999Z</time></trkpt><trkpt lat="44.813203837788464" lon="-1.1540520374464396"><ele>9.0</ele><time>2026-04-26T14:21:06.999Z</time></trkpt><trkpt lat="44.81319848415566" lon="-1.1538658853153945"><ele>9.0</ele><time>2026-04-26T14:21:08.998Z</time></trkpt><trkpt lat="44.81319366093396" lon="-1.1537712773116438"><ele>9.0</ele><time>2026-04-26T14:21:09.998Z</time></trkpt><trkpt lat="44.81312800368781" lon="-1.153718647959033"><ele>9.0</ele><time>2026-04-26T14:21:12.998Z</time></trkpt><trkpt lat="44.81309586908116" lon="-1.1538050769964432"><ele>9.0</ele><time>2026-04-26T14:21:14.998Z</time></trkpt><trkpt lat="44.81302646484166" lon="-1.1537930153812777"><ele>9.0</ele><time>2026-04-26T14:21:20Z</time></trkpt><trkpt lat="44.812889196802445" lon="-1.1538704670972801"><ele>9.0</ele><time>2026-04-26T14:21:22Z</time></trkpt><trkpt lat="44.81281649235556" lon="-1.153857819507587"><ele>9.0</ele><time>2026-04-26T14:21:24Z</time></trkpt><trkpt lat="44.81275554497256" lon="-1.1538129460347784"><ele>9.0</ele><time>2026-04-26T14:21:25Z</time></trkpt><trkpt lat="44.81270147613644" lon="-1.1536976783508013"><ele>9.0</ele><time>2026-04-26T14:21:27Z</time></trkpt><trkpt lat="44.812719395849015" lon="-1.1535891891062633"><ele>9.0</ele><time>2026-04-26T14:35:31.998Z</time></trkpt><trkpt lat="44.81274975658801" lon="-1.1537019095704155"><ele>9.0</ele><time>2026-04-26T14:35:36.998Z</time></trkpt><trkpt lat="44.812750189704246" lon="-1.1538198531272787"><ele>9.0</ele><time>2026-04-26T14:35:38.998Z</time></trkpt><trkpt lat="44.81280569835036" lon="-1.1539211176051876"><ele>9.0</ele><time>2026-04-26T14:35:41.998Z</time></trkpt><trkpt lat="44.81286249852442" lon="-1.1539738916104858"><ele>9.0</ele><time>2026-04-26T14:35:43.998Z</time></trkpt><trkpt lat="44.81293459010877" lon="-1.154041420500764"><ele>9.0</ele><time>2026-04-26T14:35:45.998Z</time></trkpt><trkpt lat="44.81301413508668" lon="-1.1541059923894226"><ele>9.0</ele><time>2026-04-26T14:35:47.998Z</time></trkpt><trkpt lat="44.813111437292335" lon="-1.1541143975126487"><ele>9.0</ele><time>2026-04-26T14:35:49.998Z</time></trkpt><trkpt lat="44.81319235144314" lon="-1.1541389342246033"><ele>9.0</ele><time>2026-04-26T14:35:51.998Z</time></trkpt><trkpt lat="44.81319769447161" lon="-1.154292085971419"><ele>9.0</ele><time>2026-04-26T14:35:54.998Z</time></trkpt><trkpt lat="44.813191000383135" lon="-1.1544468072873089"><ele>9.0</ele><time>2026-04-26T14:35:56.998Z</time></trkpt><trkpt lat="44.813205842299006" lon="-1.154543943097416"><ele>9.0</ele><time>2026-04-26T14:35:57.998Z</time></trkpt><trkpt lat="44.813213917274425" lon="-1.1546621326705437"><ele>9.0</ele><time>2026-04-26T14:35:58.998Z</time></trkpt><trkpt lat="44.81320747425563" lon="-1.1547514402164707"><ele>9.0</ele><time>2026-04-26T14:35:59.998Z</time></trkpt><trkpt lat="44.813232837800236" lon="-1.1549305216514532"><ele>9.0</ele><time>2026-04-26T14:36:01.999Z</time></trkpt><trkpt lat="44.813238921556014" lon="-1.1550870338748214"><ele>9.0</ele><time>2026-04-26T14:36:03.999Z</time></trkpt><trkpt lat="44.81320726573283" lon="-1.1552483415135937"><ele>9.2</ele><time>2026-04-26T14:36:05.999Z</time></trkpt><trkpt lat="44.81320920600545" lon="-1.1553391522524494"><ele>9.4</ele><time>2026-04-26T14:36:06.999Z</time></trkpt><trkpt lat="44.813288682511214" lon="-1.1554605478710356"><ele>9.6</ele><time>2026-04-26T14:36:08.999Z</time></trkpt><trkpt lat="44.81335992013945" lon="-1.1555100161119853"><ele>9.8</ele><time>2026-04-26T14:36:09.999Z</time></trkpt><trkpt lat="44.81340498402977" lon="-1.1556345998135324"><ele>10.0</ele><time>2026-04-26T14:36:11.999Z</time></trkpt><trkpt lat="44.81345841975172" lon="-1.1557789329106578"><ele>10.166666666666668</ele><time>2026-04-26T14:36:13.999Z</time></trkpt><trkpt lat="44.813437010199166" lon="-1.155932536589092"><ele>10.333333333333334</ele><time>2026-04-26T14:36:15.999Z</time></trkpt><trkpt lat="44.81339095421665" lon="-1.1560192726430478"><ele>10.5</ele><time>2026-04-26T14:36:16.999Z</time></trkpt><trkpt lat="44.81334535676192" lon="-1.1561124456657483"><ele>10.666666666666666</ele><time>2026-04-26T14:36:17.999Z</time></trkpt><trkpt lat="44.81329490525498" lon="-1.1562085160772102"><ele>10.833333333333332</ele><time>2026-04-26T14:36:18.999Z</time></trkpt><trkpt lat="44.81324541012733" lon="-1.1562862591642942"><ele>11.0</ele><time>2026-04-26T14:36:19.999Z</time></trkpt><trkpt lat="44.81319299420599" lon="-1.1564336639227462"><ele>11.0</ele><time>2026-04-26T14:36:21.999Z</time></trkpt><trkpt lat="44.81318171347033" lon="-1.1565296455268097"><ele>11.0</ele><time>2026-04-26T14:36:22.999Z</time></trkpt><trkpt lat="44.81316811331112" lon="-1.1566396128529928"><ele>11.0</ele><time>2026-04-26T14:36:23.999Z</time></trkpt><trkpt lat="44.813154522840435" lon="-1.1567465775524215"><ele>11.0</ele><time>2026-04-26T14:36:24.999Z</time></trkpt><trkpt lat="44.81316535984858" lon="-1.1568463565650597"><ele>11.0</ele><time>2026-04-26T14:36:25.999Z</time></trkpt><trkpt lat="44.813183111206726" lon="-1.1569373498399298"><ele>11.0</ele><time>2026-04-26T14:36:26.999Z</time></trkpt><trkpt lat="44.81318160059392" lon="-1.1570388477440885"><ele>11.0</ele><time>2026-04-26T14:36:27.999Z</time></trkpt><trkpt lat="44.81309807900447" lon="-1.1571344992017825"><ele>10.600000000000001</ele><time>2026-04-26T14:36:29.999Z</time></trkpt><trkpt lat="44.81302818999705" lon="-1.1571770692781003"><ele>10.200000000000001</ele><time>2026-04-26T14:36:30.999Z</time></trkpt><trkpt lat="44.812921559028645" lon="-1.157181169425815"><ele>9.8</ele><time>2026-04-26T14:36:32.999Z</time></trkpt><trkpt lat="44.81280905534101" lon="-1.1571639741554502"><ele>9.4</ele><time>2026-04-26T14:36:34.999Z</time></trkpt><trkpt lat="44.812685872414065" lon="-1.1571797139387514"><ele>9.0</ele><time>2026-04-26T14:36:36.999Z</time></trkpt><trkpt lat="44.81261808220317" lon="-1.15718537145724"><ele>9.0</ele><time>2026-04-26T14:36:37.999Z</time></trkpt><trkpt lat="44.81255210276646" lon="-1.1571885111192297"><ele>9.0</ele><time>2026-04-26T14:36:38.999Z</time></trkpt><trkpt lat="44.81247570007816" lon="-1.1571995255658973"><ele>9.0</ele><time>2026-04-26T14:36:39.999Z</time></trkpt><trkpt lat="44.81239573760898" lon="-1.157207337659101"><ele>9.0</ele><time>2026-04-26T14:36:40.999Z</time></trkpt><trkpt lat="44.81230072030046" lon="-1.1572191146824742"><ele>9.0</ele><time>2026-04-26T14:36:41.999Z</time></trkpt><trkpt lat="44.81221825485857" lon="-1.157232793205991"><ele>9.0</ele><time>2026-04-26T14:36:42.999Z</time></trkpt><trkpt lat="44.81212200503899" lon="-1.157229373834114"><ele>9.0</ele><time>2026-04-26T14:36:43.999Z</time></trkpt><trkpt lat="44.81204038778878" lon="-1.1572243480684528"><ele>9.0</ele><time>2026-04-26T14:36:44.999Z</time></trkpt><trkpt lat="44.81189797177047" lon="-1.1572144572375496"><ele>9.0</ele><time>2026-04-26T14:36:45.999Z</time></trkpt><trkpt lat="44.8117820558036" lon="-1.1571706142866283"><ele>9.0</ele><time>2026-04-26T14:36:46.999Z</time></trkpt><trkpt lat="44.8116736144136" lon="-1.1571610688862284"><ele>9.2</ele><time>2026-04-26T14:36:47.999Z</time></trkpt><trkpt lat="44.811567743047505" lon="-1.1571616443977064"><ele>9.4</ele><time>2026-04-26T14:36:48.999Z</time></trkpt><trkpt lat="44.81145348682934" lon="-1.1571521489411745"><ele>9.6</ele><time>2026-04-26T14:36:49.999Z</time></trkpt><trkpt lat="44.811375377428995" lon="-1.157116209311553"><ele>9.8</ele><time>2026-04-26T14:36:50.999Z</time></trkpt><trkpt lat="44.81130020602679" lon="-1.1570784166584556"><ele>10.0</ele><time>2026-04-26T14:36:51.999Z</time></trkpt><trkpt lat="44.81120515602257" lon="-1.1570543096710775"><ele>10.0</ele><time>2026-04-26T14:36:53.999Z</time></trkpt><trkpt lat="44.81115376694926" lon="-1.1569855557470823"><ele>10.0</ele><time>2026-04-26T14:36:55.999Z</time></trkpt><trkpt lat="44.81117276458267" lon="-1.1568903693090296"><ele>10.0</ele><time>2026-04-26T14:37:19.998Z</time></trkpt><trkpt lat="44.81116411959383" lon="-1.1567896959175448"><ele>10.0</ele><time>2026-04-26T14:37:20.998Z</time></trkpt><trkpt lat="44.81116632727175" lon="-1.1566759846862933"><ele>10.0</ele><time>2026-04-26T14:37:21.998Z</time></trkpt><trkpt lat="44.81118126332279" lon="-1.1565392644375363"><ele>10.0</ele><time>2026-04-26T14:37:22.998Z</time></trkpt><trkpt lat="44.81117753096347" lon="-1.1563707550848645"><ele>10.2</ele><time>2026-04-26T14:37:23.998Z</time></trkpt><trkpt lat="44.8111741375848" lon="-1.156201717491392"><ele>10.4</ele><time>2026-04-26T14:37:24.998Z</time></trkpt><trkpt lat="44.8111825969487" lon="-1.1560601021854202"><ele>10.600000000000001</ele><time>2026-04-26T14:37:25.998Z</time></trkpt><trkpt lat="44.811198669269075" lon="-1.1559222727031013"><ele>10.8</ele><time>2026-04-26T14:37:26.998Z</time></trkpt><trkpt lat="44.811209602054234" lon="-1.1558212146736377"><ele>11.0</ele><time>2026-04-26T14:37:27.998Z</time></trkpt><trkpt lat="44.811201018895325" lon="-1.155690227603336"><ele>11.0</ele><time>2026-04-26T14:37:28.998Z</time></trkpt><trkpt lat="44.81119469707555" lon="-1.1555323001755808"><ele>11.0</ele><time>2026-04-26T14:37:29.998Z</time></trkpt><trkpt lat="44.8112044237183" lon="-1.1553413707504994"><ele>11.0</ele><time>2026-04-26T14:37:30.998Z</time></trkpt><trkpt lat="44.81120302408703" lon="-1.1551722058875926"><ele>11.0</ele><time>2026-04-26T14:37:31.998Z</time></trkpt><trkpt lat="44.81119342171701" lon="-1.1550033442620278"><ele>10.600000000000001</ele><time>2026-04-26T14:37:32.998Z</time></trkpt><trkpt lat="44.811186830604285" lon="-1.1548633397665629"><ele>10.200000000000001</ele><time>2026-04-26T14:37:33.998Z</time></trkpt><trkpt lat="44.81117498566938" lon="-1.154776014465879"><ele>9.8</ele><time>2026-04-26T14:37:34.998Z</time></trkpt><trkpt lat="44.811172528389925" lon="-1.1546625807890607"><ele>9.4</ele><time>2026-04-26T14:37:35.998Z</time></trkpt><trkpt lat="44.81116489216104" lon="-1.1545099284676634"><ele>9.0</ele><time>2026-04-26T14:37:36.998Z</time></trkpt><trkpt lat="44.811169783017725" lon="-1.1543559080193015"><ele>9.0</ele><time>2026-04-26T14:37:37.998Z</time></trkpt><trkpt lat="44.811166326327346" lon="-1.1541958404531802"><ele>9.0</ele><time>2026-04-26T14:37:38.998Z</time></trkpt><trkpt lat="44.811173794592115" lon="-1.1540854076614067"><ele>9.0</ele><time>2026-04-26T14:37:39.998Z</time></trkpt><trkpt lat="44.81118518480875" lon="-1.1539827841064332"><ele>9.0</ele><time>2026-04-26T14:37:40.998Z</time></trkpt><trkpt lat="44.81121141183556" lon="-1.1538300285109002"><ele>9.0</ele><time>2026-04-26T14:37:42.998Z</time></trkpt><trkpt lat="44.811194532404585" lon="-1.15372928737332"><ele>8.8</ele><time>2026-04-26T14:37:44.998Z</time></trkpt><trkpt lat="44.81118485243327" lon="-1.1535680750515582"><ele>8.600000000000001</ele><time>2026-04-26T14:37:52.998Z</time></trkpt><trkpt lat="44.811181659383024" lon="-1.1534486128204835"><ele>8.4</ele><time>2026-04-26T14:37:53.998Z</time></trkpt><trkpt lat="44.81117587642539" lon="-1.1532713062728486"><ele>8.200000000000001</ele><time>2026-04-26T14:37:54.998Z</time></trkpt><trkpt lat="44.81116986634738" lon="-1.1531249030243058"><ele>8.0</ele><time>2026-04-26T14:37:55.998Z</time></trkpt><trkpt lat="44.81116283672935" lon="-1.152988861075827"><ele>7.999999999999999</ele><time>2026-04-26T14:37:56.998Z</time></trkpt><trkpt lat="44.81116581013583" lon="-1.1528751915972828"><ele>8.0</ele><time>2026-04-26T14:37:57.998Z</time></trkpt><trkpt lat="44.81116170008693" lon="-1.1527787253233166"><ele>8.0</ele><time>2026-04-26T14:37:58.998Z</time></trkpt><trkpt lat="44.811143630458645" lon="-1.1526660649562506"><ele>8.0</ele><time>2026-04-26T14:37:59.998Z</time></trkpt><trkpt lat="44.811154820883935" lon="-1.152560002652446"><ele>7.999999999999999</ele><time>2026-04-26T14:38:00.998Z</time></trkpt><trkpt lat="44.81116564569327" lon="-1.1524706537314529"><ele>8.0</ele><time>2026-04-26T14:38:21.999Z</time></trkpt><trkpt lat="44.81115780234818" lon="-1.1522824913808798"><ele>8.333333333333332</ele><time>2026-04-26T14:38:23.999Z</time></trkpt><trkpt lat="44.811147014247815" lon="-1.15214792596006"><ele>8.666666666666666</ele><time>2026-04-26T14:38:24.999Z</time></trkpt><trkpt lat="44.811134141398405" lon="-1.1520342858354111"><ele>9.0</ele><time>2026-04-26T14:38:25.999Z</time></trkpt><trkpt lat="44.811118792539936" lon="-1.1519234191007508"><ele>9.333333333333334</ele><time>2026-04-26T14:38:26.999Z</time></trkpt><trkpt lat="44.81111003584219" lon="-1.1518313657650283"><ele>9.666666666666668</ele><time>2026-04-26T14:38:27.999Z</time></trkpt><trkpt lat="44.811099603360034" lon="-1.1516933071707318"><ele>10.0</ele><time>2026-04-26T14:38:28.999Z</time></trkpt><trkpt lat="44.81109282813642" lon="-1.1515198677199974"><ele>10.0</ele><time>2026-04-26T14:38:29.999Z</time></trkpt><trkpt lat="44.81108843106882" lon="-1.151378470256849"><ele>10.0</ele><time>2026-04-26T14:38:30.999Z</time></trkpt><trkpt lat="44.811083908926605" lon="-1.1512191770536802"><ele>10.0</ele><time>2026-04-26T14:38:31.999Z</time></trkpt><trkpt lat="44.81108249506331" lon="-1.1510272764879939"><ele>10.0</ele><time>2026-04-26T14:38:32.999Z</time></trkpt><trkpt lat="44.81105964934022" lon="-1.150895602026624"><ele>10.0</ele><time>2026-04-26T14:38:33.999Z</time></trkpt><trkpt lat="44.811048389284146" lon="-1.150795089902249"><ele>9.666666666666668</ele><time>2026-04-26T14:38:34.999Z</time></trkpt><trkpt lat="44.811045209526284" lon="-1.150620278938341"><ele>9.333333333333334</ele><time>2026-04-26T14:38:36.999Z</time></trkpt><trkpt lat="44.811080945844346" lon="-1.1505449189184773"><ele>9.0</ele><time>2026-04-26T14:38:37.999Z</time></trkpt><trkpt lat="44.8111422850766" lon="-1.1504968269839444"><ele>8.666666666666666</ele><time>2026-04-26T14:38:38.999Z</time></trkpt><trkpt lat="44.81121130003118" lon="-1.1505025272119032"><ele>8.333333333333332</ele><time>2026-04-26T14:38:39.999Z</time></trkpt><trkpt lat="44.811298745969005" lon="-1.1505363123476415"><ele>8.0</ele><time>2026-04-26T14:38:40.999Z</time></trkpt><trkpt lat="44.81142022915664" lon="-1.1505556843446287"><ele>8.0</ele><time>2026-04-26T14:38:41.999Z</time></trkpt><trkpt lat="44.81152659965092" lon="-1.1505546960654258"><ele>8.0</ele><time>2026-04-26T14:38:42.999Z</time></trkpt><trkpt lat="44.81161749391602" lon="-1.1505549041724732"><ele>8.0</ele><time>2026-04-26T14:38:43.999Z</time></trkpt><trkpt lat="44.81173342885699" lon="-1.15054700326384"><ele>8.0</ele><time>2026-04-26T14:38:44.999Z</time></trkpt><trkpt lat="44.81182734833974" lon="-1.1505371634983974"><ele>8.0</ele><time>2026-04-26T14:38:45.999Z</time></trkpt><trkpt lat="44.81191047600796" lon="-1.1505284209599453"><ele>8.166666666666666</ele><time>2026-04-26T14:38:46.999Z</time></trkpt><trkpt lat="44.81199982444819" lon="-1.1505395920646206"><ele>8.333333333333332</ele><time>2026-04-26T14:38:47.999Z</time></trkpt><trkpt lat="44.812088404646786" lon="-1.1505471661157818"><ele>8.5</ele><time>2026-04-26T14:38:48.999Z</time></trkpt><trkpt lat="44.812151427562085" lon="-1.1505425891272345"><ele>8.666666666666666</ele><time>2026-04-26T14:38:49.999Z</time></trkpt><trkpt lat="44.81225869923545" lon="-1.150559530361629"><ele>8.833333333333334</ele><time>2026-04-26T14:38:51.999Z</time></trkpt><trkpt lat="44.81233295116645" lon="-1.1505779507500398"><ele>9.0</ele><time>2026-04-26T14:38:52.999Z</time></trkpt><trkpt lat="44.81243090314428" lon="-1.150576957824115"><ele>9.0</ele><time>2026-04-26T14:38:53.999Z</time></trkpt><trkpt lat="44.812503883801696" lon="-1.1505589684544548"><ele>9.0</ele><time>2026-04-26T14:38:54.999Z</time></trkpt><trkpt lat="44.812591754430215" lon="-1.1505602533833692"><ele>9.0</ele><time>2026-04-26T14:38:55.999Z</time></trkpt><trkpt lat="44.81265600887249" lon="-1.1505693945464786"><ele>9.0</ele><time>2026-04-26T14:38:56.999Z</time></trkpt><trkpt lat="44.812723132889595" lon="-1.150581620113851"><ele>9.0</ele><time>2026-04-26T14:38:57.999Z</time></trkpt><trkpt lat="44.8128358245755" lon="-1.1505598478624601"><ele>9.0</ele><time>2026-04-26T14:38:59.999Z</time></trkpt><trkpt lat="44.812935661377324" lon="-1.1505505914051681"><ele>9.6</ele><time>2026-04-26T14:39:02.999Z</time></trkpt><trkpt lat="44.81302083220918" lon="-1.1505530086035252"><ele>10.2</ele><time>2026-04-26T14:39:13.999Z</time></trkpt><trkpt lat="44.813002569664846" lon="-1.150641291086791"><ele>10.799999999999999</ele><time>2026-04-26T14:39:16.999Z</time></trkpt><trkpt lat="44.81292695135372" lon="-1.1505139217810516"><ele>11.4</ele><time>2026-04-26T14:39:19.998Z</time></trkpt><trkpt lat="44.812807178975554" lon="-1.1505515113078828"><ele>12.0</ele><time>2026-04-26T14:39:21.998Z</time></trkpt><trkpt lat="44.8127324707878" lon="-1.150578901675913"><ele>11.5</ele><time>2026-04-26T14:39:22.998Z</time></trkpt><trkpt lat="44.81263581516913" lon="-1.1505720366853953"><ele>11.0</ele><time>2026-04-26T14:39:23.998Z</time></trkpt><trkpt lat="44.81256127457166" lon="-1.150561241155804"><ele>10.5</ele><time>2026-04-26T14:39:24.998Z</time></trkpt><trkpt lat="44.81248271533824" lon="-1.1505504778337345"><ele>10.0</ele><time>2026-04-26T14:39:25.998Z</time></trkpt><trkpt lat="44.812400844126124" lon="-1.1505578913615848"><ele>9.5</ele><time>2026-04-26T14:39:26.998Z</time></trkpt><trkpt lat="44.812295128430875" lon="-1.1505676883444367"><ele>9.0</ele><time>2026-04-26T14:39:27.998Z</time></trkpt><trkpt lat="44.81219436591464" lon="-1.150564899977175"><ele>9.0</ele><time>2026-04-26T14:39:28.998Z</time></trkpt><trkpt lat="44.812124389971444" lon="-1.1505494057612562"><ele>9.0</ele><time>2026-04-26T14:39:29.998Z</time></trkpt><trkpt lat="44.81205210567619" lon="-1.150535143374107"><ele>9.0</ele><time>2026-04-26T14:39:30.998Z</time></trkpt><trkpt lat="44.81198796755334" lon="-1.150523305772844"><ele>9.0</ele><time>2026-04-26T14:39:31.998Z</time></trkpt><trkpt lat="44.81192784213488" lon="-1.1504215055146143"><ele>9.0</ele><time>2026-04-26T14:39:37.998Z</time></trkpt><trkpt lat="44.81188030883468" lon="-1.15025616736995"><ele>9.0</ele><time>2026-04-26T14:39:39.998Z</time></trkpt><trkpt lat="44.81184108222982" lon="-1.1501528876012976"><ele>8.8</ele><time>2026-04-26T14:39:40.998Z</time></trkpt><trkpt lat="44.81181091016316" lon="-1.150062512118715"><ele>8.600000000000001</ele><time>2026-04-26T14:39:41.998Z</time></trkpt><trkpt lat="44.8117881381649" lon="-1.1499792187475013"><ele>8.4</ele><time>2026-04-26T14:39:42.998Z</time></trkpt><trkpt lat="44.81175893104981" lon="-1.1498919306344488"><ele>8.200000000000001</ele><time>2026-04-26T14:39:43.998Z</time></trkpt><trkpt lat="44.811707104960064" lon="-1.1497422259319008"><ele>8.0</ele><time>2026-04-26T14:39:45.998Z</time></trkpt><trkpt lat="44.81167687124384" lon="-1.1495511713520221"><ele>8.5</ele><time>2026-04-26T14:39:47.998Z</time></trkpt><trkpt lat="44.8116505869838" lon="-1.1494562313402914"><ele>9.0</ele><time>2026-04-26T14:39:48.998Z</time></trkpt><trkpt lat="44.811602759899046" lon="-1.1493630991108446"><ele>9.5</ele><time>2026-04-26T14:39:49.998Z</time></trkpt><trkpt lat="44.81154956361692" lon="-1.1492751667116503"><ele>10.0</ele><time>2026-04-26T14:39:50.998Z</time></trkpt><trkpt lat="44.81151349295267" lon="-1.1491850285202794"><ele>10.5</ele><time>2026-04-26T14:39:51.998Z</time></trkpt><trkpt lat="44.8114831302499" lon="-1.149100374231723"><ele>11.0</ele><time>2026-04-26T14:39:52.998Z</time></trkpt><trkpt lat="44.81142390289803" lon="-1.14900008141389"><ele>11.166666666666666</ele><time>2026-04-26T14:39:53.998Z</time></trkpt><trkpt lat="44.81134721078417" lon="-1.1489484550224331"><ele>11.333333333333332</ele><time>2026-04-26T14:39:54.998Z</time></trkpt><trkpt lat="44.81127447432359" lon="-1.1488715958182574"><ele>11.5</ele><time>2026-04-26T14:39:55.998Z</time></trkpt><trkpt lat="44.811216026354124" lon="-1.1488322693310733"><ele>11.666666666666666</ele><time>2026-04-26T14:39:56.998Z</time></trkpt><trkpt lat="44.811149029248426" lon="-1.1488023120414281"><ele>11.833333333333334</ele><time>2026-04-26T14:39:57.998Z</time></trkpt><trkpt lat="44.811082416262416" lon="-1.1487639151170161"><ele>12.0</ele><time>2026-04-26T14:39:58.998Z</time></trkpt><trkpt lat="44.81099418261496" lon="-1.148689283280373"><ele>12.0</ele><time>2026-04-26T14:39:59.998Z</time></trkpt><trkpt lat="44.81089673493209" lon="-1.1485990679082778"><ele>12.0</ele><time>2026-04-26T14:40:00.998Z</time></trkpt><trkpt lat="44.81083836381379" lon="-1.1485386666673747"><ele>12.0</ele><time>2026-04-26T14:40:01.998Z</time></trkpt><trkpt lat="44.81078526447357" lon="-1.1484799300557802"><ele>12.0</ele><time>2026-04-26T14:40:02.998Z</time></trkpt><trkpt lat="44.8107111233469" lon="-1.1484270487865518"><ele>12.0</ele><time>2026-04-26T14:40:03.998Z</time></trkpt><trkpt lat="44.81064946358847" lon="-1.148388205333374"><ele>12.0</ele><time>2026-04-26T14:40:04.998Z</time></trkpt><trkpt lat="44.81057620586562" lon="-1.1482566384464634"><ele>12.2</ele><time>2026-04-26T14:40:06.998Z</time></trkpt><trkpt lat="44.810455814966986" lon="-1.1481921547130172"><ele>12.399999999999999</ele><time>2026-04-26T14:40:08.998Z</time></trkpt><trkpt lat="44.81035871073198" lon="-1.1481655721588748"><ele>12.600000000000001</ele><time>2026-04-26T14:40:09.998Z</time></trkpt><trkpt lat="44.81027347994417" lon="-1.1481195000174904"><ele>12.8</ele><time>2026-04-26T14:40:10.998Z</time></trkpt><trkpt lat="44.81020260136375" lon="-1.148079201876542"><ele>13.0</ele><time>2026-04-26T14:40:11.998Z</time></trkpt><trkpt lat="44.81013095558604" lon="-1.1480574447311107"><ele>13.0</ele><time>2026-04-26T14:40:12.998Z</time></trkpt><trkpt lat="44.81003894324067" lon="-1.147993051374772"><ele>13.0</ele><time>2026-04-26T14:40:14.999Z</time></trkpt><trkpt lat="44.80998087343564" lon="-1.147919793828917"><ele>13.0</ele><time>2026-04-26T14:40:16.999Z</time></trkpt><trkpt lat="44.810063781376044" lon="-1.1479923778051087"><ele>13.0</ele><time>2026-04-26T14:40:47.999Z</time></trkpt><trkpt lat="44.81014167247035" lon="-1.1480954282060816"><ele>13.0</ele><time>2026-04-26T14:40:49.999Z</time></trkpt><trkpt lat="44.81022104762899" lon="-1.1481123129594657"><ele>13.2</ele><time>2026-04-26T14:40:50.999Z</time></trkpt><trkpt lat="44.81029585281973" lon="-1.1481326403721384"><ele>13.4</ele><time>2026-04-26T14:40:51.999Z</time></trkpt><trkpt lat="44.8104086582961" lon="-1.148186034133459"><ele>13.599999999999998</ele><time>2026-04-26T14:40:52.999Z</time></trkpt><trkpt lat="44.81048461576826" lon="-1.1482328169960916"><ele>13.799999999999999</ele><time>2026-04-26T14:40:53.999Z</time></trkpt><trkpt lat="44.81057203370176" lon="-1.1482757712009257"><ele>14.0</ele><time>2026-04-26T14:40:55.999Z</time></trkpt><trkpt lat="44.81066784918287" lon="-1.1483896644336065"><ele>13.6</ele><time>2026-04-26T14:40:57.999Z</time></trkpt><trkpt lat="44.81074552102383" lon="-1.148501514614185"><ele>13.2</ele><time>2026-04-26T14:40:59.999Z</time></trkpt><trkpt lat="44.81082224101656" lon="-1.148551729881237"><ele>12.799999999999999</ele><time>2026-04-26T14:41:00.999Z</time></trkpt><trkpt lat="44.81092417368636" lon="-1.1486264729155575"><ele>12.399999999999999</ele><time>2026-04-26T14:41:01.999Z</time></trkpt><trkpt lat="44.8109891825035" lon="-1.1487054689314589"><ele>12.0</ele><time>2026-04-26T14:41:02.999Z</time></trkpt><trkpt lat="44.81108761848107" lon="-1.1487823486204227"><ele>12.0</ele><time>2026-04-26T14:41:04.999Z</time></trkpt><trkpt lat="44.81116134388043" lon="-1.1488161902521041"><ele>12.0</ele><time>2026-04-26T14:41:05.999Z</time></trkpt><trkpt lat="44.81122199053785" lon="-1.1488527477118766"><ele>12.0</ele><time>2026-04-26T14:41:06.999Z</time></trkpt><trkpt lat="44.81135454337097" lon="-1.14894496578102"><ele>12.0</ele><time>2026-04-26T14:41:08.999Z</time></trkpt><trkpt lat="44.811417808118016" lon="-1.1490221900120159"><ele>12.0</ele><time>2026-04-26T14:41:09.999Z</time></trkpt><trkpt lat="44.81147544653768" lon="-1.1491222302802206"><ele>11.833333333333334</ele><time>2026-04-26T14:41:10.999Z</time></trkpt><trkpt lat="44.81155331857128" lon="-1.1492688718625728"><ele>11.666666666666666</ele><time>2026-04-26T14:41:12.999Z</time></trkpt><trkpt lat="44.81158366621697" lon="-1.149366792594959"><ele>11.5</ele><time>2026-04-26T14:41:13.999Z</time></trkpt><trkpt lat="44.811622930378206" lon="-1.1494630422648624"><ele>11.333333333333332</ele><time>2026-04-26T14:41:14.999Z</time></trkpt><trkpt lat="44.811675191932615" lon="-1.1495479189361508"><ele>11.166666666666666</ele><time>2026-04-26T14:41:16.999Z</time></trkpt><trkpt lat="44.81161956716545" lon="-1.149468981131711"><ele>11.0</ele><time>2026-04-26T14:41:28.998Z</time></trkpt><trkpt lat="44.8115687158877" lon="-1.149347385837983"><ele>11.0</ele><time>2026-04-26T14:41:29.998Z</time></trkpt><trkpt lat="44.81150694088991" lon="-1.1492096244667132"><ele>11.0</ele><time>2026-04-26T14:41:30.998Z</time></trkpt><trkpt lat="44.81144363018979" lon="-1.149082107531818"><ele>11.0</ele><time>2026-04-26T14:41:31.998Z</time></trkpt><trkpt lat="44.81138427510433" lon="-1.14899969815438"><ele>11.0</ele><time>2026-04-26T14:41:32.998Z</time></trkpt><trkpt lat="44.81128026713011" lon="-1.1488487433202257"><ele>11.166666666666666</ele><time>2026-04-26T14:41:34.998Z</time></trkpt><trkpt lat="44.811201740296745" lon="-1.1488119851384713"><ele>11.333333333333332</ele><time>2026-04-26T14:41:35.998Z</time></trkpt><trkpt lat="44.81112027403923" lon="-1.1487770025982722"><ele>11.5</ele><time>2026-04-26T14:41:36.998Z</time></trkpt><trkpt lat="44.8110457396935" lon="-1.1487169926461127"><ele>11.666666666666666</ele><time>2026-04-26T14:41:37.998Z</time></trkpt><trkpt lat="44.810968080679906" lon="-1.148655546301056"><ele>11.833333333333334</ele><time>2026-04-26T14:41:38.998Z</time></trkpt><trkpt lat="44.81091805885753" lon="-1.1485992527710025"><ele>12.0</ele><time>2026-04-26T14:41:39.998Z</time></trkpt><trkpt lat="44.81085292834744" lon="-1.1485419571407691"><ele>12.0</ele><time>2026-04-26T14:41:40.998Z</time></trkpt><trkpt lat="44.810750673121234" lon="-1.1484590265288521"><ele>12.0</ele><time>2026-04-26T14:41:42.998Z</time></trkpt><trkpt lat="44.81065212101578" lon="-1.1483871401375114"><ele>12.0</ele><time>2026-04-26T14:41:44.998Z</time></trkpt><trkpt lat="44.81057383414107" lon="-1.1482592064887231"><ele>12.0</ele><time>2026-04-26T14:41:46.998Z</time></trkpt><trkpt lat="44.81046181826433" lon="-1.1482116809144263"><ele>12.166666666666666</ele><time>2026-04-26T14:41:48.998Z</time></trkpt><trkpt lat="44.81038424878795" lon="-1.1481785865930332"><ele>12.333333333333332</ele><time>2026-04-26T14:41:49.998Z</time></trkpt><trkpt lat="44.81030828294033" lon="-1.1481310718090543"><ele>12.5</ele><time>2026-04-26T14:41:50.998Z</time></trkpt><trkpt lat="44.8102249000803" lon="-1.1480720429802966"><ele>12.666666666666666</ele><time>2026-04-26T14:41:51.998Z</time></trkpt><trkpt lat="44.810151116822595" lon="-1.1480580648319407"><ele>12.833333333333332</ele><time>2026-04-26T14:41:52.998Z</time></trkpt><trkpt lat="44.810088152384665" lon="-1.1480504374060405"><ele>13.0</ele><time>2026-04-26T14:41:53.998Z</time></trkpt><trkpt lat="44.81003385103672" lon="-1.1480045467321278"><ele>12.999999999999998</ele><time>2026-04-26T14:41:54.998Z</time></trkpt><trkpt lat="44.80996936795949" lon="-1.1479295477148201"><ele>13.0</ele><time>2026-04-26T14:41:55.998Z</time></trkpt><trkpt lat="44.809918320590846" lon="-1.1478430707480254"><ele>13.0</ele><time>2026-04-26T14:41:56.998Z</time></trkpt><trkpt lat="44.809887001885286" lon="-1.1477241975579273"><ele>13.0</ele><time>2026-04-26T14:41:57.998Z</time></trkpt><trkpt lat="44.80983894440156" lon="-1.1475897211115764"><ele>12.999999999999998</ele><time>2026-04-26T14:41:58.998Z</time></trkpt><trkpt lat="44.80981002754296" lon="-1.1474973444285501"><ele>13.0</ele><time>2026-04-26T14:41:59.998Z</time></trkpt><trkpt lat="44.80977399958283" lon="-1.1473507378460754"><ele>13.4</ele><time>2026-04-26T14:42:01.998Z</time></trkpt><trkpt lat="44.80975872855386" lon="-1.1471925532439076"><ele>13.8</ele><time>2026-04-26T14:42:03.998Z</time></trkpt><trkpt lat="44.80972704426609" lon="-1.1470822038755313"><ele>14.2</ele><time>2026-04-26T14:42:04.998Z</time></trkpt><trkpt lat="44.80968038832773" lon="-1.1469602885080883"><ele>14.6</ele><time>2026-04-26T14:42:05.998Z</time></trkpt><trkpt lat="44.809622181367416" lon="-1.146831109320064"><ele>15.0</ele><time>2026-04-26T14:42:06.998Z</time></trkpt><trkpt lat="44.80957473380165" lon="-1.1467133238213294"><ele>15.0</ele><time>2026-04-26T14:42:07.998Z</time></trkpt><trkpt lat="44.809534958608985" lon="-1.146592393577804"><ele>15.0</ele><time>2026-04-26T14:42:08.998Z</time></trkpt><trkpt lat="44.80949987762513" lon="-1.1464946792795048"><ele>15.0</ele><time>2026-04-26T14:42:09.998Z</time></trkpt><trkpt lat="44.809473896712106" lon="-1.1464010802009845"><ele>15.0</ele><time>2026-04-26T14:42:10.998Z</time></trkpt><trkpt lat="44.80943062462376" lon="-1.1463189394517166"><ele>15.0</ele><time>2026-04-26T14:42:11.998Z</time></trkpt><trkpt lat="44.80935914131546" lon="-1.1462406553240179"><ele>15.0</ele><time>2026-04-26T14:42:12.998Z</time></trkpt><trkpt lat="44.80929642827809" lon="-1.1461745880812477"><ele>14.6</ele><time>2026-04-26T14:42:13.998Z</time></trkpt><trkpt lat="44.80924710995991" lon="-1.1460834011643843"><ele>14.2</ele><time>2026-04-26T14:42:14.998Z</time></trkpt><trkpt lat="44.80920655359787" lon="-1.1459737973869049"><ele>13.8</ele><time>2026-04-26T14:42:15.998Z</time></trkpt><trkpt lat="44.80915679984997" lon="-1.1458586020495576"><ele>13.4</ele><time>2026-04-26T14:42:16.998Z</time></trkpt><trkpt lat="44.809103504925574" lon="-1.1457576344383797"><ele>13.0</ele><time>2026-04-26T14:42:17.998Z</time></trkpt><trkpt lat="44.80902653005988" lon="-1.1456535569051025"><ele>12.999999999999998</ele><time>2026-04-26T14:42:20Z</time></trkpt><trkpt lat="44.80892581053682" lon="-1.1456571304501493"><ele>13.0</ele><time>2026-04-26T14:42:22Z</time></trkpt><trkpt lat="44.80884635560583" lon="-1.1456686841051793"><ele>13.0</ele><time>2026-04-26T14:42:23Z</time></trkpt><trkpt lat="44.80876165667878" lon="-1.1456817224301392"><ele>13.0</ele><time>2026-04-26T14:42:24Z</time></trkpt><trkpt lat="44.808670243946544" lon="-1.1456760731087012"><ele>12.999999999999998</ele><time>2026-04-26T14:42:25Z</time></trkpt><trkpt lat="44.80859526488491" lon="-1.1456653545517461"><ele>13.0</ele><time>2026-04-26T14:42:26Z</time></trkpt><trkpt lat="44.80849616169854" lon="-1.1456465152582598"><ele>12.8</ele><time>2026-04-26T14:42:27Z</time></trkpt><trkpt lat="44.80840835080976" lon="-1.1456440085879116"><ele>12.600000000000001</ele><time>2026-04-26T14:42:28Z</time></trkpt><trkpt lat="44.80830739570182" lon="-1.145605358487101"><ele>12.399999999999999</ele><time>2026-04-26T14:42:30Z</time></trkpt><trkpt lat="44.80823479230595" lon="-1.1455042730028755"><ele>12.2</ele><time>2026-04-26T14:42:32Z</time></trkpt><trkpt lat="44.8082254685611" lon="-1.1453286230785333"><ele>12.0</ele><time>2026-04-26T14:42:34Z</time></trkpt><trkpt lat="44.808230620103565" lon="-1.1452341268665855"><ele>12.0</ele><time>2026-04-26T14:42:35Z</time></trkpt><trkpt lat="44.80826147374156" lon="-1.1451236234987894"><ele>12.0</ele><time>2026-04-26T14:42:37Z</time></trkpt><trkpt lat="44.80826205991599" lon="-1.14503196624199"><ele>12.0</ele><time>2026-04-26T14:42:38.999Z</time></trkpt><trkpt lat="44.808267375853525" lon="-1.1449274524550943"><ele>12.0</ele><time>2026-04-26T14:42:42.999Z</time></trkpt><trkpt lat="44.808322409908186" lon="-1.1448466794385284"><ele>12.0</ele><time>2026-04-26T14:42:46.999Z</time></trkpt><trkpt lat="44.80838508907009" lon="-1.1448328138201567"><ele>12.0</ele><time>2026-04-26T14:42:49.999Z</time></trkpt><trkpt lat="44.80847564823552" lon="-1.1447528816693984"><ele>12.5</ele><time>2026-04-26T14:42:51.999Z</time></trkpt><trkpt lat="44.808542271433296" lon="-1.1447204797929336"><ele>13.0</ele><time>2026-04-26T14:42:54.999Z</time></trkpt><trkpt lat="44.8086280030043" lon="-1.1447175378314673"><ele>13.5</ele><time>2026-04-26T14:42:56.999Z</time></trkpt><trkpt lat="44.80869184554571" lon="-1.1447476637122287"><ele>14.0</ele><time>2026-04-26T14:42:57.999Z</time></trkpt><trkpt lat="44.80877241901017" lon="-1.1447863243140268"><ele>14.5</ele><time>2026-04-26T14:42:58.999Z</time></trkpt><trkpt lat="44.8088541353949" lon="-1.1448208717707085"><ele>15.0</ele><time>2026-04-26T14:42:59.999Z</time></trkpt><trkpt lat="44.808919609982574" lon="-1.1448361916804137"><ele>15.0</ele><time>2026-04-26T14:43:00.999Z</time></trkpt><trkpt lat="44.8089994124939" lon="-1.1448496971652913"><ele>15.0</ele><time>2026-04-26T14:43:01.999Z</time></trkpt><trkpt lat="44.8090977490019" lon="-1.144858271331003"><ele>15.0</ele><time>2026-04-26T14:43:02.999Z</time></trkpt><trkpt lat="44.809185124801985" lon="-1.1448615839322271"><ele>15.0</ele><time>2026-04-26T14:43:03.999Z</time></trkpt><trkpt lat="44.80927485829498" lon="-1.1448710695796398"><ele>15.0</ele><time>2026-04-26T14:43:04.999Z</time></trkpt><trkpt lat="44.80942078818967" lon="-1.1448854751905608"><ele>14.6</ele><time>2026-04-26T14:43:06.999Z</time></trkpt><trkpt lat="44.80951340460109" lon="-1.144891539775124"><ele>14.2</ele><time>2026-04-26T14:43:07.999Z</time></trkpt><trkpt lat="44.80960417180627" lon="-1.1449034066636916"><ele>13.8</ele><time>2026-04-26T14:43:08.999Z</time></trkpt><trkpt lat="44.80969816089146" lon="-1.1449112188141874"><ele>13.4</ele><time>2026-04-26T14:43:09.999Z</time></trkpt><trkpt lat="44.80978940905016" lon="-1.1449142759910131"><ele>13.0</ele><time>2026-04-26T14:43:10.999Z</time></trkpt><trkpt lat="44.809883679076904" lon="-1.1449181032935873"><ele>13.0</ele><time>2026-04-26T14:43:11.999Z</time></trkpt><trkpt lat="44.80995258403822" lon="-1.1449307667930875"><ele>13.0</ele><time>2026-04-26T14:43:12.999Z</time></trkpt><trkpt lat="44.810106843252576" lon="-1.1449499689630103"><ele>13.0</ele><time>2026-04-26T14:43:14.999Z</time></trkpt><trkpt lat="44.81024699329906" lon="-1.144955783387932"><ele>13.0</ele><time>2026-04-26T14:43:15.999Z</time></trkpt><trkpt lat="44.81035151525168" lon="-1.1449633710301477"><ele>12.833333333333332</ele><time>2026-04-26T14:43:16.999Z</time></trkpt><trkpt lat="44.81043182904854" lon="-1.1449711694278777"><ele>12.666666666666666</ele><time>2026-04-26T14:43:17.999Z</time></trkpt><trkpt lat="44.810511374292496" lon="-1.1449785352520219"><ele>12.5</ele><time>2026-04-26T14:43:18.999Z</time></trkpt><trkpt lat="44.810612354231154" lon="-1.144982922428301"><ele>12.333333333333332</ele><time>2026-04-26T14:43:19.999Z</time></trkpt><trkpt lat="44.81070126471907" lon="-1.1449876053315886"><ele>12.166666666666666</ele><time>2026-04-26T14:43:20.999Z</time></trkpt><trkpt lat="44.81079425068344" lon="-1.1449911151802246"><ele>12.0</ele><time>2026-04-26T14:43:21.999Z</time></trkpt><trkpt lat="44.810871311376225" lon="-1.1449979319487682"><ele>12.0</ele><time>2026-04-26T14:43:22.999Z</time></trkpt><trkpt lat="44.81095219749405" lon="-1.145008440626207"><ele>12.0</ele><time>2026-04-26T14:43:23.999Z</time></trkpt><trkpt lat="44.8110316868399" lon="-1.1450165203324332"><ele>12.0</ele><time>2026-04-26T14:43:24.999Z</time></trkpt><trkpt lat="44.81111693412451" lon="-1.145024854238297"><ele>12.0</ele><time>2026-04-26T14:43:25.999Z</time></trkpt><trkpt lat="44.81120232248301" lon="-1.145023944451164"><ele>12.0</ele><time>2026-04-26T14:43:26.999Z</time></trkpt><trkpt lat="44.81128712350202" lon="-1.1450302163149189"><ele>12.0</ele><time>2026-04-26T14:43:27.999Z</time></trkpt><trkpt lat="44.811352861777245" lon="-1.145036337648725"><ele>11.666666666666666</ele><time>2026-04-26T14:43:28.999Z</time></trkpt><trkpt lat="44.81144393441299" lon="-1.1450427076655079"><ele>11.333333333333334</ele><time>2026-04-26T14:43:29.999Z</time></trkpt><trkpt lat="44.811538193596775" lon="-1.1450468190110903"><ele>11.0</ele><time>2026-04-26T14:43:30.999Z</time></trkpt><trkpt lat="44.81160667509564" lon="-1.1450456945668996"><ele>10.666666666666668</ele><time>2026-04-26T14:43:31.999Z</time></trkpt><trkpt lat="44.81171101291174" lon="-1.1450361535166396"><ele>10.333333333333334</ele><time>2026-04-26T14:43:33.999Z</time></trkpt><trkpt lat="44.81178748175214" lon="-1.145000577674508"><ele>10.0</ele><time>2026-04-26T14:43:35.998Z</time></trkpt><trkpt lat="44.811857556814815" lon="-1.1449521468091342"><ele>9.75</ele><time>2026-04-26T14:43:37.998Z</time></trkpt><trkpt lat="44.81192789087444" lon="-1.1448210975418471"><ele>9.5</ele><time>2026-04-26T14:43:39.998Z</time></trkpt><trkpt lat="44.81202795533076" lon="-1.1447836954326753"><ele>9.25</ele><time>2026-04-26T14:43:41.998Z</time></trkpt><trkpt lat="44.81217081124232" lon="-1.144846808778953"><ele>9.0</ele><time>2026-04-26T14:43:43.998Z</time></trkpt><trkpt lat="44.81225600742288" lon="-1.1448282453113194"><ele>9.0</ele><time>2026-04-26T14:43:44.999Z</time></trkpt><trkpt lat="44.81232387336182" lon="-1.1447787925059696"><ele>9.0</ele><time>2026-04-26T14:43:45.999Z</time></trkpt><trkpt lat="44.81242796272535" lon="-1.1446979703263689"><ele>9.0</ele><time>2026-04-26T14:43:46.999Z</time></trkpt><trkpt lat="44.812584559670405" lon="-1.1446273929919526"><ele>9.0</ele><time>2026-04-26T14:43:47.999Z</time></trkpt><trkpt lat="44.812773929488735" lon="-1.1445290122654164"><ele>9.0</ele><time>2026-04-26T14:43:48.999Z</time></trkpt><trkpt lat="44.81299771903424" lon="-1.1444317427737527"><ele>9.0</ele><time>2026-04-26T14:43:49.999Z</time></trkpt><trkpt lat="44.81322434634788" lon="-1.1443477567602374"><ele>9.0</ele><time>2026-04-26T14:43:50.999Z</time></trkpt><trkpt lat="44.81346437084913" lon="-1.1442378676780383"><ele>9.0</ele><time>2026-04-26T14:43:51.999Z</time></trkpt><trkpt lat="44.81368638838903" lon="-1.1441337980057604"><ele>10.0</ele><time>2026-04-26T14:43:52.999Z</time></trkpt><trkpt lat="44.81393247308752" lon="-1.144016941648858"><ele>11.0</ele><time>2026-04-26T14:43:53.999Z</time></trkpt><trkpt lat="44.81421012935668" lon="-1.1439011027750448"><ele>11.0</ele><time>2026-04-26T14:43:54.999Z</time></trkpt><trkpt lat="44.814480664765846" lon="-1.143771577209412"><ele>11.0</ele><time>2026-04-26T14:43:55.999Z</time></trkpt><trkpt lat="44.814737305576784" lon="-1.1436804581212892"><ele>11.0</ele><time>2026-04-26T14:43:56.999Z</time></trkpt><trkpt lat="44.814970989288526" lon="-1.1435776616642699"><ele>11.0</ele><time>2026-04-26T14:43:57.999Z</time></trkpt><trkpt lat="44.81516985493071" lon="-1.1434787518317"><ele>10.666666666666666</ele><time>2026-04-26T14:43:58.999Z</time></trkpt><trkpt lat="44.81537100291652" lon="-1.1433924174971308"><ele>10.333333333333334</ele><time>2026-04-26T14:43:59.999Z</time></trkpt><trkpt lat="44.81553361839457" lon="-1.1433288760363145"><ele>10.0</ele><time>2026-04-26T14:44:00.999Z</time></trkpt><trkpt lat="44.815685601871515" lon="-1.143260252261599"><ele>10.0</ele><time>2026-04-26T14:44:01.999Z</time></trkpt><trkpt lat="44.81580569316446" lon="-1.1432243204665216"><ele>10.0</ele><time>2026-04-26T14:44:02.999Z</time></trkpt><trkpt lat="44.8159686464015" lon="-1.1432140979090555"><ele>10.0</ele><time>2026-04-26T14:44:03.999Z</time></trkpt><trkpt lat="44.81614296193095" lon="-1.1432228503056985"><ele>12.0</ele><time>2026-04-26T14:44:04.999Z</time></trkpt><trkpt lat="44.816348758870326" lon="-1.143231137539547"><ele>14.0</ele><time>2026-04-26T14:44:05.999Z</time></trkpt><trkpt lat="44.81662427933766" lon="-1.1432446838693184"><ele>14.5</ele><time>2026-04-26T14:44:06.999Z</time></trkpt><trkpt lat="44.81688685102578" lon="-1.143252272477451"><ele>15.0</ele><time>2026-04-26T14:44:07.999Z</time></trkpt><trkpt lat="44.817154927333355" lon="-1.143259277509653"><ele>15.0</ele><time>2026-04-26T14:44:08.999Z</time></trkpt><trkpt lat="44.817449847630535" lon="-1.1432767863858508"><ele>15.0</ele><time>2026-04-26T14:44:09.999Z</time></trkpt><trkpt lat="44.81771613769678" lon="-1.1432786019488808"><ele>14.5</ele><time>2026-04-26T14:44:10.999Z</time></trkpt><trkpt lat="44.81800861540551" lon="-1.1432819308392863"><ele>14.0</ele><time>2026-04-26T14:44:11.999Z</time></trkpt><trkpt lat="44.818313060377854" lon="-1.1432784062966876"><ele>13.5</ele><time>2026-04-26T14:44:12.999Z</time></trkpt><trkpt lat="44.81858987216339" lon="-1.143303032502143"><ele>13.0</ele><time>2026-04-26T14:44:13.999Z</time></trkpt><trkpt lat="44.81879363258192" lon="-1.1433176841145507"><ele>13.0</ele><time>2026-04-26T14:44:14.999Z</time></trkpt><trkpt lat="44.81897076409214" lon="-1.1433266056316338"><ele>13.0</ele><time>2026-04-26T14:44:15.999Z</time></trkpt><trkpt lat="44.81909855091819" lon="-1.1433313705999932"><ele>13.0</ele><time>2026-04-26T14:44:16.999Z</time></trkpt><trkpt lat="44.81919005283152" lon="-1.1433300778547835"><ele>13.0</ele><time>2026-04-26T14:44:17.999Z</time></trkpt><trkpt lat="44.81927330054065" lon="-1.1433318191021642"><ele>13.333333333333332</ele><time>2026-04-26T14:44:18.999Z</time></trkpt><trkpt lat="44.81935298998968" lon="-1.1433296807161433"><ele>13.666666666666666</ele><time>2026-04-26T14:44:19.999Z</time></trkpt><trkpt lat="44.81942586987512" lon="-1.1433206325422602"><ele>14.0</ele><time>2026-04-26T14:44:20.999Z</time></trkpt><trkpt lat="44.81949421892214" lon="-1.1433007779642272"><ele>14.333333333333332</ele><time>2026-04-26T14:44:21.999Z</time></trkpt><trkpt lat="44.81962807273358" lon="-1.1433094658699068"><ele>14.666666666666666</ele><time>2026-04-26T14:44:24.001Z</time></trkpt><trkpt lat="44.81970786795247" lon="-1.1433173714798461"><ele>15.0</ele><time>2026-04-26T14:44:25.001Z</time></trkpt><trkpt lat="44.819786861593684" lon="-1.1433369898134138"><ele>15.0</ele><time>2026-04-26T14:44:26.001Z</time></trkpt><trkpt lat="44.819854320069844" lon="-1.1433526724752536"><ele>15.0</ele><time>2026-04-26T14:44:27.001Z</time></trkpt><trkpt lat="44.819980608158254" lon="-1.1433702427424022"><ele>15.0</ele><time>2026-04-26T14:44:29.001Z</time></trkpt><trkpt lat="44.82008486911146" lon="-1.1433721364788232"><ele>15.0</ele><time>2026-04-26T14:44:31.001Z</time></trkpt><trkpt lat="44.82016213784247" lon="-1.1433557620991721"><ele>15.0</ele><time>2026-04-26T14:44:33.001Z</time></trkpt><trkpt lat="44.82027013456582" lon="-1.1433671530849274"><ele>14.8</ele><time>2026-04-26T14:44:40.001Z</time></trkpt><trkpt lat="44.82034967646705" lon="-1.143376203795043"><ele>14.6</ele><time>2026-04-26T14:44:41.001Z</time></trkpt><trkpt lat="44.820451975714846" lon="-1.1433763278130797"><ele>14.399999999999999</ele><time>2026-04-26T14:44:42.001Z</time></trkpt><trkpt lat="44.820554060613716" lon="-1.1433775438265876"><ele>14.2</ele><time>2026-04-26T14:44:43.001Z</time></trkpt><trkpt lat="44.820670296028354" lon="-1.143374741413536"><ele>14.0</ele><time>2026-04-26T14:44:44.001Z</time></trkpt><trkpt lat="44.82078654989401" lon="-1.1433753199162309"><ele>14.0</ele><time>2026-04-26T14:44:45Z</time></trkpt><trkpt lat="44.82097084337858" lon="-1.1433823007653954"><ele>14.0</ele><time>2026-04-26T14:44:46Z</time></trkpt><trkpt lat="44.821163715057146" lon="-1.1433881382520972"><ele>14.0</ele><time>2026-04-26T14:44:47Z</time></trkpt><trkpt lat="44.8213179906751" lon="-1.143393448007156"><ele>13.799999999999999</ele><time>2026-04-26T14:44:48Z</time></trkpt><trkpt lat="44.8214466858293" lon="-1.1433969047676436"><ele>13.599999999999998</ele><time>2026-04-26T14:44:49Z</time></trkpt><trkpt lat="44.82156209356712" lon="-1.1433967007705597"><ele>13.4</ele><time>2026-04-26T14:44:50Z</time></trkpt><trkpt lat="44.82165816642778" lon="-1.1434013607509832"><ele>13.2</ele><time>2026-04-26T14:44:51Z</time></trkpt><trkpt lat="44.821764555710196" lon="-1.1434063396949412"><ele>13.0</ele><time>2026-04-26T14:44:52Z</time></trkpt><trkpt lat="44.82187908428193" lon="-1.1434120444155793"><ele>12.8</ele><time>2026-04-26T14:44:53Z</time></trkpt><trkpt lat="44.821979386090405" lon="-1.1434119302110948"><ele>12.600000000000001</ele><time>2026-04-26T14:44:54Z</time></trkpt><trkpt lat="44.822094524285774" lon="-1.1434168116960537"><ele>12.399999999999999</ele><time>2026-04-26T14:44:55Z</time></trkpt><trkpt lat="44.822204112118705" lon="-1.1434224851426769"><ele>12.2</ele><time>2026-04-26T14:44:56Z</time></trkpt><trkpt lat="44.82229753104539" lon="-1.14342563015156"><ele>12.0</ele><time>2026-04-26T14:44:57Z</time></trkpt><trkpt lat="44.8223828308656" lon="-1.1434335768368558"><ele>12.0</ele><time>2026-04-26T14:44:58Z</time></trkpt><trkpt lat="44.822459238164264" lon="-1.143438621365604"><ele>12.0</ele><time>2026-04-26T14:44:59Z</time></trkpt><trkpt lat="44.82252783109571" lon="-1.1434374793103286"><ele>12.0</ele><time>2026-04-26T14:45:00Z</time></trkpt><trkpt lat="44.822617550429534" lon="-1.1434184623956378"><ele>12.0</ele><time>2026-04-26T14:45:02Z</time></trkpt><trkpt lat="44.822664274690176" lon="-1.143347835251515"><ele>12.0</ele><time>2026-04-26T14:45:04Z</time></trkpt><trkpt lat="44.82268832626876" lon="-1.1432128679503697"><ele>12.0</ele><time>2026-04-26T14:45:06Z</time></trkpt><trkpt lat="44.82269221439476" lon="-1.1430995772126975"><ele>12.166666666666666</ele><time>2026-04-26T14:45:07Z</time></trkpt><trkpt lat="44.82269249258618" lon="-1.1429834720604133"><ele>12.333333333333332</ele><time>2026-04-26T14:45:08Z</time></trkpt><trkpt lat="44.82269632205602" lon="-1.1428439487164075"><ele>12.5</ele><time>2026-04-26T14:45:09Z</time></trkpt><trkpt lat="44.82270802063634" lon="-1.142726909120231"><ele>12.666666666666666</ele><time>2026-04-26T14:45:10Z</time></trkpt><trkpt lat="44.82271750655804" lon="-1.142608070258109"><ele>12.833333333333332</ele><time>2026-04-26T14:45:11Z</time></trkpt><trkpt lat="44.8227241138226" lon="-1.142479902023846"><ele>13.0</ele><time>2026-04-26T14:45:12Z</time></trkpt><trkpt lat="44.82273382407531" lon="-1.14235106408313"><ele>13.0</ele><time>2026-04-26T14:45:13Z</time></trkpt><trkpt lat="44.82274150173692" lon="-1.1422385842921392"><ele>13.0</ele><time>2026-04-26T14:45:14Z</time></trkpt><trkpt lat="44.822753466573545" lon="-1.142100146538598"><ele>13.0</ele><time>2026-04-26T14:45:15Z</time></trkpt><trkpt lat="44.822763826262175" lon="-1.1419783105332313"><ele>13.0</ele><time>2026-04-26T14:45:16Z</time></trkpt><trkpt lat="44.82276969511536" lon="-1.1418568744459312"><ele>13.0</ele><time>2026-04-26T14:45:17Z</time></trkpt><trkpt lat="44.8227777269656" lon="-1.1417041215934487"><ele>12.999999999999998</ele><time>2026-04-26T14:45:18Z</time></trkpt><trkpt lat="44.82278532675514" lon="-1.1415960313503402"><ele>13.0</ele><time>2026-04-26T14:45:19Z</time></trkpt><trkpt lat="44.822797406893805" lon="-1.1414824045278325"><ele>13.0</ele><time>2026-04-26T14:45:20Z</time></trkpt><trkpt lat="44.822803739376226" lon="-1.14135439333404"><ele>13.0</ele><time>2026-04-26T14:45:21Z</time></trkpt><trkpt lat="44.82281329470954" lon="-1.1412439556982956"><ele>12.999999999999998</ele><time>2026-04-26T14:45:22Z</time></trkpt><trkpt lat="44.82284173440759" lon="-1.1410831315088177"><ele>13.0</ele><time>2026-04-26T14:45:24Z</time></trkpt><trkpt lat="44.82290418772366" lon="-1.1410253945481483"><ele>13.4</ele><time>2026-04-26T14:45:26Z</time></trkpt><trkpt lat="44.82301364363056" lon="-1.1410831842868512"><ele>13.8</ele><time>2026-04-26T14:45:28Z</time></trkpt><trkpt lat="44.82308415837093" lon="-1.1411485138209119"><ele>14.2</ele><time>2026-04-26T14:45:29Z</time></trkpt><trkpt lat="44.823147056448335" lon="-1.141220544945197"><ele>14.6</ele><time>2026-04-26T14:45:30Z</time></trkpt><trkpt lat="44.82324365450907" lon="-1.1413232877561463"><ele>15.0</ele><time>2026-04-26T14:45:31Z</time></trkpt><trkpt lat="44.82336202416578" lon="-1.1414364466387903"><ele>15.333333333333332</ele><time>2026-04-26T14:45:32Z</time></trkpt><trkpt lat="44.823491722929994" lon="-1.141562828503317"><ele>15.666666666666666</ele><time>2026-04-26T14:45:33Z</time></trkpt><trkpt lat="44.82363766948745" lon="-1.1416884710995752"><ele>16.0</ele><time>2026-04-26T14:45:34Z</time></trkpt><trkpt lat="44.82375688800399" lon="-1.1418080621957125"><ele>16.0</ele><time>2026-04-26T14:45:35Z</time></trkpt><trkpt lat="44.823879346958485" lon="-1.1419135163508418"><ele>16.0</ele><time>2026-04-26T14:45:36Z</time></trkpt><trkpt lat="44.82399649249288" lon="-1.1420053818904539"><ele>16.0</ele><time>2026-04-26T14:45:37Z</time></trkpt><trkpt lat="44.82409390501291" lon="-1.1421104243001858"><ele>16.0</ele><time>2026-04-26T14:45:38Z</time></trkpt><trkpt lat="44.82419796485475" lon="-1.1422420183841764"><ele>15.5</ele><time>2026-04-26T14:45:38.999Z</time></trkpt><trkpt lat="44.82431552854052" lon="-1.1423427015258854"><ele>15.0</ele><time>2026-04-26T14:45:39.999Z</time></trkpt><trkpt lat="44.824421657819606" lon="-1.1424322941246006"><ele>14.5</ele><time>2026-04-26T14:45:40.999Z</time></trkpt><trkpt lat="44.82452948777682" lon="-1.1425424586942334"><ele>14.0</ele><time>2026-04-26T14:45:41.999Z</time></trkpt><trkpt lat="44.82463951617866" lon="-1.142662937447701"><ele>14.0</ele><time>2026-04-26T14:45:42.999Z</time></trkpt><trkpt lat="44.824752517871445" lon="-1.1427478537365203"><ele>14.0</ele><time>2026-04-26T14:45:43.999Z</time></trkpt><trkpt lat="44.82487142187229" lon="-1.1428309026906205"><ele>14.0</ele><time>2026-04-26T14:45:44.999Z</time></trkpt><trkpt lat="44.82498050405477" lon="-1.1429170258630221"><ele>14.0</ele><time>2026-04-26T14:45:45.999Z</time></trkpt><trkpt lat="44.825085343855974" lon="-1.1430175008587433"><ele>14.0</ele><time>2026-04-26T14:45:46.999Z</time></trkpt><trkpt lat="44.82517718781386" lon="-1.1431152502093445"><ele>14.0</ele><time>2026-04-26T14:45:47.999Z</time></trkpt><trkpt lat="44.825285184665475" lon="-1.1432157733650743"><ele>14.0</ele><time>2026-04-26T14:45:48.999Z</time></trkpt><trkpt lat="44.82543260363647" lon="-1.143344997750575"><ele>14.0</ele><time>2026-04-26T14:45:49.999Z</time></trkpt><trkpt lat="44.82554255772038" lon="-1.1434433106888058"><ele>14.0</ele><time>2026-04-26T14:45:50.999Z</time></trkpt><trkpt lat="44.82564757448727" lon="-1.1435298975359462"><ele>14.0</ele><time>2026-04-26T14:45:51.999Z</time></trkpt><trkpt lat="44.825736973649676" lon="-1.1436056587268912"><ele>14.0</ele><time>2026-04-26T14:45:52.999Z</time></trkpt><trkpt lat="44.825854434624425" lon="-1.1436960012713915"><ele>14.0</ele><time>2026-04-26T14:45:53.999Z</time></trkpt><trkpt lat="44.825991467900316" lon="-1.1438207355832275"><ele>14.0</ele><time>2026-04-26T14:45:54.999Z</time></trkpt><trkpt lat="44.826124717258644" lon="-1.143945840701955"><ele>14.0</ele><time>2026-04-26T14:45:55.999Z</time></trkpt><trkpt lat="44.82624037120011" lon="-1.144055488283325"><ele>14.0</ele><time>2026-04-26T14:45:56.999Z</time></trkpt><trkpt lat="44.82634377525848" lon="-1.144148825020116"><ele>14.0</ele><time>2026-04-26T14:45:57.999Z</time></trkpt><trkpt lat="44.82646544932741" lon="-1.1442609954990202"><ele>14.0</ele><time>2026-04-26T14:45:58.999Z</time></trkpt><trkpt lat="44.826560344109936" lon="-1.1443369890015327"><ele>13.999999999999998</ele><time>2026-04-26T14:45:59.999Z</time></trkpt><trkpt lat="44.82663753604096" lon="-1.1443973160508232"><ele>13.999999999999998</ele><time>2026-04-26T14:46:00.999Z</time></trkpt><trkpt lat="44.82669945389907" lon="-1.1444542581490698"><ele>14.0</ele><time>2026-04-26T14:46:01.999Z</time></trkpt><trkpt lat="44.826800330337186" lon="-1.1445439740072292"><ele>14.0</ele><time>2026-04-26T14:46:03.999Z</time></trkpt><trkpt lat="44.82689902966572" lon="-1.144624766492462"><ele>14.2</ele><time>2026-04-26T14:46:05.999Z</time></trkpt><trkpt lat="44.826985073085254" lon="-1.1447162617174453"><ele>14.399999999999999</ele><time>2026-04-26T14:46:07.999Z</time></trkpt><trkpt lat="44.82708589556175" lon="-1.1447273820687347"><ele>14.6</ele><time>2026-04-26T14:46:09.999Z</time></trkpt><trkpt lat="44.82719789849876" lon="-1.1446658886435759"><ele>14.8</ele><time>2026-04-26T14:46:11.999Z</time></trkpt><trkpt lat="44.827280818868125" lon="-1.144646887483575"><ele>15.0</ele><time>2026-04-26T14:46:12.999Z</time></trkpt><trkpt lat="44.827375227182785" lon="-1.144650209043736"><ele>15.0</ele><time>2026-04-26T14:46:13.999Z</time></trkpt><trkpt lat="44.827471311154014" lon="-1.1446704506476513"><ele>15.0</ele><time>2026-04-26T14:46:14.999Z</time></trkpt><trkpt lat="44.827592556065625" lon="-1.1447095786859114"><ele>15.0</ele><time>2026-04-26T14:46:15.999Z</time></trkpt><trkpt lat="44.827718412793814" lon="-1.1447264051630097"><ele>15.0</ele><time>2026-04-26T14:46:16.999Z</time></trkpt><trkpt lat="44.82784495784205" lon="-1.1447200923353735"><ele>15.75</ele><time>2026-04-26T14:46:17.999Z</time></trkpt><trkpt lat="44.8279530106251" lon="-1.144712190015821"><ele>16.5</ele><time>2026-04-26T14:46:18.999Z</time></trkpt><trkpt lat="44.828094826905996" lon="-1.1447275041544733"><ele>17.25</ele><time>2026-04-26T14:46:20.999Z</time></trkpt><trkpt lat="44.82819272674347" lon="-1.1445804522484704"><ele>18.0</ele><time>2026-04-26T14:46:22.999Z</time></trkpt><trkpt lat="44.8282356685716" lon="-1.144473539948685"><ele>18.0</ele><time>2026-04-26T14:46:23.999Z</time></trkpt><trkpt lat="44.82827708063559" lon="-1.144310666099731"><ele>18.0</ele><time>2026-04-26T14:46:24.999Z</time></trkpt><trkpt lat="44.828312105843324" lon="-1.1441610705780612"><ele>18.0</ele><time>2026-04-26T14:46:25.999Z</time></trkpt><trkpt lat="44.82837895319334" lon="-1.1439857336305186"><ele>18.0</ele><time>2026-04-26T14:46:26.999Z</time></trkpt><trkpt lat="44.82844648792065" lon="-1.143842857973195"><ele>18.0</ele><time>2026-04-26T14:46:27.999Z</time></trkpt><trkpt lat="44.8284748206316" lon="-1.14368884001113"><ele>18.0</ele><time>2026-04-26T14:46:28.999Z</time></trkpt><trkpt lat="44.828486608896725" lon="-1.143573909099821"><ele>18.0</ele><time>2026-04-26T14:46:30.001Z</time></trkpt><trkpt lat="44.828502744435625" lon="-1.1434492938815615"><ele>18.0</ele><time>2026-04-26T14:46:31.001Z</time></trkpt><trkpt lat="44.82854726624226" lon="-1.143335836936972"><ele>18.0</ele><time>2026-04-26T14:46:32.001Z</time></trkpt><trkpt lat="44.82859444187172" lon="-1.1432456328063187"><ele>18.0</ele><time>2026-04-26T14:46:33.001Z</time></trkpt><trkpt lat="44.82866126385331" lon="-1.1431371753459536"><ele>18.0</ele><time>2026-04-26T14:46:34.001Z</time></trkpt><trkpt lat="44.82874854558253" lon="-1.1429896492162177"><ele>18.0</ele><time>2026-04-26T14:46:36.001Z</time></trkpt><trkpt lat="44.82883527064348" lon="-1.14291390771176"><ele>18.0</ele><time>2026-04-26T14:46:38.001Z</time></trkpt><trkpt lat="44.82892705820568" lon="-1.1428976148815007"><ele>18.0</ele><time>2026-04-26T14:46:39.001Z</time></trkpt><trkpt lat="44.82902171443441" lon="-1.1429036168811828"><ele>18.0</ele><time>2026-04-26T14:46:40.001Z</time></trkpt><trkpt lat="44.82909837548129" lon="-1.1429305355270463"><ele>18.0</ele><time>2026-04-26T14:46:41.001Z</time></trkpt><trkpt lat="44.82918309580956" lon="-1.142992771255102"><ele>18.0</ele><time>2026-04-26T14:46:42.001Z</time></trkpt><trkpt lat="44.829268803332134" lon="-1.1430574784891823"><ele>18.0</ele><time>2026-04-26T14:46:43.001Z</time></trkpt><trkpt lat="44.82936250840813" lon="-1.143085265896028"><ele>18.0</ele><time>2026-04-26T14:46:44.001Z</time></trkpt><trkpt lat="44.82945036592409" lon="-1.1430922434186022"><ele>17.666666666666668</ele><time>2026-04-26T14:46:45.001Z</time></trkpt><trkpt lat="44.82954332449611" lon="-1.1430928237938522"><ele>17.333333333333332</ele><time>2026-04-26T14:46:46.001Z</time></trkpt><trkpt lat="44.829615765485585" lon="-1.1431375423612324"><ele>17.0</ele><time>2026-04-26T14:46:47.001Z</time></trkpt><trkpt lat="44.82966358650111" lon="-1.1432156163343876"><ele>16.666666666666664</ele><time>2026-04-26T14:46:48.001Z</time></trkpt><trkpt lat="44.82970213775959" lon="-1.143323691616374"><ele>16.333333333333332</ele><time>2026-04-26T14:46:49Z</time></trkpt><trkpt lat="44.82972371652876" lon="-1.1434550436188606"><ele>16.0</ele><time>2026-04-26T14:46:50Z</time></trkpt><trkpt lat="44.82972501626774" lon="-1.1435837085932914"><ele>16.0</ele><time>2026-04-26T14:46:51Z</time></trkpt><trkpt lat="44.829736200589736" lon="-1.1437775053692176"><ele>16.0</ele><time>2026-04-26T14:46:52Z</time></trkpt><trkpt lat="44.82974048181832" lon="-1.1439386719328577"><ele>16.0</ele><time>2026-04-26T14:46:53Z</time></trkpt><trkpt lat="44.82975619044725" lon="-1.1440761814011218"><ele>16.0</ele><time>2026-04-26T14:46:54Z</time></trkpt><trkpt lat="44.82976803778023" lon="-1.1441828154062028"><ele>16.0</ele><time>2026-04-26T14:46:55Z</time></trkpt><trkpt lat="44.8297815374721" lon="-1.144292332217403"><ele>16.0</ele><time>2026-04-26T14:46:56Z</time></trkpt><trkpt lat="44.8297910547162" lon="-1.1443997382970936"><ele>16.0</ele><time>2026-04-26T14:46:57Z</time></trkpt><trkpt lat="44.829859454659" lon="-1.1445075338485953"><ele>16.0</ele><time>2026-04-26T14:46:59Z</time></trkpt><trkpt lat="44.829925499225" lon="-1.1444969259236963"><ele>16.0</ele><time>2026-04-26T14:47:00Z</time></trkpt><trkpt lat="44.83000548487331" lon="-1.1444661187620764"><ele>16.0</ele><time>2026-04-26T14:47:01Z</time></trkpt><trkpt lat="44.83012227661216" lon="-1.1444216389401043"><ele>15.25</ele><time>2026-04-26T14:47:02Z</time></trkpt><trkpt lat="44.83023891712968" lon="-1.144408500350842"><ele>14.5</ele><time>2026-04-26T14:47:03Z</time></trkpt><trkpt lat="44.830347453809964" lon="-1.144394359543637"><ele>13.75</ele><time>2026-04-26T14:47:04Z</time></trkpt><trkpt lat="44.830455955110025" lon="-1.1443244695692374"><ele>13.0</ele><time>2026-04-26T14:47:05Z</time></trkpt><trkpt lat="44.83057275633396" lon="-1.1442547799151077"><ele>13.0</ele><time>2026-04-26T14:47:06Z</time></trkpt><trkpt lat="44.830707386581345" lon="-1.1441791034306914"><ele>13.0</ele><time>2026-04-26T14:47:07Z</time></trkpt><trkpt lat="44.83087685768358" lon="-1.1441210451780013"><ele>13.0</ele><time>2026-04-26T14:47:08Z</time></trkpt><trkpt lat="44.83104192876188" lon="-1.1441114182311334"><ele>13.333333333333332</ele><time>2026-04-26T14:47:09Z</time></trkpt><trkpt lat="44.83121382233555" lon="-1.1440892175843052"><ele>13.666666666666668</ele><time>2026-04-26T14:47:10Z</time></trkpt><trkpt lat="44.831376304364376" lon="-1.1440748945944275"><ele>14.0</ele><time>2026-04-26T14:47:11Z</time></trkpt><trkpt lat="44.83150662727691" lon="-1.1440366652437637"><ele>14.666666666666668</ele><time>2026-04-26T14:47:12Z</time></trkpt><trkpt lat="44.83160397458056" lon="-1.1440131057844476"><ele>15.333333333333332</ele><time>2026-04-26T14:47:13Z</time></trkpt><trkpt lat="44.831946908506545" lon="-1.1439940260361119"><ele>16.0</ele><time>2026-04-26T14:47:14Z</time></trkpt><trkpt lat="44.832097257075475" lon="-1.1439765833858273"><ele>16.0</ele><time>2026-04-26T14:47:15Z</time></trkpt><trkpt lat="44.83222370415345" lon="-1.1439532903360845"><ele>16.0</ele><time>2026-04-26T14:47:16Z</time></trkpt><trkpt lat="44.832327731244064" lon="-1.143937879333327"><ele>16.0</ele><time>2026-04-26T14:47:17Z</time></trkpt><trkpt lat="44.83242066754731" lon="-1.1439314749600444"><ele>16.0</ele><time>2026-04-26T14:47:18Z</time></trkpt><trkpt lat="44.83250709070025" lon="-1.1439382719569968"><ele>16.0</ele><time>2026-04-26T14:47:19Z</time></trkpt><trkpt lat="44.832575775421766" lon="-1.143940780384444"><ele>15.5</ele><time>2026-04-26T14:47:20Z</time></trkpt><trkpt lat="44.8326692402964" lon="-1.1438867042038894"><ele>15.0</ele><time>2026-04-26T14:47:22Z</time></trkpt><trkpt lat="44.83267809327062" lon="-1.1437161662524697"><ele>14.5</ele><time>2026-04-26T14:47:24Z</time></trkpt><trkpt lat="44.83266455746005" lon="-1.1435472369343356"><ele>14.0</ele><time>2026-04-26T14:47:25Z</time></trkpt><trkpt lat="44.83265440737366" lon="-1.1433532298130427"><ele>13.666666666666668</ele><time>2026-04-26T14:47:26Z</time></trkpt><trkpt lat="44.83264778808668" lon="-1.1431340837310084"><ele>13.333333333333332</ele><time>2026-04-26T14:47:27Z</time></trkpt><trkpt lat="44.83265783857913" lon="-1.1428938557528447"><ele>13.0</ele><time>2026-04-26T14:47:28Z</time></trkpt><trkpt lat="44.83265918534953" lon="-1.1426520722228635"><ele>13.0</ele><time>2026-04-26T14:47:29Z</time></trkpt><trkpt lat="44.83266461064011" lon="-1.1424212648359684"><ele>13.0</ele><time>2026-04-26T14:47:30Z</time></trkpt><trkpt lat="44.83267297782057" lon="-1.1421918306215666"><ele>13.0</ele><time>2026-04-26T14:47:31Z</time></trkpt><trkpt lat="44.83268082821729" lon="-1.1419265574629591"><ele>13.0</ele><time>2026-04-26T14:47:32Z</time></trkpt><trkpt lat="44.83269365491449" lon="-1.141681550214938"><ele>13.0</ele><time>2026-04-26T14:47:33Z</time></trkpt><trkpt lat="44.83268448272884" lon="-1.141442988836722"><ele>13.0</ele><time>2026-04-26T14:47:34Z</time></trkpt><trkpt lat="44.832702598150135" lon="-1.1411824939646544"><ele>13.0</ele><time>2026-04-26T14:47:35Z</time></trkpt><trkpt lat="44.83270218739748" lon="-1.1409362241502479"><ele>13.0</ele><time>2026-04-26T14:47:36Z</time></trkpt><trkpt lat="44.832703503981435" lon="-1.1407126943377324"><ele>13.0</ele><time>2026-04-26T14:47:37Z</time></trkpt><trkpt lat="44.832706572068496" lon="-1.1404665422336357"><ele>13.0</ele><time>2026-04-26T14:47:38Z</time></trkpt><trkpt lat="44.83271055787381" lon="-1.1402204211186882"><ele>13.0</ele><time>2026-04-26T14:47:39Z</time></trkpt><trkpt lat="44.83271427591471" lon="-1.1399752993192287"><ele>13.0</ele><time>2026-04-26T14:47:40Z</time></trkpt><trkpt lat="44.83271921842365" lon="-1.1397530686300688"><ele>13.0</ele><time>2026-04-26T14:47:40.999Z</time></trkpt><trkpt lat="44.832726747107955" lon="-1.139501775684702"><ele>13.0</ele><time>2026-04-26T14:47:41.999Z</time></trkpt><trkpt lat="44.83273175070664" lon="-1.1392622593697979"><ele>13.0</ele><time>2026-04-26T14:47:42.999Z</time></trkpt><trkpt lat="44.83273678151366" lon="-1.1390232724490326"><ele>13.0</ele><time>2026-04-26T14:47:43.999Z</time></trkpt><trkpt lat="44.832755643708694" lon="-1.138789253581996"><ele>13.0</ele><time>2026-04-26T14:47:44.999Z</time></trkpt><trkpt lat="44.83276679533632" lon="-1.1385664462085248"><ele>13.0</ele><time>2026-04-26T14:47:45.999Z</time></trkpt><trkpt lat="44.832767732167795" lon="-1.1383365524735347"><ele>13.0</ele><time>2026-04-26T14:47:46.999Z</time></trkpt><trkpt lat="44.83277351285234" lon="-1.138121406023015"><ele>13.0</ele><time>2026-04-26T14:47:47.999Z</time></trkpt><trkpt lat="44.832785015398294" lon="-1.1379086129601383"><ele>13.0</ele><time>2026-04-26T14:47:48.999Z</time></trkpt><trkpt lat="44.83278666443213" lon="-1.137691596266518"><ele>13.0</ele><time>2026-04-26T14:47:49.999Z</time></trkpt><trkpt lat="44.83277873496274" lon="-1.1374727531945785"><ele>13.0</ele><time>2026-04-26T14:47:50.999Z</time></trkpt><trkpt lat="44.8327812987728" lon="-1.1372858956507248"><ele>13.0</ele><time>2026-04-26T14:47:51.999Z</time></trkpt><trkpt lat="44.83279189432402" lon="-1.1371618721105876"><ele>13.0</ele><time>2026-04-26T14:47:52.999Z</time></trkpt><trkpt lat="44.83283576277271" lon="-1.1370317233093234"><ele>13.5</ele><time>2026-04-26T14:47:54.999Z</time></trkpt><trkpt lat="44.832941186102325" lon="-1.1369272883166297"><ele>14.0</ele><time>2026-04-26T14:47:56.999Z</time></trkpt><trkpt lat="44.83301980187558" lon="-1.1368811625810404"><ele>14.5</ele><time>2026-04-26T14:47:57.999Z</time></trkpt><trkpt lat="44.83312627736165" lon="-1.1368646569834195"><ele>15.0</ele><time>2026-04-26T14:47:58.999Z</time></trkpt><trkpt lat="44.833260622770794" lon="-1.1368218062035842"><ele>15.0</ele><time>2026-04-26T14:47:59.999Z</time></trkpt><trkpt lat="44.83341586062046" lon="-1.1367851350624842"><ele>15.0</ele><time>2026-04-26T14:48:00.999Z</time></trkpt><trkpt lat="44.8335930224617" lon="-1.136742658300802"><ele>15.0</ele><time>2026-04-26T14:48:01.999Z</time></trkpt><trkpt lat="44.83380096893546" lon="-1.1366836172074943"><ele>15.0</ele><time>2026-04-26T14:48:02.999Z</time></trkpt><trkpt lat="44.83402156205312" lon="-1.1366176063242832"><ele>15.0</ele><time>2026-04-26T14:48:03.999Z</time></trkpt><trkpt lat="44.83419931061587" lon="-1.1365605482470746"><ele>15.0</ele><time>2026-04-26T14:48:04.999Z</time></trkpt><trkpt lat="44.834355899674186" lon="-1.1365081437886475"><ele>14.25</ele><time>2026-04-26T14:48:05.999Z</time></trkpt><trkpt lat="44.83449778176416" lon="-1.1364634741256816"><ele>13.5</ele><time>2026-04-26T14:48:06.999Z</time></trkpt><trkpt lat="44.83462392071614" lon="-1.1364254223788655"><ele>12.75</ele><time>2026-04-26T14:48:07.999Z</time></trkpt><trkpt lat="44.83473932990043" lon="-1.1363850175005132"><ele>12.0</ele><time>2026-04-26T14:48:08.999Z</time></trkpt><trkpt lat="44.83484545883039" lon="-1.136347999470207"><ele>12.0</ele><time>2026-04-26T14:48:09.999Z</time></trkpt><trkpt lat="44.834950662909065" lon="-1.1363207207765238"><ele>12.0</ele><time>2026-04-26T14:48:10.999Z</time></trkpt><trkpt lat="44.83506648242002" lon="-1.1362887627225382"><ele>12.0</ele><time>2026-04-26T14:48:11.999Z</time></trkpt><trkpt lat="44.835172468971145" lon="-1.1362560898658678"><ele>12.0</ele><time>2026-04-26T14:48:12.999Z</time></trkpt><trkpt lat="44.83527396440791" lon="-1.1362298864964318"><ele>12.0</ele><time>2026-04-26T14:48:13.999Z</time></trkpt><trkpt lat="44.83536399196198" lon="-1.1362047572893939"><ele>12.333333333333334</ele><time>2026-04-26T14:48:14.999Z</time></trkpt><trkpt lat="44.83544926717773" lon="-1.1361867397750154"><ele>12.666666666666668</ele><time>2026-04-26T14:48:15.999Z</time></trkpt><trkpt lat="44.83552149723441" lon="-1.1361642174880358"><ele>13.0</ele><time>2026-04-26T14:48:16.999Z</time></trkpt><trkpt lat="44.83561888568231" lon="-1.1361237260723005"><ele>13.333333333333334</ele><time>2026-04-26T14:48:18.999Z</time></trkpt><trkpt lat="44.835669972129395" lon="-1.1360129586147945"><ele>13.666666666666668</ele><time>2026-04-26T14:48:21.999Z</time></trkpt><trkpt lat="44.83563858427382" lon="-1.1359065545018245"><ele>14.0</ele><time>2026-04-26T14:48:22.999Z</time></trkpt><trkpt lat="44.835617710391276" lon="-1.135764684584801"><ele>14.0</ele><time>2026-04-26T14:48:23.999Z</time></trkpt><trkpt lat="44.83559682316355" lon="-1.1356175333911984"><ele>13.999999999999998</ele><time>2026-04-26T14:48:24.999Z</time></trkpt><trkpt lat="44.83557713891091" lon="-1.1354788574278867"><ele>13.999999999999998</ele><time>2026-04-26T14:48:25.999Z</time></trkpt><trkpt lat="44.83556945285595" lon="-1.135357163038433"><ele>14.0</ele><time>2026-04-26T14:48:26.999Z</time></trkpt><trkpt lat="44.835534085770014" lon="-1.1351845724319196"><ele>14.0</ele><time>2026-04-26T14:48:27.999Z</time></trkpt><trkpt lat="44.835503678847246" lon="-1.134985590708569"><ele>14.666666666666668</ele><time>2026-04-26T14:48:28.999Z</time></trkpt><trkpt lat="44.83547049046533" lon="-1.1347684071219146"><ele>15.333333333333332</ele><time>2026-04-26T14:48:29.999Z</time></trkpt><trkpt lat="44.835447996513686" lon="-1.134510229160745"><ele>16.0</ele><time>2026-04-26T14:48:31.999Z</time></trkpt><trkpt lat="44.835415918010746" lon="-1.1342935325527457"><ele>16.0</ele><time>2026-04-26T14:48:32.999Z</time></trkpt><trkpt lat="44.83538118610022" lon="-1.13406172981036"><ele>16.0</ele><time>2026-04-26T14:48:33.999Z</time></trkpt><trkpt lat="44.83534201861844" lon="-1.133803413336276"><ele>16.0</ele><time>2026-04-26T14:48:34.999Z</time></trkpt><trkpt lat="44.83528520772172" lon="-1.1335186261114347"><ele>15.333333333333332</ele><time>2026-04-26T14:48:36.001Z</time></trkpt><trkpt lat="44.83523669656745" lon="-1.1332171639863782"><ele>14.666666666666668</ele><time>2026-04-26T14:48:37.001Z</time></trkpt><trkpt lat="44.835193141052" lon="-1.132941351668508"><ele>14.0</ele><time>2026-04-26T14:48:38.001Z</time></trkpt><trkpt lat="44.83515224767437" lon="-1.1326531486196714"><ele>14.666666666666668</ele><time>2026-04-26T14:48:39.001Z</time></trkpt><trkpt lat="44.835127509942204" lon="-1.132368253482223"><ele>15.333333333333332</ele><time>2026-04-26T14:48:40.001Z</time></trkpt><trkpt lat="44.83507628770873" lon="-1.1321389489232847"><ele>16.0</ele><time>2026-04-26T14:48:41.001Z</time></trkpt><trkpt lat="44.83503911061233" lon="-1.1319025218614467"><ele>16.0</ele><time>2026-04-26T14:48:42.001Z</time></trkpt><trkpt lat="44.834998289532024" lon="-1.131642920894912"><ele>16.0</ele><time>2026-04-26T14:48:43.001Z</time></trkpt><trkpt lat="44.83495623288388" lon="-1.1313732786169342"><ele>16.0</ele><time>2026-04-26T14:48:44.001Z</time></trkpt><trkpt lat="44.834921318823625" lon="-1.1311301732167443"><ele>15.8</ele><time>2026-04-26T14:48:45.001Z</time></trkpt><trkpt lat="44.834894063888875" lon="-1.130929626331152"><ele>15.600000000000001</ele><time>2026-04-26T14:48:46.001Z</time></trkpt><trkpt lat="44.83488400862026" lon="-1.1307660270822943"><ele>15.4</ele><time>2026-04-26T14:48:47.001Z</time></trkpt><trkpt lat="44.83486736516784" lon="-1.130634207661599"><ele>15.2</ele><time>2026-04-26T14:48:48.001Z</time></trkpt><trkpt lat="44.83483903587844" lon="-1.1305142578519465"><ele>15.0</ele><time>2026-04-26T14:48:49.001Z</time></trkpt><trkpt lat="44.83481292659557" lon="-1.1303742599395832"><ele>15.0</ele><time>2026-04-26T14:48:50.001Z</time></trkpt><trkpt lat="44.83478523769648" lon="-1.1301918306407468"><ele>15.0</ele><time>2026-04-26T14:48:51.001Z</time></trkpt><trkpt lat="44.8347676889235" lon="-1.1300369318648404"><ele>15.0</ele><time>2026-04-26T14:48:52.001Z</time></trkpt><trkpt lat="44.83474578202045" lon="-1.1299125411385949"><ele>15.0</ele><time>2026-04-26T14:48:53Z</time></trkpt><trkpt lat="44.83472250487089" lon="-1.129766793639796"><ele>15.0</ele><time>2026-04-26T14:48:54Z</time></trkpt><trkpt lat="44.83470559154029" lon="-1.129591398451978"><ele>14.75</ele><time>2026-04-26T14:48:55Z</time></trkpt><trkpt lat="44.83467561006575" lon="-1.1294057958979113"><ele>14.5</ele><time>2026-04-26T14:48:56Z</time></trkpt><trkpt lat="44.834635821276045" lon="-1.1292189668714265"><ele>14.25</ele><time>2026-04-26T14:48:57Z</time></trkpt><trkpt lat="44.834627731625346" lon="-1.1290626908647057"><ele>14.0</ele><time>2026-04-26T14:48:58Z</time></trkpt><trkpt lat="44.83459738899381" lon="-1.1289044254293912"><ele>15.0</ele><time>2026-04-26T14:48:59Z</time></trkpt><trkpt lat="44.8345597897399" lon="-1.1287368865402587"><ele>16.0</ele><time>2026-04-26T14:49:00Z</time></trkpt><trkpt lat="44.834534629023715" lon="-1.128556982733591"><ele>17.0</ele><time>2026-04-26T14:49:01Z</time></trkpt><trkpt lat="44.83451479531922" lon="-1.1284151680461665"><ele>18.0</ele><time>2026-04-26T14:49:02Z</time></trkpt><trkpt lat="44.83451248151988" lon="-1.1282798679516457"><ele>18.333333333333332</ele><time>2026-04-26T14:49:03Z</time></trkpt><trkpt lat="44.83449346599201" lon="-1.1281497843172612"><ele>18.666666666666668</ele><time>2026-04-26T14:49:04Z</time></trkpt><trkpt lat="44.83446789118336" lon="-1.128036845197497"><ele>19.0</ele><time>2026-04-26T14:49:05Z</time></trkpt><trkpt lat="44.83445363875663" lon="-1.127943645826129"><ele>19.333333333333336</ele><time>2026-04-26T14:49:06Z</time></trkpt><trkpt lat="44.83444398202344" lon="-1.127846409224383"><ele>19.666666666666668</ele><time>2026-04-26T14:49:07Z</time></trkpt><trkpt lat="44.83441868541765" lon="-1.1277494853970873"><ele>20.0</ele><time>2026-04-26T14:49:08Z</time></trkpt><trkpt lat="44.83440735820448" lon="-1.1276076025831174"><ele>20.0</ele><time>2026-04-26T14:49:10Z</time></trkpt><trkpt lat="44.834382628957094" lon="-1.1274428944301933"><ele>20.0</ele><time>2026-04-26T14:49:12Z</time></trkpt><trkpt lat="44.83436577936946" lon="-1.1273258889338489"><ele>20.0</ele><time>2026-04-26T14:49:14Z</time></trkpt><trkpt lat="44.83435635736654" lon="-1.1272344888066292"><ele>20.0</ele><time>2026-04-26T14:49:16Z</time></trkpt><trkpt lat="44.834321533834874" lon="-1.127106593971689"><ele>20.0</ele><time>2026-04-26T14:49:19Z</time></trkpt><trkpt lat="44.83431747905037" lon="-1.1270040840690685"><ele>20.0</ele><time>2026-04-26T14:49:22Z</time></trkpt><trkpt lat="44.83428220550126" lon="-1.1268885200246017"><ele>19.8</ele><time>2026-04-26T14:49:42.999Z</time></trkpt><trkpt lat="44.83429774532206" lon="-1.1267332360908846"><ele>19.6</ele><time>2026-04-26T14:49:43.999Z</time></trkpt><trkpt lat="44.834286354935706" lon="-1.1266023694470884"><ele>19.4</ele><time>2026-04-26T14:49:44.999Z</time></trkpt><trkpt lat="44.834273998247674" lon="-1.1264491808869876"><ele>19.2</ele><time>2026-04-26T14:49:45.999Z</time></trkpt><trkpt lat="44.834261181255854" lon="-1.1262852044796339"><ele>19.0</ele><time>2026-04-26T14:49:46.999Z</time></trkpt><trkpt lat="44.83425429842722" lon="-1.1260936606799745"><ele>19.0</ele><time>2026-04-26T14:49:47.999Z</time></trkpt><trkpt lat="44.83424388832846" lon="-1.1258968458540903"><ele>19.0</ele><time>2026-04-26T14:49:48.999Z</time></trkpt><trkpt lat="44.8342332923843" lon="-1.1256850642676188"><ele>19.0</ele><time>2026-04-26T14:49:49.999Z</time></trkpt><trkpt lat="44.834205716900904" lon="-1.1254913213927478"><ele>19.0</ele><time>2026-04-26T14:49:50.999Z</time></trkpt><trkpt lat="44.83419393284378" lon="-1.1253002207126686"><ele>19.75</ele><time>2026-04-26T14:49:51.999Z</time></trkpt><trkpt lat="44.83419726793074" lon="-1.1250997247054697"><ele>20.5</ele><time>2026-04-26T14:49:52.999Z</time></trkpt><trkpt lat="44.8341844802864" lon="-1.1249073504729095"><ele>21.25</ele><time>2026-04-26T14:49:53.999Z</time></trkpt><trkpt lat="44.83417447785275" lon="-1.1247328098543752"><ele>22.0</ele><time>2026-04-26T14:49:54.999Z</time></trkpt><trkpt lat="44.83416201535526" lon="-1.1245482106539204"><ele>22.0</ele><time>2026-04-26T14:49:55.999Z</time></trkpt><trkpt lat="44.8341531417002" lon="-1.1243640829727943"><ele>22.0</ele><time>2026-04-26T14:49:56.999Z</time></trkpt><trkpt lat="44.83413959023638" lon="-1.1241853525697607"><ele>22.0</ele><time>2026-04-26T14:49:57.999Z</time></trkpt><trkpt lat="44.834124242585474" lon="-1.1240016048513524"><ele>22.0</ele><time>2026-04-26T14:49:58.999Z</time></trkpt><trkpt lat="44.834117817908336" lon="-1.123818211244461"><ele>22.25</ele><time>2026-04-26T14:49:59.999Z</time></trkpt><trkpt lat="44.83410890232781" lon="-1.1236326824798386"><ele>22.5</ele><time>2026-04-26T14:50:00.999Z</time></trkpt><trkpt lat="44.83409993335223" lon="-1.1234288137413282"><ele>22.75</ele><time>2026-04-26T14:50:01.999Z</time></trkpt><trkpt lat="44.83409265710404" lon="-1.123252133595171"><ele>23.0</ele><time>2026-04-26T14:50:02.999Z</time></trkpt><trkpt lat="44.83408366419765" lon="-1.1230961443313305"><ele>22.0</ele><time>2026-04-26T14:50:03.999Z</time></trkpt><trkpt lat="44.8340764066726" lon="-1.1229151326126783"><ele>21.0</ele><time>2026-04-26T14:50:04.999Z</time></trkpt><trkpt lat="44.83406780356913" lon="-1.1227453610924603"><ele>20.0</ele><time>2026-04-26T14:50:05.999Z</time></trkpt><trkpt lat="44.83405606677672" lon="-1.1225722482454463"><ele>19.0</ele><time>2026-04-26T14:50:06.999Z</time></trkpt><trkpt lat="44.83405010340985" lon="-1.1224182306666006"><ele>18.75</ele><time>2026-04-26T14:50:07.999Z</time></trkpt><trkpt lat="44.83403525229916" lon="-1.122242860968902"><ele>18.5</ele><time>2026-04-26T14:50:08.999Z</time></trkpt><trkpt lat="44.834026902654365" lon="-1.1220570957724956"><ele>18.25</ele><time>2026-04-26T14:50:09.999Z</time></trkpt><trkpt lat="44.834013416419886" lon="-1.121881286572968"><ele>18.0</ele><time>2026-04-26T14:50:10.999Z</time></trkpt><trkpt lat="44.83400417976504" lon="-1.121680032300622"><ele>17.75</ele><time>2026-04-26T14:50:11.999Z</time></trkpt><trkpt lat="44.83399828039109" lon="-1.1214984040609108"><ele>17.5</ele><time>2026-04-26T14:50:12.999Z</time></trkpt><trkpt lat="44.83398274443615" lon="-1.121296832944896"><ele>17.25</ele><time>2026-04-26T14:50:13.999Z</time></trkpt><trkpt lat="44.833981012888444" lon="-1.1211484250379669"><ele>17.0</ele><time>2026-04-26T14:50:14.999Z</time></trkpt><trkpt lat="44.83396566142594" lon="-1.1209729360469631"><ele>17.0</ele><time>2026-04-26T14:50:15.999Z</time></trkpt><trkpt lat="44.83395941641311" lon="-1.1207880338882281"><ele>17.0</ele><time>2026-04-26T14:50:16.999Z</time></trkpt><trkpt lat="44.83395397060988" lon="-1.1206128018843755"><ele>17.0</ele><time>2026-04-26T14:50:17.999Z</time></trkpt><trkpt lat="44.83394241639291" lon="-1.120459102063768"><ele>17.0</ele><time>2026-04-26T14:50:18.999Z</time></trkpt><trkpt lat="44.83392363885836" lon="-1.120296015817974"><ele>16.75</ele><time>2026-04-26T14:50:19.999Z</time></trkpt><trkpt lat="44.83390943037812" lon="-1.1201416447373853"><ele>16.5</ele><time>2026-04-26T14:50:20.999Z</time></trkpt><trkpt lat="44.83391302095267" lon="-1.1199677765457206"><ele>16.25</ele><time>2026-04-26T14:50:21.999Z</time></trkpt><trkpt lat="44.83389772281349" lon="-1.1197882801746712"><ele>16.0</ele><time>2026-04-26T14:50:22.999Z</time></trkpt><trkpt lat="44.83389307937926" lon="-1.1196210923253278"><ele>16.75</ele><time>2026-04-26T14:50:23.999Z</time></trkpt><trkpt lat="44.83392346449397" lon="-1.1194398270261208"><ele>17.5</ele><time>2026-04-26T14:50:24.999Z</time></trkpt><trkpt lat="44.83397058549598" lon="-1.1192300607388348"><ele>18.25</ele><time>2026-04-26T14:50:25.999Z</time></trkpt><trkpt lat="44.83401997821731" lon="-1.1190378551748994"><ele>19.0</ele><time>2026-04-26T14:50:26.999Z</time></trkpt><trkpt lat="44.83406253372832" lon="-1.1188701558345973"><ele>19.5</ele><time>2026-04-26T14:50:27.999Z</time></trkpt><trkpt lat="44.8340998053364" lon="-1.1187131191787867"><ele>20.0</ele><time>2026-04-26T14:50:28.999Z</time></trkpt><trkpt lat="44.834133717616375" lon="-1.1185612869238746"><ele>20.5</ele><time>2026-04-26T14:50:29.999Z</time></trkpt><trkpt lat="44.83417443391119" lon="-1.1183997931378988"><ele>21.0</ele><time>2026-04-26T14:50:30.999Z</time></trkpt><trkpt lat="44.83421150068969" lon="-1.1181924676326334"><ele>21.0</ele><time>2026-04-26T14:50:31.999Z</time></trkpt><trkpt lat="44.83425413399736" lon="-1.118011516467583"><ele>21.0</ele><time>2026-04-26T14:50:32.998Z</time></trkpt><trkpt lat="44.834292946519504" lon="-1.117815410055641"><ele>21.0</ele><time>2026-04-26T14:50:33.998Z</time></trkpt><trkpt lat="44.834327663915815" lon="-1.1176498137232111"><ele>21.0</ele><time>2026-04-26T14:50:34.998Z</time></trkpt><trkpt lat="44.83436319138648" lon="-1.1174980612874061"><ele>21.8</ele><time>2026-04-26T14:50:35.998Z</time></trkpt><trkpt lat="44.83439701618282" lon="-1.1173470969011996"><ele>22.6</ele><time>2026-04-26T14:50:36.998Z</time></trkpt><trkpt lat="44.83442596030496" lon="-1.1172110869975793"><ele>23.4</ele><time>2026-04-26T14:50:37.998Z</time></trkpt><trkpt lat="44.83445385282505" lon="-1.1170665706870113"><ele>24.2</ele><time>2026-04-26T14:50:38.998Z</time></trkpt><trkpt lat="44.83448211351518" lon="-1.1169225132381946"><ele>25.0</ele><time>2026-04-26T14:50:39.998Z</time></trkpt><trkpt lat="44.83452307397041" lon="-1.11673464880786"><ele>24.75</ele><time>2026-04-26T14:50:40.998Z</time></trkpt><trkpt lat="44.834558078134044" lon="-1.1165550840287868"><ele>24.5</ele><time>2026-04-26T14:50:42.001Z</time></trkpt><trkpt lat="44.83458680655199" lon="-1.1163922762471012"><ele>24.25</ele><time>2026-04-26T14:50:43.001Z</time></trkpt><trkpt lat="44.83461798147404" lon="-1.1162560780189958"><ele>24.0</ele><time>2026-04-26T14:50:44.001Z</time></trkpt><trkpt lat="44.834665190464634" lon="-1.1160408995156301"><ele>24.0</ele><time>2026-04-26T14:50:45.001Z</time></trkpt><trkpt lat="44.834722591825475" lon="-1.115807836329529"><ele>24.0</ele><time>2026-04-26T14:50:46.001Z</time></trkpt><trkpt lat="44.83478210926359" lon="-1.1156593956061893"><ele>24.0</ele><time>2026-04-26T14:50:47.001Z</time></trkpt><trkpt lat="44.83483744841851" lon="-1.1154728463212435"><ele>24.0</ele><time>2026-04-26T14:50:48.001Z</time></trkpt><trkpt lat="44.834911422543954" lon="-1.1153011137827062"><ele>24.0</ele><time>2026-04-26T14:50:49.001Z</time></trkpt><trkpt lat="44.834993189765406" lon="-1.1151178278839684"><ele>24.0</ele><time>2026-04-26T14:50:50.001Z</time></trkpt><trkpt lat="44.8350726530919" lon="-1.1149284823050982"><ele>24.0</ele><time>2026-04-26T14:50:51.001Z</time></trkpt><trkpt lat="44.835145097944356" lon="-1.1147582076014804"><ele>23.666666666666668</ele><time>2026-04-26T14:50:52.001Z</time></trkpt><trkpt lat="44.83519598128235" lon="-1.114638494113762"><ele>23.333333333333336</ele><time>2026-04-26T14:50:53Z</time></trkpt><trkpt lat="44.83524320973596" lon="-1.114530693358959"><ele>23.0</ele><time>2026-04-26T14:50:54Z</time></trkpt><trkpt lat="44.835397627560326" lon="-1.1141983888383014"><ele>22.25</ele><time>2026-04-26T14:50:55Z</time></trkpt><trkpt lat="44.835465136308606" lon="-1.1140293248484379"><ele>21.5</ele><time>2026-04-26T14:50:56Z</time></trkpt><trkpt lat="44.835525793077" lon="-1.1138855653050665"><ele>20.75</ele><time>2026-04-26T14:50:57Z</time></trkpt><trkpt lat="44.83559091531232" lon="-1.1137294398099349"><ele>20.0</ele><time>2026-04-26T14:50:58Z</time></trkpt><trkpt lat="44.835668200075" lon="-1.1135336241242448"><ele>20.0</ele><time>2026-04-26T14:50:59Z</time></trkpt><trkpt lat="44.835750585909395" lon="-1.113337587737123"><ele>20.0</ele><time>2026-04-26T14:51:00Z</time></trkpt><trkpt lat="44.83583295621454" lon="-1.1131394786312647"><ele>20.0</ele><time>2026-04-26T14:51:01Z</time></trkpt><trkpt lat="44.83590981536286" lon="-1.1129655570183166"><ele>21.333333333333336</ele><time>2026-04-26T14:51:02Z</time></trkpt><trkpt lat="44.83598434841502" lon="-1.1127903064854427"><ele>22.666666666666668</ele><time>2026-04-26T14:51:03Z</time></trkpt><trkpt lat="44.83606395338856" lon="-1.112598151927187"><ele>24.0</ele><time>2026-04-26T14:51:04Z</time></trkpt><trkpt lat="44.836140843587025" lon="-1.1124106863830008"><ele>24.0</ele><time>2026-04-26T14:51:05Z</time></trkpt><trkpt lat="44.83621944220075" lon="-1.1122251341052243"><ele>24.0</ele><time>2026-04-26T14:51:06Z</time></trkpt><trkpt lat="44.83629797370398" lon="-1.1120389446639136"><ele>24.0</ele><time>2026-04-26T14:51:07Z</time></trkpt><trkpt lat="44.83637931184332" lon="-1.111855980711555"><ele>24.0</ele><time>2026-04-26T14:51:08Z</time></trkpt><trkpt lat="44.83643593564433" lon="-1.111675098318332"><ele>24.0</ele><time>2026-04-26T14:51:09Z</time></trkpt><trkpt lat="44.83652659698166" lon="-1.111498024566922"><ele>24.0</ele><time>2026-04-26T14:51:10Z</time></trkpt><trkpt lat="44.83660726724013" lon="-1.1113064078412085"><ele>24.666666666666664</ele><time>2026-04-26T14:51:11Z</time></trkpt><trkpt lat="44.83666825508045" lon="-1.111115615482752"><ele>25.333333333333332</ele><time>2026-04-26T14:51:12Z</time></trkpt><trkpt lat="44.83674362370706" lon="-1.1109344390177678"><ele>26.0</ele><time>2026-04-26T14:51:13Z</time></trkpt><trkpt lat="44.83682124562761" lon="-1.1107494885401874"><ele>26.25</ele><time>2026-04-26T14:51:14Z</time></trkpt><trkpt lat="44.836896512763914" lon="-1.1105711431139695"><ele>26.5</ele><time>2026-04-26T14:51:15Z</time></trkpt><trkpt lat="44.83697016305388" lon="-1.1103966288190448"><ele>26.75</ele><time>2026-04-26T14:51:16Z</time></trkpt><trkpt lat="44.837049238631636" lon="-1.1102092594013697"><ele>27.0</ele><time>2026-04-26T14:51:17Z</time></trkpt><trkpt lat="44.837122326131926" lon="-1.110035081494462"><ele>27.25</ele><time>2026-04-26T14:51:18Z</time></trkpt><trkpt lat="44.837195913236485" lon="-1.109857332373751"><ele>27.5</ele><time>2026-04-26T14:51:19Z</time></trkpt><trkpt lat="44.837271053127424" lon="-1.109675832427748"><ele>27.75</ele><time>2026-04-26T14:51:20Z</time></trkpt><trkpt lat="44.83733924721825" lon="-1.1095115932888329"><ele>28.0</ele><time>2026-04-26T14:51:21Z</time></trkpt><trkpt lat="44.83740532715272" lon="-1.1093527793173394"><ele>28.0</ele><time>2026-04-26T14:51:22Z</time></trkpt><trkpt lat="44.8374719208241" lon="-1.1091927307033522"><ele>28.0</ele><time>2026-04-26T14:51:23Z</time></trkpt><trkpt lat="44.8375486985166" lon="-1.1090406694484287"><ele>28.0</ele><time>2026-04-26T14:51:24Z</time></trkpt><trkpt lat="44.83761709041563" lon="-1.108886950143357"><ele>28.0</ele><time>2026-04-26T14:51:25Z</time></trkpt><trkpt lat="44.837682229994265" lon="-1.1087125104120996"><ele>28.000000000000004</ele><time>2026-04-26T14:51:26Z</time></trkpt><trkpt lat="44.83775232534268" lon="-1.10855873643276"><ele>28.0</ele><time>2026-04-26T14:51:28Z</time></trkpt><trkpt lat="44.837786378356036" lon="-1.1084678045460128"><ele>28.0</ele><time>2026-04-26T14:51:29Z</time></trkpt><trkpt lat="44.837818221212366" lon="-1.1083884758764493"><ele>28.0</ele><time>2026-04-26T14:51:30Z</time></trkpt><trkpt lat="44.837854207018864" lon="-1.1083024910614592"><ele>28.000000000000004</ele><time>2026-04-26T14:51:31Z</time></trkpt><trkpt lat="44.837885787770745" lon="-1.1082166751116242"><ele>28.0</ele><time>2026-04-26T14:51:32Z</time></trkpt><trkpt lat="44.837942751245414" lon="-1.1080930463937502"><ele>27.599999999999998</ele><time>2026-04-26T14:51:34Z</time></trkpt><trkpt lat="44.83798710338945" lon="-1.1079826276314837"><ele>27.199999999999996</ele><time>2026-04-26T14:51:36Z</time></trkpt><trkpt lat="44.83803843514397" lon="-1.107855877195989"><ele>26.8</ele><time>2026-04-26T14:51:38Z</time></trkpt><trkpt lat="44.838085611069424" lon="-1.1077468490294116"><ele>26.4</ele><time>2026-04-26T14:51:39Z</time></trkpt><trkpt lat="44.8381267317286" lon="-1.107648569631772"><ele>26.0</ele><time>2026-04-26T14:51:40Z</time></trkpt><trkpt lat="44.838187730244684" lon="-1.1075055732903378"><ele>26.0</ele><time>2026-04-26T14:51:40.999Z</time></trkpt><trkpt lat="44.83825924845691" lon="-1.1073432498849574"><ele>26.0</ele><time>2026-04-26T14:51:41.999Z</time></trkpt><trkpt lat="44.83831258384591" lon="-1.1071764813196114"><ele>26.0</ele><time>2026-04-26T14:51:42.999Z</time></trkpt><trkpt lat="44.83837474010949" lon="-1.1070581153603312"><ele>26.0</ele><time>2026-04-26T14:51:43.999Z</time></trkpt><trkpt lat="44.83842362101811" lon="-1.1069180405006713"><ele>26.0</ele><time>2026-04-26T14:51:44.999Z</time></trkpt><trkpt lat="44.83849624461938" lon="-1.1067300483045006"><ele>26.0</ele><time>2026-04-26T14:51:45.999Z</time></trkpt><trkpt lat="44.83855768391015" lon="-1.1065887941072285"><ele>26.0</ele><time>2026-04-26T14:51:46.999Z</time></trkpt><trkpt lat="44.83862025940602" lon="-1.1064760595874552"><ele>26.0</ele><time>2026-04-26T14:51:47.999Z</time></trkpt><trkpt lat="44.838688404391384" lon="-1.1063879541578798"><ele>25.999999999999996</ele><time>2026-04-26T14:51:48.999Z</time></trkpt><trkpt lat="44.83874915855281" lon="-1.1063145218345949"><ele>26.0</ele><time>2026-04-26T14:51:49.999Z</time></trkpt><trkpt lat="44.83880104385216" lon="-1.1062560415916358"><ele>26.0</ele><time>2026-04-26T14:51:50.999Z</time></trkpt><trkpt lat="44.83886475484617" lon="-1.1061475076381246"><ele>26.0</ele><time>2026-04-26T14:51:52.999Z</time></trkpt><trkpt lat="44.8388163871234" lon="-1.1060859345405707"><ele>25.999999999999996</ele><time>2026-04-26T14:51:53.999Z</time></trkpt><trkpt lat="44.83885072455609" lon="-1.1059930233009851"><ele>26.0</ele><time>2026-04-26T14:51:56.999Z</time></trkpt><trkpt lat="44.83888613217044" lon="-1.1058957513712593"><ele>26.0</ele><time>2026-04-26T14:51:57.999Z</time></trkpt><trkpt lat="44.83894369648985" lon="-1.1057754061165226"><ele>26.0</ele><time>2026-04-26T14:51:58.999Z</time></trkpt><trkpt lat="44.839022389706976" lon="-1.1056503910004511"><ele>26.0</ele><time>2026-04-26T14:51:59.999Z</time></trkpt><trkpt lat="44.83910542536148" lon="-1.105478929361678"><ele>26.0</ele><time>2026-04-26T14:52:00.999Z</time></trkpt><trkpt lat="44.83918967544518" lon="-1.105304665863522"><ele>24.666666666666664</ele><time>2026-04-26T14:52:01.999Z</time></trkpt><trkpt lat="44.839296066326526" lon="-1.1050877176816978"><ele>23.333333333333332</ele><time>2026-04-26T14:52:02.999Z</time></trkpt><trkpt lat="44.83941561781042" lon="-1.1048458063086941"><ele>22.0</ele><time>2026-04-26T14:52:03.999Z</time></trkpt><trkpt lat="44.83952560133118" lon="-1.1046059090562437"><ele>22.0</ele><time>2026-04-26T14:52:04.999Z</time></trkpt><trkpt lat="44.839631325890366" lon="-1.1043849844825744"><ele>22.0</ele><time>2026-04-26T14:52:05.999Z</time></trkpt><trkpt lat="44.839737806406895" lon="-1.1041680970857146"><ele>22.0</ele><time>2026-04-26T14:52:06.999Z</time></trkpt><trkpt lat="44.8398608059741" lon="-1.1039051529207158"><ele>22.0</ele><time>2026-04-26T14:52:07.999Z</time></trkpt><trkpt lat="44.84000037637591" lon="-1.1036157201352215"><ele>22.0</ele><time>2026-04-26T14:52:08.999Z</time></trkpt><trkpt lat="44.840140451947846" lon="-1.1033111692676698"><ele>22.666666666666664</ele><time>2026-04-26T14:52:09.999Z</time></trkpt><trkpt lat="44.840270617728194" lon="-1.1030476815099735"><ele>23.333333333333332</ele><time>2026-04-26T14:52:10.999Z</time></trkpt><trkpt lat="44.84038629907167" lon="-1.10279725350572"><ele>24.0</ele><time>2026-04-26T14:52:11.999Z</time></trkpt><trkpt lat="44.84049555135876" lon="-1.1025820969631743"><ele>23.666666666666668</ele><time>2026-04-26T14:52:12.999Z</time></trkpt><trkpt lat="44.8405965997688" lon="-1.1023269050839701"><ele>23.333333333333336</ele><time>2026-04-26T14:52:13.999Z</time></trkpt><trkpt lat="44.84070350240195" lon="-1.1021012935426058"><ele>23.0</ele><time>2026-04-26T14:52:14.999Z</time></trkpt><trkpt lat="44.8408013812889" lon="-1.1018947256162714"><ele>23.0</ele><time>2026-04-26T14:52:15.999Z</time></trkpt><trkpt lat="44.840898277710224" lon="-1.1016944098284407"><ele>23.0</ele><time>2026-04-26T14:52:16.999Z</time></trkpt><trkpt lat="44.84099506601163" lon="-1.1014936858367026"><ele>23.0</ele><time>2026-04-26T14:52:17.999Z</time></trkpt><trkpt lat="44.84109957757369" lon="-1.101309487323624"><ele>24.333333333333336</ele><time>2026-04-26T14:52:18.999Z</time></trkpt><trkpt lat="44.841190090297985" lon="-1.1010807026584237"><ele>25.666666666666668</ele><time>2026-04-26T14:52:19.999Z</time></trkpt><trkpt lat="44.841300640185786" lon="-1.1008885082988054"><ele>27.0</ele><time>2026-04-26T14:52:20.999Z</time></trkpt><trkpt lat="44.84139134250555" lon="-1.1006919843232028"><ele>27.0</ele><time>2026-04-26T14:52:21.999Z</time></trkpt><trkpt lat="44.841481119988075" lon="-1.1004957494719994"><ele>27.0</ele><time>2026-04-26T14:52:22.999Z</time></trkpt><trkpt lat="44.84158183108664" lon="-1.1002849330631437"><ele>27.0</ele><time>2026-04-26T14:52:23.999Z</time></trkpt><trkpt lat="44.8416724688791" lon="-1.100100204769949"><ele>27.0</ele><time>2026-04-26T14:52:24.999Z</time></trkpt><trkpt lat="44.84175937511106" lon="-1.099923464731467"><ele>27.0</ele><time>2026-04-26T14:52:25.999Z</time></trkpt><trkpt lat="44.84183201874119" lon="-1.0997559778970587"><ele>27.0</ele><time>2026-04-26T14:52:26.999Z</time></trkpt><trkpt lat="44.841918226703875" lon="-1.0995817086130337"><ele>27.0</ele><time>2026-04-26T14:52:27.999Z</time></trkpt><trkpt lat="44.84199500878257" lon="-1.0994329839549266"><ele>27.25</ele><time>2026-04-26T14:52:28.999Z</time></trkpt><trkpt lat="44.8420602453637" lon="-1.099299100433234"><ele>27.5</ele><time>2026-04-26T14:52:29.999Z</time></trkpt><trkpt lat="44.84212235159358" lon="-1.0991747177691462"><ele>27.75</ele><time>2026-04-26T14:52:30.999Z</time></trkpt><trkpt lat="44.84219080075546" lon="-1.099047567115572"><ele>28.0</ele><time>2026-04-26T14:52:31.998Z</time></trkpt><trkpt lat="44.842283165554235" lon="-1.0988954203393295"><ele>28.0</ele><time>2026-04-26T14:52:32.998Z</time></trkpt><trkpt lat="44.84239961675566" lon="-1.0987401031742379"><ele>28.0</ele><time>2026-04-26T14:52:33.998Z</time></trkpt><trkpt lat="44.8425271509722" lon="-1.0985939276903975"><ele>28.0</ele><time>2026-04-26T14:52:34.998Z</time></trkpt><trkpt lat="44.84267069575297" lon="-1.0984316142041066"><ele>27.25</ele><time>2026-04-26T14:52:35.998Z</time></trkpt><trkpt lat="44.84280795072003" lon="-1.0982724802367905"><ele>26.5</ele><time>2026-04-26T14:52:36.998Z</time></trkpt><trkpt lat="44.84288469867958" lon="-1.0981468887419716"><ele>25.75</ele><time>2026-04-26T14:52:37.998Z</time></trkpt><trkpt lat="44.84296789039458" lon="-1.0981015323084755"><ele>25.0</ele><time>2026-04-26T14:52:38.998Z</time></trkpt><trkpt lat="44.84301886289493" lon="-1.0980071897622727"><ele>24.5</ele><time>2026-04-26T14:52:39.998Z</time></trkpt><trkpt lat="44.84313123379774" lon="-1.0978843539924847"><ele>24.0</ele><time>2026-04-26T14:52:41.998Z</time></trkpt><trkpt lat="44.84323737714134" lon="-1.0977672613904734"><ele>23.5</ele><time>2026-04-26T14:52:42.998Z</time></trkpt><trkpt lat="44.84335097163429" lon="-1.0976419487921198"><ele>23.0</ele><time>2026-04-26T14:52:43.998Z</time></trkpt><trkpt lat="44.843476572306095" lon="-1.0975331201774319"><ele>23.0</ele><time>2026-04-26T14:52:44.998Z</time></trkpt><trkpt lat="44.84358944903542" lon="-1.0973936063659586"><ele>23.0</ele><time>2026-04-26T14:52:45.998Z</time></trkpt><trkpt lat="44.84371767890967" lon="-1.0972573969834134"><ele>23.0</ele><time>2026-04-26T14:52:46.998Z</time></trkpt><trkpt lat="44.84383368996952" lon="-1.0971094333897062"><ele>23.0</ele><time>2026-04-26T14:52:48Z</time></trkpt><trkpt lat="44.84395108847733" lon="-1.096979924502458"><ele>23.0</ele><time>2026-04-26T14:52:49Z</time></trkpt><trkpt lat="44.84406445826426" lon="-1.0968555109767137"><ele>23.0</ele><time>2026-04-26T14:52:50Z</time></trkpt><trkpt lat="44.844173738802795" lon="-1.0967364272706683"><ele>23.0</ele><time>2026-04-26T14:52:51Z</time></trkpt><trkpt lat="44.8442845764401" lon="-1.096615646778838"><ele>23.5</ele><time>2026-04-26T14:52:52Z</time></trkpt><trkpt lat="44.84438496650907" lon="-1.096506251138143"><ele>24.0</ele><time>2026-04-26T14:52:53Z</time></trkpt><trkpt lat="44.844493152765544" lon="-1.0963883599083475"><ele>24.5</ele><time>2026-04-26T14:52:54Z</time></trkpt><trkpt lat="44.844594579193306" lon="-1.0962762640527446"><ele>25.0</ele><time>2026-04-26T14:52:55Z</time></trkpt><trkpt lat="44.84471265802903" lon="-1.0961633368589154"><ele>25.0</ele><time>2026-04-26T14:52:56Z</time></trkpt><trkpt lat="44.844847134449836" lon="-1.0960106260339346"><ele>25.0</ele><time>2026-04-26T14:52:57Z</time></trkpt><trkpt lat="44.844972236490115" lon="-1.0958692251224547"><ele>25.0</ele><time>2026-04-26T14:52:58Z</time></trkpt><trkpt lat="44.845107607577255" lon="-1.0957162687401738"><ele>24.333333333333336</ele><time>2026-04-26T14:52:59Z</time></trkpt><trkpt lat="44.845239684802394" lon="-1.0955735559641204"><ele>23.666666666666668</ele><time>2026-04-26T14:53:00Z</time></trkpt><trkpt lat="44.845343075810376" lon="-1.0954309045372475"><ele>23.0</ele><time>2026-04-26T14:53:01Z</time></trkpt><trkpt lat="44.8454606712204" lon="-1.0952997130687494"><ele>23.0</ele><time>2026-04-26T14:53:02Z</time></trkpt><trkpt lat="44.84558370577769" lon="-1.0951624536634106"><ele>23.0</ele><time>2026-04-26T14:53:03Z</time></trkpt><trkpt lat="44.84569045579955" lon="-1.09504336145124"><ele>23.0</ele><time>2026-04-26T14:53:04Z</time></trkpt><trkpt lat="44.84580875532383" lon="-1.0949114466444156"><ele>23.0</ele><time>2026-04-26T14:53:05Z</time></trkpt><trkpt lat="44.84593557485759" lon="-1.0947713056012411"><ele>22.75</ele><time>2026-04-26T14:53:06Z</time></trkpt><trkpt lat="44.846043489088366" lon="-1.0946520556196406"><ele>22.5</ele><time>2026-04-26T14:53:07Z</time></trkpt><trkpt lat="44.8461659444757" lon="-1.0945167370997022"><ele>22.25</ele><time>2026-04-26T14:53:08Z</time></trkpt><trkpt lat="44.84628509203379" lon="-1.0943850738410168"><ele>22.0</ele><time>2026-04-26T14:53:09Z</time></trkpt><trkpt lat="44.84640352737231" lon="-1.094254197538909"><ele>22.0</ele><time>2026-04-26T14:53:10Z</time></trkpt><trkpt lat="44.84652731786404" lon="-1.0941174036271852"><ele>22.0</ele><time>2026-04-26T14:53:11Z</time></trkpt><trkpt lat="44.8466504954397" lon="-1.0939813375636316"><ele>22.0</ele><time>2026-04-26T14:53:12Z</time></trkpt><trkpt lat="44.846771306297974" lon="-1.0938485235161262"><ele>23.25</ele><time>2026-04-26T14:53:13Z</time></trkpt><trkpt lat="44.84687898802995" lon="-1.09373014299747"><ele>24.5</ele><time>2026-04-26T14:53:14Z</time></trkpt><trkpt lat="44.847000133801956" lon="-1.0935969606246938"><ele>25.75</ele><time>2026-04-26T14:53:15Z</time></trkpt><trkpt lat="44.84711516651071" lon="-1.0934704988149857"><ele>27.0</ele><time>2026-04-26T14:53:16Z</time></trkpt><trkpt lat="44.84723050887603" lon="-1.093343696381691"><ele>26.0</ele><time>2026-04-26T14:53:17Z</time></trkpt><trkpt lat="44.84735650517113" lon="-1.0932051814669326"><ele>25.0</ele><time>2026-04-26T14:53:18Z</time></trkpt><trkpt lat="44.84749544954283" lon="-1.0930524323871804"><ele>24.0</ele><time>2026-04-26T14:53:19Z</time></trkpt><trkpt lat="44.847616561523786" lon="-1.0929192872901032"><ele>25.666666666666664</ele><time>2026-04-26T14:53:20Z</time></trkpt><trkpt lat="44.84774897392747" lon="-1.0927737189436793"><ele>27.333333333333332</ele><time>2026-04-26T14:53:21Z</time></trkpt><trkpt lat="44.84786610548461" lon="-1.092644949677556"><ele>29.0</ele><time>2026-04-26T14:53:22Z</time></trkpt><trkpt lat="44.84798304299926" lon="-1.092516393615834"><ele>27.666666666666664</ele><time>2026-04-26T14:53:23Z</time></trkpt><trkpt lat="44.84811539164294" lon="-1.0923668869693317"><ele>26.333333333333336</ele><time>2026-04-26T14:53:24Z</time></trkpt><trkpt lat="44.84825029549424" lon="-1.0922116791952892"><ele>25.0</ele><time>2026-04-26T14:53:25Z</time></trkpt><trkpt lat="44.84836950549477" lon="-1.09207452711786"><ele>25.333333333333336</ele><time>2026-04-26T14:53:26Z</time></trkpt><trkpt lat="44.84849951362821" lon="-1.0919266390983629"><ele>25.666666666666664</ele><time>2026-04-26T14:53:27Z</time></trkpt><trkpt lat="44.848634743376834" lon="-1.0917746442252927"><ele>26.0</ele><time>2026-04-26T14:53:28Z</time></trkpt><trkpt lat="44.848749715643635" lon="-1.0916454182568522"><ele>25.75</ele><time>2026-04-26T14:53:29Z</time></trkpt><trkpt lat="44.848861769681186" lon="-1.0915194719479981"><ele>25.5</ele><time>2026-04-26T14:53:30Z</time></trkpt><trkpt lat="44.848964700943874" lon="-1.091403779606968"><ele>25.25</ele><time>2026-04-26T14:53:31Z</time></trkpt><trkpt lat="44.849049762495866" lon="-1.0913081726196343"><ele>25.0</ele><time>2026-04-26T14:53:32Z</time></trkpt><trkpt lat="44.84912197322142" lon="-1.0912270093361076"><ele>25.0</ele><time>2026-04-26T14:53:33Z</time></trkpt><trkpt lat="44.84917519143871" lon="-1.091167193221914"><ele>25.0</ele><time>2026-04-26T14:53:34Z</time></trkpt><trkpt lat="44.84923548561632" lon="-1.0910994232113345"><ele>25.0</ele><time>2026-04-26T14:53:36Z</time></trkpt><trkpt lat="44.8493353119047" lon="-1.090977779182792"><ele>25.0</ele><time>2026-04-26T14:53:38Z</time></trkpt><trkpt lat="44.84942192180031" lon="-1.0908734970145038"><ele>25.0</ele><time>2026-04-26T14:53:39Z</time></trkpt><trkpt lat="44.84954307812641" lon="-1.0907276189300505"><ele>26.0</ele><time>2026-04-26T14:53:39.999Z</time></trkpt><trkpt lat="44.84968592969807" lon="-1.0905493016080938"><ele>27.0</ele><time>2026-04-26T14:53:40.999Z</time></trkpt><trkpt lat="44.849832760621624" lon="-1.0903646496177877"><ele>28.0</ele><time>2026-04-26T14:53:41.999Z</time></trkpt><trkpt lat="44.84995415496476" lon="-1.0902119860161104"><ele>28.0</ele><time>2026-04-26T14:53:42.999Z</time></trkpt><trkpt lat="44.85006701903808" lon="-1.0900700498364402"><ele>28.0</ele><time>2026-04-26T14:53:43.999Z</time></trkpt><trkpt lat="44.85018675732572" lon="-1.0899211341017339"><ele>28.0</ele><time>2026-04-26T14:53:44.999Z</time></trkpt><trkpt lat="44.850310426259895" lon="-1.0897683556265765"><ele>27.333333333333336</ele><time>2026-04-26T14:53:45.999Z</time></trkpt><trkpt lat="44.850438911369245" lon="-1.0896096275031772"><ele>26.666666666666664</ele><time>2026-04-26T14:53:46.999Z</time></trkpt><trkpt lat="44.85057829006241" lon="-1.089437441459781"><ele>26.0</ele><time>2026-04-26T14:53:47.999Z</time></trkpt><trkpt lat="44.85073459350279" lon="-1.089245302643815"><ele>25.333333333333332</ele><time>2026-04-26T14:53:48.999Z</time></trkpt><trkpt lat="44.850888405186836" lon="-1.089056229465617"><ele>24.666666666666664</ele><time>2026-04-26T14:53:49.999Z</time></trkpt><trkpt lat="44.85103594075628" lon="-1.088877088142207"><ele>24.0</ele><time>2026-04-26T14:53:50.999Z</time></trkpt><trkpt lat="44.85118413818791" lon="-1.0886986826196223"><ele>24.0</ele><time>2026-04-26T14:53:51.999Z</time></trkpt><trkpt lat="44.85132437082044" lon="-1.0885250674943907"><ele>24.0</ele><time>2026-04-26T14:53:52.999Z</time></trkpt><trkpt lat="44.851459067372154" lon="-1.088355207509484"><ele>24.0</ele><time>2026-04-26T14:53:53.999Z</time></trkpt><trkpt lat="44.85160996765837" lon="-1.088164912953084"><ele>24.333333333333336</ele><time>2026-04-26T14:53:54.999Z</time></trkpt><trkpt lat="44.85176151523407" lon="-1.0879778401339006"><ele>24.666666666666668</ele><time>2026-04-26T14:53:55.999Z</time></trkpt><trkpt lat="44.85188677824346" lon="-1.0878244201656992"><ele>25.0</ele><time>2026-04-26T14:53:56.999Z</time></trkpt><trkpt lat="44.852007047776844" lon="-1.087676666011776"><ele>25.333333333333336</ele><time>2026-04-26T14:53:57.999Z</time></trkpt><trkpt lat="44.85214657184245" lon="-1.0875056089452686"><ele>25.666666666666664</ele><time>2026-04-26T14:53:58.999Z</time></trkpt><trkpt lat="44.85229609368002" lon="-1.087322440651022"><ele>26.0</ele><time>2026-04-26T14:53:59.999Z</time></trkpt><trkpt lat="44.852463553019135" lon="-1.087117298180078"><ele>26.0</ele><time>2026-04-26T14:54:00.999Z</time></trkpt><trkpt lat="44.85263792963942" lon="-1.0869016942371184"><ele>26.0</ele><time>2026-04-26T14:54:01.999Z</time></trkpt><trkpt lat="44.85277303585155" lon="-1.0867342177452421"><ele>26.0</ele><time>2026-04-26T14:54:02.999Z</time></trkpt><trkpt lat="44.852900555655914" lon="-1.0865761453103864"><ele>26.0</ele><time>2026-04-26T14:54:03.999Z</time></trkpt><trkpt lat="44.85304279954354" lon="-1.0863998196852265"><ele>26.0</ele><time>2026-04-26T14:54:04.999Z</time></trkpt><trkpt lat="44.853197112643926" lon="-1.0862094310090655"><ele>26.0</ele><time>2026-04-26T14:54:05.999Z</time></trkpt><trkpt lat="44.85333519092881" lon="-1.0860391640058935"><ele>26.0</ele><time>2026-04-26T14:54:06.999Z</time></trkpt><trkpt lat="44.853488795338706" lon="-1.0858497518998025"><ele>26.0</ele><time>2026-04-26T14:54:07.999Z</time></trkpt><trkpt lat="44.85365379700406" lon="-1.0856462853701505"><ele>26.0</ele><time>2026-04-26T14:54:08.999Z</time></trkpt><trkpt lat="44.8538106252301" lon="-1.0854528976011342"><ele>26.0</ele><time>2026-04-26T14:54:09.999Z</time></trkpt><trkpt lat="44.8539379274744" lon="-1.0852959187539708"><ele>26.0</ele><time>2026-04-26T14:54:10.999Z</time></trkpt><trkpt lat="44.85405294781081" lon="-1.0851536507777542"><ele>26.0</ele><time>2026-04-26T14:54:11.999Z</time></trkpt><trkpt lat="44.85415461000068" lon="-1.085027741549664"><ele>25.999999999999996</ele><time>2026-04-26T14:54:12.999Z</time></trkpt><trkpt lat="44.8542395844253" lon="-1.0849225002695813"><ele>26.0</ele><time>2026-04-26T14:54:13.999Z</time></trkpt><trkpt lat="44.854314193754824" lon="-1.0848300961860429"><ele>26.0</ele><time>2026-04-26T14:54:14.999Z</time></trkpt><trkpt lat="44.85437574527311" lon="-1.0847538643887396"><ele>26.0</ele><time>2026-04-26T14:54:15.999Z</time></trkpt><trkpt lat="44.854426414310026" lon="-1.0846911104017722"><ele>25.999999999999996</ele><time>2026-04-26T14:54:16.999Z</time></trkpt><trkpt lat="44.8544919329331" lon="-1.084609965261592"><ele>26.0</ele><time>2026-04-26T14:54:18.999Z</time></trkpt><trkpt lat="44.8545654619109" lon="-1.0845166463717317"><ele>26.0</ele><time>2026-04-26T14:54:20.999Z</time></trkpt><trkpt lat="44.85464356320699" lon="-1.084417447951343"><ele>26.0</ele><time>2026-04-26T14:54:21.999Z</time></trkpt><trkpt lat="44.854746514048905" lon="-1.0842866874592694"><ele>26.0</ele><time>2026-04-26T14:54:22.999Z</time></trkpt><trkpt lat="44.8548671953824" lon="-1.0841334069243163"><ele>26.0</ele><time>2026-04-26T14:54:23.999Z</time></trkpt><trkpt lat="44.8549990162913" lon="-1.0839683676674157"><ele>25.666666666666664</ele><time>2026-04-26T14:54:24.999Z</time></trkpt><trkpt lat="44.85511772469137" lon="-1.0838213755999753"><ele>25.333333333333336</ele><time>2026-04-26T14:54:25.999Z</time></trkpt><trkpt lat="44.855243718624784" lon="-1.0836653621366368"><ele>25.0</ele><time>2026-04-26T14:54:26.999Z</time></trkpt><trkpt lat="44.85536168996398" lon="-1.0835192828906812"><ele>25.0</ele><time>2026-04-26T14:54:27.999Z</time></trkpt><trkpt lat="44.85549630673385" lon="-1.0833525921221483"><ele>25.0</ele><time>2026-04-26T14:54:28.999Z</time></trkpt><trkpt lat="44.85562448027882" lon="-1.0831941945552142"><ele>25.0</ele><time>2026-04-26T14:54:29.998Z</time></trkpt><trkpt lat="44.85576347885592" lon="-1.0830227034129774"><ele>25.0</ele><time>2026-04-26T14:54:30.998Z</time></trkpt><trkpt lat="44.85590919926453" lon="-1.0828431231362048"><ele>25.0</ele><time>2026-04-26T14:54:31.998Z</time></trkpt><trkpt lat="44.8560351957677" lon="-1.0826881738175207"><ele>25.0</ele><time>2026-04-26T14:54:32.998Z</time></trkpt><trkpt lat="44.856164546869536" lon="-1.0825304708345536"><ele>26.666666666666668</ele><time>2026-04-26T14:54:33.998Z</time></trkpt><trkpt lat="44.85629535536967" lon="-1.0823741558562445"><ele>28.333333333333336</ele><time>2026-04-26T14:54:34.998Z</time></trkpt><trkpt lat="44.85642007384347" lon="-1.0822251361401134"><ele>30.0</ele><time>2026-04-26T14:54:35.998Z</time></trkpt><trkpt lat="44.8565535296725" lon="-1.082065813163384"><ele>30.0</ele><time>2026-04-26T14:54:36.998Z</time></trkpt><trkpt lat="44.85669023401689" lon="-1.0819022496682809"><ele>30.0</ele><time>2026-04-26T14:54:37.998Z</time></trkpt><trkpt lat="44.85682126190274" lon="-1.081739084059529"><ele>30.0</ele><time>2026-04-26T14:54:38.998Z</time></trkpt><trkpt lat="44.856951106735416" lon="-1.0815773915672107"><ele>29.0</ele><time>2026-04-26T14:54:39.998Z</time></trkpt><trkpt lat="44.85709240158072" lon="-1.0814014406049377"><ele>28.0</ele><time>2026-04-26T14:54:40.998Z</time></trkpt><trkpt lat="44.85723955783175" lon="-1.0812181907935228"><ele>27.0</ele><time>2026-04-26T14:54:41.998Z</time></trkpt><trkpt lat="44.857392112013294" lon="-1.081029712806699"><ele>27.0</ele><time>2026-04-26T14:54:42.998Z</time></trkpt><trkpt lat="44.85753792729356" lon="-1.0808522441801511"><ele>27.0</ele><time>2026-04-26T14:54:43.998Z</time></trkpt><trkpt lat="44.85769292503446" lon="-1.0806635999956553"><ele>27.0</ele><time>2026-04-26T14:54:44.998Z</time></trkpt><trkpt lat="44.857850015555755" lon="-1.0804734011280852"><ele>28.0</ele><time>2026-04-26T14:54:45.998Z</time></trkpt><trkpt lat="44.85799079703048" lon="-1.0803037871601358"><ele>29.0</ele><time>2026-04-26T14:54:46.998Z</time></trkpt><trkpt lat="44.858126415433965" lon="-1.0801403937024034"><ele>30.0</ele><time>2026-04-26T14:54:47.998Z</time></trkpt><trkpt lat="44.85824436662079" lon="-1.079998345837989"><ele>30.333333333333336</ele><time>2026-04-26T14:54:48.998Z</time></trkpt><trkpt lat="44.858356328523435" lon="-1.0798637170144079"><ele>30.666666666666668</ele><time>2026-04-26T14:54:49.998Z</time></trkpt><trkpt lat="44.85848740176404" lon="-1.079736319584397"><ele>31.0</ele><time>2026-04-26T14:54:50.998Z</time></trkpt><trkpt lat="44.85860569579312" lon="-1.0795629925175698"><ele>31.333333333333336</ele><time>2026-04-26T14:54:51.998Z</time></trkpt><trkpt lat="44.858740559435944" lon="-1.0793949515389385"><ele>31.666666666666664</ele><time>2026-04-26T14:54:52.998Z</time></trkpt><trkpt lat="44.85888592881723" lon="-1.0792425442745857"><ele>32.0</ele><time>2026-04-26T14:54:54Z</time></trkpt><trkpt lat="44.859004963066795" lon="-1.0790661799349153"><ele>32.0</ele><time>2026-04-26T14:54:55Z</time></trkpt><trkpt lat="44.85915347287955" lon="-1.0789209012246395"><ele>32.0</ele><time>2026-04-26T14:54:56Z</time></trkpt><trkpt lat="44.85927050978898" lon="-1.078772213783253"><ele>32.0</ele><time>2026-04-26T14:54:57Z</time></trkpt><trkpt lat="44.859408063904525" lon="-1.078606396038739"><ele>31.666666666666664</ele><time>2026-04-26T14:54:58Z</time></trkpt><trkpt lat="44.85955269171593" lon="-1.0784321115432867"><ele>31.333333333333336</ele><time>2026-04-26T14:54:59Z</time></trkpt><trkpt lat="44.85969469376326" lon="-1.078257826958737"><ele>31.0</ele><time>2026-04-26T14:55:00Z</time></trkpt><trkpt lat="44.85984863123016" lon="-1.0780675417237182"><ele>31.0</ele><time>2026-04-26T14:55:01Z</time></trkpt><trkpt lat="44.85998270739483" lon="-1.0779132779568081"><ele>31.0</ele><time>2026-04-26T14:55:02Z</time></trkpt><trkpt lat="44.86012523816123" lon="-1.077746254101636"><ele>31.0</ele><time>2026-04-26T14:55:03Z</time></trkpt><trkpt lat="44.86026905594323" lon="-1.0775825058179973"><ele>31.25</ele><time>2026-04-26T14:55:04Z</time></trkpt><trkpt lat="44.86037533221436" lon="-1.0774254643655683"><ele>31.5</ele><time>2026-04-26T14:55:05Z</time></trkpt><trkpt lat="44.860492613554975" lon="-1.0773124499729059"><ele>31.75</ele><time>2026-04-26T14:55:06Z</time></trkpt><trkpt lat="44.86060363245226" lon="-1.077176445112341"><ele>32.0</ele><time>2026-04-26T14:55:07Z</time></trkpt><trkpt lat="44.86071501228538" lon="-1.0770395245530526"><ele>32.0</ele><time>2026-04-26T14:55:08Z</time></trkpt><trkpt lat="44.860818217850955" lon="-1.0769153735511345"><ele>32.0</ele><time>2026-04-26T14:55:09Z</time></trkpt><trkpt lat="44.86090899075305" lon="-1.0768058125747006"><ele>32.0</ele><time>2026-04-26T14:55:10Z</time></trkpt><trkpt lat="44.860984292250734" lon="-1.0767073252025212"><ele>32.0</ele><time>2026-04-26T14:55:11Z</time></trkpt><trkpt lat="44.861046794840995" lon="-1.0766100671584184"><ele>31.833333333333332</ele><time>2026-04-26T14:55:12Z</time></trkpt><trkpt lat="44.86110956153551" lon="-1.0765372063132561"><ele>31.666666666666664</ele><time>2026-04-26T14:55:13Z</time></trkpt><trkpt lat="44.8611647551801" lon="-1.0764813666728827"><ele>31.5</ele><time>2026-04-26T14:55:14Z</time></trkpt><trkpt lat="44.8612352200266" lon="-1.0763725519748215"><ele>31.333333333333336</ele><time>2026-04-26T14:55:16Z</time></trkpt><trkpt lat="44.86129097430838" lon="-1.076326387011948"><ele>31.166666666666668</ele><time>2026-04-26T14:55:18Z</time></trkpt><trkpt lat="44.86135162209602" lon="-1.0762520456687918"><ele>31.0</ele><time>2026-04-26T14:55:19Z</time></trkpt><trkpt lat="44.86143168896323" lon="-1.0761585410643932"><ele>31.0</ele><time>2026-04-26T14:55:20Z</time></trkpt><trkpt lat="44.86152834967836" lon="-1.0760414160874057"><ele>31.0</ele><time>2026-04-26T14:55:21Z</time></trkpt><trkpt lat="44.86164316354182" lon="-1.0759032313146952"><ele>31.0</ele><time>2026-04-26T14:55:22Z</time></trkpt><trkpt lat="44.86176536028543" lon="-1.0757529649112259"><ele>31.0</ele><time>2026-04-26T14:55:23Z</time></trkpt><trkpt lat="44.86187313822774" lon="-1.0756209110502635"><ele>30.0</ele><time>2026-04-26T14:55:24Z</time></trkpt><trkpt lat="44.861993655905806" lon="-1.0754720410698289"><ele>29.0</ele><time>2026-04-26T14:55:25Z</time></trkpt><trkpt lat="44.862126245463394" lon="-1.0753140834208557"><ele>28.0</ele><time>2026-04-26T14:55:26Z</time></trkpt><trkpt lat="44.86224784999913" lon="-1.0751589519044973"><ele>28.0</ele><time>2026-04-26T14:55:27Z</time></trkpt><trkpt lat="44.862372126382866" lon="-1.07500970334849"><ele>28.0</ele><time>2026-04-26T14:55:28Z</time></trkpt><trkpt lat="44.86248252889462" lon="-1.074882090864678"><ele>28.0</ele><time>2026-04-26T14:55:29Z</time></trkpt><trkpt lat="44.86259689109021" lon="-1.074756931773475"><ele>29.666666666666668</ele><time>2026-04-26T14:55:30Z</time></trkpt><trkpt lat="44.8627401838436" lon="-1.0746178236606114"><ele>31.333333333333336</ele><time>2026-04-26T14:55:31Z</time></trkpt><trkpt lat="44.862887302098535" lon="-1.0744783096130273"><ele>33.0</ele><time>2026-04-26T14:55:32Z</time></trkpt><trkpt lat="44.86303498411383" lon="-1.0743344551473701"><ele>33.0</ele><time>2026-04-26T14:55:33Z</time></trkpt><trkpt lat="44.863188967725826" lon="-1.0741797809948241"><ele>33.0</ele><time>2026-04-26T14:55:34Z</time></trkpt><trkpt lat="44.8633093161637" lon="-1.0740812461768978"><ele>33.0</ele><time>2026-04-26T14:55:35Z</time></trkpt><trkpt lat="44.86344254092524" lon="-1.0739537477049605"><ele>31.0</ele><time>2026-04-26T14:55:36Z</time></trkpt><trkpt lat="44.863574391018524" lon="-1.0738350149405935"><ele>29.0</ele><time>2026-04-26T14:55:37Z</time></trkpt><trkpt lat="44.86370021702038" lon="-1.0737127527488015"><ele>27.0</ele><time>2026-04-26T14:55:38Z</time></trkpt><trkpt lat="44.86382915018507" lon="-1.0735832406445718"><ele>27.0</ele><time>2026-04-26T14:55:38.999Z</time></trkpt><trkpt lat="44.86395444887424" lon="-1.0734610682207226"><ele>27.0</ele><time>2026-04-26T14:55:39.999Z</time></trkpt><trkpt lat="44.86408338133319" lon="-1.0733314405854288"><ele>27.0</ele><time>2026-04-26T14:55:40.999Z</time></trkpt><trkpt lat="44.86422884955596" lon="-1.0731968548687363"><ele>27.0</ele><time>2026-04-26T14:55:41.999Z</time></trkpt><trkpt lat="44.86437869801691" lon="-1.0730632753898441"><ele>27.0</ele><time>2026-04-26T14:55:42.999Z</time></trkpt><trkpt lat="44.86452715196411" lon="-1.0729199864028038"><ele>27.0</ele><time>2026-04-26T14:55:43.999Z</time></trkpt><trkpt lat="44.864668193491966" lon="-1.0727944784261534"><ele>27.0</ele><time>2026-04-26T14:55:44.999Z</time></trkpt><trkpt lat="44.86481448732479" lon="-1.0726606894986481"><ele>27.0</ele><time>2026-04-26T14:55:45.999Z</time></trkpt><trkpt lat="44.86495626027707" lon="-1.072528010982067"><ele>27.0</ele><time>2026-04-26T14:55:46.999Z</time></trkpt><trkpt lat="44.86509697750802" lon="-1.0723957139437155"><ele>28.333333333333336</ele><time>2026-04-26T14:55:47.999Z</time></trkpt><trkpt lat="44.86524218767717" lon="-1.0722538676093318"><ele>29.666666666666668</ele><time>2026-04-26T14:55:48.999Z</time></trkpt><trkpt lat="44.86538102396992" lon="-1.0721215560194721"><ele>31.0</ele><time>2026-04-26T14:55:49.999Z</time></trkpt><trkpt lat="44.86552410929638" lon="-1.0719883163572832"><ele>31.0</ele><time>2026-04-26T14:55:50.999Z</time></trkpt><trkpt lat="44.86566645069229" lon="-1.0718545566259254"><ele>31.0</ele><time>2026-04-26T14:55:51.999Z</time></trkpt><trkpt lat="44.86581343785954" lon="-1.0717146758212106"><ele>31.0</ele><time>2026-04-26T14:55:52.999Z</time></trkpt><trkpt lat="44.86596250399721" lon="-1.0715797858723322"><ele>29.666666666666668</ele><time>2026-04-26T14:55:53.999Z</time></trkpt><trkpt lat="44.866106255380416" lon="-1.0714359721710935"><ele>28.333333333333336</ele><time>2026-04-26T14:55:54.999Z</time></trkpt><trkpt lat="44.86625014849885" lon="-1.071293319289772"><ele>27.0</ele><time>2026-04-26T14:55:55.999Z</time></trkpt><trkpt lat="44.866400220151625" lon="-1.071153005509044"><ele>27.0</ele><time>2026-04-26T14:55:56.999Z</time></trkpt><trkpt lat="44.86654749035757" lon="-1.0710145296162472"><ele>27.0</ele><time>2026-04-26T14:55:57.999Z</time></trkpt><trkpt lat="44.86668977509019" lon="-1.070881738545103"><ele>27.0</ele><time>2026-04-26T14:55:58.999Z</time></trkpt><trkpt lat="44.86683390550282" lon="-1.0707442858811695"><ele>27.666666666666664</ele><time>2026-04-26T14:55:59.999Z</time></trkpt><trkpt lat="44.86698025068362" lon="-1.0706001262127067"><ele>28.333333333333332</ele><time>2026-04-26T14:56:00.999Z</time></trkpt><trkpt lat="44.8671261142142" lon="-1.0704679698076065"><ele>29.0</ele><time>2026-04-26T14:56:01.999Z</time></trkpt><trkpt lat="44.86726821030363" lon="-1.070328289475843"><ele>29.0</ele><time>2026-04-26T14:56:02.999Z</time></trkpt><trkpt lat="44.86740625048557" lon="-1.0701921909440053"><ele>29.0</ele><time>2026-04-26T14:56:03.999Z</time></trkpt><trkpt lat="44.8675456956485" lon="-1.0700572719320736"><ele>29.0</ele><time>2026-04-26T14:56:04.999Z</time></trkpt><trkpt lat="44.86768883744253" lon="-1.069916766236224"><ele>29.0</ele><time>2026-04-26T14:56:05.999Z</time></trkpt><trkpt lat="44.86782801508979" lon="-1.0697857793639953"><ele>29.0</ele><time>2026-04-26T14:56:06.999Z</time></trkpt><trkpt lat="44.867944359444124" lon="-1.0696763597518468"><ele>29.0</ele><time>2026-04-26T14:56:07.999Z</time></trkpt><trkpt lat="44.86805316764595" lon="-1.0695720169753182"><ele>29.0</ele><time>2026-04-26T14:56:08.999Z</time></trkpt><trkpt lat="44.8681537570465" lon="-1.0694819183395532"><ele>28.999999999999996</ele><time>2026-04-26T14:56:09.999Z</time></trkpt><trkpt lat="44.868238493084505" lon="-1.0693947037671687"><ele>29.0</ele><time>2026-04-26T14:56:10.999Z</time></trkpt><trkpt lat="44.86831291416508" lon="-1.0693205405045425"><ele>29.0</ele><time>2026-04-26T14:56:11.999Z</time></trkpt><trkpt lat="44.86837804453298" lon="-1.069263708652647"><ele>29.0</ele><time>2026-04-26T14:56:12.999Z</time></trkpt><trkpt lat="44.86845339410484" lon="-1.0692056523032807"><ele>28.999999999999996</ele><time>2026-04-26T14:56:14.999Z</time></trkpt><trkpt lat="44.868433845854334" lon="-1.0691139824037013"><ele>29.0</ele><time>2026-04-26T14:56:17.999Z</time></trkpt><trkpt lat="44.868686720920635" lon="-1.0691101386910429"><ele>28.6</ele><time>2026-04-26T14:56:18.999Z</time></trkpt><trkpt lat="44.868805344434314" lon="-1.0691053324768893"><ele>28.2</ele><time>2026-04-26T14:56:19.999Z</time></trkpt><trkpt lat="44.86890213272627" lon="-1.0690840196711593"><ele>27.800000000000004</ele><time>2026-04-26T14:56:20.999Z</time></trkpt><trkpt lat="44.86896189197304" lon="-1.0690340753180902"><ele>27.400000000000002</ele><time>2026-04-26T14:56:21.999Z</time></trkpt><trkpt lat="44.869016714714135" lon="-1.0689304358316731"><ele>27.0</ele><time>2026-04-26T14:56:22.999Z</time></trkpt><trkpt lat="44.86906590502491" lon="-1.0687891460882493"><ele>27.0</ele><time>2026-04-26T14:56:23.999Z</time></trkpt><trkpt lat="44.86913034901811" lon="-1.0686099477476538"><ele>27.0</ele><time>2026-04-26T14:56:24.999Z</time></trkpt><trkpt lat="44.869213004918905" lon="-1.0684668530863357"><ele>27.0</ele><time>2026-04-26T14:56:25.999Z</time></trkpt><trkpt lat="44.869319791286095" lon="-1.0683429478927664"><ele>27.0</ele><time>2026-04-26T14:56:26.999Z</time></trkpt><trkpt lat="44.869465904489225" lon="-1.0682146406281796"><ele>27.333333333333336</ele><time>2026-04-26T14:56:27.998Z</time></trkpt><trkpt lat="44.86964217402433" lon="-1.0680586844050934"><ele>27.666666666666668</ele><time>2026-04-26T14:56:28.998Z</time></trkpt><trkpt lat="44.86983403199237" lon="-1.067883550165196"><ele>28.0</ele><time>2026-04-26T14:56:29.998Z</time></trkpt><trkpt lat="44.87000453798146" lon="-1.0677297298632582"><ele>28.333333333333336</ele><time>2026-04-26T14:56:30.998Z</time></trkpt><trkpt lat="44.870175586388825" lon="-1.0675741181557095"><ele>28.666666666666664</ele><time>2026-04-26T14:56:31.998Z</time></trkpt><trkpt lat="44.87034830086967" lon="-1.0674126815257337"><ele>29.0</ele><time>2026-04-26T14:56:32.998Z</time></trkpt><trkpt lat="44.87048149395426" lon="-1.067276847198213"><ele>28.75</ele><time>2026-04-26T14:56:33.998Z</time></trkpt><trkpt lat="44.87060854279075" lon="-1.0671509964433898"><ele>28.5</ele><time>2026-04-26T14:56:34.998Z</time></trkpt><trkpt lat="44.87072426944347" lon="-1.0670514018635944"><ele>28.25</ele><time>2026-04-26T14:56:35.998Z</time></trkpt><trkpt lat="44.870842581942284" lon="-1.0669786413724978"><ele>28.0</ele><time>2026-04-26T14:56:36.998Z</time></trkpt><trkpt lat="44.87097856430417" lon="-1.0669442281424282"><ele>28.0</ele><time>2026-04-26T14:56:37.998Z</time></trkpt><trkpt lat="44.871151764580105" lon="-1.0669329353476205"><ele>28.0</ele><time>2026-04-26T14:56:38.998Z</time></trkpt><trkpt lat="44.87136859158736" lon="-1.0668871355309788"><ele>28.0</ele><time>2026-04-26T14:56:39.998Z</time></trkpt><trkpt lat="44.87158393543331" lon="-1.0668316662439334"><ele>28.0</ele><time>2026-04-26T14:56:40.998Z</time></trkpt><trkpt lat="44.871790072707604" lon="-1.066781788900246"><ele>28.0</ele><time>2026-04-26T14:56:41.998Z</time></trkpt><trkpt lat="44.872030608718404" lon="-1.066722475819436"><ele>28.0</ele><time>2026-04-26T14:56:42.998Z</time></trkpt><trkpt lat="44.87228293700932" lon="-1.0666574564490219"><ele>28.0</ele><time>2026-04-26T14:56:43.998Z</time></trkpt><trkpt lat="44.87252803929336" lon="-1.066598682020092"><ele>27.0</ele><time>2026-04-26T14:56:44.998Z</time></trkpt><trkpt lat="44.872768794079754" lon="-1.0665403550549697"><ele>26.0</ele><time>2026-04-26T14:56:45.998Z</time></trkpt><trkpt lat="44.87299942238572" lon="-1.0664806859104898"><ele>26.0</ele><time>2026-04-26T14:56:46.998Z</time></trkpt><trkpt lat="44.873208953130984" lon="-1.0664317466566335"><ele>26.0</ele><time>2026-04-26T14:56:47.998Z</time></trkpt><trkpt lat="44.873403131006775" lon="-1.066389913658178"><ele>26.0</ele><time>2026-04-26T14:56:48.998Z</time></trkpt><trkpt lat="44.87358871391845" lon="-1.066338900359712"><ele>27.0</ele><time>2026-04-26T14:56:49.998Z</time></trkpt><trkpt lat="44.87378587572001" lon="-1.0662832671266043"><ele>28.0</ele><time>2026-04-26T14:56:50.998Z</time></trkpt><trkpt lat="44.873941489718064" lon="-1.0662568423866707"><ele>29.0</ele><time>2026-04-26T14:56:51.998Z</time></trkpt><trkpt lat="44.87408494750143" lon="-1.0662295823155856"><ele>29.0</ele><time>2026-04-26T14:56:52.998Z</time></trkpt><trkpt lat="44.87421344903723" lon="-1.066199999419444"><ele>29.0</ele><time>2026-04-26T14:56:53.998Z</time></trkpt><trkpt lat="44.87433744533468" lon="-1.0661646428272789"><ele>29.0</ele><time>2026-04-26T14:56:54.998Z</time></trkpt><trkpt lat="44.87444224495041" lon="-1.0661324169398363"><ele>29.0</ele><time>2026-04-26T14:56:55.998Z</time></trkpt><trkpt lat="44.87453363589283" lon="-1.0661069463229855"><ele>29.333333333333332</ele><time>2026-04-26T14:56:56.998Z</time></trkpt><trkpt lat="44.87461800057465" lon="-1.0660842331421774"><ele>29.666666666666664</ele><time>2026-04-26T14:56:57.998Z</time></trkpt><trkpt lat="44.874695590973346" lon="-1.066061006495705"><ele>30.0</ele><time>2026-04-26T14:56:59Z</time></trkpt><trkpt lat="44.87476214044721" lon="-1.066051889494929"><ele>30.333333333333336</ele><time>2026-04-26T14:57:00Z</time></trkpt><trkpt lat="44.87486416720575" lon="-1.0660192585671473"><ele>30.666666666666668</ele><time>2026-04-26T14:57:02Z</time></trkpt><trkpt lat="44.8749348735327" lon="-1.065992676636772"><ele>31.0</ele><time>2026-04-26T14:57:03Z</time></trkpt><trkpt lat="44.87501358288843" lon="-1.0659682064327831"><ele>31.000000000000004</ele><time>2026-04-26T14:57:04Z</time></trkpt><trkpt lat="44.87508931603937" lon="-1.06595369218258"><ele>31.0</ele><time>2026-04-26T14:57:05Z</time></trkpt><trkpt lat="44.87520289402262" lon="-1.065924917675067"><ele>31.0</ele><time>2026-04-26T14:57:07Z</time></trkpt><trkpt lat="44.87527489130611" lon="-1.065908228279872"><ele>31.0</ele><time>2026-04-26T14:57:08Z</time></trkpt><trkpt lat="44.87538410065675" lon="-1.0658878157207192"><ele>31.000000000000004</ele><time>2026-04-26T14:57:10Z</time></trkpt><trkpt lat="44.875457422923105" lon="-1.065874663848199"><ele>31.0</ele><time>2026-04-26T14:57:12Z</time></trkpt><trkpt lat="44.875520841812985" lon="-1.0658785660829229"><ele>30.75</ele><time>2026-04-26T14:57:14Z</time></trkpt><trkpt lat="44.875683523083445" lon="-1.0658738333067632"><ele>30.5</ele><time>2026-04-26T14:57:16Z</time></trkpt><trkpt lat="44.87576696560626" lon="-1.065881623944625"><ele>30.25</ele><time>2026-04-26T14:57:17Z</time></trkpt><trkpt lat="44.87586609128819" lon="-1.065892620966045"><ele>30.0</ele><time>2026-04-26T14:57:18Z</time></trkpt><trkpt lat="44.875992036711374" lon="-1.065885761455741"><ele>30.0</ele><time>2026-04-26T14:57:19Z</time></trkpt><trkpt lat="44.87612748750474" lon="-1.0658842013967949"><ele>30.0</ele><time>2026-04-26T14:57:20Z</time></trkpt><trkpt lat="44.876269497885076" lon="-1.0658893681444146"><ele>30.0</ele><time>2026-04-26T14:57:21Z</time></trkpt><trkpt lat="44.87641142556746" lon="-1.065894070330314"><ele>30.0</ele><time>2026-04-26T14:57:22Z</time></trkpt><trkpt lat="44.876549497215294" lon="-1.0658964107909186"><ele>30.0</ele><time>2026-04-26T14:57:23Z</time></trkpt><trkpt lat="44.876668316924814" lon="-1.065899259996324"><ele>30.0</ele><time>2026-04-26T14:57:24Z</time></trkpt><trkpt lat="44.87677534802555" lon="-1.0659008246016015"><ele>30.0</ele><time>2026-04-26T14:57:25Z</time></trkpt><trkpt lat="44.8768925764045" lon="-1.0659012290363021"><ele>30.0</ele><time>2026-04-26T14:57:26Z</time></trkpt><trkpt lat="44.87702642931183" lon="-1.0658969159215907"><ele>29.75</ele><time>2026-04-26T14:57:27Z</time></trkpt><trkpt lat="44.87716269584815" lon="-1.0659040717690782"><ele>29.5</ele><time>2026-04-26T14:57:28Z</time></trkpt><trkpt lat="44.87731277328906" lon="-1.0659148964515113"><ele>29.25</ele><time>2026-04-26T14:57:29Z</time></trkpt><trkpt lat="44.87745555660616" lon="-1.06591777786841"><ele>29.0</ele><time>2026-04-26T14:57:30Z</time></trkpt><trkpt lat="44.87758415638219" lon="-1.0659219080169051"><ele>28.5</ele><time>2026-04-26T14:57:31Z</time></trkpt><trkpt lat="44.87771918880584" lon="-1.065925245097655"><ele>28.0</ele><time>2026-04-26T14:57:32Z</time></trkpt><trkpt lat="44.87785290744738" lon="-1.0659346053533765"><ele>27.5</ele><time>2026-04-26T14:57:33Z</time></trkpt><trkpt lat="44.87797282926306" lon="-1.0659441108088823"><ele>27.0</ele><time>2026-04-26T14:57:34Z</time></trkpt><trkpt lat="44.87811210054913" lon="-1.0659463638611046"><ele>27.0</ele><time>2026-04-26T14:57:35Z</time></trkpt><trkpt lat="44.87824743518206" lon="-1.0659486864894494"><ele>27.0</ele><time>2026-04-26T14:57:36Z</time></trkpt><trkpt lat="44.87836496141356" lon="-1.0659538228332266"><ele>27.0</ele><time>2026-04-26T14:57:37Z</time></trkpt><trkpt lat="44.87846580252474" lon="-1.0659514133487056"><ele>27.0</ele><time>2026-04-26T14:57:37.999Z</time></trkpt><trkpt lat="44.878580322373026" lon="-1.0659572376633433"><ele>26.75</ele><time>2026-04-26T14:57:38.999Z</time></trkpt><trkpt lat="44.87870548025297" lon="-1.0659504806190294"><ele>26.5</ele><time>2026-04-26T14:57:39.999Z</time></trkpt><trkpt lat="44.87883787902871" lon="-1.065938064432481"><ele>26.25</ele><time>2026-04-26T14:57:40.999Z</time></trkpt><trkpt lat="44.87899473831153" lon="-1.065942766189059"><ele>26.0</ele><time>2026-04-26T14:57:41.999Z</time></trkpt><trkpt lat="44.879165589135795" lon="-1.0659506850557026"><ele>27.666666666666664</ele><time>2026-04-26T14:57:42.999Z</time></trkpt><trkpt lat="44.87934767578844" lon="-1.0659634109854068"><ele>29.333333333333336</ele><time>2026-04-26T14:57:43.999Z</time></trkpt><trkpt lat="44.87950227900847" lon="-1.0659760404213787"><ele>31.0</ele><time>2026-04-26T14:57:44.999Z</time></trkpt><trkpt lat="44.879650621114564" lon="-1.065993536379199"><ele>31.0</ele><time>2026-04-26T14:57:45.999Z</time></trkpt><trkpt lat="44.879793809114005" lon="-1.0659941239730013"><ele>31.0</ele><time>2026-04-26T14:57:46.999Z</time></trkpt><trkpt lat="44.87993821794992" lon="-1.0659947146627744"><ele>31.0</ele><time>2026-04-26T14:57:47.999Z</time></trkpt><trkpt lat="44.88009339325885" lon="-1.0659937965645052"><ele>31.0</ele><time>2026-04-26T14:57:48.999Z</time></trkpt><trkpt lat="44.88025927203641" lon="-1.065989732908525"><ele>30.75</ele><time>2026-04-26T14:57:49.999Z</time></trkpt><trkpt lat="44.88038307265783" lon="-1.0660026581284066"><ele>30.5</ele><time>2026-04-26T14:57:50.999Z</time></trkpt><trkpt lat="44.880513798860726" lon="-1.066036933103899"><ele>30.25</ele><time>2026-04-26T14:57:51.999Z</time></trkpt><trkpt lat="44.880634633063615" lon="-1.0660965824493172"><ele>30.0</ele><time>2026-04-26T14:57:52.999Z</time></trkpt><trkpt lat="44.8807899288182" lon="-1.066189682883262"><ele>30.666666666666664</ele><time>2026-04-26T14:57:53.999Z</time></trkpt><trkpt lat="44.88098720634749" lon="-1.0663103958205842"><ele>31.333333333333332</ele><time>2026-04-26T14:57:54.999Z</time></trkpt><trkpt lat="44.881183026713764" lon="-1.0664233811896782"><ele>32.0</ele><time>2026-04-26T14:57:55.999Z</time></trkpt><trkpt lat="44.88137190973172" lon="-1.0665236834073069"><ele>31.0</ele><time>2026-04-26T14:57:56.999Z</time></trkpt><trkpt lat="44.881587330400706" lon="-1.066628466043103"><ele>30.0</ele><time>2026-04-26T14:57:57.999Z</time></trkpt><trkpt lat="44.88180866273268" lon="-1.0667416458859909"><ele>30.0</ele><time>2026-04-26T14:57:58.999Z</time></trkpt><trkpt lat="44.88196090196408" lon="-1.066872517648103"><ele>30.0</ele><time>2026-04-26T14:58:00.999Z</time></trkpt><trkpt lat="44.88209893407924" lon="-1.0669545939668736"><ele>30.0</ele><time>2026-04-26T14:58:01.999Z</time></trkpt><trkpt lat="44.882234884398656" lon="-1.067025319605315"><ele>30.0</ele><time>2026-04-26T14:58:02.999Z</time></trkpt><trkpt lat="44.88235367203094" lon="-1.0670918871563702"><ele>30.0</ele><time>2026-04-26T14:58:03.999Z</time></trkpt><trkpt lat="44.882460796634575" lon="-1.0671504028610421"><ele>30.0</ele><time>2026-04-26T14:58:04.999Z</time></trkpt><trkpt lat="44.882555593277345" lon="-1.0672057766591332"><ele>30.0</ele><time>2026-04-26T14:58:05.999Z</time></trkpt><trkpt lat="44.88264524096986" lon="-1.067254773745082"><ele>30.0</ele><time>2026-04-26T14:58:06.999Z</time></trkpt><trkpt lat="44.88273743706878" lon="-1.0673041891406105"><ele>30.166666666666668</ele><time>2026-04-26T14:58:07.999Z</time></trkpt><trkpt lat="44.88281706888887" lon="-1.0673426590297406"><ele>30.333333333333336</ele><time>2026-04-26T14:58:08.999Z</time></trkpt><trkpt lat="44.88288596775489" lon="-1.0673744963463925"><ele>30.5</ele><time>2026-04-26T14:58:09.999Z</time></trkpt><trkpt lat="44.882949063327025" lon="-1.0674129963865093"><ele>30.666666666666668</ele><time>2026-04-26T14:58:10.999Z</time></trkpt><trkpt lat="44.88300522978198" lon="-1.0674542897299246"><ele>30.833333333333336</ele><time>2026-04-26T14:58:11.999Z</time></trkpt><trkpt lat="44.8831178948899" lon="-1.0674622671588505"><ele>31.0</ele><time>2026-04-26T14:58:13.999Z</time></trkpt><trkpt lat="44.88319321448619" lon="-1.0675059496536687"><ele>31.0</ele><time>2026-04-26T14:58:15.999Z</time></trkpt><trkpt lat="44.88329147507208" lon="-1.0675629370429676"><ele>31.0</ele><time>2026-04-26T14:58:18.999Z</time></trkpt><trkpt lat="44.883373857733424" lon="-1.0676107158401038"><ele>31.0</ele><time>2026-04-26T14:58:19.999Z</time></trkpt><trkpt lat="44.88347121257406" lon="-1.067667177927706"><ele>31.0</ele><time>2026-04-26T14:58:20.999Z</time></trkpt><trkpt lat="44.88356770859137" lon="-1.0677231419314388"><ele>31.0</ele><time>2026-04-26T14:58:21.999Z</time></trkpt><trkpt lat="44.88367290696775" lon="-1.0677841529711385"><ele>31.5</ele><time>2026-04-26T14:58:22.999Z</time></trkpt><trkpt lat="44.88378572039105" lon="-1.0678495804467036"><ele>32.0</ele><time>2026-04-26T14:58:23.999Z</time></trkpt><trkpt lat="44.88390379264334" lon="-1.0679173864661562"><ele>32.5</ele><time>2026-04-26T14:58:24.999Z</time></trkpt><trkpt lat="44.88402440957713" lon="-1.067986513185971"><ele>33.0</ele><time>2026-04-26T14:58:25.999Z</time></trkpt><trkpt lat="44.88413031861786" lon="-1.0680472106687773"><ele>33.0</ele><time>2026-04-26T14:58:26.998Z</time></trkpt><trkpt lat="44.88424271552187" lon="-1.0681116264074464"><ele>33.0</ele><time>2026-04-26T14:58:27.998Z</time></trkpt><trkpt lat="44.884368262821944" lon="-1.0681835787680451"><ele>33.0</ele><time>2026-04-26T14:58:28.998Z</time></trkpt><trkpt lat="44.88449925411078" lon="-1.0682838800615364"><ele>33.0</ele><time>2026-04-26T14:58:29.998Z</time></trkpt><trkpt lat="44.884632051610325" lon="-1.0683347586483836"><ele>31.75</ele><time>2026-04-26T14:58:30.998Z</time></trkpt><trkpt lat="44.884743990763546" lon="-1.0683989120468922"><ele>30.5</ele><time>2026-04-26T14:58:31.998Z</time></trkpt><trkpt lat="44.88484103800778" lon="-1.0684545307557545"><ele>29.25</ele><time>2026-04-26T14:58:32.998Z</time></trkpt><trkpt lat="44.88495258568401" lon="-1.0685142316074554"><ele>28.0</ele><time>2026-04-26T14:58:33.998Z</time></trkpt><trkpt lat="44.885062863601696" lon="-1.0685732012345135"><ele>26.75</ele><time>2026-04-26T14:58:34.998Z</time></trkpt><trkpt lat="44.88517275075811" lon="-1.0686319619059002"><ele>25.5</ele><time>2026-04-26T14:58:35.998Z</time></trkpt><trkpt lat="44.88528568968728" lon="-1.0686923544711704"><ele>24.25</ele><time>2026-04-26T14:58:36.998Z</time></trkpt><trkpt lat="44.88538747552806" lon="-1.0687467830734316"><ele>23.0</ele><time>2026-04-26T14:58:37.998Z</time></trkpt><trkpt lat="44.88549402141278" lon="-1.0688056624635673"><ele>23.0</ele><time>2026-04-26T14:58:38.998Z</time></trkpt><trkpt lat="44.88559671702111" lon="-1.0688634864061903"><ele>23.0</ele><time>2026-04-26T14:58:39.998Z</time></trkpt><trkpt lat="44.88567450484398" lon="-1.0689280453892143"><ele>23.0</ele><time>2026-04-26T14:58:40.998Z</time></trkpt><trkpt lat="44.88575344890381" lon="-1.0689644330218786"><ele>23.0</ele><time>2026-04-26T14:58:41.998Z</time></trkpt><trkpt lat="44.88581943899015" lon="-1.0690033246196562"><ele>23.0</ele><time>2026-04-26T14:58:42.998Z</time></trkpt><trkpt lat="44.88589387920291" lon="-1.0690503662245474"><ele>23.0</ele><time>2026-04-26T14:58:43.998Z</time></trkpt><trkpt lat="44.885958292905286" lon="-1.0690913759960812"><ele>23.599999999999998</ele><time>2026-04-26T14:58:44.998Z</time></trkpt><trkpt lat="44.886025509768004" lon="-1.069104923109412"><ele>24.2</ele><time>2026-04-26T14:58:45.998Z</time></trkpt><trkpt lat="44.88609443559986" lon="-1.069181531536313"><ele>24.8</ele><time>2026-04-26T14:58:46.998Z</time></trkpt><trkpt lat="44.88616776898826" lon="-1.0692548091013006"><ele>25.4</ele><time>2026-04-26T14:58:47.998Z</time></trkpt><trkpt lat="44.8862507066485" lon="-1.0693347675533658"><ele>26.0</ele><time>2026-04-26T14:58:48.998Z</time></trkpt><trkpt lat="44.8863384964846" lon="-1.069432885469168"><ele>26.8</ele><time>2026-04-26T14:58:49.998Z</time></trkpt><trkpt lat="44.8864451356728" lon="-1.0695222326635019"><ele>27.6</ele><time>2026-04-26T14:58:50.998Z</time></trkpt><trkpt lat="44.886521120267716" lon="-1.0696041334710902"><ele>28.4</ele><time>2026-04-26T14:58:51.998Z</time></trkpt><trkpt lat="44.88659631185624" lon="-1.0696851795273026"><ele>29.2</ele><time>2026-04-26T14:58:52.998Z</time></trkpt><trkpt lat="44.886665988188" lon="-1.069760280907328"><ele>30.0</ele><time>2026-04-26T14:58:53.998Z</time></trkpt><trkpt lat="44.88672668550484" lon="-1.0698257041565458"><ele>29.2</ele><time>2026-04-26T14:58:54.998Z</time></trkpt><trkpt lat="44.88679161617469" lon="-1.0698956903747725"><ele>28.4</ele><time>2026-04-26T14:58:55.998Z</time></trkpt><trkpt lat="44.886864912296716" lon="-1.069973910979249"><ele>27.6</ele><time>2026-04-26T14:58:56.998Z</time></trkpt><trkpt lat="44.88693683586806" lon="-1.0700504812035232"><ele>26.8</ele><time>2026-04-26T14:58:57.998Z</time></trkpt><trkpt lat="44.88701109026311" lon="-1.0701295328342884"><ele>26.0</ele><time>2026-04-26T14:58:58.998Z</time></trkpt><trkpt lat="44.88708781867452" lon="-1.0702110989454032"><ele>25.999999999999996</ele><time>2026-04-26T14:58:59.998Z</time></trkpt><trkpt lat="44.88714742094687" lon="-1.070302721890065"><ele>26.0</ele><time>2026-04-26T14:59:00.998Z</time></trkpt><trkpt lat="44.88721847550445" lon="-1.0703723217954544"><ele>26.0</ele><time>2026-04-26T14:59:01.998Z</time></trkpt><trkpt lat="44.88728328220437" lon="-1.0704389736682072"><ele>26.0</ele><time>2026-04-26T14:59:02.998Z</time></trkpt><trkpt lat="44.887355529129024" lon="-1.070522941549933"><ele>25.999999999999996</ele><time>2026-04-26T14:59:03.998Z</time></trkpt><trkpt lat="44.8874192831493" lon="-1.0705881747520203"><ele>26.0</ele><time>2026-04-26T14:59:05Z</time></trkpt><trkpt lat="44.88749557602017" lon="-1.0706444539526607"><ele>26.0</ele><time>2026-04-26T14:59:06Z</time></trkpt><trkpt lat="44.88756850011027" lon="-1.0707219559763799"><ele>26.0</ele><time>2026-04-26T14:59:07Z</time></trkpt><trkpt lat="44.88764379362981" lon="-1.0708019746653457"><ele>26.0</ele><time>2026-04-26T14:59:08Z</time></trkpt><trkpt lat="44.88772000391137" lon="-1.070882969105261"><ele>26.0</ele><time>2026-04-26T14:59:09Z</time></trkpt><trkpt lat="44.88779665868693" lon="-1.0709644360246864"><ele>26.0</ele><time>2026-04-26T14:59:10Z</time></trkpt><trkpt lat="44.887883401433626" lon="-1.0710566243816046"><ele>27.0</ele><time>2026-04-26T14:59:11Z</time></trkpt><trkpt lat="44.887978053653775" lon="-1.0711554847421294"><ele>28.0</ele><time>2026-04-26T14:59:12Z</time></trkpt><trkpt lat="44.88807446047501" lon="-1.0712557059482266"><ele>29.0</ele><time>2026-04-26T14:59:13Z</time></trkpt><trkpt lat="44.888155460463054" lon="-1.0713399107401527"><ele>30.0</ele><time>2026-04-26T14:59:14Z</time></trkpt><trkpt lat="44.88822398074325" lon="-1.0714111420588046"><ele>31.0</ele><time>2026-04-26T14:59:15Z</time></trkpt><trkpt lat="44.888287722212674" lon="-1.0714774054882625"><ele>31.0</ele><time>2026-04-26T14:59:16Z</time></trkpt><trkpt lat="44.88835701946083" lon="-1.0715494445049996"><ele>31.0</ele><time>2026-04-26T14:59:17Z</time></trkpt><trkpt lat="44.88841792719297" lon="-1.0716127620820985"><ele>31.0</ele><time>2026-04-26T14:59:18Z</time></trkpt><trkpt lat="44.88845755464921" lon="-1.0716826538345883"><ele>31.0</ele><time>2026-04-26T14:59:19Z</time></trkpt><trkpt lat="44.88854152283655" lon="-1.0717701397321695"><ele>31.0</ele><time>2026-04-26T14:59:21Z</time></trkpt><trkpt lat="44.88850041205384" lon="-1.0719514003504815"><ele>31.5</ele><time>2026-04-26T14:59:25Z</time></trkpt><trkpt lat="44.88843376802495" lon="-1.0720165640147346"><ele>32.0</ele><time>2026-04-26T14:59:26Z</time></trkpt><trkpt lat="44.888335520727374" lon="-1.0721131702691948"><ele>32.5</ele><time>2026-04-26T14:59:27Z</time></trkpt><trkpt lat="44.88823174184903" lon="-1.0722434810429702"><ele>33.0</ele><time>2026-04-26T14:59:28Z</time></trkpt><trkpt lat="44.88812842304737" lon="-1.072393975852402"><ele>33.25</ele><time>2026-04-26T14:59:29Z</time></trkpt><trkpt lat="44.888035756841" lon="-1.07252763413352"><ele>33.5</ele><time>2026-04-26T14:59:30Z</time></trkpt><trkpt lat="44.88796488058928" lon="-1.0726380559568038"><ele>33.75</ele><time>2026-04-26T14:59:31Z</time></trkpt><trkpt lat="44.887883856764404" lon="-1.0727470060159179"><ele>34.0</ele><time>2026-04-26T14:59:32Z</time></trkpt><trkpt lat="44.88779697679549" lon="-1.0728671049269056"><ele>34.0</ele><time>2026-04-26T14:59:33Z</time></trkpt><trkpt lat="44.8876953600358" lon="-1.0730010253221327"><ele>34.0</ele><time>2026-04-26T14:59:34Z</time></trkpt><trkpt lat="44.887605868833184" lon="-1.0731340532984526"><ele>34.0</ele><time>2026-04-26T14:59:35Z</time></trkpt><trkpt lat="44.887515422380005" lon="-1.0732632618359303"><ele>34.0</ele><time>2026-04-26T14:59:36Z</time></trkpt><trkpt lat="44.88742349428554" lon="-1.0733792932205366"><ele>34.5</ele><time>2026-04-26T14:59:36.999Z</time></trkpt><trkpt lat="44.8873251798067" lon="-1.0735158938729266"><ele>35.0</ele><time>2026-04-26T14:59:37.999Z</time></trkpt><trkpt lat="44.88723647923313" lon="-1.0736451223190027"><ele>35.5</ele><time>2026-04-26T14:59:38.999Z</time></trkpt><trkpt lat="44.88714993710239" lon="-1.0737730049858694"><ele>36.0</ele><time>2026-04-26T14:59:39.999Z</time></trkpt><trkpt lat="44.88707365981514" lon="-1.0738791988612746"><ele>36.0</ele><time>2026-04-26T14:59:40.999Z</time></trkpt><trkpt lat="44.88698830228951" lon="-1.0740115638973122"><ele>36.0</ele><time>2026-04-26T14:59:41.999Z</time></trkpt><trkpt lat="44.88689534936391" lon="-1.0741419903938618"><ele>36.0</ele><time>2026-04-26T14:59:42.999Z</time></trkpt><trkpt lat="44.88678850511274" lon="-1.0743054479074339"><ele>36.0</ele><time>2026-04-26T14:59:43.999Z</time></trkpt><trkpt lat="44.88668079884984" lon="-1.0744642748033493"><ele>35.75</ele><time>2026-04-26T14:59:44.999Z</time></trkpt><trkpt lat="44.8865965790368" lon="-1.074588707355655"><ele>35.5</ele><time>2026-04-26T14:59:45.999Z</time></trkpt><trkpt lat="44.8865151463317" lon="-1.0746948974235184"><ele>35.25</ele><time>2026-04-26T14:59:46.999Z</time></trkpt><trkpt lat="44.88641588891796" lon="-1.074825856269267"><ele>35.0</ele><time>2026-04-26T14:59:47.999Z</time></trkpt><trkpt lat="44.88632267546266" lon="-1.0749548357732277"><ele>35.0</ele><time>2026-04-26T14:59:48.999Z</time></trkpt><trkpt lat="44.88623134095289" lon="-1.075083174801703"><ele>35.0</ele><time>2026-04-26T14:59:49.999Z</time></trkpt><trkpt lat="44.88614992525943" lon="-1.0752007801128753"><ele>35.0</ele><time>2026-04-26T14:59:50.999Z</time></trkpt><trkpt lat="44.886049246700324" lon="-1.0753441380714441"><ele>35.0</ele><time>2026-04-26T14:59:51.999Z</time></trkpt><trkpt lat="44.88596364322427" lon="-1.0754637427845302"><ele>35.25</ele><time>2026-04-26T14:59:52.999Z</time></trkpt><trkpt lat="44.88587264587305" lon="-1.0755933672377902"><ele>35.5</ele><time>2026-04-26T14:59:53.999Z</time></trkpt><trkpt lat="44.885786099957606" lon="-1.0757178180370741"><ele>35.75</ele><time>2026-04-26T14:59:54.999Z</time></trkpt><trkpt lat="44.885681737590005" lon="-1.0758669709068334"><ele>36.0</ele><time>2026-04-26T14:59:55.999Z</time></trkpt><trkpt lat="44.88558859273015" lon="-1.0760030704251813"><ele>36.0</ele><time>2026-04-26T14:59:56.999Z</time></trkpt><trkpt lat="44.88549934596826" lon="-1.0761313640875811"><ele>36.0</ele><time>2026-04-26T14:59:57.999Z</time></trkpt><trkpt lat="44.88540510900256" lon="-1.0762596681180236"><ele>36.0</ele><time>2026-04-26T14:59:58.999Z</time></trkpt><trkpt lat="44.88531874727476" lon="-1.0763809676018297"><ele>36.0</ele><time>2026-04-26T14:59:59.999Z</time></trkpt><trkpt lat="44.88523948903435" lon="-1.0764965665337118"><ele>35.8</ele><time>2026-04-26T15:00:00.999Z</time></trkpt><trkpt lat="44.88516376109741" lon="-1.0766141557785291"><ele>35.6</ele><time>2026-04-26T15:00:01.999Z</time></trkpt><trkpt lat="44.885099549876564" lon="-1.0767108387406652"><ele>35.4</ele><time>2026-04-26T15:00:02.999Z</time></trkpt><trkpt lat="44.88502642144153" lon="-1.0768208355196285"><ele>35.2</ele><time>2026-04-26T15:00:03.999Z</time></trkpt><trkpt lat="44.884955399353814" lon="-1.0769253340576763"><ele>35.0</ele><time>2026-04-26T15:00:04.999Z</time></trkpt><trkpt lat="44.88489049323351" lon="-1.077014691518491"><ele>34.6</ele><time>2026-04-26T15:00:05.999Z</time></trkpt><trkpt lat="44.88483103685935" lon="-1.0770847228948102"><ele>34.2</ele><time>2026-04-26T15:00:06.999Z</time></trkpt><trkpt lat="44.884743702277135" lon="-1.077221098717572"><ele>33.8</ele><time>2026-04-26T15:00:08.999Z</time></trkpt><trkpt lat="44.884708390059245" lon="-1.0773026620941912"><ele>33.4</ele><time>2026-04-26T15:00:10.999Z</time></trkpt><trkpt lat="44.88481762942052" lon="-1.0774219371346863"><ele>33.0</ele><time>2026-04-26T15:00:13.999Z</time></trkpt><trkpt lat="44.88492065973083" lon="-1.0775083207606722"><ele>32.0</ele><time>2026-04-26T15:00:14.999Z</time></trkpt><trkpt lat="44.88505105589818" lon="-1.077634644868399"><ele>31.0</ele><time>2026-04-26T15:00:15.999Z</time></trkpt><trkpt lat="44.885207671821156" lon="-1.0778031883921804"><ele>30.0</ele><time>2026-04-26T15:00:16.999Z</time></trkpt><trkpt lat="44.88538005766731" lon="-1.0779992244828678"><ele>31.666666666666664</ele><time>2026-04-26T15:00:17.999Z</time></trkpt><trkpt lat="44.8855471957246" lon="-1.078179727648008"><ele>33.33333333333333</ele><time>2026-04-26T15:00:18.999Z</time></trkpt><trkpt lat="44.88569472981695" lon="-1.078331739347028"><ele>35.0</ele><time>2026-04-26T15:00:19.999Z</time></trkpt><trkpt lat="44.88583002441398" lon="-1.0784789549588956"><ele>36.0</ele><time>2026-04-26T15:00:20.999Z</time></trkpt><trkpt lat="44.88595424039067" lon="-1.0786080313236928"><ele>37.0</ele><time>2026-04-26T15:00:21.999Z</time></trkpt><trkpt lat="44.886060390403834" lon="-1.0787203038517663"><ele>38.0</ele><time>2026-04-26T15:00:22.999Z</time></trkpt><trkpt lat="44.88615666488734" lon="-1.0788177264326733"><ele>39.0</ele><time>2026-04-26T15:00:23.999Z</time></trkpt><trkpt lat="44.88624200453194" lon="-1.0788996130655415"><ele>39.0</ele><time>2026-04-26T15:00:24.998Z</time></trkpt><trkpt lat="44.886312498211225" lon="-1.0789624800311675"><ele>39.0</ele><time>2026-04-26T15:00:25.998Z</time></trkpt><trkpt lat="44.88639134043123" lon="-1.0790457340445996"><ele>39.0</ele><time>2026-04-26T15:00:27.998Z</time></trkpt><trkpt lat="44.88639956400188" lon="-1.0791457389652173"><ele>39.0</ele><time>2026-04-26T15:00:29.998Z</time></trkpt><trkpt lat="44.8862802713423" lon="-1.0791549177763784"><ele>39.0</ele><time>2026-04-26T15:02:27.998Z</time></trkpt><trkpt lat="44.886090327230455" lon="-1.079094732633627"><ele>37.666666666666664</ele><time>2026-04-26T15:02:29.998Z</time></trkpt><trkpt lat="44.88592016442578" lon="-1.0790667520356176"><ele>36.33333333333333</ele><time>2026-04-26T15:02:30.998Z</time></trkpt><trkpt lat="44.88571486989765" lon="-1.0790262541592501"><ele>35.0</ele><time>2026-04-26T15:02:31.998Z</time></trkpt><trkpt lat="44.88553580970615" lon="-1.0789999004031607"><ele>35.0</ele><time>2026-04-26T15:02:32.998Z</time></trkpt><trkpt lat="44.885353050313775" lon="-1.0789796066879098"><ele>35.0</ele><time>2026-04-26T15:02:33.998Z</time></trkpt><trkpt lat="44.88518367416554" lon="-1.0789631665706947"><ele>35.0</ele><time>2026-04-26T15:02:34.998Z</time></trkpt><trkpt lat="44.88498045461057" lon="-1.0789300226935286"><ele>32.0</ele><time>2026-04-26T15:02:35.998Z</time></trkpt><trkpt lat="44.884804317044185" lon="-1.0788887516370675"><ele>29.0</ele><time>2026-04-26T15:02:36.998Z</time></trkpt><trkpt lat="44.88462402062831" lon="-1.0788592042905996"><ele>26.0</ele><time>2026-04-26T15:02:37.998Z</time></trkpt><trkpt lat="44.884423914959605" lon="-1.0788287975336568"><ele>27.0</ele><time>2026-04-26T15:02:38.998Z</time></trkpt><trkpt lat="44.88419973055983" lon="-1.0787986584451752"><ele>28.0</ele><time>2026-04-26T15:02:39.998Z</time></trkpt><trkpt lat="44.88397766744057" lon="-1.0787628270024217"><ele>29.0</ele><time>2026-04-26T15:02:40.998Z</time></trkpt><trkpt lat="44.88373722327519" lon="-1.078724774430724"><ele>29.0</ele><time>2026-04-26T15:02:41.998Z</time></trkpt><trkpt lat="44.88350465291514" lon="-1.0786935356508278"><ele>29.0</ele><time>2026-04-26T15:02:42.998Z</time></trkpt><trkpt lat="44.8832888207685" lon="-1.0786630608948438"><ele>31.0</ele><time>2026-04-26T15:02:43.998Z</time></trkpt><trkpt lat="44.88304379992751" lon="-1.0786204140369702"><ele>33.0</ele><time>2026-04-26T15:02:44.998Z</time></trkpt><trkpt lat="44.88279115432197" lon="-1.078583587091971"><ele>29.5</ele><time>2026-04-26T15:02:45.998Z</time></trkpt><trkpt lat="44.88251574701954" lon="-1.078539205054764"><ele>26.0</ele><time>2026-04-26T15:02:46.998Z</time></trkpt><trkpt lat="44.88224030548155" lon="-1.0784953592886262"><ele>26.0</ele><time>2026-04-26T15:02:47.998Z</time></trkpt><trkpt lat="44.88199713557968" lon="-1.0784606241383279"><ele>26.0</ele><time>2026-04-26T15:02:48.998Z</time></trkpt><trkpt lat="44.88178333061602" lon="-1.078429104520042"><ele>26.666666666666664</ele><time>2026-04-26T15:02:49.998Z</time></trkpt><trkpt lat="44.88158475141557" lon="-1.0784040538465156"><ele>27.333333333333336</ele><time>2026-04-26T15:02:50.998Z</time></trkpt><trkpt lat="44.88141083559334" lon="-1.0783771443656056"><ele>28.0</ele><time>2026-04-26T15:02:51.998Z</time></trkpt><trkpt lat="44.88125891882437" lon="-1.0783520357172027"><ele>28.0</ele><time>2026-04-26T15:02:52.998Z</time></trkpt><trkpt lat="44.88112827579494" lon="-1.0783309171561763"><ele>28.0</ele><time>2026-04-26T15:02:53.998Z</time></trkpt><trkpt lat="44.88100606772571" lon="-1.078314545395517"><ele>28.0</ele><time>2026-04-26T15:02:54.998Z</time></trkpt><trkpt lat="44.880899104037" lon="-1.0782927528342743"><ele>28.0</ele><time>2026-04-26T15:02:55.998Z</time></trkpt><trkpt lat="44.88079783168563" lon="-1.0782766784465112"><ele>27.666666666666668</ele><time>2026-04-26T15:02:56.998Z</time></trkpt><trkpt lat="44.880707721990774" lon="-1.0782663198929177"><ele>27.333333333333336</ele><time>2026-04-26T15:02:57.998Z</time></trkpt><trkpt lat="44.88062322274169" lon="-1.07825610119091"><ele>27.0</ele><time>2026-04-26T15:02:58.998Z</time></trkpt><trkpt lat="44.88056031586135" lon="-1.0782502756113517"><ele>26.666666666666664</ele><time>2026-04-26T15:02:59.998Z</time></trkpt><trkpt lat="44.88047384270682" lon="-1.07827926803193"><ele>26.333333333333332</ele><time>2026-04-26T15:03:01.998Z</time></trkpt><trkpt lat="44.880394036310534" lon="-1.0783840826093614"><ele>26.0</ele><time>2026-04-26T15:03:02.998Z</time></trkpt><trkpt lat="44.88032337675605" lon="-1.0785423696027097"><ele>26.0</ele><time>2026-04-26T15:03:03.998Z</time></trkpt><trkpt lat="44.88022908146086" lon="-1.0787215304201607"><ele>26.0</ele><time>2026-04-26T15:03:04.998Z</time></trkpt><trkpt lat="44.88009550750658" lon="-1.0789633089546513"><ele>26.0</ele><time>2026-04-26T15:03:05.998Z</time></trkpt><trkpt lat="44.87999575664887" lon="-1.0791341484985248"><ele>26.8</ele><time>2026-04-26T15:03:06.998Z</time></trkpt><trkpt lat="44.879915788502394" lon="-1.0792549194015284"><ele>27.6</ele><time>2026-04-26T15:03:07.998Z</time></trkpt><trkpt lat="44.87984413982167" lon="-1.0793622845200344"><ele>28.4</ele><time>2026-04-26T15:03:08.998Z</time></trkpt><trkpt lat="44.87977500623203" lon="-1.0794618226086146"><ele>29.2</ele><time>2026-04-26T15:03:09.998Z</time></trkpt><trkpt lat="44.87972203668205" lon="-1.0795498512239374"><ele>30.0</ele><time>2026-04-26T15:03:10.998Z</time></trkpt><trkpt lat="44.87967943318041" lon="-1.079620235875877"><ele>30.0</ele><time>2026-04-26T15:03:11.997Z</time></trkpt><trkpt lat="44.87963263308431" lon="-1.0796882793169382"><ele>30.0</ele><time>2026-04-26T15:03:12.997Z</time></trkpt><trkpt lat="44.879592078625706" lon="-1.0797596531893783"><ele>30.0</ele><time>2026-04-26T15:03:13.997Z</time></trkpt><trkpt lat="44.87952614231961" lon="-1.079845745911589"><ele>30.0</ele><time>2026-04-26T15:03:16Z</time></trkpt><trkpt lat="44.879486130420446" lon="-1.0799369245099357"><ele>30.0</ele><time>2026-04-26T15:03:17Z</time></trkpt><trkpt lat="44.87941857349339" lon="-1.080045478969981"><ele>30.0</ele><time>2026-04-26T15:03:19Z</time></trkpt><trkpt lat="44.87933275423502" lon="-1.0801653134229243"><ele>29.666666666666668</ele><time>2026-04-26T15:03:21Z</time></trkpt><trkpt lat="44.87926508820751" lon="-1.0802785463733777"><ele>29.333333333333336</ele><time>2026-04-26T15:03:23Z</time></trkpt><trkpt lat="44.87918828192948" lon="-1.0804047766967737"><ele>29.0</ele><time>2026-04-26T15:03:25Z</time></trkpt><trkpt lat="44.879148047638694" lon="-1.0804807918531216"><ele>28.666666666666668</ele><time>2026-04-26T15:03:26Z</time></trkpt><trkpt lat="44.87910045440923" lon="-1.0805557643302919"><ele>28.333333333333336</ele><time>2026-04-26T15:03:27Z</time></trkpt><trkpt lat="44.87905064517394" lon="-1.0806271857513299"><ele>28.0</ele><time>2026-04-26T15:03:28Z</time></trkpt><trkpt lat="44.879007147951164" lon="-1.0806986251075108"><ele>27.666666666666668</ele><time>2026-04-26T15:03:29Z</time></trkpt><trkpt lat="44.87895237213242" lon="-1.0808214276623445"><ele>27.333333333333336</ele><time>2026-04-26T15:03:31Z</time></trkpt><trkpt lat="44.87889399645194" lon="-1.0809355320565792"><ele>27.0</ele><time>2026-04-26T15:03:33.999Z</time></trkpt><trkpt lat="44.87882883389578" lon="-1.081027566770276"><ele>26.666666666666664</ele><time>2026-04-26T15:03:36.999Z</time></trkpt><trkpt lat="44.87888421720443" lon="-1.0810869012125515"><ele>26.333333333333332</ele><time>2026-04-26T15:03:41.999Z</time></trkpt><trkpt lat="44.87895011091469" lon="-1.0810956105545098"><ele>26.0</ele><time>2026-04-26T15:03:43.999Z</time></trkpt><trkpt lat="44.87901609557034" lon="-1.0811031047560498"><ele>25.999999999999996</ele><time>2026-04-26T15:03:46.999Z</time></trkpt><trkpt lat="44.879095920504334" lon="-1.0811398959748368"><ele>26.0</ele><time>2026-04-26T15:03:48.999Z</time></trkpt><trkpt lat="44.87914886881158" lon="-1.081195604757954"><ele>26.0</ele><time>2026-04-26T15:03:50.999Z</time></trkpt><trkpt lat="44.8791036988629" lon="-1.081258762467908"><ele>26.0</ele><time>2026-04-26T15:03:52.999Z</time></trkpt><trkpt lat="44.87901938316013" lon="-1.0812714809680344"><ele>25.999999999999996</ele><time>2026-04-26T15:03:54.999Z</time></trkpt><trkpt lat="44.87890687273407" lon="-1.081277023798678"><ele>26.0</ele><time>2026-04-26T15:03:56.999Z</time></trkpt><trkpt lat="44.87879716463863" lon="-1.0813050435991387"><ele>26.0</ele><time>2026-04-26T15:03:58.999Z</time></trkpt><trkpt lat="44.87870177948021" lon="-1.081322358707384"><ele>26.0</ele><time>2026-04-26T15:03:59.999Z</time></trkpt><trkpt lat="44.87860995000473" lon="-1.0813429794797782"><ele>26.0</ele><time>2026-04-26T15:04:00.999Z</time></trkpt><trkpt lat="44.878514795421324" lon="-1.0814858540986703"><ele>26.0</ele><time>2026-04-26T15:04:02.999Z</time></trkpt><trkpt lat="44.87844264486757" lon="-1.0815553412669037"><ele>26.0</ele><time>2026-04-26T15:04:03.999Z</time></trkpt><trkpt lat="44.87833294748638" lon="-1.081627351947467"><ele>26.0</ele><time>2026-04-26T15:04:04.999Z</time></trkpt><trkpt lat="44.87820741409844" lon="-1.0817344828901152"><ele>26.0</ele><time>2026-04-26T15:04:05.999Z</time></trkpt><trkpt lat="44.87812253670427" lon="-1.0817857292632582"><ele>26.0</ele><time>2026-04-26T15:04:06.998Z</time></trkpt><trkpt lat="44.878054276838476" lon="-1.081824068062869"><ele>26.0</ele><time>2026-04-26T15:04:07.998Z</time></trkpt><trkpt lat="44.87793882859235" lon="-1.0819019436958675"><ele>26.0</ele><time>2026-04-26T15:04:09.998Z</time></trkpt><trkpt lat="44.877878631723135" lon="-1.081929542968264"><ele>26.0</ele><time>2026-04-26T15:04:10.998Z</time></trkpt><trkpt lat="44.87780877286" lon="-1.0819610950132723"><ele>26.0</ele><time>2026-04-26T15:04:11.998Z</time></trkpt><trkpt lat="44.877679328038234" lon="-1.082025782572959"><ele>26.0</ele><time>2026-04-26T15:04:12.998Z</time></trkpt><trkpt lat="44.877569305146416" lon="-1.0820728267700122"><ele>26.0</ele><time>2026-04-26T15:04:13.998Z</time></trkpt><trkpt lat="44.87750251563393" lon="-1.082095519766851"><ele>26.0</ele><time>2026-04-26T15:04:14.998Z</time></trkpt><trkpt lat="44.87742488632265" lon="-1.0821215922202512"><ele>25.999999999999996</ele><time>2026-04-26T15:04:16.998Z</time></trkpt><trkpt lat="44.87734298571549" lon="-1.0821731025640204"><ele>26.0</ele><time>2026-04-26T15:04:21.998Z</time></trkpt><trkpt lat="44.877350936359925" lon="-1.0822860682144204"><ele>26.0</ele><time>2026-04-26T15:04:22.998Z</time></trkpt><trkpt lat="44.877319569946245" lon="-1.0823655587416043"><ele>26.0</ele><time>2026-04-26T15:04:23.998Z</time></trkpt><trkpt lat="44.877280902040845" lon="-1.0824635531131035"><ele>25.999999999999996</ele><time>2026-04-26T15:04:24.998Z</time></trkpt><trkpt lat="44.87723741170426" lon="-1.0825719611440563"><ele>26.0</ele><time>2026-04-26T15:04:25.998Z</time></trkpt><trkpt lat="44.877176943151255" lon="-1.0827223131508534"><ele>26.0</ele><time>2026-04-26T15:04:26.998Z</time></trkpt><trkpt lat="44.87709903248557" lon="-1.0828738649453138"><ele>26.0</ele><time>2026-04-26T15:04:27.998Z</time></trkpt><trkpt lat="44.87705220566642" lon="-1.082995376907108"><ele>26.0</ele><time>2026-04-26T15:04:28.998Z</time></trkpt><trkpt lat="44.877006585534566" lon="-1.083145898776917"><ele>26.0</ele><time>2026-04-26T15:04:29.998Z</time></trkpt><trkpt lat="44.876924239152494" lon="-1.0833506489142302"><ele>26.200000000000003</ele><time>2026-04-26T15:04:30.998Z</time></trkpt><trkpt lat="44.87686910538197" lon="-1.083487736249303"><ele>26.400000000000002</ele><time>2026-04-26T15:04:31.998Z</time></trkpt><trkpt lat="44.87683776782751" lon="-1.0835656554952158"><ele>26.6</ele><time>2026-04-26T15:04:32.998Z</time></trkpt><trkpt lat="44.87667740323016" lon="-1.0834817708735751"><ele>26.8</ele><time>2026-04-26T15:04:36.998Z</time></trkpt><trkpt lat="44.87662623004857" lon="-1.083419508140502"><ele>27.0</ele><time>2026-04-26T15:04:38.998Z</time></trkpt><trkpt lat="44.87656615400081" lon="-1.0833787010610285"><ele>27.0</ele><time>2026-04-26T15:04:40.998Z</time></trkpt><trkpt lat="44.8764949569137" lon="-1.0833272840075368"><ele>27.0</ele><time>2026-04-26T15:04:43.998Z</time></trkpt></trkseg></trk></gpx>